<?xml version="1.0" encoding="UTF-8" standalone="no" ?>
<gpx xmlns="http://www.topografix.com/GPX/1/1" xmlns:xsi="http://www.w3.org/2001/XMLSchema-instance" xsi:schemaLocation="http://www.topografix.com/GPX/1/1 http://www.topografix.com/GPX/1/1/gpx.xsd" version="1.1" creator="VisuGPX - https://www.visugpx.com">
  <metadata>
    <name>Dent du Pra, Belle Etoile, Cabotte</name>
  </metadata>
  <trk>
    <name><![CDATA[dent-du-pra-belle-etoile-cabotte]]></name>
    <extensions>
      <line xmlns="http://www.topografix.com/GPX/gpx_style/0/2">
        <color>0000FF</color>
        <width>4</width>
      </line>
    </extensions>
    <trkseg>
      <trkpt lat="45.2663" lon="6.05034">
        <ele>1554.1</ele>
        <time>2024-05-04T05:19:50Z</time>
      </trkpt>
      <trkpt lat="45.26627" lon="6.05032">
        <ele>1555</ele>
        <time>2024-05-04T05:19:54Z</time>
      </trkpt>
      <trkpt lat="45.26622" lon="6.0503">
        <ele>1556.1</ele>
        <time>2024-05-04T05:19:59Z</time>
      </trkpt>
      <trkpt lat="45.26605" lon="6.05036">
        <ele>1555.6</ele>
        <time>2024-05-04T05:20:17Z</time>
      </trkpt>
      <trkpt lat="45.26603" lon="6.05035">
        <ele>1556</ele>
        <time>2024-05-04T05:20:20Z</time>
      </trkpt>
      <trkpt lat="45.26603" lon="6.05035">
        <ele>1556</ele>
        <time>2024-05-04T05:20:21Z</time>
      </trkpt>
      <trkpt lat="45.266" lon="6.05034">
        <ele>1556.5</ele>
        <time>2024-05-04T05:20:26Z</time>
      </trkpt>
      <trkpt lat="45.26599" lon="6.05034">
        <ele>1556.6</ele>
        <time>2024-05-04T05:20:33Z</time>
      </trkpt>
      <trkpt lat="45.26596" lon="6.0503">
        <ele>1558.2</ele>
        <time>2024-05-04T05:20:40Z</time>
      </trkpt>
      <trkpt lat="45.26591" lon="6.05024">
        <ele>1560.9</ele>
        <time>2024-05-04T05:20:47Z</time>
      </trkpt>
      <trkpt lat="45.26589" lon="6.05019">
        <ele>1563.1</ele>
        <time>2024-05-04T05:20:54Z</time>
      </trkpt>
      <trkpt lat="45.26572" lon="6.05018">
        <ele>1563.8</ele>
        <time>2024-05-04T05:21:04Z</time>
      </trkpt>
      <trkpt lat="45.26566" lon="6.05019">
        <ele>1563.2</ele>
        <time>2024-05-04T05:21:10Z</time>
      </trkpt>
      <trkpt lat="45.26562" lon="6.0502">
        <ele>1562.7</ele>
        <time>2024-05-04T05:21:15Z</time>
      </trkpt>
      <trkpt lat="45.26561" lon="6.05021">
        <ele>1562.3</ele>
        <time>2024-05-04T05:21:17Z</time>
      </trkpt>
      <trkpt lat="45.26556" lon="6.05022">
        <ele>1561.7</ele>
        <time>2024-05-04T05:21:22Z</time>
      </trkpt>
      <trkpt lat="45.26555" lon="6.05022">
        <ele>1561.6</ele>
        <time>2024-05-04T05:21:23Z</time>
      </trkpt>
      <trkpt lat="45.2655" lon="6.05022">
        <ele>1561.1</ele>
        <time>2024-05-04T05:21:29Z</time>
      </trkpt>
      <trkpt lat="45.26545" lon="6.05023">
        <ele>1560.2</ele>
        <time>2024-05-04T05:21:35Z</time>
      </trkpt>
      <trkpt lat="45.26542" lon="6.05025">
        <ele>1558.9</ele>
        <time>2024-05-04T05:21:38Z</time>
      </trkpt>
      <trkpt lat="45.26537" lon="6.05027">
        <ele>1557.4</ele>
        <time>2024-05-04T05:21:42Z</time>
      </trkpt>
      <trkpt lat="45.26536" lon="6.05027">
        <ele>1557.3</ele>
        <time>2024-05-04T05:21:43Z</time>
      </trkpt>
      <trkpt lat="45.26529" lon="6.05028">
        <ele>1556</ele>
        <time>2024-05-04T05:21:50Z</time>
      </trkpt>
      <trkpt lat="45.26521" lon="6.05025">
        <ele>1556.7</ele>
        <time>2024-05-04T05:21:58Z</time>
      </trkpt>
      <trkpt lat="45.26503" lon="6.05025">
        <ele>1554.8</ele>
        <time>2024-05-04T05:22:17Z</time>
      </trkpt>
      <trkpt lat="45.26489" lon="6.05025">
        <ele>1553.7</ele>
        <time>2024-05-04T05:22:30Z</time>
      </trkpt>
      <trkpt lat="45.26479" lon="6.0502">
        <ele>1555.7</ele>
        <time>2024-05-04T05:22:42Z</time>
      </trkpt>
      <trkpt lat="45.26475" lon="6.05019">
        <ele>1555.9</ele>
        <time>2024-05-04T05:22:46Z</time>
      </trkpt>
      <trkpt lat="45.26468" lon="6.05016">
        <ele>1557</ele>
        <time>2024-05-04T05:22:55Z</time>
      </trkpt>
      <trkpt lat="45.26464" lon="6.05013">
        <ele>1558.2</ele>
        <time>2024-05-04T05:23:00Z</time>
      </trkpt>
      <trkpt lat="45.26449" lon="6.05003">
        <ele>1562</ele>
        <time>2024-05-04T05:23:13Z</time>
      </trkpt>
      <trkpt lat="45.26442" lon="6.05003">
        <ele>1561.5</ele>
        <time>2024-05-04T05:23:19Z</time>
      </trkpt>
      <trkpt lat="45.26422" lon="6.04987">
        <ele>1569.2</ele>
        <time>2024-05-04T05:23:24Z</time>
      </trkpt>
      <trkpt lat="45.26414" lon="6.04986">
        <ele>1569.9</ele>
        <time>2024-05-04T05:23:29Z</time>
      </trkpt>
      <trkpt lat="45.26411" lon="6.04986">
        <ele>1570.4</ele>
        <time>2024-05-04T05:23:32Z</time>
      </trkpt>
      <trkpt lat="45.26408" lon="6.04987">
        <ele>1570.3</ele>
        <time>2024-05-04T05:23:34Z</time>
      </trkpt>
      <trkpt lat="45.26399" lon="6.04986">
        <ele>1572.1</ele>
        <time>2024-05-04T05:23:40Z</time>
      </trkpt>
      <trkpt lat="45.26385" lon="6.04983">
        <ele>1576</ele>
        <time>2024-05-04T05:23:50Z</time>
      </trkpt>
      <trkpt lat="45.26379" lon="6.04981">
        <ele>1578.6</ele>
        <time>2024-05-04T05:23:54Z</time>
      </trkpt>
      <trkpt lat="45.26377" lon="6.0498">
        <ele>1579.7</ele>
        <time>2024-05-04T05:23:57Z</time>
      </trkpt>
      <trkpt lat="45.26374" lon="6.04979">
        <ele>1581</ele>
        <time>2024-05-04T05:23:59Z</time>
      </trkpt>
      <trkpt lat="45.26366" lon="6.04976">
        <ele>1584.7</ele>
        <time>2024-05-04T05:24:06Z</time>
      </trkpt>
      <trkpt lat="45.2636" lon="6.04977">
        <ele>1585.9</ele>
        <time>2024-05-04T05:24:11Z</time>
      </trkpt>
      <trkpt lat="45.26352" lon="6.04978">
        <ele>1587.7</ele>
        <time>2024-05-04T05:24:18Z</time>
      </trkpt>
      <trkpt lat="45.26342" lon="6.04978">
        <ele>1590.6</ele>
        <time>2024-05-04T05:24:26Z</time>
      </trkpt>
      <trkpt lat="45.26332" lon="6.04978">
        <ele>1593.4</ele>
        <time>2024-05-04T05:24:36Z</time>
      </trkpt>
      <trkpt lat="45.26329" lon="6.04978">
        <ele>1594.1</ele>
        <time>2024-05-04T05:24:40Z</time>
      </trkpt>
      <trkpt lat="45.26326" lon="6.04979">
        <ele>1594.4</ele>
        <time>2024-05-04T05:24:44Z</time>
      </trkpt>
      <trkpt lat="45.26318" lon="6.04977">
        <ele>1597.4</ele>
        <time>2024-05-04T05:24:49Z</time>
      </trkpt>
      <trkpt lat="45.26303" lon="6.0498">
        <ele>1599.2</ele>
        <time>2024-05-04T05:25:02Z</time>
      </trkpt>
      <trkpt lat="45.263" lon="6.04982">
        <ele>1598.5</ele>
        <time>2024-05-04T05:25:05Z</time>
      </trkpt>
      <trkpt lat="45.26295" lon="6.04983">
        <ele>1598.7</ele>
        <time>2024-05-04T05:25:11Z</time>
      </trkpt>
      <trkpt lat="45.26291" lon="6.04984">
        <ele>1598.7</ele>
        <time>2024-05-04T05:25:15Z</time>
      </trkpt>
      <trkpt lat="45.26291" lon="6.04985">
        <ele>1598.2</ele>
        <time>2024-05-04T05:25:16Z</time>
      </trkpt>
      <trkpt lat="45.2629" lon="6.04985">
        <ele>1598.3</ele>
        <time>2024-05-04T05:25:17Z</time>
      </trkpt>
      <trkpt lat="45.26287" lon="6.04986">
        <ele>1598.2</ele>
        <time>2024-05-04T05:25:21Z</time>
      </trkpt>
      <trkpt lat="45.26285" lon="6.04985">
        <ele>1599.1</ele>
        <time>2024-05-04T05:25:25Z</time>
      </trkpt>
      <trkpt lat="45.26283" lon="6.04985">
        <ele>1599.3</ele>
        <time>2024-05-04T05:25:28Z</time>
      </trkpt>
      <trkpt lat="45.26279" lon="6.04984">
        <ele>1600.5</ele>
        <time>2024-05-04T05:25:34Z</time>
      </trkpt>
      <trkpt lat="45.26278" lon="6.04984">
        <ele>1600.6</ele>
        <time>2024-05-04T05:25:36Z</time>
      </trkpt>
      <trkpt lat="45.26275" lon="6.04983">
        <ele>1601.6</ele>
        <time>2024-05-04T05:25:39Z</time>
      </trkpt>
      <trkpt lat="45.26274" lon="6.04982">
        <ele>1602.3</ele>
        <time>2024-05-04T05:25:41Z</time>
      </trkpt>
      <trkpt lat="45.26271" lon="6.04982">
        <ele>1602.8</ele>
        <time>2024-05-04T05:25:46Z</time>
      </trkpt>
      <trkpt lat="45.2627" lon="6.04983">
        <ele>1602.4</ele>
        <time>2024-05-04T05:25:47Z</time>
      </trkpt>
      <trkpt lat="45.26269" lon="6.04983">
        <ele>1602.6</ele>
        <time>2024-05-04T05:25:48Z</time>
      </trkpt>
      <trkpt lat="45.26266" lon="6.04986">
        <ele>1601.5</ele>
        <time>2024-05-04T05:25:53Z</time>
      </trkpt>
      <trkpt lat="45.26265" lon="6.04987">
        <ele>1601.1</ele>
        <time>2024-05-04T05:25:54Z</time>
      </trkpt>
      <trkpt lat="45.26256" lon="6.04986">
        <ele>1603.1</ele>
        <time>2024-05-04T05:25:59Z</time>
      </trkpt>
      <trkpt lat="45.26255" lon="6.04986">
        <ele>1603.2</ele>
        <time>2024-05-04T05:26:00Z</time>
      </trkpt>
      <trkpt lat="45.26253" lon="6.04988">
        <ele>1602.6</ele>
        <time>2024-05-04T05:26:03Z</time>
      </trkpt>
      <trkpt lat="45.26252" lon="6.04989">
        <ele>1602.2</ele>
        <time>2024-05-04T05:26:05Z</time>
      </trkpt>
      <trkpt lat="45.26252" lon="6.04991">
        <ele>1601.2</ele>
        <time>2024-05-04T05:26:06Z</time>
      </trkpt>
      <trkpt lat="45.26251" lon="6.04993">
        <ele>1600.4</ele>
        <time>2024-05-04T05:26:09Z</time>
      </trkpt>
      <trkpt lat="45.26248" lon="6.04996">
        <ele>1599.4</ele>
        <time>2024-05-04T05:26:14Z</time>
      </trkpt>
      <trkpt lat="45.26243" lon="6.04996">
        <ele>1600.3</ele>
        <time>2024-05-04T05:26:20Z</time>
      </trkpt>
      <trkpt lat="45.26239" lon="6.04996">
        <ele>1601</ele>
        <time>2024-05-04T05:26:26Z</time>
      </trkpt>
      <trkpt lat="45.26235" lon="6.04995">
        <ele>1602.2</ele>
        <time>2024-05-04T05:26:31Z</time>
      </trkpt>
      <trkpt lat="45.26233" lon="6.04994">
        <ele>1603.1</ele>
        <time>2024-05-04T05:26:33Z</time>
      </trkpt>
      <trkpt lat="45.26228" lon="6.04991">
        <ele>1605.5</ele>
        <time>2024-05-04T05:26:37Z</time>
      </trkpt>
      <trkpt lat="45.26225" lon="6.04992">
        <ele>1605.5</ele>
        <time>2024-05-04T05:26:42Z</time>
      </trkpt>
      <trkpt lat="45.26224" lon="6.04991">
        <ele>1606.2</ele>
        <time>2024-05-04T05:26:43Z</time>
      </trkpt>
      <trkpt lat="45.2622" lon="6.0499">
        <ele>1607.6</ele>
        <time>2024-05-04T05:26:48Z</time>
      </trkpt>
      <trkpt lat="45.26215" lon="6.04991">
        <ele>1608.3</ele>
        <time>2024-05-04T05:26:53Z</time>
      </trkpt>
      <trkpt lat="45.26214" lon="6.04991">
        <ele>1608.6</ele>
        <time>2024-05-04T05:26:54Z</time>
      </trkpt>
      <trkpt lat="45.26208" lon="6.04989">
        <ele>1611.2</ele>
        <time>2024-05-04T05:26:59Z</time>
      </trkpt>
      <trkpt lat="45.26206" lon="6.04989">
        <ele>1611.7</ele>
        <time>2024-05-04T05:27:00Z</time>
      </trkpt>
      <trkpt lat="45.26198" lon="6.04989">
        <ele>1613.8</ele>
        <time>2024-05-04T05:27:06Z</time>
      </trkpt>
      <trkpt lat="45.26193" lon="6.04992">
        <ele>1612.9</ele>
        <time>2024-05-04T05:27:12Z</time>
      </trkpt>
      <trkpt lat="45.26189" lon="6.04993">
        <ele>1612.2</ele>
        <time>2024-05-04T05:27:17Z</time>
      </trkpt>
      <trkpt lat="45.26182" lon="6.04991">
        <ele>1613.4</ele>
        <time>2024-05-04T05:27:24Z</time>
      </trkpt>
      <trkpt lat="45.26175" lon="6.04991">
        <ele>1613.3</ele>
        <time>2024-05-04T05:27:32Z</time>
      </trkpt>
      <trkpt lat="45.26175" lon="6.04991">
        <ele>1613.3</ele>
        <time>2024-05-04T05:27:33Z</time>
      </trkpt>
      <trkpt lat="45.26173" lon="6.04989">
        <ele>1614.6</ele>
        <time>2024-05-04T05:27:36Z</time>
      </trkpt>
      <trkpt lat="45.26168" lon="6.04988">
        <ele>1615.2</ele>
        <time>2024-05-04T05:27:40Z</time>
      </trkpt>
      <trkpt lat="45.26163" lon="6.04985">
        <ele>1615.5</ele>
        <time>2024-05-04T05:27:47Z</time>
      </trkpt>
      <trkpt lat="45.26162" lon="6.04985">
        <ele>1615</ele>
        <time>2024-05-04T05:27:49Z</time>
      </trkpt>
      <trkpt lat="45.26156" lon="6.04982">
        <ele>1613.8</ele>
        <time>2024-05-04T05:27:55Z</time>
      </trkpt>
      <trkpt lat="45.26155" lon="6.04981">
        <ele>1613.9</ele>
        <time>2024-05-04T05:27:57Z</time>
      </trkpt>
      <trkpt lat="45.26154" lon="6.04979">
        <ele>1614.6</ele>
        <time>2024-05-04T05:28:02Z</time>
      </trkpt>
      <trkpt lat="45.26154" lon="6.04978">
        <ele>1615.2</ele>
        <time>2024-05-04T05:28:03Z</time>
      </trkpt>
      <trkpt lat="45.26153" lon="6.04977">
        <ele>1615.3</ele>
        <time>2024-05-04T05:28:05Z</time>
      </trkpt>
      <trkpt lat="45.2614" lon="6.04961">
        <ele>1615.5</ele>
        <time>2024-05-04T05:28:17Z</time>
      </trkpt>
      <trkpt lat="45.26138" lon="6.04957">
        <ele>1616.1</ele>
        <time>2024-05-04T05:28:19Z</time>
      </trkpt>
      <trkpt lat="45.26136" lon="6.04953">
        <ele>1616.6</ele>
        <time>2024-05-04T05:28:22Z</time>
      </trkpt>
      <trkpt lat="45.26133" lon="6.04941">
        <ele>1620.3</ele>
        <time>2024-05-04T05:28:31Z</time>
      </trkpt>
      <trkpt lat="45.26125" lon="6.04924">
        <ele>1623.2</ele>
        <time>2024-05-04T05:28:42Z</time>
      </trkpt>
      <trkpt lat="45.26124" lon="6.04921">
        <ele>1623.9</ele>
        <time>2024-05-04T05:28:45Z</time>
      </trkpt>
      <trkpt lat="45.26114" lon="6.04903">
        <ele>1624.5</ele>
        <time>2024-05-04T05:28:55Z</time>
      </trkpt>
      <trkpt lat="45.26108" lon="6.04885">
        <ele>1627.4</ele>
        <time>2024-05-04T05:29:06Z</time>
      </trkpt>
      <trkpt lat="45.26103" lon="6.04874">
        <ele>1628.1</ele>
        <time>2024-05-04T05:29:13Z</time>
      </trkpt>
      <trkpt lat="45.26101" lon="6.04869">
        <ele>1628.6</ele>
        <time>2024-05-04T05:29:18Z</time>
      </trkpt>
      <trkpt lat="45.261" lon="6.04867">
        <ele>1628.7</ele>
        <time>2024-05-04T05:29:20Z</time>
      </trkpt>
      <trkpt lat="45.26097" lon="6.04854">
        <ele>1631.2</ele>
        <time>2024-05-04T05:29:32Z</time>
      </trkpt>
      <trkpt lat="45.26091" lon="6.04846">
        <ele>1630.1</ele>
        <time>2024-05-04T05:29:39Z</time>
      </trkpt>
      <trkpt lat="45.26088" lon="6.04837">
        <ele>1631.4</ele>
        <time>2024-05-04T05:29:46Z</time>
      </trkpt>
      <trkpt lat="45.26084" lon="6.0483">
        <ele>1631.6</ele>
        <time>2024-05-04T05:29:53Z</time>
      </trkpt>
      <trkpt lat="45.26079" lon="6.04823">
        <ele>1632.3</ele>
        <time>2024-05-04T05:29:58Z</time>
      </trkpt>
      <trkpt lat="45.26075" lon="6.04816">
        <ele>1633.5</ele>
        <time>2024-05-04T05:30:05Z</time>
      </trkpt>
      <trkpt lat="45.26069" lon="6.0481">
        <ele>1633.8</ele>
        <time>2024-05-04T05:30:12Z</time>
      </trkpt>
      <trkpt lat="45.26068" lon="6.0481">
        <ele>1633.4</ele>
        <time>2024-05-04T05:30:13Z</time>
      </trkpt>
      <trkpt lat="45.26063" lon="6.04808">
        <ele>1632.5</ele>
        <time>2024-05-04T05:30:19Z</time>
      </trkpt>
      <trkpt lat="45.2606" lon="6.04806">
        <ele>1632.3</ele>
        <time>2024-05-04T05:30:20Z</time>
      </trkpt>
      <trkpt lat="45.26055" lon="6.04803">
        <ele>1632.1</ele>
        <time>2024-05-04T05:30:25Z</time>
      </trkpt>
      <trkpt lat="45.26054" lon="6.04803">
        <ele>1632.4</ele>
        <time>2024-05-04T05:30:26Z</time>
      </trkpt>
      <trkpt lat="45.26047" lon="6.048">
        <ele>1635.2</ele>
        <time>2024-05-04T05:30:33Z</time>
      </trkpt>
      <trkpt lat="45.26038" lon="6.04802">
        <ele>1636.7</ele>
        <time>2024-05-04T05:30:40Z</time>
      </trkpt>
      <trkpt lat="45.2603" lon="6.0481">
        <ele>1636</ele>
        <time>2024-05-04T05:30:49Z</time>
      </trkpt>
      <trkpt lat="45.26024" lon="6.04813">
        <ele>1636.7</ele>
        <time>2024-05-04T05:30:55Z</time>
      </trkpt>
      <trkpt lat="45.2602" lon="6.04816">
        <ele>1636.9</ele>
        <time>2024-05-04T05:31:01Z</time>
      </trkpt>
      <trkpt lat="45.26015" lon="6.04822">
        <ele>1636.4</ele>
        <time>2024-05-04T05:31:09Z</time>
      </trkpt>
      <trkpt lat="45.26013" lon="6.04824">
        <ele>1636.3</ele>
        <time>2024-05-04T05:31:12Z</time>
      </trkpt>
      <trkpt lat="45.26012" lon="6.04825">
        <ele>1636.2</ele>
        <time>2024-05-04T05:31:13Z</time>
      </trkpt>
      <trkpt lat="45.26" lon="6.04825">
        <ele>1639.7</ele>
        <time>2024-05-04T05:31:24Z</time>
      </trkpt>
      <trkpt lat="45.2599" lon="6.04818">
        <ele>1641.6</ele>
        <time>2024-05-04T05:31:34Z</time>
      </trkpt>
      <trkpt lat="45.25989" lon="6.04818">
        <ele>1641.6</ele>
        <time>2024-05-04T05:31:35Z</time>
      </trkpt>
      <trkpt lat="45.2598" lon="6.04811">
        <ele>1644</ele>
        <time>2024-05-04T05:31:45Z</time>
      </trkpt>
      <trkpt lat="45.25977" lon="6.04809">
        <ele>1644.7</ele>
        <time>2024-05-04T05:31:50Z</time>
      </trkpt>
      <trkpt lat="45.25976" lon="6.04808">
        <ele>1645.1</ele>
        <time>2024-05-04T05:31:52Z</time>
      </trkpt>
      <trkpt lat="45.25973" lon="6.04807">
        <ele>1645.4</ele>
        <time>2024-05-04T05:31:56Z</time>
      </trkpt>
      <trkpt lat="45.25972" lon="6.04806">
        <ele>1645.8</ele>
        <time>2024-05-04T05:31:57Z</time>
      </trkpt>
      <trkpt lat="45.25971" lon="6.04806">
        <ele>1645.6</ele>
        <time>2024-05-04T05:31:58Z</time>
      </trkpt>
      <trkpt lat="45.25961" lon="6.04802">
        <ele>1645.5</ele>
        <time>2024-05-04T05:32:10Z</time>
      </trkpt>
      <trkpt lat="45.25946" lon="6.04793">
        <ele>1647.1</ele>
        <time>2024-05-04T05:32:18Z</time>
      </trkpt>
      <trkpt lat="45.25945" lon="6.04793">
        <ele>1647</ele>
        <time>2024-05-04T05:32:19Z</time>
      </trkpt>
      <trkpt lat="45.25943" lon="6.04792">
        <ele>1647.2</ele>
        <time>2024-05-04T05:32:22Z</time>
      </trkpt>
      <trkpt lat="45.25934" lon="6.04786">
        <ele>1649</ele>
        <time>2024-05-04T05:32:28Z</time>
      </trkpt>
      <trkpt lat="45.25921" lon="6.04776">
        <ele>1652.3</ele>
        <time>2024-05-04T05:32:38Z</time>
      </trkpt>
      <trkpt lat="45.25907" lon="6.04773">
        <ele>1653.5</ele>
        <time>2024-05-04T05:32:53Z</time>
      </trkpt>
      <trkpt lat="45.25897" lon="6.04773">
        <ele>1653.8</ele>
        <time>2024-05-04T05:33:01Z</time>
      </trkpt>
      <trkpt lat="45.25894" lon="6.04772">
        <ele>1654.4</ele>
        <time>2024-05-04T05:33:03Z</time>
      </trkpt>
      <trkpt lat="45.25886" lon="6.0477">
        <ele>1655.7</ele>
        <time>2024-05-04T05:33:10Z</time>
      </trkpt>
      <trkpt lat="45.25872" lon="6.04763">
        <ele>1660.5</ele>
        <time>2024-05-04T05:33:20Z</time>
      </trkpt>
      <trkpt lat="45.25861" lon="6.04762">
        <ele>1662.3</ele>
        <time>2024-05-04T05:33:31Z</time>
      </trkpt>
      <trkpt lat="45.25859" lon="6.04765">
        <ele>1661.3</ele>
        <time>2024-05-04T05:33:34Z</time>
      </trkpt>
      <trkpt lat="45.25859" lon="6.04765">
        <ele>1661.3</ele>
        <time>2024-05-04T05:33:35Z</time>
      </trkpt>
      <trkpt lat="45.25856" lon="6.04769">
        <ele>1660.2</ele>
        <time>2024-05-04T05:33:39Z</time>
      </trkpt>
      <trkpt lat="45.25852" lon="6.04771">
        <ele>1659.9</ele>
        <time>2024-05-04T05:33:43Z</time>
      </trkpt>
      <trkpt lat="45.25838" lon="6.04771">
        <ele>1661.8</ele>
        <time>2024-05-04T05:33:54Z</time>
      </trkpt>
      <trkpt lat="45.25832" lon="6.04795">
        <ele>1652.5</ele>
        <time>2024-05-04T05:34:04Z</time>
      </trkpt>
      <trkpt lat="45.25819" lon="6.04797">
        <ele>1651.5</ele>
        <time>2024-05-04T05:34:18Z</time>
      </trkpt>
      <trkpt lat="45.25807" lon="6.04794">
        <ele>1652.6</ele>
        <time>2024-05-04T05:34:27Z</time>
      </trkpt>
      <trkpt lat="45.25789" lon="6.04791">
        <ele>1653.2</ele>
        <time>2024-05-04T05:34:40Z</time>
      </trkpt>
      <trkpt lat="45.25785" lon="6.0479">
        <ele>1653.4</ele>
        <time>2024-05-04T05:34:44Z</time>
      </trkpt>
      <trkpt lat="45.25781" lon="6.0479">
        <ele>1653.3</ele>
        <time>2024-05-04T05:34:47Z</time>
      </trkpt>
      <trkpt lat="45.2578" lon="6.04789">
        <ele>1653.6</ele>
        <time>2024-05-04T05:34:48Z</time>
      </trkpt>
      <trkpt lat="45.25769" lon="6.04784">
        <ele>1655.5</ele>
        <time>2024-05-04T05:34:57Z</time>
      </trkpt>
      <trkpt lat="45.25756" lon="6.04785">
        <ele>1655.1</ele>
        <time>2024-05-04T05:35:09Z</time>
      </trkpt>
      <trkpt lat="45.25737" lon="6.04785">
        <ele>1657</ele>
        <time>2024-05-04T05:35:24Z</time>
      </trkpt>
      <trkpt lat="45.25736" lon="6.04785">
        <ele>1657.2</ele>
        <time>2024-05-04T05:35:25Z</time>
      </trkpt>
      <trkpt lat="45.25717" lon="6.04791">
        <ele>1657.1</ele>
        <time>2024-05-04T05:35:41Z</time>
      </trkpt>
      <trkpt lat="45.25716" lon="6.04791">
        <ele>1657.1</ele>
        <time>2024-05-04T05:35:42Z</time>
      </trkpt>
      <trkpt lat="45.25705" lon="6.0479">
        <ele>1658.1</ele>
        <time>2024-05-04T05:35:52Z</time>
      </trkpt>
      <trkpt lat="45.25687" lon="6.04786">
        <ele>1659.7</ele>
        <time>2024-05-04T05:36:07Z</time>
      </trkpt>
      <trkpt lat="45.2568" lon="6.04784">
        <ele>1659.7</ele>
        <time>2024-05-04T05:36:13Z</time>
      </trkpt>
      <trkpt lat="45.25663" lon="6.04775">
        <ele>1660.8</ele>
        <time>2024-05-04T05:36:28Z</time>
      </trkpt>
      <trkpt lat="45.25644" lon="6.04768">
        <ele>1661.2</ele>
        <time>2024-05-04T05:36:43Z</time>
      </trkpt>
      <trkpt lat="45.25628" lon="6.04759">
        <ele>1663.2</ele>
        <time>2024-05-04T05:36:56Z</time>
      </trkpt>
      <trkpt lat="45.25614" lon="6.04758">
        <ele>1662.7</ele>
        <time>2024-05-04T05:37:09Z</time>
      </trkpt>
      <trkpt lat="45.25607" lon="6.04757">
        <ele>1663.2</ele>
        <time>2024-05-04T05:37:16Z</time>
      </trkpt>
      <trkpt lat="45.25607" lon="6.04757">
        <ele>1663.2</ele>
        <time>2024-05-04T05:37:17Z</time>
      </trkpt>
      <trkpt lat="45.25605" lon="6.04757">
        <ele>1663.4</ele>
        <time>2024-05-04T05:37:19Z</time>
      </trkpt>
      <trkpt lat="45.25602" lon="6.04755">
        <ele>1664.1</ele>
        <time>2024-05-04T05:37:24Z</time>
      </trkpt>
      <trkpt lat="45.25602" lon="6.04755">
        <ele>1664.1</ele>
        <time>2024-05-04T05:37:25Z</time>
      </trkpt>
      <trkpt lat="45.25599" lon="6.04753">
        <ele>1664.8</ele>
        <time>2024-05-04T05:37:28Z</time>
      </trkpt>
      <trkpt lat="45.25597" lon="6.04752">
        <ele>1665.2</ele>
        <time>2024-05-04T05:37:30Z</time>
      </trkpt>
      <trkpt lat="45.25596" lon="6.04751">
        <ele>1665.5</ele>
        <time>2024-05-04T05:37:32Z</time>
      </trkpt>
      <trkpt lat="45.25592" lon="6.0475">
        <ele>1666.1</ele>
        <time>2024-05-04T05:37:36Z</time>
      </trkpt>
      <trkpt lat="45.2559" lon="6.04749">
        <ele>1666.5</ele>
        <time>2024-05-04T05:37:38Z</time>
      </trkpt>
      <trkpt lat="45.25588" lon="6.04748">
        <ele>1667</ele>
        <time>2024-05-04T05:37:41Z</time>
      </trkpt>
      <trkpt lat="45.25584" lon="6.04746">
        <ele>1667.8</ele>
        <time>2024-05-04T05:37:46Z</time>
      </trkpt>
      <trkpt lat="45.2558" lon="6.04746">
        <ele>1668</ele>
        <time>2024-05-04T05:37:50Z</time>
      </trkpt>
      <trkpt lat="45.25578" lon="6.04746">
        <ele>1668.1</ele>
        <time>2024-05-04T05:37:53Z</time>
      </trkpt>
      <trkpt lat="45.25575" lon="6.04744">
        <ele>1668.6</ele>
        <time>2024-05-04T05:37:57Z</time>
      </trkpt>
      <trkpt lat="45.25574" lon="6.04743">
        <ele>1668.8</ele>
        <time>2024-05-04T05:37:59Z</time>
      </trkpt>
      <trkpt lat="45.25572" lon="6.04743">
        <ele>1668.9</ele>
        <time>2024-05-04T05:38:01Z</time>
      </trkpt>
      <trkpt lat="45.25569" lon="6.0474">
        <ele>1669.7</ele>
        <time>2024-05-04T05:38:06Z</time>
      </trkpt>
      <trkpt lat="45.25569" lon="6.0474">
        <ele>1669.7</ele>
        <time>2024-05-04T05:38:07Z</time>
      </trkpt>
      <trkpt lat="45.25565" lon="6.04736">
        <ele>1670.7</ele>
        <time>2024-05-04T05:38:12Z</time>
      </trkpt>
      <trkpt lat="45.25557" lon="6.04733">
        <ele>1671.6</ele>
        <time>2024-05-04T05:38:20Z</time>
      </trkpt>
      <trkpt lat="45.25554" lon="6.0473">
        <ele>1672.4</ele>
        <time>2024-05-04T05:38:26Z</time>
      </trkpt>
      <trkpt lat="45.2555" lon="6.04727">
        <ele>1673.5</ele>
        <time>2024-05-04T05:38:34Z</time>
      </trkpt>
      <trkpt lat="45.25543" lon="6.04727">
        <ele>1674.1</ele>
        <time>2024-05-04T05:38:41Z</time>
      </trkpt>
      <trkpt lat="45.25539" lon="6.04717">
        <ele>1676.9</ele>
        <time>2024-05-04T05:38:51Z</time>
      </trkpt>
      <trkpt lat="45.25537" lon="6.04715">
        <ele>1677.5</ele>
        <time>2024-05-04T05:38:56Z</time>
      </trkpt>
      <trkpt lat="45.25535" lon="6.04714">
        <ele>1677.9</ele>
        <time>2024-05-04T05:39:01Z</time>
      </trkpt>
      <trkpt lat="45.25533" lon="6.04714">
        <ele>1678</ele>
        <time>2024-05-04T05:39:07Z</time>
      </trkpt>
      <trkpt lat="45.25529" lon="6.04714">
        <ele>1678.4</ele>
        <time>2024-05-04T05:39:14Z</time>
      </trkpt>
      <trkpt lat="45.25527" lon="6.04713">
        <ele>1678.8</ele>
        <time>2024-05-04T05:39:20Z</time>
      </trkpt>
      <trkpt lat="45.25525" lon="6.0471">
        <ele>1679.9</ele>
        <time>2024-05-04T05:39:25Z</time>
      </trkpt>
      <trkpt lat="45.25523" lon="6.04707">
        <ele>1681</ele>
        <time>2024-05-04T05:39:30Z</time>
      </trkpt>
      <trkpt lat="45.25521" lon="6.04707">
        <ele>1681.5</ele>
        <time>2024-05-04T05:39:35Z</time>
      </trkpt>
      <trkpt lat="45.25519" lon="6.04704">
        <ele>1682.7</ele>
        <time>2024-05-04T05:39:40Z</time>
      </trkpt>
      <trkpt lat="45.25518" lon="6.047">
        <ele>1683.9</ele>
        <time>2024-05-04T05:39:46Z</time>
      </trkpt>
      <trkpt lat="45.25517" lon="6.04698">
        <ele>1684.7</ele>
        <time>2024-05-04T05:39:51Z</time>
      </trkpt>
      <trkpt lat="45.25516" lon="6.04696">
        <ele>1685.4</ele>
        <time>2024-05-04T05:39:56Z</time>
      </trkpt>
      <trkpt lat="45.25515" lon="6.04695">
        <ele>1686</ele>
        <time>2024-05-04T05:40:02Z</time>
      </trkpt>
      <trkpt lat="45.25515" lon="6.04691">
        <ele>1687</ele>
        <time>2024-05-04T05:40:07Z</time>
      </trkpt>
      <trkpt lat="45.25509" lon="6.04688">
        <ele>1689.7</ele>
        <time>2024-05-04T05:40:14Z</time>
      </trkpt>
      <trkpt lat="45.25504" lon="6.04686">
        <ele>1691.8</ele>
        <time>2024-05-04T05:40:19Z</time>
      </trkpt>
      <trkpt lat="45.25502" lon="6.04683">
        <ele>1693.2</ele>
        <time>2024-05-04T05:40:26Z</time>
      </trkpt>
      <trkpt lat="45.25503" lon="6.0468">
        <ele>1693.7</ele>
        <time>2024-05-04T05:40:32Z</time>
      </trkpt>
      <trkpt lat="45.25503" lon="6.04677">
        <ele>1694.4</ele>
        <time>2024-05-04T05:40:37Z</time>
      </trkpt>
      <trkpt lat="45.25502" lon="6.04674">
        <ele>1695.5</ele>
        <time>2024-05-04T05:40:42Z</time>
      </trkpt>
      <trkpt lat="45.25501" lon="6.04671">
        <ele>1696.6</ele>
        <time>2024-05-04T05:40:47Z</time>
      </trkpt>
      <trkpt lat="45.25499" lon="6.04668">
        <ele>1697.9</ele>
        <time>2024-05-04T05:40:53Z</time>
      </trkpt>
      <trkpt lat="45.25497" lon="6.04665">
        <ele>1699</ele>
        <time>2024-05-04T05:40:59Z</time>
      </trkpt>
      <trkpt lat="45.25495" lon="6.04664">
        <ele>1699.7</ele>
        <time>2024-05-04T05:41:04Z</time>
      </trkpt>
      <trkpt lat="45.25493" lon="6.04662">
        <ele>1700.6</ele>
        <time>2024-05-04T05:41:10Z</time>
      </trkpt>
      <trkpt lat="45.2549" lon="6.04658">
        <ele>1702.1</ele>
        <time>2024-05-04T05:41:18Z</time>
      </trkpt>
      <trkpt lat="45.25488" lon="6.04657">
        <ele>1702.8</ele>
        <time>2024-05-04T05:41:23Z</time>
      </trkpt>
      <trkpt lat="45.25485" lon="6.04655">
        <ele>1704</ele>
        <time>2024-05-04T05:41:28Z</time>
      </trkpt>
      <trkpt lat="45.25484" lon="6.04654">
        <ele>1704.5</ele>
        <time>2024-05-04T05:41:34Z</time>
      </trkpt>
      <trkpt lat="45.25483" lon="6.0465">
        <ele>1705.6</ele>
        <time>2024-05-04T05:41:40Z</time>
      </trkpt>
      <trkpt lat="45.25481" lon="6.0465">
        <ele>1706.1</ele>
        <time>2024-05-04T05:41:45Z</time>
      </trkpt>
      <trkpt lat="45.25479" lon="6.04651">
        <ele>1706.3</ele>
        <time>2024-05-04T05:41:50Z</time>
      </trkpt>
      <trkpt lat="45.25478" lon="6.04652">
        <ele>1706.3</ele>
        <time>2024-05-04T05:41:54Z</time>
      </trkpt>
      <trkpt lat="45.25476" lon="6.0465">
        <ele>1707.3</ele>
        <time>2024-05-04T05:42:05Z</time>
      </trkpt>
      <trkpt lat="45.25471" lon="6.04651">
        <ele>1708.1</ele>
        <time>2024-05-04T05:43:46Z</time>
      </trkpt>
      <trkpt lat="45.25467" lon="6.04642">
        <ele>1711.1</ele>
        <time>2024-05-04T05:44:45Z</time>
      </trkpt>
      <trkpt lat="45.2546" lon="6.04634">
        <ele>1714.2</ele>
        <time>2024-05-04T05:44:54Z</time>
      </trkpt>
      <trkpt lat="45.25458" lon="6.04624">
        <ele>1716.5</ele>
        <time>2024-05-04T05:45:06Z</time>
      </trkpt>
      <trkpt lat="45.25453" lon="6.04621">
        <ele>1718.1</ele>
        <time>2024-05-04T05:45:12Z</time>
      </trkpt>
      <trkpt lat="45.2545" lon="6.04619">
        <ele>1719.2</ele>
        <time>2024-05-04T05:45:16Z</time>
      </trkpt>
      <trkpt lat="45.25449" lon="6.04616">
        <ele>1720</ele>
        <time>2024-05-04T05:45:20Z</time>
      </trkpt>
      <trkpt lat="45.25447" lon="6.04614">
        <ele>1720.8</ele>
        <time>2024-05-04T05:45:25Z</time>
      </trkpt>
      <trkpt lat="45.25446" lon="6.0461">
        <ele>1721.8</ele>
        <time>2024-05-04T05:45:30Z</time>
      </trkpt>
      <trkpt lat="45.25442" lon="6.04605">
        <ele>1723.4</ele>
        <time>2024-05-04T05:45:37Z</time>
      </trkpt>
      <trkpt lat="45.25441" lon="6.04602">
        <ele>1724</ele>
        <time>2024-05-04T05:45:41Z</time>
      </trkpt>
      <trkpt lat="45.25438" lon="6.04596">
        <ele>1725.6</ele>
        <time>2024-05-04T05:45:46Z</time>
      </trkpt>
      <trkpt lat="45.25438" lon="6.04589">
        <ele>1726.7</ele>
        <time>2024-05-04T05:45:53Z</time>
      </trkpt>
      <trkpt lat="45.25436" lon="6.04583">
        <ele>1728.2</ele>
        <time>2024-05-04T05:46:00Z</time>
      </trkpt>
      <trkpt lat="45.25435" lon="6.04581">
        <ele>1728.7</ele>
        <time>2024-05-04T05:46:04Z</time>
      </trkpt>
      <trkpt lat="45.25433" lon="6.04577">
        <ele>1729.8</ele>
        <time>2024-05-04T05:46:10Z</time>
      </trkpt>
      <trkpt lat="45.25432" lon="6.04575">
        <ele>1730.3</ele>
        <time>2024-05-04T05:46:17Z</time>
      </trkpt>
      <trkpt lat="45.25427" lon="6.04569">
        <ele>1732.5</ele>
        <time>2024-05-04T05:46:24Z</time>
      </trkpt>
      <trkpt lat="45.25425" lon="6.04566">
        <ele>1733.4</ele>
        <time>2024-05-04T05:46:28Z</time>
      </trkpt>
      <trkpt lat="45.25421" lon="6.04563">
        <ele>1734.8</ele>
        <time>2024-05-04T05:46:34Z</time>
      </trkpt>
      <trkpt lat="45.25419" lon="6.04561">
        <ele>1735.6</ele>
        <time>2024-05-04T05:46:39Z</time>
      </trkpt>
      <trkpt lat="45.25417" lon="6.04558">
        <ele>1736.6</ele>
        <time>2024-05-04T05:46:44Z</time>
      </trkpt>
      <trkpt lat="45.25415" lon="6.04555">
        <ele>1737.5</ele>
        <time>2024-05-04T05:46:49Z</time>
      </trkpt>
      <trkpt lat="45.25413" lon="6.0455">
        <ele>1738.8</ele>
        <time>2024-05-04T05:47:03Z</time>
      </trkpt>
      <trkpt lat="45.25412" lon="6.04545">
        <ele>1739.9</ele>
        <time>2024-05-04T05:47:07Z</time>
      </trkpt>
      <trkpt lat="45.25412" lon="6.04544">
        <ele>1740.1</ele>
        <time>2024-05-04T05:47:08Z</time>
      </trkpt>
      <trkpt lat="45.25411" lon="6.0454">
        <ele>1741</ele>
        <time>2024-05-04T05:47:11Z</time>
      </trkpt>
      <trkpt lat="45.2541" lon="6.0454">
        <ele>1741.2</ele>
        <time>2024-05-04T05:47:12Z</time>
      </trkpt>
      <trkpt lat="45.25408" lon="6.04534">
        <ele>1742.8</ele>
        <time>2024-05-04T05:47:20Z</time>
      </trkpt>
      <trkpt lat="45.25407" lon="6.04532">
        <ele>1743.3</ele>
        <time>2024-05-04T05:47:24Z</time>
      </trkpt>
      <trkpt lat="45.25405" lon="6.04529">
        <ele>1744.3</ele>
        <time>2024-05-04T05:47:28Z</time>
      </trkpt>
      <trkpt lat="45.25403" lon="6.04523">
        <ele>1745.6</ele>
        <time>2024-05-04T05:47:34Z</time>
      </trkpt>
      <trkpt lat="45.254" lon="6.04518">
        <ele>1747</ele>
        <time>2024-05-04T05:47:39Z</time>
      </trkpt>
      <trkpt lat="45.25398" lon="6.04514">
        <ele>1748</ele>
        <time>2024-05-04T05:47:44Z</time>
      </trkpt>
      <trkpt lat="45.25397" lon="6.0451">
        <ele>1748.8</ele>
        <time>2024-05-04T05:47:48Z</time>
      </trkpt>
      <trkpt lat="45.25396" lon="6.04505">
        <ele>1749.7</ele>
        <time>2024-05-04T05:47:53Z</time>
      </trkpt>
      <trkpt lat="45.25395" lon="6.04501">
        <ele>1750.5</ele>
        <time>2024-05-04T05:47:58Z</time>
      </trkpt>
      <trkpt lat="45.25391" lon="6.04497">
        <ele>1752.1</ele>
        <time>2024-05-04T05:48:04Z</time>
      </trkpt>
      <trkpt lat="45.25388" lon="6.04496">
        <ele>1752.9</ele>
        <time>2024-05-04T05:48:08Z</time>
      </trkpt>
      <trkpt lat="45.25385" lon="6.04495">
        <ele>1753.7</ele>
        <time>2024-05-04T05:48:12Z</time>
      </trkpt>
      <trkpt lat="45.25382" lon="6.04494">
        <ele>1754.6</ele>
        <time>2024-05-04T05:48:17Z</time>
      </trkpt>
      <trkpt lat="45.25379" lon="6.04493">
        <ele>1755.4</ele>
        <time>2024-05-04T05:48:22Z</time>
      </trkpt>
      <trkpt lat="45.25374" lon="6.04493">
        <ele>1756.5</ele>
        <time>2024-05-04T05:48:28Z</time>
      </trkpt>
      <trkpt lat="45.25372" lon="6.04491">
        <ele>1757.3</ele>
        <time>2024-05-04T05:48:33Z</time>
      </trkpt>
      <trkpt lat="45.25369" lon="6.0449">
        <ele>1758.1</ele>
        <time>2024-05-04T05:48:38Z</time>
      </trkpt>
      <trkpt lat="45.25365" lon="6.04491">
        <ele>1758.8</ele>
        <time>2024-05-04T05:48:43Z</time>
      </trkpt>
      <trkpt lat="45.2536" lon="6.04491">
        <ele>1759.8</ele>
        <time>2024-05-04T05:48:49Z</time>
      </trkpt>
      <trkpt lat="45.25355" lon="6.0449">
        <ele>1760.8</ele>
        <time>2024-05-04T05:48:56Z</time>
      </trkpt>
      <trkpt lat="45.25351" lon="6.04488">
        <ele>1761.9</ele>
        <time>2024-05-04T05:49:02Z</time>
      </trkpt>
      <trkpt lat="45.25347" lon="6.04486">
        <ele>1763.1</ele>
        <time>2024-05-04T05:49:08Z</time>
      </trkpt>
      <trkpt lat="45.25344" lon="6.04487">
        <ele>1763.4</ele>
        <time>2024-05-04T05:49:13Z</time>
      </trkpt>
      <trkpt lat="45.25339" lon="6.04485">
        <ele>1764.7</ele>
        <time>2024-05-04T05:49:20Z</time>
      </trkpt>
      <trkpt lat="45.25333" lon="6.04482">
        <ele>1766.6</ele>
        <time>2024-05-04T05:49:27Z</time>
      </trkpt>
      <trkpt lat="45.25329" lon="6.0448">
        <ele>1767.5</ele>
        <time>2024-05-04T05:49:32Z</time>
      </trkpt>
      <trkpt lat="45.25323" lon="6.04476">
        <ele>1769.2</ele>
        <time>2024-05-04T05:49:41Z</time>
      </trkpt>
      <trkpt lat="45.25319" lon="6.04475">
        <ele>1769.8</ele>
        <time>2024-05-04T05:49:46Z</time>
      </trkpt>
      <trkpt lat="45.25314" lon="6.04473">
        <ele>1770.9</ele>
        <time>2024-05-04T05:49:52Z</time>
      </trkpt>
      <trkpt lat="45.25306" lon="6.04469">
        <ele>1772.8</ele>
        <time>2024-05-04T05:50:01Z</time>
      </trkpt>
      <trkpt lat="45.25301" lon="6.04467">
        <ele>1774.1</ele>
        <time>2024-05-04T05:50:08Z</time>
      </trkpt>
      <trkpt lat="45.25297" lon="6.04463">
        <ele>1775.7</ele>
        <time>2024-05-04T05:50:15Z</time>
      </trkpt>
      <trkpt lat="45.25292" lon="6.0446">
        <ele>1777.1</ele>
        <time>2024-05-04T05:50:23Z</time>
      </trkpt>
      <trkpt lat="45.25289" lon="6.04458">
        <ele>1778</ele>
        <time>2024-05-04T05:50:28Z</time>
      </trkpt>
      <trkpt lat="45.25284" lon="6.04456">
        <ele>1779.1</ele>
        <time>2024-05-04T05:50:35Z</time>
      </trkpt>
      <trkpt lat="45.25279" lon="6.04453">
        <ele>1780.3</ele>
        <time>2024-05-04T05:50:41Z</time>
      </trkpt>
      <trkpt lat="45.25275" lon="6.04452">
        <ele>1781.3</ele>
        <time>2024-05-04T05:50:46Z</time>
      </trkpt>
      <trkpt lat="45.25273" lon="6.04451">
        <ele>1782</ele>
        <time>2024-05-04T05:50:51Z</time>
      </trkpt>
      <trkpt lat="45.25269" lon="6.04449">
        <ele>1783.4</ele>
        <time>2024-05-04T05:50:56Z</time>
      </trkpt>
      <trkpt lat="45.25266" lon="6.04449">
        <ele>1784.1</ele>
        <time>2024-05-04T05:51:00Z</time>
      </trkpt>
      <trkpt lat="45.25263" lon="6.04447">
        <ele>1785.3</ele>
        <time>2024-05-04T05:51:05Z</time>
      </trkpt>
      <trkpt lat="45.2526" lon="6.04448">
        <ele>1785.8</ele>
        <time>2024-05-04T05:51:10Z</time>
      </trkpt>
      <trkpt lat="45.25257" lon="6.04446">
        <ele>1787</ele>
        <time>2024-05-04T05:51:14Z</time>
      </trkpt>
      <trkpt lat="45.25255" lon="6.04444">
        <ele>1787.8</ele>
        <time>2024-05-04T05:51:19Z</time>
      </trkpt>
      <trkpt lat="45.25251" lon="6.04442">
        <ele>1789.3</ele>
        <time>2024-05-04T05:51:25Z</time>
      </trkpt>
      <trkpt lat="45.25246" lon="6.04441">
        <ele>1791.1</ele>
        <time>2024-05-04T05:51:32Z</time>
      </trkpt>
      <trkpt lat="45.25244" lon="6.04441">
        <ele>1791.8</ele>
        <time>2024-05-04T05:51:36Z</time>
      </trkpt>
      <trkpt lat="45.25241" lon="6.04439">
        <ele>1793.2</ele>
        <time>2024-05-04T05:51:41Z</time>
      </trkpt>
      <trkpt lat="45.25239" lon="6.04437">
        <ele>1794.2</ele>
        <time>2024-05-04T05:51:45Z</time>
      </trkpt>
      <trkpt lat="45.25237" lon="6.04436">
        <ele>1795.1</ele>
        <time>2024-05-04T05:51:49Z</time>
      </trkpt>
      <trkpt lat="45.25233" lon="6.04433">
        <ele>1796.8</ele>
        <time>2024-05-04T05:51:55Z</time>
      </trkpt>
      <trkpt lat="45.25229" lon="6.04429">
        <ele>1798.6</ele>
        <time>2024-05-04T05:52:02Z</time>
      </trkpt>
      <trkpt lat="45.25227" lon="6.04427">
        <ele>1799.5</ele>
        <time>2024-05-04T05:52:07Z</time>
      </trkpt>
      <trkpt lat="45.25223" lon="6.04424">
        <ele>1801</ele>
        <time>2024-05-04T05:52:13Z</time>
      </trkpt>
      <trkpt lat="45.25221" lon="6.04422">
        <ele>1801.7</ele>
        <time>2024-05-04T05:52:17Z</time>
      </trkpt>
      <trkpt lat="45.25218" lon="6.04419">
        <ele>1802.8</ele>
        <time>2024-05-04T05:52:22Z</time>
      </trkpt>
      <trkpt lat="45.25215" lon="6.04415">
        <ele>1804.1</ele>
        <time>2024-05-04T05:52:27Z</time>
      </trkpt>
      <trkpt lat="45.25212" lon="6.04412">
        <ele>1805.3</ele>
        <time>2024-05-04T05:52:32Z</time>
      </trkpt>
      <trkpt lat="45.25208" lon="6.04409">
        <ele>1806.7</ele>
        <time>2024-05-04T05:52:38Z</time>
      </trkpt>
      <trkpt lat="45.25205" lon="6.04406">
        <ele>1807.8</ele>
        <time>2024-05-04T05:52:43Z</time>
      </trkpt>
      <trkpt lat="45.25202" lon="6.04406">
        <ele>1808.5</ele>
        <time>2024-05-04T05:52:47Z</time>
      </trkpt>
      <trkpt lat="45.25199" lon="6.04405">
        <ele>1809.2</ele>
        <time>2024-05-04T05:52:51Z</time>
      </trkpt>
      <trkpt lat="45.25195" lon="6.04401">
        <ele>1810.6</ele>
        <time>2024-05-04T05:52:57Z</time>
      </trkpt>
      <trkpt lat="45.25192" lon="6.04401">
        <ele>1811.2</ele>
        <time>2024-05-04T05:53:01Z</time>
      </trkpt>
      <trkpt lat="45.25189" lon="6.04401">
        <ele>1811.9</ele>
        <time>2024-05-04T05:53:06Z</time>
      </trkpt>
      <trkpt lat="45.25186" lon="6.04398">
        <ele>1812.8</ele>
        <time>2024-05-04T05:53:12Z</time>
      </trkpt>
      <trkpt lat="45.25181" lon="6.04393">
        <ele>1814.5</ele>
        <time>2024-05-04T05:53:18Z</time>
      </trkpt>
      <trkpt lat="45.25176" lon="6.04387">
        <ele>1816.3</ele>
        <time>2024-05-04T05:53:25Z</time>
      </trkpt>
      <trkpt lat="45.25173" lon="6.04383">
        <ele>1817.5</ele>
        <time>2024-05-04T05:53:30Z</time>
      </trkpt>
      <trkpt lat="45.25169" lon="6.04381">
        <ele>1818.7</ele>
        <time>2024-05-04T05:53:36Z</time>
      </trkpt>
      <trkpt lat="45.25166" lon="6.0438">
        <ele>1819.4</ele>
        <time>2024-05-04T05:53:41Z</time>
      </trkpt>
      <trkpt lat="45.25161" lon="6.04379">
        <ele>1820.2</ele>
        <time>2024-05-04T05:53:47Z</time>
      </trkpt>
      <trkpt lat="45.25157" lon="6.04377">
        <ele>1821.1</ele>
        <time>2024-05-04T05:53:53Z</time>
      </trkpt>
      <trkpt lat="45.25152" lon="6.04374">
        <ele>1822.3</ele>
        <time>2024-05-04T05:53:59Z</time>
      </trkpt>
      <trkpt lat="45.25147" lon="6.04371">
        <ele>1823.4</ele>
        <time>2024-05-04T05:54:06Z</time>
      </trkpt>
      <trkpt lat="45.25142" lon="6.04368">
        <ele>1824.6</ele>
        <time>2024-05-04T05:54:12Z</time>
      </trkpt>
      <trkpt lat="45.25139" lon="6.04367">
        <ele>1825.1</ele>
        <time>2024-05-04T05:54:17Z</time>
      </trkpt>
      <trkpt lat="45.25136" lon="6.04364">
        <ele>1826</ele>
        <time>2024-05-04T05:54:23Z</time>
      </trkpt>
      <trkpt lat="45.25131" lon="6.04363">
        <ele>1826.9</ele>
        <time>2024-05-04T05:54:30Z</time>
      </trkpt>
      <trkpt lat="45.25127" lon="6.04361">
        <ele>1827.7</ele>
        <time>2024-05-04T05:54:34Z</time>
      </trkpt>
      <trkpt lat="45.25123" lon="6.04358">
        <ele>1828.8</ele>
        <time>2024-05-04T05:54:39Z</time>
      </trkpt>
      <trkpt lat="45.25118" lon="6.04356">
        <ele>1829.9</ele>
        <time>2024-05-04T05:54:46Z</time>
      </trkpt>
      <trkpt lat="45.25115" lon="6.04355">
        <ele>1830.5</ele>
        <time>2024-05-04T05:54:52Z</time>
      </trkpt>
      <trkpt lat="45.25111" lon="6.04356">
        <ele>1830.9</ele>
        <time>2024-05-04T05:54:58Z</time>
      </trkpt>
      <trkpt lat="45.25107" lon="6.04355">
        <ele>1832</ele>
        <time>2024-05-04T05:55:03Z</time>
      </trkpt>
      <trkpt lat="45.25103" lon="6.04351">
        <ele>1833.5</ele>
        <time>2024-05-04T05:55:10Z</time>
      </trkpt>
      <trkpt lat="45.25097" lon="6.04348">
        <ele>1835.2</ele>
        <time>2024-05-04T05:55:17Z</time>
      </trkpt>
      <trkpt lat="45.25091" lon="6.04347">
        <ele>1836.5</ele>
        <time>2024-05-04T05:55:24Z</time>
      </trkpt>
      <trkpt lat="45.25086" lon="6.04345">
        <ele>1837.8</ele>
        <time>2024-05-04T05:55:30Z</time>
      </trkpt>
      <trkpt lat="45.25084" lon="6.04345">
        <ele>1838.2</ele>
        <time>2024-05-04T05:55:33Z</time>
      </trkpt>
      <trkpt lat="45.25083" lon="6.04344">
        <ele>1838.5</ele>
        <time>2024-05-04T05:55:34Z</time>
      </trkpt>
      <trkpt lat="45.25081" lon="6.04344">
        <ele>1839</ele>
        <time>2024-05-04T05:55:37Z</time>
      </trkpt>
      <trkpt lat="45.25077" lon="6.04343">
        <ele>1840.1</ele>
        <time>2024-05-04T05:55:43Z</time>
      </trkpt>
      <trkpt lat="45.25076" lon="6.04343">
        <ele>1840.4</ele>
        <time>2024-05-04T05:55:45Z</time>
      </trkpt>
      <trkpt lat="45.25072" lon="6.04342">
        <ele>1841.5</ele>
        <time>2024-05-04T05:55:52Z</time>
      </trkpt>
      <trkpt lat="45.25069" lon="6.04339">
        <ele>1842.7</ele>
        <time>2024-05-04T05:55:56Z</time>
      </trkpt>
      <trkpt lat="45.25065" lon="6.04337">
        <ele>1844</ele>
        <time>2024-05-04T05:56:02Z</time>
      </trkpt>
      <trkpt lat="45.2506" lon="6.04333">
        <ele>1845.9</ele>
        <time>2024-05-04T05:56:08Z</time>
      </trkpt>
      <trkpt lat="45.25057" lon="6.04332">
        <ele>1846.9</ele>
        <time>2024-05-04T05:56:11Z</time>
      </trkpt>
      <trkpt lat="45.25054" lon="6.0433">
        <ele>1848</ele>
        <time>2024-05-04T05:56:15Z</time>
      </trkpt>
      <trkpt lat="45.2505" lon="6.04327">
        <ele>1849.5</ele>
        <time>2024-05-04T05:56:19Z</time>
      </trkpt>
      <trkpt lat="45.25049" lon="6.04327">
        <ele>1849.8</ele>
        <time>2024-05-04T05:56:20Z</time>
      </trkpt>
      <trkpt lat="45.25048" lon="6.04327">
        <ele>1850</ele>
        <time>2024-05-04T05:56:21Z</time>
      </trkpt>
      <trkpt lat="45.25047" lon="6.04328">
        <ele>1850.1</ele>
        <time>2024-05-04T05:56:23Z</time>
      </trkpt>
      <trkpt lat="45.25046" lon="6.04328">
        <ele>1850.4</ele>
        <time>2024-05-04T05:56:25Z</time>
      </trkpt>
      <trkpt lat="45.25043" lon="6.04328">
        <ele>1851.1</ele>
        <time>2024-05-04T05:56:30Z</time>
      </trkpt>
      <trkpt lat="45.2504" lon="6.04328">
        <ele>1851.9</ele>
        <time>2024-05-04T05:56:35Z</time>
      </trkpt>
      <trkpt lat="45.25038" lon="6.0433">
        <ele>1852</ele>
        <time>2024-05-04T05:56:40Z</time>
      </trkpt>
      <trkpt lat="45.25034" lon="6.04331">
        <ele>1852.9</ele>
        <time>2024-05-04T05:56:45Z</time>
      </trkpt>
      <trkpt lat="45.25029" lon="6.04328">
        <ele>1854.7</ele>
        <time>2024-05-04T05:56:50Z</time>
      </trkpt>
      <trkpt lat="45.25027" lon="6.04326">
        <ele>1855.5</ele>
        <time>2024-05-04T05:56:55Z</time>
      </trkpt>
      <trkpt lat="45.25024" lon="6.04324">
        <ele>1856.7</ele>
        <time>2024-05-04T05:56:59Z</time>
      </trkpt>
      <trkpt lat="45.25021" lon="6.04322">
        <ele>1857.8</ele>
        <time>2024-05-04T05:57:04Z</time>
      </trkpt>
      <trkpt lat="45.25018" lon="6.04322">
        <ele>1858.6</ele>
        <time>2024-05-04T05:57:09Z</time>
      </trkpt>
      <trkpt lat="45.25016" lon="6.04319">
        <ele>1859.5</ele>
        <time>2024-05-04T05:57:13Z</time>
      </trkpt>
      <trkpt lat="45.25013" lon="6.04317">
        <ele>1860.6</ele>
        <time>2024-05-04T05:57:18Z</time>
      </trkpt>
      <trkpt lat="45.2501" lon="6.04313">
        <ele>1861.8</ele>
        <time>2024-05-04T05:57:24Z</time>
      </trkpt>
      <trkpt lat="45.25008" lon="6.0431">
        <ele>1862.7</ele>
        <time>2024-05-04T05:57:29Z</time>
      </trkpt>
      <trkpt lat="45.25005" lon="6.04307">
        <ele>1863.7</ele>
        <time>2024-05-04T05:57:34Z</time>
      </trkpt>
      <trkpt lat="45.25003" lon="6.04304">
        <ele>1864.7</ele>
        <time>2024-05-04T05:57:39Z</time>
      </trkpt>
      <trkpt lat="45.25001" lon="6.04301">
        <ele>1865.9</ele>
        <time>2024-05-04T05:57:44Z</time>
      </trkpt>
      <trkpt lat="45.25" lon="6.04295">
        <ele>1867.7</ele>
        <time>2024-05-04T05:57:51Z</time>
      </trkpt>
      <trkpt lat="45.25" lon="6.0429">
        <ele>1868.9</ele>
        <time>2024-05-04T05:57:56Z</time>
      </trkpt>
      <trkpt lat="45.24999" lon="6.04286">
        <ele>1870.1</ele>
        <time>2024-05-04T05:58:01Z</time>
      </trkpt>
      <trkpt lat="45.24999" lon="6.04281">
        <ele>1871.4</ele>
        <time>2024-05-04T05:58:05Z</time>
      </trkpt>
      <trkpt lat="45.25" lon="6.04276">
        <ele>1872.4</ele>
        <time>2024-05-04T05:58:10Z</time>
      </trkpt>
      <trkpt lat="45.25" lon="6.04272">
        <ele>1873.2</ele>
        <time>2024-05-04T05:58:16Z</time>
      </trkpt>
      <trkpt lat="45.24997" lon="6.04271">
        <ele>1874</ele>
        <time>2024-05-04T05:58:22Z</time>
      </trkpt>
      <trkpt lat="45.24994" lon="6.04269">
        <ele>1875</ele>
        <time>2024-05-04T05:58:27Z</time>
      </trkpt>
      <trkpt lat="45.24991" lon="6.04266">
        <ele>1876.3</ele>
        <time>2024-05-04T05:58:32Z</time>
      </trkpt>
      <trkpt lat="45.24989" lon="6.04262">
        <ele>1877.6</ele>
        <time>2024-05-04T05:58:38Z</time>
      </trkpt>
      <trkpt lat="45.2499" lon="6.04258">
        <ele>1878.3</ele>
        <time>2024-05-04T05:58:43Z</time>
      </trkpt>
      <trkpt lat="45.24989" lon="6.04254">
        <ele>1879.5</ele>
        <time>2024-05-04T05:58:49Z</time>
      </trkpt>
      <trkpt lat="45.24989" lon="6.04249">
        <ele>1880.6</ele>
        <time>2024-05-04T05:58:55Z</time>
      </trkpt>
      <trkpt lat="45.24987" lon="6.04246">
        <ele>1881.7</ele>
        <time>2024-05-04T05:59:00Z</time>
      </trkpt>
      <trkpt lat="45.24984" lon="6.04245">
        <ele>1882.6</ele>
        <time>2024-05-04T05:59:05Z</time>
      </trkpt>
      <trkpt lat="45.2498" lon="6.04242">
        <ele>1884.1</ele>
        <time>2024-05-04T05:59:11Z</time>
      </trkpt>
      <trkpt lat="45.24976" lon="6.04241">
        <ele>1885.2</ele>
        <time>2024-05-04T05:59:17Z</time>
      </trkpt>
      <trkpt lat="45.24972" lon="6.04241">
        <ele>1886</ele>
        <time>2024-05-04T05:59:22Z</time>
      </trkpt>
      <trkpt lat="45.24969" lon="6.04239">
        <ele>1887.2</ele>
        <time>2024-05-04T05:59:28Z</time>
      </trkpt>
      <trkpt lat="45.24966" lon="6.04238">
        <ele>1888.2</ele>
        <time>2024-05-04T05:59:32Z</time>
      </trkpt>
      <trkpt lat="45.24963" lon="6.04237">
        <ele>1889.2</ele>
        <time>2024-05-04T05:59:37Z</time>
      </trkpt>
      <trkpt lat="45.24959" lon="6.04236">
        <ele>1890.4</ele>
        <time>2024-05-04T05:59:42Z</time>
      </trkpt>
      <trkpt lat="45.24957" lon="6.04234">
        <ele>1891.2</ele>
        <time>2024-05-04T05:59:46Z</time>
      </trkpt>
      <trkpt lat="45.24951" lon="6.04232">
        <ele>1893</ele>
        <time>2024-05-04T05:59:54Z</time>
      </trkpt>
      <trkpt lat="45.24947" lon="6.04228">
        <ele>1894.6</ele>
        <time>2024-05-04T06:00:00Z</time>
      </trkpt>
      <trkpt lat="45.24945" lon="6.04225">
        <ele>1895.5</ele>
        <time>2024-05-04T06:00:04Z</time>
      </trkpt>
      <trkpt lat="45.24941" lon="6.04221">
        <ele>1897</ele>
        <time>2024-05-04T06:00:10Z</time>
      </trkpt>
      <trkpt lat="45.24939" lon="6.0422">
        <ele>1897.7</ele>
        <time>2024-05-04T06:00:15Z</time>
      </trkpt>
      <trkpt lat="45.24936" lon="6.04218">
        <ele>1898.7</ele>
        <time>2024-05-04T06:00:20Z</time>
      </trkpt>
      <trkpt lat="45.24933" lon="6.04215">
        <ele>1899.9</ele>
        <time>2024-05-04T06:00:27Z</time>
      </trkpt>
      <trkpt lat="45.24931" lon="6.04212">
        <ele>1900.9</ele>
        <time>2024-05-04T06:00:32Z</time>
      </trkpt>
      <trkpt lat="45.24928" lon="6.04209">
        <ele>1902</ele>
        <time>2024-05-04T06:00:37Z</time>
      </trkpt>
      <trkpt lat="45.24925" lon="6.04206">
        <ele>1903.2</ele>
        <time>2024-05-04T06:00:42Z</time>
      </trkpt>
      <trkpt lat="45.24922" lon="6.04204">
        <ele>1904.3</ele>
        <time>2024-05-04T06:00:47Z</time>
      </trkpt>
      <trkpt lat="45.2492" lon="6.042">
        <ele>1905.4</ele>
        <time>2024-05-04T06:00:52Z</time>
      </trkpt>
      <trkpt lat="45.24916" lon="6.04196">
        <ele>1907</ele>
        <time>2024-05-04T06:00:58Z</time>
      </trkpt>
      <trkpt lat="45.24912" lon="6.04194">
        <ele>1908.4</ele>
        <time>2024-05-04T06:01:04Z</time>
      </trkpt>
      <trkpt lat="45.24908" lon="6.04192">
        <ele>1909.7</ele>
        <time>2024-05-04T06:01:08Z</time>
      </trkpt>
      <trkpt lat="45.24907" lon="6.04191">
        <ele>1910.1</ele>
        <time>2024-05-04T06:01:10Z</time>
      </trkpt>
      <trkpt lat="45.24904" lon="6.04189">
        <ele>1911.1</ele>
        <time>2024-05-04T06:01:15Z</time>
      </trkpt>
      <trkpt lat="45.24902" lon="6.04188">
        <ele>1911.8</ele>
        <time>2024-05-04T06:01:20Z</time>
      </trkpt>
      <trkpt lat="45.24898" lon="6.04186">
        <ele>1913.1</ele>
        <time>2024-05-04T06:01:26Z</time>
      </trkpt>
      <trkpt lat="45.24895" lon="6.04184">
        <ele>1914.1</ele>
        <time>2024-05-04T06:01:31Z</time>
      </trkpt>
      <trkpt lat="45.24892" lon="6.04182">
        <ele>1915.1</ele>
        <time>2024-05-04T06:01:36Z</time>
      </trkpt>
      <trkpt lat="45.24889" lon="6.04181">
        <ele>1915.9</ele>
        <time>2024-05-04T06:01:40Z</time>
      </trkpt>
      <trkpt lat="45.24885" lon="6.04179">
        <ele>1917.3</ele>
        <time>2024-05-04T06:01:45Z</time>
      </trkpt>
      <trkpt lat="45.24882" lon="6.04175">
        <ele>1918.6</ele>
        <time>2024-05-04T06:01:50Z</time>
      </trkpt>
      <trkpt lat="45.24878" lon="6.04171">
        <ele>1920.2</ele>
        <time>2024-05-04T06:01:56Z</time>
      </trkpt>
      <trkpt lat="45.24876" lon="6.0417">
        <ele>1920.9</ele>
        <time>2024-05-04T06:02:01Z</time>
      </trkpt>
      <trkpt lat="45.24874" lon="6.04168">
        <ele>1921.7</ele>
        <time>2024-05-04T06:02:06Z</time>
      </trkpt>
      <trkpt lat="45.2487" lon="6.04167">
        <ele>1923.1</ele>
        <time>2024-05-04T06:02:11Z</time>
      </trkpt>
      <trkpt lat="45.24867" lon="6.04164">
        <ele>1924.3</ele>
        <time>2024-05-04T06:02:17Z</time>
      </trkpt>
      <trkpt lat="45.24864" lon="6.04162">
        <ele>1925.4</ele>
        <time>2024-05-04T06:02:22Z</time>
      </trkpt>
      <trkpt lat="45.24861" lon="6.04159">
        <ele>1926.6</ele>
        <time>2024-05-04T06:02:27Z</time>
      </trkpt>
      <trkpt lat="45.24858" lon="6.04158">
        <ele>1927.6</ele>
        <time>2024-05-04T06:02:32Z</time>
      </trkpt>
      <trkpt lat="45.24855" lon="6.04156">
        <ele>1928.7</ele>
        <time>2024-05-04T06:02:38Z</time>
      </trkpt>
      <trkpt lat="45.24852" lon="6.04154">
        <ele>1929.9</ele>
        <time>2024-05-04T06:02:43Z</time>
      </trkpt>
      <trkpt lat="45.24848" lon="6.04154">
        <ele>1931.2</ele>
        <time>2024-05-04T06:02:49Z</time>
      </trkpt>
      <trkpt lat="45.24844" lon="6.04152">
        <ele>1932.6</ele>
        <time>2024-05-04T06:02:55Z</time>
      </trkpt>
      <trkpt lat="45.24841" lon="6.0415">
        <ele>1933.7</ele>
        <time>2024-05-04T06:03:00Z</time>
      </trkpt>
      <trkpt lat="45.24838" lon="6.04147">
        <ele>1934.9</ele>
        <time>2024-05-04T06:03:05Z</time>
      </trkpt>
      <trkpt lat="45.24836" lon="6.04144">
        <ele>1935.8</ele>
        <time>2024-05-04T06:03:09Z</time>
      </trkpt>
      <trkpt lat="45.24833" lon="6.04139">
        <ele>1937.1</ele>
        <time>2024-05-04T06:03:15Z</time>
      </trkpt>
      <trkpt lat="45.24833" lon="6.04138">
        <ele>1937.2</ele>
        <time>2024-05-04T06:03:16Z</time>
      </trkpt>
      <trkpt lat="45.24832" lon="6.04136">
        <ele>1937.6</ele>
        <time>2024-05-04T06:03:18Z</time>
      </trkpt>
      <trkpt lat="45.2483" lon="6.04134">
        <ele>1938.4</ele>
        <time>2024-05-04T06:03:21Z</time>
      </trkpt>
      <trkpt lat="45.24828" lon="6.04129">
        <ele>1939.4</ele>
        <time>2024-05-04T06:03:26Z</time>
      </trkpt>
      <trkpt lat="45.24827" lon="6.04125">
        <ele>1940.1</ele>
        <time>2024-05-04T06:03:31Z</time>
      </trkpt>
      <trkpt lat="45.24824" lon="6.04119">
        <ele>1941.5</ele>
        <time>2024-05-04T06:03:39Z</time>
      </trkpt>
      <trkpt lat="45.24822" lon="6.04115">
        <ele>1942.4</ele>
        <time>2024-05-04T06:03:45Z</time>
      </trkpt>
      <trkpt lat="45.24821" lon="6.04111">
        <ele>1943</ele>
        <time>2024-05-04T06:03:50Z</time>
      </trkpt>
      <trkpt lat="45.2482" lon="6.04106">
        <ele>1943.7</ele>
        <time>2024-05-04T06:03:56Z</time>
      </trkpt>
      <trkpt lat="45.24818" lon="6.04103">
        <ele>1944.6</ele>
        <time>2024-05-04T06:04:02Z</time>
      </trkpt>
      <trkpt lat="45.24815" lon="6.04103">
        <ele>1945.5</ele>
        <time>2024-05-04T06:04:06Z</time>
      </trkpt>
      <trkpt lat="45.24812" lon="6.04103">
        <ele>1946.5</ele>
        <time>2024-05-04T06:04:12Z</time>
      </trkpt>
      <trkpt lat="45.24809" lon="6.04102">
        <ele>1947.5</ele>
        <time>2024-05-04T06:04:17Z</time>
      </trkpt>
      <trkpt lat="45.24805" lon="6.041">
        <ele>1949</ele>
        <time>2024-05-04T06:04:22Z</time>
      </trkpt>
      <trkpt lat="45.24802" lon="6.04099">
        <ele>1950.2</ele>
        <time>2024-05-04T06:04:28Z</time>
      </trkpt>
      <trkpt lat="45.24798" lon="6.04098">
        <ele>1951.7</ele>
        <time>2024-05-04T06:04:34Z</time>
      </trkpt>
      <trkpt lat="45.24796" lon="6.04098">
        <ele>1952.4</ele>
        <time>2024-05-04T06:04:38Z</time>
      </trkpt>
      <trkpt lat="45.24792" lon="6.04098">
        <ele>1953.8</ele>
        <time>2024-05-04T06:04:44Z</time>
      </trkpt>
      <trkpt lat="45.24789" lon="6.04099">
        <ele>1954.8</ele>
        <time>2024-05-04T06:04:49Z</time>
      </trkpt>
      <trkpt lat="45.24786" lon="6.041">
        <ele>1955.8</ele>
        <time>2024-05-04T06:04:55Z</time>
      </trkpt>
      <trkpt lat="45.24783" lon="6.041">
        <ele>1956.9</ele>
        <time>2024-05-04T06:05:00Z</time>
      </trkpt>
      <trkpt lat="45.24781" lon="6.04102">
        <ele>1957.5</ele>
        <time>2024-05-04T06:05:05Z</time>
      </trkpt>
      <trkpt lat="45.24777" lon="6.04104">
        <ele>1958.8</ele>
        <time>2024-05-04T06:05:12Z</time>
      </trkpt>
      <trkpt lat="45.24775" lon="6.04106">
        <ele>1959.5</ele>
        <time>2024-05-04T06:05:16Z</time>
      </trkpt>
      <trkpt lat="45.24771" lon="6.04108">
        <ele>1960.9</ele>
        <time>2024-05-04T06:05:24Z</time>
      </trkpt>
      <trkpt lat="45.24767" lon="6.04112">
        <ele>1962.2</ele>
        <time>2024-05-04T06:05:31Z</time>
      </trkpt>
      <trkpt lat="45.24764" lon="6.04114">
        <ele>1963.2</ele>
        <time>2024-05-04T06:05:37Z</time>
      </trkpt>
      <trkpt lat="45.24761" lon="6.04113">
        <ele>1964.5</ele>
        <time>2024-05-04T06:05:42Z</time>
      </trkpt>
      <trkpt lat="45.24759" lon="6.04108">
        <ele>1965.7</ele>
        <time>2024-05-04T06:05:48Z</time>
      </trkpt>
      <trkpt lat="45.24757" lon="6.041">
        <ele>1967.3</ele>
        <time>2024-05-04T06:05:56Z</time>
      </trkpt>
      <trkpt lat="45.24756" lon="6.04093">
        <ele>1968.4</ele>
        <time>2024-05-04T06:06:04Z</time>
      </trkpt>
      <trkpt lat="45.24755" lon="6.04088">
        <ele>1969.4</ele>
        <time>2024-05-04T06:06:10Z</time>
      </trkpt>
      <trkpt lat="45.24753" lon="6.04082">
        <ele>1970.8</ele>
        <time>2024-05-04T06:06:17Z</time>
      </trkpt>
      <trkpt lat="45.24752" lon="6.04076">
        <ele>1971.7</ele>
        <time>2024-05-04T06:06:23Z</time>
      </trkpt>
      <trkpt lat="45.24751" lon="6.04069">
        <ele>1972.6</ele>
        <time>2024-05-04T06:06:30Z</time>
      </trkpt>
      <trkpt lat="45.24751" lon="6.04067">
        <ele>1972.7</ele>
        <time>2024-05-04T06:06:32Z</time>
      </trkpt>
      <trkpt lat="45.24751" lon="6.0406">
        <ele>1973.2</ele>
        <time>2024-05-04T06:06:39Z</time>
      </trkpt>
      <trkpt lat="45.24751" lon="6.04054">
        <ele>1973.7</ele>
        <time>2024-05-04T06:06:45Z</time>
      </trkpt>
      <trkpt lat="45.2475" lon="6.04048">
        <ele>1974.8</ele>
        <time>2024-05-04T06:06:52Z</time>
      </trkpt>
      <trkpt lat="45.24748" lon="6.04042">
        <ele>1976.3</ele>
        <time>2024-05-04T06:07:00Z</time>
      </trkpt>
      <trkpt lat="45.24747" lon="6.04036">
        <ele>1977.4</ele>
        <time>2024-05-04T06:07:07Z</time>
      </trkpt>
      <trkpt lat="45.24747" lon="6.0403">
        <ele>1978.1</ele>
        <time>2024-05-04T06:07:15Z</time>
      </trkpt>
      <trkpt lat="45.24746" lon="6.04025">
        <ele>1979.1</ele>
        <time>2024-05-04T06:07:21Z</time>
      </trkpt>
      <trkpt lat="45.24745" lon="6.04019">
        <ele>1980.4</ele>
        <time>2024-05-04T06:07:28Z</time>
      </trkpt>
      <trkpt lat="45.24744" lon="6.04014">
        <ele>1981.5</ele>
        <time>2024-05-04T06:07:34Z</time>
      </trkpt>
      <trkpt lat="45.24745" lon="6.04007">
        <ele>1982</ele>
        <time>2024-05-04T06:07:42Z</time>
      </trkpt>
      <trkpt lat="45.24745" lon="6.04002">
        <ele>1982.7</ele>
        <time>2024-05-04T06:07:47Z</time>
      </trkpt>
      <trkpt lat="45.24744" lon="6.03996">
        <ele>1984.7</ele>
        <time>2024-05-04T06:07:54Z</time>
      </trkpt>
      <trkpt lat="45.24743" lon="6.03995">
        <ele>1985.4</ele>
        <time>2024-05-04T06:07:58Z</time>
      </trkpt>
      <trkpt lat="45.24741" lon="6.03996">
        <ele>1985.9</ele>
        <time>2024-05-04T06:08:01Z</time>
      </trkpt>
      <trkpt lat="45.24739" lon="6.03997">
        <ele>1986.3</ele>
        <time>2024-05-04T06:08:07Z</time>
      </trkpt>
      <trkpt lat="45.24735" lon="6.04">
        <ele>1986.9</ele>
        <time>2024-05-04T06:08:13Z</time>
      </trkpt>
      <trkpt lat="45.24732" lon="6.04002">
        <ele>1987.9</ele>
        <time>2024-05-04T06:08:20Z</time>
      </trkpt>
      <trkpt lat="45.24726" lon="6.04004">
        <ele>1990.1</ele>
        <time>2024-05-04T06:08:27Z</time>
      </trkpt>
      <trkpt lat="45.24724" lon="6.04006">
        <ele>1990.6</ele>
        <time>2024-05-04T06:08:33Z</time>
      </trkpt>
      <trkpt lat="45.2472" lon="6.04008">
        <ele>1992.2</ele>
        <time>2024-05-04T06:08:40Z</time>
      </trkpt>
      <trkpt lat="45.24718" lon="6.04009">
        <ele>1993</ele>
        <time>2024-05-04T06:08:45Z</time>
      </trkpt>
      <trkpt lat="45.24715" lon="6.0401">
        <ele>1994.3</ele>
        <time>2024-05-04T06:08:52Z</time>
      </trkpt>
      <trkpt lat="45.24714" lon="6.0401">
        <ele>1994.8</ele>
        <time>2024-05-04T06:09:00Z</time>
      </trkpt>
      <trkpt lat="45.24711" lon="6.04012">
        <ele>1996</ele>
        <time>2024-05-04T06:09:06Z</time>
      </trkpt>
      <trkpt lat="45.24707" lon="6.04014">
        <ele>1997.6</ele>
        <time>2024-05-04T06:09:13Z</time>
      </trkpt>
      <trkpt lat="45.24706" lon="6.04012">
        <ele>1998.3</ele>
        <time>2024-05-04T06:09:18Z</time>
      </trkpt>
      <trkpt lat="45.24705" lon="6.04007">
        <ele>1999.3</ele>
        <time>2024-05-04T06:09:27Z</time>
      </trkpt>
      <trkpt lat="45.24705" lon="6.04002">
        <ele>1999.8</ele>
        <time>2024-05-04T06:09:33Z</time>
      </trkpt>
      <trkpt lat="45.24704" lon="6.03997">
        <ele>2001.1</ele>
        <time>2024-05-04T06:09:39Z</time>
      </trkpt>
      <trkpt lat="45.24702" lon="6.03991">
        <ele>2003</ele>
        <time>2024-05-04T06:09:49Z</time>
      </trkpt>
      <trkpt lat="45.24702" lon="6.03986">
        <ele>2003.9</ele>
        <time>2024-05-04T06:09:56Z</time>
      </trkpt>
      <trkpt lat="45.24702" lon="6.03981">
        <ele>2004.8</ele>
        <time>2024-05-04T06:10:02Z</time>
      </trkpt>
      <trkpt lat="45.24702" lon="6.03976">
        <ele>2005.6</ele>
        <time>2024-05-04T06:10:09Z</time>
      </trkpt>
      <trkpt lat="45.24701" lon="6.03971">
        <ele>2007</ele>
        <time>2024-05-04T06:10:16Z</time>
      </trkpt>
      <trkpt lat="45.24702" lon="6.03969">
        <ele>2007.3</ele>
        <time>2024-05-04T06:10:20Z</time>
      </trkpt>
      <trkpt lat="45.24702" lon="6.03964">
        <ele>2009</ele>
        <time>2024-05-04T06:10:26Z</time>
      </trkpt>
      <trkpt lat="45.24702" lon="6.03959">
        <ele>2010.6</ele>
        <time>2024-05-04T06:10:33Z</time>
      </trkpt>
      <trkpt lat="45.24702" lon="6.03953">
        <ele>2012.6</ele>
        <time>2024-05-04T06:10:40Z</time>
      </trkpt>
      <trkpt lat="45.24701" lon="6.0395">
        <ele>2013.8</ele>
        <time>2024-05-04T06:10:47Z</time>
      </trkpt>
      <trkpt lat="45.24697" lon="6.03951">
        <ele>2014.5</ele>
        <time>2024-05-04T06:10:52Z</time>
      </trkpt>
      <trkpt lat="45.24694" lon="6.03952">
        <ele>2015</ele>
        <time>2024-05-04T06:10:59Z</time>
      </trkpt>
      <trkpt lat="45.2469" lon="6.03953">
        <ele>2016.2</ele>
        <time>2024-05-04T06:11:06Z</time>
      </trkpt>
      <trkpt lat="45.24685" lon="6.03954">
        <ele>2017.8</ele>
        <time>2024-05-04T06:11:12Z</time>
      </trkpt>
      <trkpt lat="45.24683" lon="6.03955">
        <ele>2018.3</ele>
        <time>2024-05-04T06:11:19Z</time>
      </trkpt>
      <trkpt lat="45.24676" lon="6.03959">
        <ele>2020.2</ele>
        <time>2024-05-04T06:11:28Z</time>
      </trkpt>
      <trkpt lat="45.24672" lon="6.03963">
        <ele>2021.1</ele>
        <time>2024-05-04T06:11:35Z</time>
      </trkpt>
      <trkpt lat="45.24668" lon="6.03966">
        <ele>2022.3</ele>
        <time>2024-05-04T06:11:40Z</time>
      </trkpt>
      <trkpt lat="45.24663" lon="6.03967">
        <ele>2024.5</ele>
        <time>2024-05-04T06:11:47Z</time>
      </trkpt>
      <trkpt lat="45.2466" lon="6.03968">
        <ele>2025.7</ele>
        <time>2024-05-04T06:11:53Z</time>
      </trkpt>
      <trkpt lat="45.24656" lon="6.03969">
        <ele>2027.5</ele>
        <time>2024-05-04T06:11:59Z</time>
      </trkpt>
      <trkpt lat="45.24656" lon="6.03969">
        <ele>2027.5</ele>
        <time>2024-05-04T06:12:00Z</time>
      </trkpt>
      <trkpt lat="45.24654" lon="6.03971">
        <ele>2028.1</ele>
        <time>2024-05-04T06:12:05Z</time>
      </trkpt>
      <trkpt lat="45.24651" lon="6.03973">
        <ele>2029.2</ele>
        <time>2024-05-04T06:12:11Z</time>
      </trkpt>
      <trkpt lat="45.24648" lon="6.03974">
        <ele>2030.5</ele>
        <time>2024-05-04T06:12:18Z</time>
      </trkpt>
      <trkpt lat="45.24646" lon="6.03975">
        <ele>2031.4</ele>
        <time>2024-05-04T06:12:23Z</time>
      </trkpt>
      <trkpt lat="45.24643" lon="6.03976">
        <ele>2032.7</ele>
        <time>2024-05-04T06:12:30Z</time>
      </trkpt>
      <trkpt lat="45.24639" lon="6.03978">
        <ele>2034.3</ele>
        <time>2024-05-04T06:12:36Z</time>
      </trkpt>
      <trkpt lat="45.24637" lon="6.03979">
        <ele>2035.3</ele>
        <time>2024-05-04T06:12:42Z</time>
      </trkpt>
      <trkpt lat="45.24635" lon="6.03981">
        <ele>2036.2</ele>
        <time>2024-05-04T06:12:48Z</time>
      </trkpt>
      <trkpt lat="45.24635" lon="6.03975">
        <ele>2036.8</ele>
        <time>2024-05-04T06:12:56Z</time>
      </trkpt>
      <trkpt lat="45.24635" lon="6.03972">
        <ele>2037.1</ele>
        <time>2024-05-04T06:12:59Z</time>
      </trkpt>
      <trkpt lat="45.24634" lon="6.03967">
        <ele>2038.4</ele>
        <time>2024-05-04T06:13:06Z</time>
      </trkpt>
      <trkpt lat="45.24632" lon="6.03963">
        <ele>2040</ele>
        <time>2024-05-04T06:13:12Z</time>
      </trkpt>
      <trkpt lat="45.24631" lon="6.03959">
        <ele>2041.2</ele>
        <time>2024-05-04T06:13:18Z</time>
      </trkpt>
      <trkpt lat="45.24629" lon="6.03956">
        <ele>2042.7</ele>
        <time>2024-05-04T06:13:25Z</time>
      </trkpt>
      <trkpt lat="45.24628" lon="6.03953">
        <ele>2043.6</ele>
        <time>2024-05-04T06:13:31Z</time>
      </trkpt>
      <trkpt lat="45.24626" lon="6.03949">
        <ele>2045.3</ele>
        <time>2024-05-04T06:13:36Z</time>
      </trkpt>
      <trkpt lat="45.24625" lon="6.03943">
        <ele>2046.7</ele>
        <time>2024-05-04T06:13:43Z</time>
      </trkpt>
      <trkpt lat="45.24625" lon="6.0394">
        <ele>2047.1</ele>
        <time>2024-05-04T06:13:48Z</time>
      </trkpt>
      <trkpt lat="45.24623" lon="6.03942">
        <ele>2047.9</ele>
        <time>2024-05-04T06:13:53Z</time>
      </trkpt>
      <trkpt lat="45.24621" lon="6.03945">
        <ele>2048.6</ele>
        <time>2024-05-04T06:13:58Z</time>
      </trkpt>
      <trkpt lat="45.24618" lon="6.03948">
        <ele>2049.8</ele>
        <time>2024-05-04T06:14:03Z</time>
      </trkpt>
      <trkpt lat="45.24616" lon="6.0395">
        <ele>2050.6</ele>
        <time>2024-05-04T06:14:06Z</time>
      </trkpt>
      <trkpt lat="45.24614" lon="6.03952">
        <ele>2051.4</ele>
        <time>2024-05-04T06:14:10Z</time>
      </trkpt>
      <trkpt lat="45.24609" lon="6.03958">
        <ele>2053.4</ele>
        <time>2024-05-04T06:14:23Z</time>
      </trkpt>
      <trkpt lat="45.24607" lon="6.03963">
        <ele>2053.9</ele>
        <time>2024-05-04T06:14:29Z</time>
      </trkpt>
      <trkpt lat="45.24604" lon="6.03967">
        <ele>2055.2</ele>
        <time>2024-05-04T06:14:35Z</time>
      </trkpt>
      <trkpt lat="45.24601" lon="6.0397">
        <ele>2056.6</ele>
        <time>2024-05-04T06:14:41Z</time>
      </trkpt>
      <trkpt lat="45.24598" lon="6.03974">
        <ele>2057.8</ele>
        <time>2024-05-04T06:14:49Z</time>
      </trkpt>
      <trkpt lat="45.24596" lon="6.03977">
        <ele>2058.5</ele>
        <time>2024-05-04T06:14:54Z</time>
      </trkpt>
      <trkpt lat="45.24596" lon="6.03982">
        <ele>2057.8</ele>
        <time>2024-05-04T06:15:03Z</time>
      </trkpt>
      <trkpt lat="45.24593" lon="6.03986">
        <ele>2058.9</ele>
        <time>2024-05-04T06:15:10Z</time>
      </trkpt>
      <trkpt lat="45.24591" lon="6.03988">
        <ele>2059.8</ele>
        <time>2024-05-04T06:15:14Z</time>
      </trkpt>
      <trkpt lat="45.24588" lon="6.0399">
        <ele>2061.2</ele>
        <time>2024-05-04T06:15:19Z</time>
      </trkpt>
      <trkpt lat="45.24586" lon="6.03995">
        <ele>2061.4</ele>
        <time>2024-05-04T06:15:27Z</time>
      </trkpt>
      <trkpt lat="45.24582" lon="6.04">
        <ele>2062.9</ele>
        <time>2024-05-04T06:15:33Z</time>
      </trkpt>
      <trkpt lat="45.24579" lon="6.04004">
        <ele>2064.9</ele>
        <time>2024-05-04T06:15:40Z</time>
      </trkpt>
      <trkpt lat="45.24576" lon="6.04007">
        <ele>2067</ele>
        <time>2024-05-04T06:15:46Z</time>
      </trkpt>
      <trkpt lat="45.24573" lon="6.04001">
        <ele>2068.7</ele>
        <time>2024-05-04T06:15:57Z</time>
      </trkpt>
      <trkpt lat="45.24573" lon="6.03994">
        <ele>2069.5</ele>
        <time>2024-05-04T06:16:05Z</time>
      </trkpt>
      <trkpt lat="45.24572" lon="6.03989">
        <ele>2070.8</ele>
        <time>2024-05-04T06:16:11Z</time>
      </trkpt>
      <trkpt lat="45.24571" lon="6.03985">
        <ele>2072</ele>
        <time>2024-05-04T06:16:17Z</time>
      </trkpt>
      <trkpt lat="45.24571" lon="6.03981">
        <ele>2072.5</ele>
        <time>2024-05-04T06:16:23Z</time>
      </trkpt>
      <trkpt lat="45.24569" lon="6.03975">
        <ele>2074.4</ele>
        <time>2024-05-04T06:16:31Z</time>
      </trkpt>
      <trkpt lat="45.24569" lon="6.03971">
        <ele>2075.1</ele>
        <time>2024-05-04T06:16:37Z</time>
      </trkpt>
      <trkpt lat="45.24568" lon="6.03971">
        <ele>2075.6</ele>
        <time>2024-05-04T06:16:43Z</time>
      </trkpt>
      <trkpt lat="45.24567" lon="6.03973">
        <ele>2075.7</ele>
        <time>2024-05-04T06:16:47Z</time>
      </trkpt>
      <trkpt lat="45.24564" lon="6.03975">
        <ele>2077.1</ele>
        <time>2024-05-04T06:16:53Z</time>
      </trkpt>
      <trkpt lat="45.24562" lon="6.03979">
        <ele>2077.9</ele>
        <time>2024-05-04T06:16:58Z</time>
      </trkpt>
      <trkpt lat="45.24557" lon="6.03984">
        <ele>2080.3</ele>
        <time>2024-05-04T06:17:08Z</time>
      </trkpt>
      <trkpt lat="45.24555" lon="6.03985">
        <ele>2081.5</ele>
        <time>2024-05-04T06:17:14Z</time>
      </trkpt>
      <trkpt lat="45.24553" lon="6.03986">
        <ele>2082.9</ele>
        <time>2024-05-04T06:17:20Z</time>
      </trkpt>
      <trkpt lat="45.24553" lon="6.03979">
        <ele>2083.2</ele>
        <time>2024-05-04T06:17:33Z</time>
      </trkpt>
      <trkpt lat="45.24552" lon="6.03977">
        <ele>2083.9</ele>
        <time>2024-05-04T06:17:39Z</time>
      </trkpt>
      <trkpt lat="45.2455" lon="6.03979">
        <ele>2085.2</ele>
        <time>2024-05-04T06:17:45Z</time>
      </trkpt>
      <trkpt lat="45.24546" lon="6.03979">
        <ele>2087.8</ele>
        <time>2024-05-04T06:17:53Z</time>
      </trkpt>
      <trkpt lat="45.24546" lon="6.03973">
        <ele>2087.5</ele>
        <time>2024-05-04T06:18:00Z</time>
      </trkpt>
      <trkpt lat="45.24546" lon="6.03969">
        <ele>2088.4</ele>
        <time>2024-05-04T06:18:04Z</time>
      </trkpt>
      <trkpt lat="45.24546" lon="6.03966">
        <ele>2089.3</ele>
        <time>2024-05-04T06:18:07Z</time>
      </trkpt>
      <trkpt lat="45.24545" lon="6.03961">
        <ele>2091.3</ele>
        <time>2024-05-04T06:18:15Z</time>
      </trkpt>
      <trkpt lat="45.24545" lon="6.03955">
        <ele>2093</ele>
        <time>2024-05-04T06:18:21Z</time>
      </trkpt>
      <trkpt lat="45.24545" lon="6.03949">
        <ele>2094.7</ele>
        <time>2024-05-04T06:18:28Z</time>
      </trkpt>
      <trkpt lat="45.24544" lon="6.03951">
        <ele>2094.6</ele>
        <time>2024-05-04T06:18:33Z</time>
      </trkpt>
      <trkpt lat="45.24541" lon="6.03955">
        <ele>2095</ele>
        <time>2024-05-04T06:18:39Z</time>
      </trkpt>
      <trkpt lat="45.24538" lon="6.03959">
        <ele>2095.5</ele>
        <time>2024-05-04T06:18:45Z</time>
      </trkpt>
      <trkpt lat="45.24534" lon="6.03963">
        <ele>2096.6</ele>
        <time>2024-05-04T06:18:51Z</time>
      </trkpt>
      <trkpt lat="45.24533" lon="6.03959">
        <ele>2098.1</ele>
        <time>2024-05-04T06:18:58Z</time>
      </trkpt>
      <trkpt lat="45.24534" lon="6.03953">
        <ele>2099</ele>
        <time>2024-05-04T06:19:03Z</time>
      </trkpt>
      <trkpt lat="45.24534" lon="6.03951">
        <ele>2099.5</ele>
        <time>2024-05-04T06:19:05Z</time>
      </trkpt>
      <trkpt lat="45.24533" lon="6.03945">
        <ele>2101.4</ele>
        <time>2024-05-04T06:19:13Z</time>
      </trkpt>
      <trkpt lat="45.24535" lon="6.03939">
        <ele>2102.5</ele>
        <time>2024-05-04T06:19:19Z</time>
      </trkpt>
      <trkpt lat="45.24537" lon="6.03936">
        <ele>2102.5</ele>
        <time>2024-05-04T06:19:24Z</time>
      </trkpt>
      <trkpt lat="45.24539" lon="6.03933">
        <ele>2102.5</ele>
        <time>2024-05-04T06:19:30Z</time>
      </trkpt>
      <trkpt lat="45.24542" lon="6.03929">
        <ele>2102.3</ele>
        <time>2024-05-04T06:19:38Z</time>
      </trkpt>
      <trkpt lat="45.24543" lon="6.03926">
        <ele>2102.8</ele>
        <time>2024-05-04T06:19:43Z</time>
      </trkpt>
      <trkpt lat="45.24544" lon="6.03923">
        <ele>2103.2</ele>
        <time>2024-05-04T06:19:48Z</time>
      </trkpt>
      <trkpt lat="45.24543" lon="6.03917">
        <ele>2105.7</ele>
        <time>2024-05-04T06:19:54Z</time>
      </trkpt>
      <trkpt lat="45.24543" lon="6.03913">
        <ele>2106.6</ele>
        <time>2024-05-04T06:19:59Z</time>
      </trkpt>
      <trkpt lat="45.24543" lon="6.03908">
        <ele>2107.6</ele>
        <time>2024-05-04T06:20:06Z</time>
      </trkpt>
      <trkpt lat="45.24543" lon="6.03902">
        <ele>2108.9</ele>
        <time>2024-05-04T06:20:12Z</time>
      </trkpt>
      <trkpt lat="45.24542" lon="6.03897">
        <ele>2110.6</ele>
        <time>2024-05-04T06:20:19Z</time>
      </trkpt>
      <trkpt lat="45.24541" lon="6.03892">
        <ele>2112.2</ele>
        <time>2024-05-04T06:20:26Z</time>
      </trkpt>
      <trkpt lat="45.2454" lon="6.03887">
        <ele>2113.9</ele>
        <time>2024-05-04T06:20:32Z</time>
      </trkpt>
      <trkpt lat="45.2454" lon="6.03883">
        <ele>2114.8</ele>
        <time>2024-05-04T06:20:37Z</time>
      </trkpt>
      <trkpt lat="45.24539" lon="6.03885">
        <ele>2115</ele>
        <time>2024-05-04T06:20:41Z</time>
      </trkpt>
      <trkpt lat="45.24538" lon="6.03886">
        <ele>2115.4</ele>
        <time>2024-05-04T06:20:43Z</time>
      </trkpt>
      <trkpt lat="45.24536" lon="6.03889">
        <ele>2115.9</ele>
        <time>2024-05-04T06:20:48Z</time>
      </trkpt>
      <trkpt lat="45.24535" lon="6.0389">
        <ele>2116.3</ele>
        <time>2024-05-04T06:20:52Z</time>
      </trkpt>
      <trkpt lat="45.24532" lon="6.03892">
        <ele>2117.7</ele>
        <time>2024-05-04T06:20:57Z</time>
      </trkpt>
      <trkpt lat="45.24528" lon="6.03894">
        <ele>2119.6</ele>
        <time>2024-05-04T06:21:02Z</time>
      </trkpt>
      <trkpt lat="45.24523" lon="6.03897">
        <ele>2121.1</ele>
        <time>2024-05-04T06:21:09Z</time>
      </trkpt>
      <trkpt lat="45.24521" lon="6.03899">
        <ele>2121.5</ele>
        <time>2024-05-04T06:21:13Z</time>
      </trkpt>
      <trkpt lat="45.24517" lon="6.039">
        <ele>2123.1</ele>
        <time>2024-05-04T06:21:19Z</time>
      </trkpt>
      <trkpt lat="45.24515" lon="6.03901">
        <ele>2123.7</ele>
        <time>2024-05-04T06:21:25Z</time>
      </trkpt>
      <trkpt lat="45.24515" lon="6.03897">
        <ele>2124.8</ele>
        <time>2024-05-04T06:21:30Z</time>
      </trkpt>
      <trkpt lat="45.24516" lon="6.03893">
        <ele>2125.4</ele>
        <time>2024-05-04T06:21:34Z</time>
      </trkpt>
      <trkpt lat="45.24515" lon="6.03881">
        <ele>2128.6</ele>
        <time>2024-05-04T06:21:46Z</time>
      </trkpt>
      <trkpt lat="45.24515" lon="6.03874">
        <ele>2129.9</ele>
        <time>2024-05-04T06:21:53Z</time>
      </trkpt>
      <trkpt lat="45.24515" lon="6.0387">
        <ele>2130.7</ele>
        <time>2024-05-04T06:21:59Z</time>
      </trkpt>
      <trkpt lat="45.24515" lon="6.03867">
        <ele>2131.3</ele>
        <time>2024-05-04T06:22:03Z</time>
      </trkpt>
      <trkpt lat="45.24515" lon="6.03864">
        <ele>2131.9</ele>
        <time>2024-05-04T06:22:08Z</time>
      </trkpt>
      <trkpt lat="45.24514" lon="6.0386">
        <ele>2133.2</ele>
        <time>2024-05-04T06:22:13Z</time>
      </trkpt>
      <trkpt lat="45.24514" lon="6.03855">
        <ele>2134.2</ele>
        <time>2024-05-04T06:22:20Z</time>
      </trkpt>
      <trkpt lat="45.24514" lon="6.03851">
        <ele>2135</ele>
        <time>2024-05-04T06:22:25Z</time>
      </trkpt>
      <trkpt lat="45.24515" lon="6.03847">
        <ele>2135.3</ele>
        <time>2024-05-04T06:22:30Z</time>
      </trkpt>
      <trkpt lat="45.24513" lon="6.03842">
        <ele>2137.1</ele>
        <time>2024-05-04T06:22:36Z</time>
      </trkpt>
      <trkpt lat="45.24513" lon="6.03836">
        <ele>2138.3</ele>
        <time>2024-05-04T06:22:43Z</time>
      </trkpt>
      <trkpt lat="45.24513" lon="6.03832">
        <ele>2139.1</ele>
        <time>2024-05-04T06:22:47Z</time>
      </trkpt>
      <trkpt lat="45.24513" lon="6.0383">
        <ele>2139.4</ele>
        <time>2024-05-04T06:22:48Z</time>
      </trkpt>
      <trkpt lat="45.24513" lon="6.03824">
        <ele>2140.4</ele>
        <time>2024-05-04T06:22:54Z</time>
      </trkpt>
      <trkpt lat="45.24513" lon="6.03817">
        <ele>2141.5</ele>
        <time>2024-05-04T06:23:00Z</time>
      </trkpt>
      <trkpt lat="45.24513" lon="6.03812">
        <ele>2142.3</ele>
        <time>2024-05-04T06:23:06Z</time>
      </trkpt>
      <trkpt lat="45.24511" lon="6.03809">
        <ele>2143.5</ele>
        <time>2024-05-04T06:23:11Z</time>
      </trkpt>
      <trkpt lat="45.24511" lon="6.03804">
        <ele>2144.3</ele>
        <time>2024-05-04T06:23:16Z</time>
      </trkpt>
      <trkpt lat="45.24511" lon="6.03798">
        <ele>2145.4</ele>
        <time>2024-05-04T06:23:24Z</time>
      </trkpt>
      <trkpt lat="45.24511" lon="6.03794">
        <ele>2146.1</ele>
        <time>2024-05-04T06:23:28Z</time>
      </trkpt>
      <trkpt lat="45.24509" lon="6.03791">
        <ele>2147.4</ele>
        <time>2024-05-04T06:23:32Z</time>
      </trkpt>
      <trkpt lat="45.24509" lon="6.03787">
        <ele>2148.1</ele>
        <time>2024-05-04T06:23:36Z</time>
      </trkpt>
      <trkpt lat="45.24508" lon="6.03784">
        <ele>2149</ele>
        <time>2024-05-04T06:23:43Z</time>
      </trkpt>
      <trkpt lat="45.24504" lon="6.03787">
        <ele>2149.9</ele>
        <time>2024-05-04T06:23:48Z</time>
      </trkpt>
      <trkpt lat="45.245" lon="6.03789">
        <ele>2151</ele>
        <time>2024-05-04T06:23:54Z</time>
      </trkpt>
      <trkpt lat="45.24498" lon="6.0379">
        <ele>2151.4</ele>
        <time>2024-05-04T06:23:56Z</time>
      </trkpt>
      <trkpt lat="45.24495" lon="6.0379">
        <ele>2152.4</ele>
        <time>2024-05-04T06:24:00Z</time>
      </trkpt>
      <trkpt lat="45.24489" lon="6.03793">
        <ele>2153.8</ele>
        <time>2024-05-04T06:24:07Z</time>
      </trkpt>
      <trkpt lat="45.24486" lon="6.03794">
        <ele>2154.6</ele>
        <time>2024-05-04T06:24:12Z</time>
      </trkpt>
      <trkpt lat="45.24484" lon="6.03795">
        <ele>2155.1</ele>
        <time>2024-05-04T06:24:14Z</time>
      </trkpt>
      <trkpt lat="45.24482" lon="6.03796">
        <ele>2155.6</ele>
        <time>2024-05-04T06:24:16Z</time>
      </trkpt>
      <trkpt lat="45.24482" lon="6.03796">
        <ele>2155.6</ele>
        <time>2024-05-04T06:24:17Z</time>
      </trkpt>
      <trkpt lat="45.24479" lon="6.03798">
        <ele>2156.2</ele>
        <time>2024-05-04T06:24:22Z</time>
      </trkpt>
      <trkpt lat="45.24474" lon="6.038">
        <ele>2157.4</ele>
        <time>2024-05-04T06:24:30Z</time>
      </trkpt>
      <trkpt lat="45.2447" lon="6.03803">
        <ele>2158.4</ele>
        <time>2024-05-04T06:24:36Z</time>
      </trkpt>
      <trkpt lat="45.24467" lon="6.03804">
        <ele>2159.5</ele>
        <time>2024-05-04T06:24:41Z</time>
      </trkpt>
      <trkpt lat="45.24461" lon="6.03809">
        <ele>2161.7</ele>
        <time>2024-05-04T06:24:49Z</time>
      </trkpt>
      <trkpt lat="45.24458" lon="6.03812">
        <ele>2162.8</ele>
        <time>2024-05-04T06:24:54Z</time>
      </trkpt>
      <trkpt lat="45.24454" lon="6.03815">
        <ele>2164.4</ele>
        <time>2024-05-04T06:24:59Z</time>
      </trkpt>
      <trkpt lat="45.2445" lon="6.03818">
        <ele>2166.1</ele>
        <time>2024-05-04T06:25:06Z</time>
      </trkpt>
      <trkpt lat="45.2445" lon="6.03814">
        <ele>2166.2</ele>
        <time>2024-05-04T06:25:11Z</time>
      </trkpt>
      <trkpt lat="45.24448" lon="6.03808">
        <ele>2167.4</ele>
        <time>2024-05-04T06:25:18Z</time>
      </trkpt>
      <trkpt lat="45.24446" lon="6.038">
        <ele>2169.1</ele>
        <time>2024-05-04T06:25:27Z</time>
      </trkpt>
      <trkpt lat="45.24445" lon="6.03794">
        <ele>2170.4</ele>
        <time>2024-05-04T06:25:33Z</time>
      </trkpt>
      <trkpt lat="45.24444" lon="6.03786">
        <ele>2172</ele>
        <time>2024-05-04T06:25:40Z</time>
      </trkpt>
      <trkpt lat="45.24442" lon="6.03781">
        <ele>2173.4</ele>
        <time>2024-05-04T06:25:46Z</time>
      </trkpt>
      <trkpt lat="45.2444" lon="6.03779">
        <ele>2174.4</ele>
        <time>2024-05-04T06:25:50Z</time>
      </trkpt>
      <trkpt lat="45.24439" lon="6.03775">
        <ele>2175.5</ele>
        <time>2024-05-04T06:25:55Z</time>
      </trkpt>
      <trkpt lat="45.24438" lon="6.0377">
        <ele>2176.8</ele>
        <time>2024-05-04T06:26:01Z</time>
      </trkpt>
      <trkpt lat="45.24436" lon="6.03766">
        <ele>2178.3</ele>
        <time>2024-05-04T06:26:06Z</time>
      </trkpt>
      <trkpt lat="45.24435" lon="6.03763">
        <ele>2179.2</ele>
        <time>2024-05-04T06:26:11Z</time>
      </trkpt>
      <trkpt lat="45.24433" lon="6.03759">
        <ele>2180.8</ele>
        <time>2024-05-04T06:26:16Z</time>
      </trkpt>
      <trkpt lat="45.2443" lon="6.03757">
        <ele>2182.3</ele>
        <time>2024-05-04T06:26:22Z</time>
      </trkpt>
      <trkpt lat="45.24427" lon="6.03759">
        <ele>2183.1</ele>
        <time>2024-05-04T06:26:27Z</time>
      </trkpt>
      <trkpt lat="45.24424" lon="6.03761">
        <ele>2183.8</ele>
        <time>2024-05-04T06:26:32Z</time>
      </trkpt>
      <trkpt lat="45.24421" lon="6.03762">
        <ele>2184.8</ele>
        <time>2024-05-04T06:26:37Z</time>
      </trkpt>
      <trkpt lat="45.24419" lon="6.03764">
        <ele>2185.1</ele>
        <time>2024-05-04T06:26:43Z</time>
      </trkpt>
      <trkpt lat="45.24415" lon="6.03767">
        <ele>2186.2</ele>
        <time>2024-05-04T06:26:50Z</time>
      </trkpt>
      <trkpt lat="45.24411" lon="6.03769">
        <ele>2187.8</ele>
        <time>2024-05-04T06:26:56Z</time>
      </trkpt>
      <trkpt lat="45.24406" lon="6.03771">
        <ele>2189.9</ele>
        <time>2024-05-04T06:27:05Z</time>
      </trkpt>
      <trkpt lat="45.24404" lon="6.03767">
        <ele>2191.6</ele>
        <time>2024-05-04T06:27:09Z</time>
      </trkpt>
      <trkpt lat="45.24404" lon="6.0376">
        <ele>2192.8</ele>
        <time>2024-05-04T06:27:17Z</time>
      </trkpt>
      <trkpt lat="45.24404" lon="6.03753">
        <ele>2194</ele>
        <time>2024-05-04T06:27:23Z</time>
      </trkpt>
      <trkpt lat="45.24404" lon="6.03746">
        <ele>2195</ele>
        <time>2024-05-04T06:27:29Z</time>
      </trkpt>
      <trkpt lat="45.24403" lon="6.03742">
        <ele>2196.1</ele>
        <time>2024-05-04T06:27:34Z</time>
      </trkpt>
      <trkpt lat="45.24404" lon="6.03734">
        <ele>2196.8</ele>
        <time>2024-05-04T06:27:42Z</time>
      </trkpt>
      <trkpt lat="45.24404" lon="6.03729">
        <ele>2197.5</ele>
        <time>2024-05-04T06:27:49Z</time>
      </trkpt>
      <trkpt lat="45.24404" lon="6.03722">
        <ele>2198.5</ele>
        <time>2024-05-04T06:27:57Z</time>
      </trkpt>
      <trkpt lat="45.24405" lon="6.03715">
        <ele>2198.9</ele>
        <time>2024-05-04T06:28:04Z</time>
      </trkpt>
      <trkpt lat="45.24405" lon="6.03709">
        <ele>2199.7</ele>
        <time>2024-05-04T06:28:10Z</time>
      </trkpt>
      <trkpt lat="45.24404" lon="6.03702">
        <ele>2201</ele>
        <time>2024-05-04T06:28:18Z</time>
      </trkpt>
      <trkpt lat="45.24403" lon="6.03698">
        <ele>2201.9</ele>
        <time>2024-05-04T06:28:23Z</time>
      </trkpt>
      <trkpt lat="45.24402" lon="6.03696">
        <ele>2202.7</ele>
        <time>2024-05-04T06:28:28Z</time>
      </trkpt>
      <trkpt lat="45.24401" lon="6.03693">
        <ele>2203.5</ele>
        <time>2024-05-04T06:28:33Z</time>
      </trkpt>
      <trkpt lat="45.244" lon="6.0369">
        <ele>2204.3</ele>
        <time>2024-05-04T06:28:38Z</time>
      </trkpt>
      <trkpt lat="45.24398" lon="6.03687">
        <ele>2205.5</ele>
        <time>2024-05-04T06:28:43Z</time>
      </trkpt>
      <trkpt lat="45.24397" lon="6.03681">
        <ele>2206.7</ele>
        <time>2024-05-04T06:28:50Z</time>
      </trkpt>
      <trkpt lat="45.24395" lon="6.03676">
        <ele>2208.1</ele>
        <time>2024-05-04T06:28:56Z</time>
      </trkpt>
      <trkpt lat="45.24393" lon="6.03672">
        <ele>2209.5</ele>
        <time>2024-05-04T06:29:04Z</time>
      </trkpt>
      <trkpt lat="45.24392" lon="6.03667">
        <ele>2210.5</ele>
        <time>2024-05-04T06:29:09Z</time>
      </trkpt>
      <trkpt lat="45.24391" lon="6.03662">
        <ele>2211.7</ele>
        <time>2024-05-04T06:29:17Z</time>
      </trkpt>
      <trkpt lat="45.24388" lon="6.03657">
        <ele>2213.9</ele>
        <time>2024-05-04T06:29:24Z</time>
      </trkpt>
      <trkpt lat="45.24387" lon="6.03652">
        <ele>2215.1</ele>
        <time>2024-05-04T06:29:31Z</time>
      </trkpt>
      <trkpt lat="45.24386" lon="6.03649">
        <ele>2216</ele>
        <time>2024-05-04T06:29:35Z</time>
      </trkpt>
      <trkpt lat="45.24385" lon="6.03644">
        <ele>2217.2</ele>
        <time>2024-05-04T06:29:41Z</time>
      </trkpt>
      <trkpt lat="45.24385" lon="6.0364">
        <ele>2217.8</ele>
        <time>2024-05-04T06:29:47Z</time>
      </trkpt>
      <trkpt lat="45.24385" lon="6.03635">
        <ele>2218.8</ele>
        <time>2024-05-04T06:29:53Z</time>
      </trkpt>
      <trkpt lat="45.24386" lon="6.03629">
        <ele>2219.6</ele>
        <time>2024-05-04T06:30:01Z</time>
      </trkpt>
      <trkpt lat="45.24386" lon="6.0362">
        <ele>2221.5</ele>
        <time>2024-05-04T06:30:10Z</time>
      </trkpt>
      <trkpt lat="45.24388" lon="6.03617">
        <ele>2221.2</ele>
        <time>2024-05-04T06:30:15Z</time>
      </trkpt>
      <trkpt lat="45.24388" lon="6.03613">
        <ele>2222</ele>
        <time>2024-05-04T06:30:20Z</time>
      </trkpt>
      <trkpt lat="45.24388" lon="6.0361">
        <ele>2222.8</ele>
        <time>2024-05-04T06:30:24Z</time>
      </trkpt>
      <trkpt lat="45.24388" lon="6.03601">
        <ele>2225.3</ele>
        <time>2024-05-04T06:30:34Z</time>
      </trkpt>
      <trkpt lat="45.24388" lon="6.03598">
        <ele>2226.2</ele>
        <time>2024-05-04T06:30:39Z</time>
      </trkpt>
      <trkpt lat="45.2439" lon="6.03594">
        <ele>2226.5</ele>
        <time>2024-05-04T06:30:45Z</time>
      </trkpt>
      <trkpt lat="45.24394" lon="6.03587">
        <ele>2226.9</ele>
        <time>2024-05-04T06:30:54Z</time>
      </trkpt>
      <trkpt lat="45.24397" lon="6.0358">
        <ele>2228</ele>
        <time>2024-05-04T06:31:01Z</time>
      </trkpt>
      <trkpt lat="45.24391" lon="6.03583">
        <ele>2229.3</ele>
        <time>2024-05-04T06:31:13Z</time>
      </trkpt>
      <trkpt lat="45.24387" lon="6.03587">
        <ele>2229.8</ele>
        <time>2024-05-04T06:31:23Z</time>
      </trkpt>
      <trkpt lat="45.24384" lon="6.03588">
        <ele>2231</ele>
        <time>2024-05-04T06:31:27Z</time>
      </trkpt>
      <trkpt lat="45.2438" lon="6.0359">
        <ele>2232.3</ele>
        <time>2024-05-04T06:31:33Z</time>
      </trkpt>
      <trkpt lat="45.24376" lon="6.03592">
        <ele>2233.7</ele>
        <time>2024-05-04T06:31:40Z</time>
      </trkpt>
      <trkpt lat="45.24374" lon="6.03594">
        <ele>2234.1</ele>
        <time>2024-05-04T06:31:47Z</time>
      </trkpt>
      <trkpt lat="45.2437" lon="6.03597">
        <ele>2235.2</ele>
        <time>2024-05-04T06:31:56Z</time>
      </trkpt>
      <trkpt lat="45.24367" lon="6.03601">
        <ele>2235.7</ele>
        <time>2024-05-04T06:32:04Z</time>
      </trkpt>
      <trkpt lat="45.24361" lon="6.03605">
        <ele>2237.6</ele>
        <time>2024-05-04T06:32:13Z</time>
      </trkpt>
      <trkpt lat="45.24359" lon="6.03608">
        <ele>2237.9</ele>
        <time>2024-05-04T06:32:19Z</time>
      </trkpt>
      <trkpt lat="45.24358" lon="6.03607">
        <ele>2238.7</ele>
        <time>2024-05-04T06:33:09Z</time>
      </trkpt>
      <trkpt lat="45.24354" lon="6.0361">
        <ele>2240.1</ele>
        <time>2024-05-04T06:33:20Z</time>
      </trkpt>
      <trkpt lat="45.24349" lon="6.03616">
        <ele>2241.5</ele>
        <time>2024-05-04T06:33:28Z</time>
      </trkpt>
      <trkpt lat="45.24349" lon="6.03616">
        <ele>2241.5</ele>
        <time>2024-05-04T06:33:29Z</time>
      </trkpt>
      <trkpt lat="45.24346" lon="6.0362">
        <ele>2242.2</ele>
        <time>2024-05-04T06:33:36Z</time>
      </trkpt>
      <trkpt lat="45.24341" lon="6.03625">
        <ele>2243.9</ele>
        <time>2024-05-04T06:33:45Z</time>
      </trkpt>
      <trkpt lat="45.24335" lon="6.03631">
        <ele>2245.8</ele>
        <time>2024-05-04T06:33:53Z</time>
      </trkpt>
      <trkpt lat="45.24335" lon="6.03631">
        <ele>2245.8</ele>
        <time>2024-05-04T06:33:54Z</time>
      </trkpt>
      <trkpt lat="45.24333" lon="6.03633">
        <ele>2246.5</ele>
        <time>2024-05-04T06:33:57Z</time>
      </trkpt>
      <trkpt lat="45.24331" lon="6.03634">
        <ele>2247.8</ele>
        <time>2024-05-04T06:33:59Z</time>
      </trkpt>
      <trkpt lat="45.24331" lon="6.03635">
        <ele>2247.6</ele>
        <time>2024-05-04T06:34:00Z</time>
      </trkpt>
      <trkpt lat="45.24329" lon="6.03637">
        <ele>2248.7</ele>
        <time>2024-05-04T06:34:03Z</time>
      </trkpt>
      <trkpt lat="45.24327" lon="6.0364">
        <ele>2249.7</ele>
        <time>2024-05-04T06:34:07Z</time>
      </trkpt>
      <trkpt lat="45.24325" lon="6.03646">
        <ele>2250.6</ele>
        <time>2024-05-04T06:34:18Z</time>
      </trkpt>
      <trkpt lat="45.24325" lon="6.03652">
        <ele>2249.9</ele>
        <time>2024-05-04T06:34:30Z</time>
      </trkpt>
      <trkpt lat="45.24323" lon="6.03661">
        <ele>2250.3</ele>
        <time>2024-05-04T06:34:38Z</time>
      </trkpt>
      <trkpt lat="45.24322" lon="6.03665">
        <ele>2250.5</ele>
        <time>2024-05-04T06:34:44Z</time>
      </trkpt>
      <trkpt lat="45.24322" lon="6.03666">
        <ele>2250.4</ele>
        <time>2024-05-04T06:34:49Z</time>
      </trkpt>
      <trkpt lat="45.24317" lon="6.03672">
        <ele>2253</ele>
        <time>2024-05-04T06:35:07Z</time>
      </trkpt>
      <trkpt lat="45.24315" lon="6.03677">
        <ele>2253.8</ele>
        <time>2024-05-04T06:35:14Z</time>
      </trkpt>
      <trkpt lat="45.24314" lon="6.03679">
        <ele>2254.2</ele>
        <time>2024-05-04T06:35:17Z</time>
      </trkpt>
      <trkpt lat="45.24309" lon="6.03688">
        <ele>2256.5</ele>
        <time>2024-05-04T06:35:36Z</time>
      </trkpt>
      <trkpt lat="45.24308" lon="6.03691">
        <ele>2256.8</ele>
        <time>2024-05-04T06:35:42Z</time>
      </trkpt>
      <trkpt lat="45.24308" lon="6.03681">
        <ele>2257.9</ele>
        <time>2024-05-04T06:36:01Z</time>
      </trkpt>
      <trkpt lat="45.24308" lon="6.03677">
        <ele>2258.3</ele>
        <time>2024-05-04T06:36:05Z</time>
      </trkpt>
      <trkpt lat="45.24307" lon="6.03672">
        <ele>2259.5</ele>
        <time>2024-05-04T06:36:10Z</time>
      </trkpt>
      <trkpt lat="45.24306" lon="6.03667">
        <ele>2260.7</ele>
        <time>2024-05-04T06:36:17Z</time>
      </trkpt>
      <trkpt lat="45.24307" lon="6.03661">
        <ele>2261.1</ele>
        <time>2024-05-04T06:36:27Z</time>
      </trkpt>
      <trkpt lat="45.24305" lon="6.03662">
        <ele>2262.2</ele>
        <time>2024-05-04T06:36:45Z</time>
      </trkpt>
      <trkpt lat="45.24304" lon="6.03665">
        <ele>2262.3</ele>
        <time>2024-05-04T06:36:50Z</time>
      </trkpt>
      <trkpt lat="45.24297" lon="6.03675">
        <ele>2265.7</ele>
        <time>2024-05-04T06:37:11Z</time>
      </trkpt>
      <trkpt lat="45.24294" lon="6.0368">
        <ele>2267.2</ele>
        <time>2024-05-04T06:37:18Z</time>
      </trkpt>
      <trkpt lat="45.24292" lon="6.03684">
        <ele>2268.2</ele>
        <time>2024-05-04T06:37:23Z</time>
      </trkpt>
      <trkpt lat="45.2429" lon="6.03687">
        <ele>2269.3</ele>
        <time>2024-05-04T06:37:29Z</time>
      </trkpt>
      <trkpt lat="45.24285" lon="6.03691">
        <ele>2272.3</ele>
        <time>2024-05-04T06:37:37Z</time>
      </trkpt>
      <trkpt lat="45.24283" lon="6.03693">
        <ele>2273.5</ele>
        <time>2024-05-04T06:37:43Z</time>
      </trkpt>
      <trkpt lat="45.24281" lon="6.03698">
        <ele>2274.6</ele>
        <time>2024-05-04T06:37:49Z</time>
      </trkpt>
      <trkpt lat="45.24278" lon="6.037">
        <ele>2276.6</ele>
        <time>2024-05-04T06:37:57Z</time>
      </trkpt>
      <trkpt lat="45.2428" lon="6.03692">
        <ele>2275.7</ele>
        <time>2024-05-04T06:38:04Z</time>
      </trkpt>
      <trkpt lat="45.2428" lon="6.03689">
        <ele>2275.9</ele>
        <time>2024-05-04T06:38:13Z</time>
      </trkpt>
      <trkpt lat="45.2428" lon="6.03684">
        <ele>2276.3</ele>
        <time>2024-05-04T06:38:19Z</time>
      </trkpt>
      <trkpt lat="45.24278" lon="6.03676">
        <ele>2278.2</ele>
        <time>2024-05-04T06:38:33Z</time>
      </trkpt>
      <trkpt lat="45.24276" lon="6.03671">
        <ele>2279.9</ele>
        <time>2024-05-04T06:38:41Z</time>
      </trkpt>
      <trkpt lat="45.24276" lon="6.03667">
        <ele>2280.1</ele>
        <time>2024-05-04T06:38:46Z</time>
      </trkpt>
      <trkpt lat="45.24276" lon="6.03664">
        <ele>2280.5</ele>
        <time>2024-05-04T06:38:52Z</time>
      </trkpt>
      <trkpt lat="45.24273" lon="6.03669">
        <ele>2282</ele>
        <time>2024-05-04T06:39:02Z</time>
      </trkpt>
      <trkpt lat="45.24272" lon="6.03673">
        <ele>2282.4</ele>
        <time>2024-05-04T06:39:07Z</time>
      </trkpt>
      <trkpt lat="45.24271" lon="6.03676">
        <ele>2282.9</ele>
        <time>2024-05-04T06:39:13Z</time>
      </trkpt>
      <trkpt lat="45.24267" lon="6.03682">
        <ele>2285.3</ele>
        <time>2024-05-04T06:39:21Z</time>
      </trkpt>
      <trkpt lat="45.24265" lon="6.03685">
        <ele>2286.6</ele>
        <time>2024-05-04T06:39:27Z</time>
      </trkpt>
      <trkpt lat="45.24263" lon="6.03675">
        <ele>2288.3</ele>
        <time>2024-05-04T06:39:41Z</time>
      </trkpt>
      <trkpt lat="45.24262" lon="6.03667">
        <ele>2289.2</ele>
        <time>2024-05-04T06:39:48Z</time>
      </trkpt>
      <trkpt lat="45.24262" lon="6.03665">
        <ele>2289.4</ele>
        <time>2024-05-04T06:39:51Z</time>
      </trkpt>
      <trkpt lat="45.24261" lon="6.03664">
        <ele>2290.2</ele>
        <time>2024-05-04T06:39:53Z</time>
      </trkpt>
      <trkpt lat="45.24261" lon="6.03664">
        <ele>2290.2</ele>
        <time>2024-05-04T06:39:54Z</time>
      </trkpt>
      <trkpt lat="45.24261" lon="6.03655">
        <ele>2291.3</ele>
        <time>2024-05-04T06:40:03Z</time>
      </trkpt>
      <trkpt lat="45.24261" lon="6.0365">
        <ele>2291.9</ele>
        <time>2024-05-04T06:40:09Z</time>
      </trkpt>
      <trkpt lat="45.24261" lon="6.03643">
        <ele>2292.8</ele>
        <time>2024-05-04T06:40:16Z</time>
      </trkpt>
      <trkpt lat="45.24264" lon="6.03634">
        <ele>2292.6</ele>
        <time>2024-05-04T06:40:25Z</time>
      </trkpt>
      <trkpt lat="45.24265" lon="6.03631">
        <ele>2292.7</ele>
        <time>2024-05-04T06:40:29Z</time>
      </trkpt>
      <trkpt lat="45.24265" lon="6.03624">
        <ele>2294.4</ele>
        <time>2024-05-04T06:40:37Z</time>
      </trkpt>
      <trkpt lat="45.24263" lon="6.03627">
        <ele>2294.8</ele>
        <time>2024-05-04T06:40:44Z</time>
      </trkpt>
      <trkpt lat="45.24259" lon="6.0363">
        <ele>2296.4</ele>
        <time>2024-05-04T06:40:48Z</time>
      </trkpt>
      <trkpt lat="45.24255" lon="6.03638">
        <ele>2297.1</ele>
        <time>2024-05-04T06:40:59Z</time>
      </trkpt>
      <trkpt lat="45.24252" lon="6.03644">
        <ele>2298.2</ele>
        <time>2024-05-04T06:41:10Z</time>
      </trkpt>
      <trkpt lat="45.24251" lon="6.03645">
        <ele>2298.7</ele>
        <time>2024-05-04T06:41:14Z</time>
      </trkpt>
      <trkpt lat="45.24245" lon="6.03652">
        <ele>2301.9</ele>
        <time>2024-05-04T06:41:26Z</time>
      </trkpt>
      <trkpt lat="45.24242" lon="6.03657">
        <ele>2303.4</ele>
        <time>2024-05-04T06:41:33Z</time>
      </trkpt>
      <trkpt lat="45.24241" lon="6.03662">
        <ele>2303.6</ele>
        <time>2024-05-04T06:41:42Z</time>
      </trkpt>
      <trkpt lat="45.24238" lon="6.03667">
        <ele>2305.2</ele>
        <time>2024-05-04T06:41:47Z</time>
      </trkpt>
      <trkpt lat="45.24238" lon="6.03668">
        <ele>2305.2</ele>
        <time>2024-05-04T06:41:52Z</time>
      </trkpt>
      <trkpt lat="45.24234" lon="6.03676">
        <ele>2308.1</ele>
        <time>2024-05-04T06:42:01Z</time>
      </trkpt>
      <trkpt lat="45.24234" lon="6.03677">
        <ele>2308.2</ele>
        <time>2024-05-04T06:42:06Z</time>
      </trkpt>
      <trkpt lat="45.24234" lon="6.0368">
        <ele>2308.2</ele>
        <time>2024-05-04T06:42:10Z</time>
      </trkpt>
      <trkpt lat="45.24231" lon="6.03692">
        <ele>2310.6</ele>
        <time>2024-05-04T06:42:20Z</time>
      </trkpt>
      <trkpt lat="45.24231" lon="6.03694">
        <ele>2310.7</ele>
        <time>2024-05-04T06:42:24Z</time>
      </trkpt>
      <trkpt lat="45.2423" lon="6.03696">
        <ele>2311.8</ele>
        <time>2024-05-04T06:42:32Z</time>
      </trkpt>
      <trkpt lat="45.24225" lon="6.03682">
        <ele>2314.6</ele>
        <time>2024-05-04T06:42:53Z</time>
      </trkpt>
      <trkpt lat="45.24224" lon="6.03679">
        <ele>2315.2</ele>
        <time>2024-05-04T06:42:56Z</time>
      </trkpt>
      <trkpt lat="45.2422" lon="6.03672">
        <ele>2317.8</ele>
        <time>2024-05-04T06:43:05Z</time>
      </trkpt>
      <trkpt lat="45.2422" lon="6.03667">
        <ele>2317.6</ele>
        <time>2024-05-04T06:43:11Z</time>
      </trkpt>
      <trkpt lat="45.2422" lon="6.03661">
        <ele>2318</ele>
        <time>2024-05-04T06:43:18Z</time>
      </trkpt>
      <trkpt lat="45.2422" lon="6.03654">
        <ele>2318.5</ele>
        <time>2024-05-04T06:43:26Z</time>
      </trkpt>
      <trkpt lat="45.24218" lon="6.03647">
        <ele>2320.5</ele>
        <time>2024-05-04T06:43:34Z</time>
      </trkpt>
      <trkpt lat="45.24217" lon="6.03644">
        <ele>2321.4</ele>
        <time>2024-05-04T06:43:41Z</time>
      </trkpt>
      <trkpt lat="45.24217" lon="6.03639">
        <ele>2321.8</ele>
        <time>2024-05-04T06:43:46Z</time>
      </trkpt>
      <trkpt lat="45.24218" lon="6.03638">
        <ele>2321.2</ele>
        <time>2024-05-04T06:43:54Z</time>
      </trkpt>
      <trkpt lat="45.24215" lon="6.03644">
        <ele>2322.8</ele>
        <time>2024-05-04T06:43:59Z</time>
      </trkpt>
      <trkpt lat="45.24212" lon="6.03648">
        <ele>2324.7</ele>
        <time>2024-05-04T06:44:06Z</time>
      </trkpt>
      <trkpt lat="45.2421" lon="6.03655">
        <ele>2325.6</ele>
        <time>2024-05-04T06:44:13Z</time>
      </trkpt>
      <trkpt lat="45.24209" lon="6.03657">
        <ele>2326.2</ele>
        <time>2024-05-04T06:44:15Z</time>
      </trkpt>
      <trkpt lat="45.24208" lon="6.0366">
        <ele>2326.7</ele>
        <time>2024-05-04T06:44:18Z</time>
      </trkpt>
      <trkpt lat="45.24204" lon="6.03665">
        <ele>2329.2</ele>
        <time>2024-05-04T06:44:27Z</time>
      </trkpt>
      <trkpt lat="45.24203" lon="6.0367">
        <ele>2330</ele>
        <time>2024-05-04T06:44:32Z</time>
      </trkpt>
      <trkpt lat="45.24203" lon="6.03671">
        <ele>2330</ele>
        <time>2024-05-04T06:44:34Z</time>
      </trkpt>
      <trkpt lat="45.24203" lon="6.03673">
        <ele>2330.1</ele>
        <time>2024-05-04T06:44:37Z</time>
      </trkpt>
      <trkpt lat="45.24201" lon="6.03678">
        <ele>2331.7</ele>
        <time>2024-05-04T06:44:47Z</time>
      </trkpt>
      <trkpt lat="45.242" lon="6.03683">
        <ele>2332.6</ele>
        <time>2024-05-04T06:44:54Z</time>
      </trkpt>
      <trkpt lat="45.24199" lon="6.0369">
        <ele>2333.6</ele>
        <time>2024-05-04T06:45:01Z</time>
      </trkpt>
      <trkpt lat="45.24195" lon="6.03685">
        <ele>2336.3</ele>
        <time>2024-05-04T06:45:18Z</time>
      </trkpt>
      <trkpt lat="45.24195" lon="6.03681">
        <ele>2336.1</ele>
        <time>2024-05-04T06:45:23Z</time>
      </trkpt>
      <trkpt lat="45.24194" lon="6.03677">
        <ele>2336.7</ele>
        <time>2024-05-04T06:45:27Z</time>
      </trkpt>
      <trkpt lat="45.24193" lon="6.03668">
        <ele>2337.2</ele>
        <time>2024-05-04T06:45:36Z</time>
      </trkpt>
      <trkpt lat="45.24192" lon="6.03662">
        <ele>2338.3</ele>
        <time>2024-05-04T06:45:43Z</time>
      </trkpt>
      <trkpt lat="45.24192" lon="6.03658">
        <ele>2338.5</ele>
        <time>2024-05-04T06:45:49Z</time>
      </trkpt>
      <trkpt lat="45.24192" lon="6.03651">
        <ele>2339</ele>
        <time>2024-05-04T06:45:56Z</time>
      </trkpt>
      <trkpt lat="45.24191" lon="6.03647">
        <ele>2340.1</ele>
        <time>2024-05-04T06:46:01Z</time>
      </trkpt>
      <trkpt lat="45.24191" lon="6.03646">
        <ele>2340.1</ele>
        <time>2024-05-04T06:46:02Z</time>
      </trkpt>
      <trkpt lat="45.2419" lon="6.0364">
        <ele>2341.3</ele>
        <time>2024-05-04T06:46:10Z</time>
      </trkpt>
      <trkpt lat="45.24188" lon="6.03634">
        <ele>2343.1</ele>
        <time>2024-05-04T06:46:18Z</time>
      </trkpt>
      <trkpt lat="45.24188" lon="6.03628">
        <ele>2343.5</ele>
        <time>2024-05-04T06:46:24Z</time>
      </trkpt>
      <trkpt lat="45.24187" lon="6.03624">
        <ele>2344.4</ele>
        <time>2024-05-04T06:46:29Z</time>
      </trkpt>
      <trkpt lat="45.24187" lon="6.03619">
        <ele>2344.7</ele>
        <time>2024-05-04T06:46:35Z</time>
      </trkpt>
      <trkpt lat="45.24185" lon="6.03618">
        <ele>2346.1</ele>
        <time>2024-05-04T06:46:43Z</time>
      </trkpt>
      <trkpt lat="45.24184" lon="6.03619">
        <ele>2346.8</ele>
        <time>2024-05-04T06:46:47Z</time>
      </trkpt>
      <trkpt lat="45.24179" lon="6.03634">
        <ele>2349.8</ele>
        <time>2024-05-04T06:47:06Z</time>
      </trkpt>
      <trkpt lat="45.24178" lon="6.03638">
        <ele>2350.5</ele>
        <time>2024-05-04T06:47:11Z</time>
      </trkpt>
      <trkpt lat="45.24176" lon="6.03642">
        <ele>2351.8</ele>
        <time>2024-05-04T06:47:17Z</time>
      </trkpt>
      <trkpt lat="45.24175" lon="6.03647">
        <ele>2352.3</ele>
        <time>2024-05-04T06:47:23Z</time>
      </trkpt>
      <trkpt lat="45.24175" lon="6.03651">
        <ele>2352.1</ele>
        <time>2024-05-04T06:47:28Z</time>
      </trkpt>
      <trkpt lat="45.24174" lon="6.03652">
        <ele>2352.9</ele>
        <time>2024-05-04T06:47:31Z</time>
      </trkpt>
      <trkpt lat="45.24173" lon="6.03653">
        <ele>2353.6</ele>
        <time>2024-05-04T06:47:33Z</time>
      </trkpt>
      <trkpt lat="45.24169" lon="6.03658">
        <ele>2356.5</ele>
        <time>2024-05-04T06:47:40Z</time>
      </trkpt>
      <trkpt lat="45.24169" lon="6.03659">
        <ele>2356.5</ele>
        <time>2024-05-04T06:47:42Z</time>
      </trkpt>
      <trkpt lat="45.24169" lon="6.03661">
        <ele>2356.4</ele>
        <time>2024-05-04T06:47:44Z</time>
      </trkpt>
      <trkpt lat="45.24165" lon="6.03675">
        <ele>2359.3</ele>
        <time>2024-05-04T06:48:03Z</time>
      </trkpt>
      <trkpt lat="45.24166" lon="6.03679">
        <ele>2358.5</ele>
        <time>2024-05-04T06:48:06Z</time>
      </trkpt>
      <trkpt lat="45.24162" lon="6.03701">
        <ele>2363.2</ele>
        <time>2024-05-04T06:48:31Z</time>
      </trkpt>
      <trkpt lat="45.24158" lon="6.03711">
        <ele>2368.5</ele>
        <time>2024-05-04T06:48:45Z</time>
      </trkpt>
      <trkpt lat="45.24157" lon="6.03718">
        <ele>2370.7</ele>
        <time>2024-05-04T06:48:54Z</time>
      </trkpt>
      <trkpt lat="45.24158" lon="6.03721">
        <ele>2370.7</ele>
        <time>2024-05-04T06:48:58Z</time>
      </trkpt>
      <trkpt lat="45.24154" lon="6.03704">
        <ele>2370</ele>
        <time>2024-05-04T06:49:35Z</time>
      </trkpt>
      <trkpt lat="45.24153" lon="6.03701">
        <ele>2370.1</ele>
        <time>2024-05-04T06:49:40Z</time>
      </trkpt>
      <trkpt lat="45.24151" lon="6.03697">
        <ele>2370.9</ele>
        <time>2024-05-04T06:49:47Z</time>
      </trkpt>
      <trkpt lat="45.24151" lon="6.03694">
        <ele>2370.4</ele>
        <time>2024-05-04T06:49:53Z</time>
      </trkpt>
      <trkpt lat="45.24149" lon="6.03687">
        <ele>2371.8</ele>
        <time>2024-05-04T06:50:01Z</time>
      </trkpt>
      <trkpt lat="45.24147" lon="6.03682">
        <ele>2373.3</ele>
        <time>2024-05-04T06:50:09Z</time>
      </trkpt>
      <trkpt lat="45.24146" lon="6.03678">
        <ele>2373.9</ele>
        <time>2024-05-04T06:50:15Z</time>
      </trkpt>
      <trkpt lat="45.24145" lon="6.03673">
        <ele>2374.6</ele>
        <time>2024-05-04T06:50:23Z</time>
      </trkpt>
      <trkpt lat="45.24143" lon="6.03667">
        <ele>2375.9</ele>
        <time>2024-05-04T06:50:33Z</time>
      </trkpt>
      <trkpt lat="45.24141" lon="6.03663">
        <ele>2377.7</ele>
        <time>2024-05-04T06:50:41Z</time>
      </trkpt>
      <trkpt lat="45.2414" lon="6.03659">
        <ele>2378.7</ele>
        <time>2024-05-04T06:50:47Z</time>
      </trkpt>
      <trkpt lat="45.24139" lon="6.03655">
        <ele>2379.8</ele>
        <time>2024-05-04T06:50:52Z</time>
      </trkpt>
      <trkpt lat="45.24139" lon="6.03647">
        <ele>2380.3</ele>
        <time>2024-05-04T06:51:01Z</time>
      </trkpt>
      <trkpt lat="45.24138" lon="6.03642">
        <ele>2381.6</ele>
        <time>2024-05-04T06:51:08Z</time>
      </trkpt>
      <trkpt lat="45.24137" lon="6.03638">
        <ele>2382.8</ele>
        <time>2024-05-04T06:51:14Z</time>
      </trkpt>
      <trkpt lat="45.24137" lon="6.03632">
        <ele>2382.9</ele>
        <time>2024-05-04T06:51:22Z</time>
      </trkpt>
      <trkpt lat="45.24136" lon="6.0363">
        <ele>2383.9</ele>
        <time>2024-05-04T06:51:25Z</time>
      </trkpt>
      <trkpt lat="45.24137" lon="6.03626">
        <ele>2382.9</ele>
        <time>2024-05-04T06:51:34Z</time>
      </trkpt>
      <trkpt lat="45.24136" lon="6.03628">
        <ele>2383.9</ele>
        <time>2024-05-04T06:51:38Z</time>
      </trkpt>
      <trkpt lat="45.24136" lon="6.03629">
        <ele>2383.9</ele>
        <time>2024-05-04T06:51:40Z</time>
      </trkpt>
      <trkpt lat="45.24129" lon="6.03648">
        <ele>2389.6</ele>
        <time>2024-05-04T06:52:06Z</time>
      </trkpt>
      <trkpt lat="45.24126" lon="6.03659">
        <ele>2391.6</ele>
        <time>2024-05-04T06:52:23Z</time>
      </trkpt>
      <trkpt lat="45.24125" lon="6.03661">
        <ele>2392.4</ele>
        <time>2024-05-04T06:52:30Z</time>
      </trkpt>
      <trkpt lat="45.24125" lon="6.03666">
        <ele>2392</ele>
        <time>2024-05-04T06:52:36Z</time>
      </trkpt>
      <trkpt lat="45.24125" lon="6.03673">
        <ele>2392</ele>
        <time>2024-05-04T06:52:48Z</time>
      </trkpt>
      <trkpt lat="45.24121" lon="6.03677">
        <ele>2395.6</ele>
        <time>2024-05-04T06:52:57Z</time>
      </trkpt>
      <trkpt lat="45.24119" lon="6.03678">
        <ele>2397.4</ele>
        <time>2024-05-04T06:53:01Z</time>
      </trkpt>
      <trkpt lat="45.2412" lon="6.03679">
        <ele>2396.5</ele>
        <time>2024-05-04T06:53:04Z</time>
      </trkpt>
      <trkpt lat="45.2412" lon="6.03681">
        <ele>2396.5</ele>
        <time>2024-05-04T06:53:07Z</time>
      </trkpt>
      <trkpt lat="45.24119" lon="6.03681">
        <ele>2397.4</ele>
        <time>2024-05-04T06:53:10Z</time>
      </trkpt>
      <trkpt lat="45.24118" lon="6.03684">
        <ele>2398.2</ele>
        <time>2024-05-04T06:53:17Z</time>
      </trkpt>
      <trkpt lat="45.24119" lon="6.03688">
        <ele>2397.3</ele>
        <time>2024-05-04T06:53:23Z</time>
      </trkpt>
      <trkpt lat="45.24117" lon="6.03696">
        <ele>2399</ele>
        <time>2024-05-04T06:53:33Z</time>
      </trkpt>
      <trkpt lat="45.24115" lon="6.03705">
        <ele>2401.5</ele>
        <time>2024-05-04T06:53:47Z</time>
      </trkpt>
      <trkpt lat="45.24115" lon="6.03706">
        <ele>2401.6</ele>
        <time>2024-05-04T06:53:49Z</time>
      </trkpt>
      <trkpt lat="45.24114" lon="6.03709">
        <ele>2402.7</ele>
        <time>2024-05-04T06:53:55Z</time>
      </trkpt>
      <trkpt lat="45.24114" lon="6.0371">
        <ele>2402.7</ele>
        <time>2024-05-04T06:53:57Z</time>
      </trkpt>
      <trkpt lat="45.24116" lon="6.03715">
        <ele>2401.5</ele>
        <time>2024-05-04T06:54:05Z</time>
      </trkpt>
      <trkpt lat="45.24117" lon="6.03717">
        <ele>2400.9</ele>
        <time>2024-05-04T06:54:09Z</time>
      </trkpt>
      <trkpt lat="45.24113" lon="6.03726">
        <ele>2405.3</ele>
        <time>2024-05-04T06:54:35Z</time>
      </trkpt>
      <trkpt lat="45.24114" lon="6.0374">
        <ele>2407.8</ele>
        <time>2024-05-04T06:55:05Z</time>
      </trkpt>
      <trkpt lat="45.24112" lon="6.03744">
        <ele>2410.1</ele>
        <time>2024-05-04T06:55:14Z</time>
      </trkpt>
      <trkpt lat="45.24115" lon="6.03756">
        <ele>2411.4</ele>
        <time>2024-05-04T06:55:30Z</time>
      </trkpt>
      <trkpt lat="45.24116" lon="6.03759">
        <ele>2411.8</ele>
        <time>2024-05-04T06:55:34Z</time>
      </trkpt>
      <trkpt lat="45.24116" lon="6.03762">
        <ele>2412.8</ele>
        <time>2024-05-04T06:55:40Z</time>
      </trkpt>
      <trkpt lat="45.24119" lon="6.03766">
        <ele>2412.4</ele>
        <time>2024-05-04T06:56:16Z</time>
      </trkpt>
      <trkpt lat="45.24112" lon="6.0376">
        <ele>2414.7</ele>
        <time>2024-05-04T06:56:26Z</time>
      </trkpt>
      <trkpt lat="45.24108" lon="6.03752">
        <ele>2415.1</ele>
        <time>2024-05-04T06:56:49Z</time>
      </trkpt>
      <trkpt lat="45.24107" lon="6.03754">
        <ele>2416.5</ele>
        <time>2024-05-04T06:56:55Z</time>
      </trkpt>
      <trkpt lat="45.24104" lon="6.03749">
        <ele>2417.4</ele>
        <time>2024-05-04T06:57:08Z</time>
      </trkpt>
      <trkpt lat="45.24103" lon="6.03747">
        <ele>2417.8</ele>
        <time>2024-05-04T06:57:11Z</time>
      </trkpt>
      <trkpt lat="45.24101" lon="6.03745">
        <ele>2418.9</ele>
        <time>2024-05-04T06:57:14Z</time>
      </trkpt>
      <trkpt lat="45.24104" lon="6.03747">
        <ele>2417</ele>
        <time>2024-05-04T06:57:31Z</time>
      </trkpt>
      <trkpt lat="45.24101" lon="6.03756">
        <ele>2421.6</ele>
        <time>2024-05-04T06:57:42Z</time>
      </trkpt>
      <trkpt lat="45.24102" lon="6.0376">
        <ele>2422</ele>
        <time>2024-05-04T06:57:51Z</time>
      </trkpt>
      <trkpt lat="45.24102" lon="6.03766">
        <ele>2423.6</ele>
        <time>2024-05-04T06:58:04Z</time>
      </trkpt>
      <trkpt lat="45.24102" lon="6.03768">
        <ele>2424.2</ele>
        <time>2024-05-04T06:58:08Z</time>
      </trkpt>
      <trkpt lat="45.24108" lon="6.03774">
        <ele>2421.9</ele>
        <time>2024-05-04T06:58:23Z</time>
      </trkpt>
      <trkpt lat="45.2411" lon="6.03777">
        <ele>2421.5</ele>
        <time>2024-05-04T06:58:33Z</time>
      </trkpt>
      <trkpt lat="45.24112" lon="6.03779">
        <ele>2420.6</ele>
        <time>2024-05-04T06:58:37Z</time>
      </trkpt>
      <trkpt lat="45.24113" lon="6.03783">
        <ele>2420.2</ele>
        <time>2024-05-04T06:58:42Z</time>
      </trkpt>
      <trkpt lat="45.2411" lon="6.03793">
        <ele>2422.3</ele>
        <time>2024-05-04T06:58:52Z</time>
      </trkpt>
      <trkpt lat="45.24107" lon="6.0381">
        <ele>2424.9</ele>
        <time>2024-05-04T06:59:08Z</time>
      </trkpt>
      <trkpt lat="45.24107" lon="6.03812">
        <ele>2424.9</ele>
        <time>2024-05-04T06:59:31Z</time>
      </trkpt>
      <trkpt lat="45.24103" lon="6.03815">
        <ele>2427.5</ele>
        <time>2024-05-04T06:59:35Z</time>
      </trkpt>
      <trkpt lat="45.241" lon="6.03821">
        <ele>2429.3</ele>
        <time>2024-05-04T06:59:41Z</time>
      </trkpt>
      <trkpt lat="45.24097" lon="6.03832">
        <ele>2430.7</ele>
        <time>2024-05-04T06:59:51Z</time>
      </trkpt>
      <trkpt lat="45.24084" lon="6.03847">
        <ele>2434.2</ele>
        <time>2024-05-04T07:00:08Z</time>
      </trkpt>
      <trkpt lat="45.24084" lon="6.03849">
        <ele>2433.6</ele>
        <time>2024-05-04T07:00:10Z</time>
      </trkpt>
      <trkpt lat="45.24078" lon="6.03858">
        <ele>2435.8</ele>
        <time>2024-05-04T07:00:22Z</time>
      </trkpt>
      <trkpt lat="45.24078" lon="6.03859">
        <ele>2435.5</ele>
        <time>2024-05-04T07:00:23Z</time>
      </trkpt>
      <trkpt lat="45.24077" lon="6.03861">
        <ele>2435.7</ele>
        <time>2024-05-04T07:00:27Z</time>
      </trkpt>
      <trkpt lat="45.24073" lon="6.03866">
        <ele>2438.1</ele>
        <time>2024-05-04T07:00:32Z</time>
      </trkpt>
      <trkpt lat="45.24071" lon="6.03868">
        <ele>2439.3</ele>
        <time>2024-05-04T07:00:35Z</time>
      </trkpt>
      <trkpt lat="45.24071" lon="6.03869">
        <ele>2439.1</ele>
        <time>2024-05-04T07:00:37Z</time>
      </trkpt>
      <trkpt lat="45.2407" lon="6.0387">
        <ele>2439.6</ele>
        <time>2024-05-04T07:00:39Z</time>
      </trkpt>
      <trkpt lat="45.24067" lon="6.03873">
        <ele>2441.2</ele>
        <time>2024-05-04T07:00:43Z</time>
      </trkpt>
      <trkpt lat="45.24066" lon="6.03875">
        <ele>2441.4</ele>
        <time>2024-05-04T07:00:45Z</time>
      </trkpt>
      <trkpt lat="45.24065" lon="6.03878">
        <ele>2441.3</ele>
        <time>2024-05-04T07:00:48Z</time>
      </trkpt>
      <trkpt lat="45.24064" lon="6.03879">
        <ele>2441.7</ele>
        <time>2024-05-04T07:00:50Z</time>
      </trkpt>
      <trkpt lat="45.24065" lon="6.03879">
        <ele>2440.9</ele>
        <time>2024-05-04T07:00:52Z</time>
      </trkpt>
      <trkpt lat="45.24063" lon="6.03885">
        <ele>2440.5</ele>
        <time>2024-05-04T07:01:05Z</time>
      </trkpt>
      <trkpt lat="45.24058" lon="6.03893">
        <ele>2441.9</ele>
        <time>2024-05-04T07:01:14Z</time>
      </trkpt>
      <trkpt lat="45.24055" lon="6.03897">
        <ele>2443.3</ele>
        <time>2024-05-04T07:01:21Z</time>
      </trkpt>
      <trkpt lat="45.24052" lon="6.03908">
        <ele>2444.3</ele>
        <time>2024-05-04T07:01:35Z</time>
      </trkpt>
      <trkpt lat="45.2405" lon="6.03923">
        <ele>2445.3</ele>
        <time>2024-05-04T07:01:56Z</time>
      </trkpt>
      <trkpt lat="45.24048" lon="6.03925">
        <ele>2447.2</ele>
        <time>2024-05-04T07:02:01Z</time>
      </trkpt>
      <trkpt lat="45.24047" lon="6.03932">
        <ele>2448.5</ele>
        <time>2024-05-04T07:02:18Z</time>
      </trkpt>
      <trkpt lat="45.24044" lon="6.03939">
        <ele>2451.4</ele>
        <time>2024-05-04T07:02:30Z</time>
      </trkpt>
      <trkpt lat="45.24044" lon="6.03943">
        <ele>2451.6</ele>
        <time>2024-05-04T07:02:34Z</time>
      </trkpt>
      <trkpt lat="45.24043" lon="6.03966">
        <ele>2453.3</ele>
        <time>2024-05-04T07:03:03Z</time>
      </trkpt>
      <trkpt lat="45.24042" lon="6.0397">
        <ele>2454.2</ele>
        <time>2024-05-04T07:03:08Z</time>
      </trkpt>
      <trkpt lat="45.24041" lon="6.03973">
        <ele>2455.1</ele>
        <time>2024-05-04T07:03:11Z</time>
      </trkpt>
      <trkpt lat="45.2404" lon="6.03975">
        <ele>2455.9</ele>
        <time>2024-05-04T07:03:13Z</time>
      </trkpt>
      <trkpt lat="45.24037" lon="6.03988">
        <ele>2459</ele>
        <time>2024-05-04T07:03:31Z</time>
      </trkpt>
      <trkpt lat="45.2404" lon="6.04">
        <ele>2457.6</ele>
        <time>2024-05-04T07:03:45Z</time>
      </trkpt>
      <trkpt lat="45.24038" lon="6.04008">
        <ele>2459.6</ele>
        <time>2024-05-04T07:03:53Z</time>
      </trkpt>
      <trkpt lat="45.24038" lon="6.04014">
        <ele>2460</ele>
        <time>2024-05-04T07:03:58Z</time>
      </trkpt>
      <trkpt lat="45.24035" lon="6.04025">
        <ele>2462.9</ele>
        <time>2024-05-04T07:04:13Z</time>
      </trkpt>
      <trkpt lat="45.24033" lon="6.04028">
        <ele>2464.5</ele>
        <time>2024-05-04T07:04:17Z</time>
      </trkpt>
      <trkpt lat="45.24033" lon="6.04033">
        <ele>2465.3</ele>
        <time>2024-05-04T07:04:22Z</time>
      </trkpt>
      <trkpt lat="45.24033" lon="6.04038">
        <ele>2466.2</ele>
        <time>2024-05-04T07:04:30Z</time>
      </trkpt>
      <trkpt lat="45.24035" lon="6.04051">
        <ele>2467</ele>
        <time>2024-05-04T07:04:45Z</time>
      </trkpt>
      <trkpt lat="45.24034" lon="6.04057">
        <ele>2468.7</ele>
        <time>2024-05-04T07:04:53Z</time>
      </trkpt>
      <trkpt lat="45.24035" lon="6.04063">
        <ele>2468.9</ele>
        <time>2024-05-04T07:04:59Z</time>
      </trkpt>
      <trkpt lat="45.24034" lon="6.04072">
        <ele>2470.9</ele>
        <time>2024-05-04T07:05:08Z</time>
      </trkpt>
      <trkpt lat="45.24035" lon="6.0408">
        <ele>2471.3</ele>
        <time>2024-05-04T07:05:16Z</time>
      </trkpt>
      <trkpt lat="45.24038" lon="6.0409">
        <ele>2471</ele>
        <time>2024-05-04T07:05:34Z</time>
      </trkpt>
      <trkpt lat="45.24039" lon="6.04095">
        <ele>2471.4</ele>
        <time>2024-05-04T07:05:39Z</time>
      </trkpt>
      <trkpt lat="45.24041" lon="6.04094">
        <ele>2469.8</ele>
        <time>2024-05-04T07:05:43Z</time>
      </trkpt>
      <trkpt lat="45.24044" lon="6.04097">
        <ele>2468.4</ele>
        <time>2024-05-04T07:05:50Z</time>
      </trkpt>
      <trkpt lat="45.24041" lon="6.04103">
        <ele>2471.7</ele>
        <time>2024-05-04T07:05:56Z</time>
      </trkpt>
      <trkpt lat="45.24042" lon="6.04112">
        <ele>2473</ele>
        <time>2024-05-04T07:06:07Z</time>
      </trkpt>
      <trkpt lat="45.24039" lon="6.04116">
        <ele>2476</ele>
        <time>2024-05-04T07:06:43Z</time>
      </trkpt>
      <trkpt lat="45.24041" lon="6.04112">
        <ele>2473.7</ele>
        <time>2024-05-04T07:07:02Z</time>
      </trkpt>
      <trkpt lat="45.24038" lon="6.04107">
        <ele>2474.5</ele>
        <time>2024-05-04T07:07:11Z</time>
      </trkpt>
      <trkpt lat="45.24035" lon="6.04103">
        <ele>2475.7</ele>
        <time>2024-05-04T07:07:18Z</time>
      </trkpt>
      <trkpt lat="45.24026" lon="6.04084">
        <ele>2478.6</ele>
        <time>2024-05-04T07:07:55Z</time>
      </trkpt>
      <trkpt lat="45.24024" lon="6.04077">
        <ele>2479.2</ele>
        <time>2024-05-04T07:08:06Z</time>
      </trkpt>
      <trkpt lat="45.24022" lon="6.04073">
        <ele>2480.3</ele>
        <time>2024-05-04T07:08:13Z</time>
      </trkpt>
      <trkpt lat="45.24021" lon="6.0407">
        <ele>2480.7</ele>
        <time>2024-05-04T07:08:17Z</time>
      </trkpt>
      <trkpt lat="45.24019" lon="6.04068">
        <ele>2482.1</ele>
        <time>2024-05-04T07:08:21Z</time>
      </trkpt>
      <trkpt lat="45.24018" lon="6.04063">
        <ele>2482.2</ele>
        <time>2024-05-04T07:08:28Z</time>
      </trkpt>
      <trkpt lat="45.24016" lon="6.04054">
        <ele>2482.5</ele>
        <time>2024-05-04T07:08:43Z</time>
      </trkpt>
      <trkpt lat="45.24016" lon="6.04053">
        <ele>2482.3</ele>
        <time>2024-05-04T07:08:45Z</time>
      </trkpt>
      <trkpt lat="45.24014" lon="6.04048">
        <ele>2483</ele>
        <time>2024-05-04T07:08:53Z</time>
      </trkpt>
      <trkpt lat="45.2401" lon="6.04041">
        <ele>2485.1</ele>
        <time>2024-05-04T07:09:05Z</time>
      </trkpt>
      <trkpt lat="45.24007" lon="6.04031">
        <ele>2485.8</ele>
        <time>2024-05-04T07:09:19Z</time>
      </trkpt>
      <trkpt lat="45.24005" lon="6.04027">
        <ele>2486.8</ele>
        <time>2024-05-04T07:09:26Z</time>
      </trkpt>
      <trkpt lat="45.24003" lon="6.0402">
        <ele>2487.7</ele>
        <time>2024-05-04T07:09:35Z</time>
      </trkpt>
      <trkpt lat="45.23998" lon="6.04011">
        <ele>2490.8</ele>
        <time>2024-05-04T07:09:49Z</time>
      </trkpt>
      <trkpt lat="45.23997" lon="6.04014">
        <ele>2491.9</ele>
        <time>2024-05-04T07:09:58Z</time>
      </trkpt>
      <trkpt lat="45.23995" lon="6.04021">
        <ele>2494.3</ele>
        <time>2024-05-04T07:10:07Z</time>
      </trkpt>
      <trkpt lat="45.23995" lon="6.04031">
        <ele>2495.7</ele>
        <time>2024-05-04T07:10:20Z</time>
      </trkpt>
      <trkpt lat="45.23991" lon="6.04043">
        <ele>2501.4</ele>
        <time>2024-05-04T07:10:35Z</time>
      </trkpt>
      <trkpt lat="45.2399" lon="6.04048">
        <ele>2503.2</ele>
        <time>2024-05-04T07:10:41Z</time>
      </trkpt>
      <trkpt lat="45.23988" lon="6.04052">
        <ele>2505.7</ele>
        <time>2024-05-04T07:10:49Z</time>
      </trkpt>
      <trkpt lat="45.23989" lon="6.04058">
        <ele>2505.9</ele>
        <time>2024-05-04T07:10:56Z</time>
      </trkpt>
      <trkpt lat="45.23992" lon="6.04067">
        <ele>2504.7</ele>
        <time>2024-05-04T07:11:06Z</time>
      </trkpt>
      <trkpt lat="45.23992" lon="6.04071">
        <ele>2505.3</ele>
        <time>2024-05-04T07:11:12Z</time>
      </trkpt>
      <trkpt lat="45.23994" lon="6.04078">
        <ele>2504.6</ele>
        <time>2024-05-04T07:11:23Z</time>
      </trkpt>
      <trkpt lat="45.23995" lon="6.04083">
        <ele>2504.4</ele>
        <time>2024-05-04T07:11:32Z</time>
      </trkpt>
      <trkpt lat="45.23995" lon="6.04087">
        <ele>2505.4</ele>
        <time>2024-05-04T07:11:38Z</time>
      </trkpt>
      <trkpt lat="45.23997" lon="6.04075">
        <ele>2501.5</ele>
        <time>2024-05-04T07:12:03Z</time>
      </trkpt>
      <trkpt lat="45.23993" lon="6.04069">
        <ele>2504.1</ele>
        <time>2024-05-04T07:12:17Z</time>
      </trkpt>
      <trkpt lat="45.2399" lon="6.04066">
        <ele>2506.3</ele>
        <time>2024-05-04T07:12:30Z</time>
      </trkpt>
      <trkpt lat="45.23983" lon="6.04053">
        <ele>2510.2</ele>
        <time>2024-05-04T07:12:52Z</time>
      </trkpt>
      <trkpt lat="45.23978" lon="6.04045">
        <ele>2512.8</ele>
        <time>2024-05-04T07:13:04Z</time>
      </trkpt>
      <trkpt lat="45.23976" lon="6.04042">
        <ele>2513.9</ele>
        <time>2024-05-04T07:13:12Z</time>
      </trkpt>
      <trkpt lat="45.23973" lon="6.04038">
        <ele>2515.6</ele>
        <time>2024-05-04T07:13:20Z</time>
      </trkpt>
      <trkpt lat="45.23972" lon="6.04033">
        <ele>2515.4</ele>
        <time>2024-05-04T07:13:30Z</time>
      </trkpt>
      <trkpt lat="45.23968" lon="6.04029">
        <ele>2518.7</ele>
        <time>2024-05-04T07:13:40Z</time>
      </trkpt>
      <trkpt lat="45.23965" lon="6.04024">
        <ele>2520.9</ele>
        <time>2024-05-04T07:13:49Z</time>
      </trkpt>
      <trkpt lat="45.23964" lon="6.04022">
        <ele>2521.5</ele>
        <time>2024-05-04T07:13:53Z</time>
      </trkpt>
      <trkpt lat="45.23964" lon="6.0402">
        <ele>2521.2</ele>
        <time>2024-05-04T07:13:56Z</time>
      </trkpt>
      <trkpt lat="45.23963" lon="6.04016">
        <ele>2521.5</ele>
        <time>2024-05-04T07:14:03Z</time>
      </trkpt>
      <trkpt lat="45.23962" lon="6.04021">
        <ele>2523.5</ele>
        <time>2024-05-04T07:14:23Z</time>
      </trkpt>
      <trkpt lat="45.23963" lon="6.04027">
        <ele>2523.5</ele>
        <time>2024-05-04T07:14:34Z</time>
      </trkpt>
      <trkpt lat="45.23963" lon="6.04043">
        <ele>2526.4</ele>
        <time>2024-05-04T07:14:57Z</time>
      </trkpt>
      <trkpt lat="45.23963" lon="6.04048">
        <ele>2527.3</ele>
        <time>2024-05-04T07:15:05Z</time>
      </trkpt>
      <trkpt lat="45.23963" lon="6.04052">
        <ele>2528</ele>
        <time>2024-05-04T07:15:12Z</time>
      </trkpt>
      <trkpt lat="45.23967" lon="6.04061">
        <ele>2525.8</ele>
        <time>2024-05-04T07:15:26Z</time>
      </trkpt>
      <trkpt lat="45.23966" lon="6.04072">
        <ele>2528.4</ele>
        <time>2024-05-04T07:15:40Z</time>
      </trkpt>
      <trkpt lat="45.23968" lon="6.04076">
        <ele>2527.3</ele>
        <time>2024-05-04T07:15:47Z</time>
      </trkpt>
      <trkpt lat="45.23966" lon="6.04084">
        <ele>2530.4</ele>
        <time>2024-05-04T07:15:59Z</time>
      </trkpt>
      <trkpt lat="45.2397" lon="6.04091">
        <ele>2529.4</ele>
        <time>2024-05-04T07:16:09Z</time>
      </trkpt>
      <trkpt lat="45.23973" lon="6.04088">
        <ele>2525.8</ele>
        <time>2024-05-04T07:16:41Z</time>
      </trkpt>
      <trkpt lat="45.23967" lon="6.04082">
        <ele>2529.1</ele>
        <time>2024-05-04T07:16:54Z</time>
      </trkpt>
      <trkpt lat="45.23963" lon="6.04074">
        <ele>2531.3</ele>
        <time>2024-05-04T07:17:07Z</time>
      </trkpt>
      <trkpt lat="45.23958" lon="6.0407">
        <ele>2535.1</ele>
        <time>2024-05-04T07:17:17Z</time>
      </trkpt>
      <trkpt lat="45.23954" lon="6.04062">
        <ele>2537.8</ele>
        <time>2024-05-04T07:17:28Z</time>
      </trkpt>
      <trkpt lat="45.23952" lon="6.04056">
        <ele>2539</ele>
        <time>2024-05-04T07:17:37Z</time>
      </trkpt>
      <trkpt lat="45.23952" lon="6.04058">
        <ele>2539.2</ele>
        <time>2024-05-04T07:17:51Z</time>
      </trkpt>
      <trkpt lat="45.23954" lon="6.04068">
        <ele>2538.4</ele>
        <time>2024-05-04T07:18:16Z</time>
      </trkpt>
      <trkpt lat="45.23954" lon="6.0407">
        <ele>2538.6</ele>
        <time>2024-05-04T07:18:20Z</time>
      </trkpt>
      <trkpt lat="45.23953" lon="6.04073">
        <ele>2539.8</ele>
        <time>2024-05-04T07:18:24Z</time>
      </trkpt>
      <trkpt lat="45.23954" lon="6.04092">
        <ele>2543.9</ele>
        <time>2024-05-04T07:18:55Z</time>
      </trkpt>
      <trkpt lat="45.23953" lon="6.0409">
        <ele>2543.9</ele>
        <time>2024-05-04T07:19:32Z</time>
      </trkpt>
      <trkpt lat="45.2395" lon="6.04086">
        <ele>2544.6</ele>
        <time>2024-05-04T07:19:43Z</time>
      </trkpt>
      <trkpt lat="45.23947" lon="6.0408">
        <ele>2545.6</ele>
        <time>2024-05-04T07:19:56Z</time>
      </trkpt>
      <trkpt lat="45.23944" lon="6.04074">
        <ele>2547.7</ele>
        <time>2024-05-04T07:20:10Z</time>
      </trkpt>
      <trkpt lat="45.23944" lon="6.04073">
        <ele>2547.6</ele>
        <time>2024-05-04T07:20:13Z</time>
      </trkpt>
      <trkpt lat="45.23943" lon="6.04068">
        <ele>2548.1</ele>
        <time>2024-05-04T07:20:20Z</time>
      </trkpt>
      <trkpt lat="45.23943" lon="6.04063">
        <ele>2547.8</ele>
        <time>2024-05-04T07:20:27Z</time>
      </trkpt>
      <trkpt lat="45.23944" lon="6.04065">
        <ele>2547.1</ele>
        <time>2024-05-04T07:20:35Z</time>
      </trkpt>
      <trkpt lat="45.23943" lon="6.04066">
        <ele>2548</ele>
        <time>2024-05-04T07:20:39Z</time>
      </trkpt>
      <trkpt lat="45.23939" lon="6.04071">
        <ele>2551.6</ele>
        <time>2024-05-04T07:20:52Z</time>
      </trkpt>
      <trkpt lat="45.23941" lon="6.04089">
        <ele>2553.6</ele>
        <time>2024-05-04T07:21:21Z</time>
      </trkpt>
      <trkpt lat="45.23943" lon="6.04097">
        <ele>2556</ele>
        <time>2024-05-04T07:21:38Z</time>
      </trkpt>
      <trkpt lat="45.23946" lon="6.04099">
        <ele>2554.5</ele>
        <time>2024-05-04T07:21:56Z</time>
      </trkpt>
      <trkpt lat="45.23942" lon="6.04094">
        <ele>2555.3</ele>
        <time>2024-05-04T07:22:08Z</time>
      </trkpt>
      <trkpt lat="45.23939" lon="6.04091">
        <ele>2556.2</ele>
        <time>2024-05-04T07:22:17Z</time>
      </trkpt>
      <trkpt lat="45.23933" lon="6.04085">
        <ele>2557.9</ele>
        <time>2024-05-04T07:22:31Z</time>
      </trkpt>
      <trkpt lat="45.23929" lon="6.04076">
        <ele>2560</ele>
        <time>2024-05-04T07:22:46Z</time>
      </trkpt>
      <trkpt lat="45.23927" lon="6.04071">
        <ele>2561.5</ele>
        <time>2024-05-04T07:22:58Z</time>
      </trkpt>
      <trkpt lat="45.23926" lon="6.04068">
        <ele>2562.2</ele>
        <time>2024-05-04T07:23:03Z</time>
      </trkpt>
      <trkpt lat="45.23924" lon="6.04062">
        <ele>2563.8</ele>
        <time>2024-05-04T07:23:14Z</time>
      </trkpt>
      <trkpt lat="45.23925" lon="6.04058">
        <ele>2562.9</ele>
        <time>2024-05-04T07:23:21Z</time>
      </trkpt>
      <trkpt lat="45.23925" lon="6.04056">
        <ele>2562.8</ele>
        <time>2024-05-04T07:23:24Z</time>
      </trkpt>
      <trkpt lat="45.23924" lon="6.0405">
        <ele>2563.4</ele>
        <time>2024-05-04T07:23:35Z</time>
      </trkpt>
      <trkpt lat="45.23924" lon="6.04048">
        <ele>2563.2</ele>
        <time>2024-05-04T07:23:38Z</time>
      </trkpt>
      <trkpt lat="45.23924" lon="6.04046">
        <ele>2563.1</ele>
        <time>2024-05-04T07:23:41Z</time>
      </trkpt>
      <trkpt lat="45.23922" lon="6.0404">
        <ele>2564.6</ele>
        <time>2024-05-04T07:23:54Z</time>
      </trkpt>
      <trkpt lat="45.23921" lon="6.04039">
        <ele>2565.5</ele>
        <time>2024-05-04T07:23:57Z</time>
      </trkpt>
      <trkpt lat="45.23918" lon="6.04033">
        <ele>2568</ele>
        <time>2024-05-04T07:24:16Z</time>
      </trkpt>
      <trkpt lat="45.23918" lon="6.04034">
        <ele>2568</ele>
        <time>2024-05-04T07:24:18Z</time>
      </trkpt>
      <trkpt lat="45.23917" lon="6.04036">
        <ele>2569</ele>
        <time>2024-05-04T07:24:21Z</time>
      </trkpt>
      <trkpt lat="45.23918" lon="6.04039">
        <ele>2568.2</ele>
        <time>2024-05-04T07:24:25Z</time>
      </trkpt>
      <trkpt lat="45.23918" lon="6.04041">
        <ele>2568.3</ele>
        <time>2024-05-04T07:24:29Z</time>
      </trkpt>
      <trkpt lat="45.23916" lon="6.04044">
        <ele>2570.3</ele>
        <time>2024-05-04T07:24:33Z</time>
      </trkpt>
      <trkpt lat="45.23916" lon="6.04045">
        <ele>2570.4</ele>
        <time>2024-05-04T07:24:35Z</time>
      </trkpt>
      <trkpt lat="45.23915" lon="6.04047">
        <ele>2571.6</ele>
        <time>2024-05-04T07:24:38Z</time>
      </trkpt>
      <trkpt lat="45.23913" lon="6.04051">
        <ele>2574.2</ele>
        <time>2024-05-04T07:24:45Z</time>
      </trkpt>
      <trkpt lat="45.23913" lon="6.04052">
        <ele>2574.3</ele>
        <time>2024-05-04T07:24:47Z</time>
      </trkpt>
      <trkpt lat="45.23913" lon="6.04056">
        <ele>2574.5</ele>
        <time>2024-05-04T07:24:55Z</time>
      </trkpt>
      <trkpt lat="45.2391" lon="6.0406">
        <ele>2578.2</ele>
        <time>2024-05-04T07:25:03Z</time>
      </trkpt>
      <trkpt lat="45.23909" lon="6.04062">
        <ele>2579.5</ele>
        <time>2024-05-04T07:25:08Z</time>
      </trkpt>
      <trkpt lat="45.23908" lon="6.04071">
        <ele>2581</ele>
        <time>2024-05-04T07:25:21Z</time>
      </trkpt>
      <trkpt lat="45.23909" lon="6.04083">
        <ele>2579.9</ele>
        <time>2024-05-04T07:25:40Z</time>
      </trkpt>
      <trkpt lat="45.23915" lon="6.04093">
        <ele>2576.7</ele>
        <time>2024-05-04T07:25:57Z</time>
      </trkpt>
      <trkpt lat="45.23914" lon="6.04096">
        <ele>2579.2</ele>
        <time>2024-05-04T07:26:02Z</time>
      </trkpt>
      <trkpt lat="45.23912" lon="6.04097">
        <ele>2581.7</ele>
        <time>2024-05-04T07:26:23Z</time>
      </trkpt>
      <trkpt lat="45.23905" lon="6.04088">
        <ele>2586.4</ele>
        <time>2024-05-04T07:26:45Z</time>
      </trkpt>
      <trkpt lat="45.23904" lon="6.04086">
        <ele>2587.1</ele>
        <time>2024-05-04T07:26:51Z</time>
      </trkpt>
      <trkpt lat="45.239" lon="6.04081">
        <ele>2591.5</ele>
        <time>2024-05-04T07:27:22Z</time>
      </trkpt>
      <trkpt lat="45.23904" lon="6.04088">
        <ele>2587.6</ele>
        <time>2024-05-04T07:27:46Z</time>
      </trkpt>
      <trkpt lat="45.23892" lon="6.0408">
        <ele>2601.8</ele>
        <time>2024-05-04T07:28:14Z</time>
      </trkpt>
      <trkpt lat="45.23893" lon="6.04081">
        <ele>2600.5</ele>
        <time>2024-05-04T07:28:21Z</time>
      </trkpt>
      <trkpt lat="45.23901" lon="6.04087">
        <ele>2591</ele>
        <time>2024-05-04T07:28:47Z</time>
      </trkpt>
      <trkpt lat="45.23902" lon="6.04087">
        <ele>2589.8</ele>
        <time>2024-05-04T07:28:49Z</time>
      </trkpt>
      <trkpt lat="45.23902" lon="6.04086">
        <ele>2589.6</ele>
        <time>2024-05-04T07:29:01Z</time>
      </trkpt>
      <trkpt lat="45.23902" lon="6.04085">
        <ele>2589.4</ele>
        <time>2024-05-04T07:29:10Z</time>
      </trkpt>
      <trkpt lat="45.23901" lon="6.04085">
        <ele>2590.6</ele>
        <time>2024-05-04T07:29:17Z</time>
      </trkpt>
      <trkpt lat="45.23897" lon="6.04083">
        <ele>2595.5</ele>
        <time>2024-05-04T07:29:34Z</time>
      </trkpt>
      <trkpt lat="45.23895" lon="6.04083">
        <ele>2598.1</ele>
        <time>2024-05-04T07:29:45Z</time>
      </trkpt>
      <trkpt lat="45.23895" lon="6.04084">
        <ele>2598.1</ele>
        <time>2024-05-04T07:29:56Z</time>
      </trkpt>
      <trkpt lat="45.23895" lon="6.04085">
        <ele>2598.2</ele>
        <time>2024-05-04T07:30:01Z</time>
      </trkpt>
      <trkpt lat="45.23895" lon="6.04087">
        <ele>2598.4</ele>
        <time>2024-05-04T07:30:21Z</time>
      </trkpt>
      <trkpt lat="45.23895" lon="6.04087">
        <ele>2598.4</ele>
        <time>2024-05-04T07:30:28Z</time>
      </trkpt>
      <trkpt lat="45.23891" lon="6.04088">
        <ele>2603.3</ele>
        <time>2024-05-04T07:30:38Z</time>
      </trkpt>
      <trkpt lat="45.23885" lon="6.04088">
        <ele>2604.5</ele>
        <time>2024-05-04T07:30:54Z</time>
      </trkpt>
      <trkpt lat="45.23886" lon="6.04088">
        <ele>2604.9</ele>
        <time>2024-05-04T07:31:01Z</time>
      </trkpt>
      <trkpt lat="45.23885" lon="6.04088">
        <ele>2604.5</ele>
        <time>2024-05-04T07:31:15Z</time>
      </trkpt>
      <trkpt lat="45.23884" lon="6.04089">
        <ele>2604.1</ele>
        <time>2024-05-04T07:31:22Z</time>
      </trkpt>
      <trkpt lat="45.23881" lon="6.0409">
        <ele>2602.9</ele>
        <time>2024-05-04T07:31:27Z</time>
      </trkpt>
      <trkpt lat="45.23881" lon="6.04088">
        <ele>2603.2</ele>
        <time>2024-05-04T07:31:38Z</time>
      </trkpt>
      <trkpt lat="45.23881" lon="6.04091">
        <ele>2602.8</ele>
        <time>2024-05-04T07:31:50Z</time>
      </trkpt>
      <trkpt lat="45.23881" lon="6.04089">
        <ele>2603.1</ele>
        <time>2024-05-04T07:32:04Z</time>
      </trkpt>
      <trkpt lat="45.23883" lon="6.04089">
        <ele>2603.8</ele>
        <time>2024-05-04T07:32:31Z</time>
      </trkpt>
      <trkpt lat="45.23884" lon="6.04089">
        <ele>2604.1</ele>
        <time>2024-05-04T07:32:35Z</time>
      </trkpt>
      <trkpt lat="45.2389" lon="6.04088">
        <ele>2604.5</ele>
        <time>2024-05-04T07:32:53Z</time>
      </trkpt>
      <trkpt lat="45.2389" lon="6.04087">
        <ele>2604.5</ele>
        <time>2024-05-04T07:33:02Z</time>
      </trkpt>
      <trkpt lat="45.23884" lon="6.04092">
        <ele>2603.8</ele>
        <time>2024-05-04T07:33:24Z</time>
      </trkpt>
      <trkpt lat="45.23887" lon="6.0409">
        <ele>2605.1</ele>
        <time>2024-05-04T07:33:40Z</time>
      </trkpt>
      <trkpt lat="45.23883" lon="6.0409">
        <ele>2603.7</ele>
        <time>2024-05-04T07:33:50Z</time>
      </trkpt>
      <trkpt lat="45.23885" lon="6.0409">
        <ele>2604.4</ele>
        <time>2024-05-04T07:34:03Z</time>
      </trkpt>
      <trkpt lat="45.23892" lon="6.04088">
        <ele>2602.1</ele>
        <time>2024-05-04T07:34:12Z</time>
      </trkpt>
      <trkpt lat="45.23889" lon="6.04087">
        <ele>2605.7</ele>
        <time>2024-05-04T07:34:25Z</time>
      </trkpt>
      <trkpt lat="45.23888" lon="6.04087">
        <ele>2605.6</ele>
        <time>2024-05-04T07:34:28Z</time>
      </trkpt>
      <trkpt lat="45.23887" lon="6.04089">
        <ele>2605.1</ele>
        <time>2024-05-04T07:34:30Z</time>
      </trkpt>
      <trkpt lat="45.23889" lon="6.04098">
        <ele>2605.4</ele>
        <time>2024-05-04T07:34:42Z</time>
      </trkpt>
      <trkpt lat="45.23889" lon="6.04098">
        <ele>2605.4</ele>
        <time>2024-05-04T07:34:44Z</time>
      </trkpt>
      <trkpt lat="45.23893" lon="6.04096">
        <ele>2601.2</ele>
        <time>2024-05-04T07:35:02Z</time>
      </trkpt>
      <trkpt lat="45.23892" lon="6.04096">
        <ele>2602.3</ele>
        <time>2024-05-04T07:35:06Z</time>
      </trkpt>
      <trkpt lat="45.23893" lon="6.04097">
        <ele>2601.3</ele>
        <time>2024-05-04T07:35:09Z</time>
      </trkpt>
      <trkpt lat="45.23891" lon="6.04097">
        <ele>2603.3</ele>
        <time>2024-05-04T07:35:12Z</time>
      </trkpt>
      <trkpt lat="45.23888" lon="6.04094">
        <ele>2605.3</ele>
        <time>2024-05-04T07:35:16Z</time>
      </trkpt>
      <trkpt lat="45.23889" lon="6.0409">
        <ele>2605.6</ele>
        <time>2024-05-04T07:35:19Z</time>
      </trkpt>
      <trkpt lat="45.23888" lon="6.04089">
        <ele>2605.5</ele>
        <time>2024-05-04T07:35:51Z</time>
      </trkpt>
      <trkpt lat="45.23887" lon="6.04092">
        <ele>2605</ele>
        <time>2024-05-04T07:36:24Z</time>
      </trkpt>
      <trkpt lat="45.2389" lon="6.04098">
        <ele>2604.3</ele>
        <time>2024-05-04T07:36:36Z</time>
      </trkpt>
      <trkpt lat="45.23889" lon="6.04103">
        <ele>2605.2</ele>
        <time>2024-05-04T07:37:00Z</time>
      </trkpt>
      <trkpt lat="45.2389" lon="6.04106">
        <ele>2604.2</ele>
        <time>2024-05-04T07:37:02Z</time>
      </trkpt>
      <trkpt lat="45.23891" lon="6.04106">
        <ele>2603.4</ele>
        <time>2024-05-04T07:37:03Z</time>
      </trkpt>
      <trkpt lat="45.2389" lon="6.04107">
        <ele>2604.2</ele>
        <time>2024-05-04T07:37:04Z</time>
      </trkpt>
      <trkpt lat="45.2389" lon="6.04108">
        <ele>2604.2</ele>
        <time>2024-05-04T07:37:06Z</time>
      </trkpt>
      <trkpt lat="45.23889" lon="6.04111">
        <ele>2604.9</ele>
        <time>2024-05-04T07:37:15Z</time>
      </trkpt>
      <trkpt lat="45.23888" lon="6.04113">
        <ele>2604.2</ele>
        <time>2024-05-04T07:37:23Z</time>
      </trkpt>
      <trkpt lat="45.23888" lon="6.04113">
        <ele>2604.2</ele>
        <time>2024-05-04T07:37:26Z</time>
      </trkpt>
      <trkpt lat="45.2389" lon="6.04118">
        <ele>2603.3</ele>
        <time>2024-05-04T07:37:46Z</time>
      </trkpt>
      <trkpt lat="45.23891" lon="6.04121">
        <ele>2602.4</ele>
        <time>2024-05-04T07:37:55Z</time>
      </trkpt>
      <trkpt lat="45.23891" lon="6.04121">
        <ele>2602.4</ele>
        <time>2024-05-04T07:38:06Z</time>
      </trkpt>
      <trkpt lat="45.23891" lon="6.04123">
        <ele>2602.2</ele>
        <time>2024-05-04T07:38:14Z</time>
      </trkpt>
      <trkpt lat="45.23892" lon="6.04127">
        <ele>2601.3</ele>
        <time>2024-05-04T07:38:20Z</time>
      </trkpt>
      <trkpt lat="45.23891" lon="6.04129">
        <ele>2601.6</ele>
        <time>2024-05-04T07:38:27Z</time>
      </trkpt>
      <trkpt lat="45.23897" lon="6.04138">
        <ele>2599.2</ele>
        <time>2024-05-04T07:39:06Z</time>
      </trkpt>
      <trkpt lat="45.23893" lon="6.04141">
        <ele>2599.7</ele>
        <time>2024-05-04T07:39:21Z</time>
      </trkpt>
      <trkpt lat="45.23896" lon="6.04144">
        <ele>2598.6</ele>
        <time>2024-05-04T07:39:40Z</time>
      </trkpt>
      <trkpt lat="45.23896" lon="6.04145">
        <ele>2598.4</ele>
        <time>2024-05-04T07:39:42Z</time>
      </trkpt>
      <trkpt lat="45.23895" lon="6.04148">
        <ele>2598</ele>
        <time>2024-05-04T07:39:59Z</time>
      </trkpt>
      <trkpt lat="45.23899" lon="6.04158">
        <ele>2596.3</ele>
        <time>2024-05-04T07:40:38Z</time>
      </trkpt>
      <trkpt lat="45.239" lon="6.04162">
        <ele>2595.8</ele>
        <time>2024-05-04T07:40:51Z</time>
      </trkpt>
      <trkpt lat="45.23903" lon="6.04168">
        <ele>2595.3</ele>
        <time>2024-05-04T07:41:13Z</time>
      </trkpt>
      <trkpt lat="45.23903" lon="6.04174">
        <ele>2594.3</ele>
        <time>2024-05-04T07:41:28Z</time>
      </trkpt>
      <trkpt lat="45.23905" lon="6.04174">
        <ele>2594.7</ele>
        <time>2024-05-04T07:41:30Z</time>
      </trkpt>
      <trkpt lat="45.23906" lon="6.04176">
        <ele>2594.5</ele>
        <time>2024-05-04T07:41:33Z</time>
      </trkpt>
      <trkpt lat="45.23907" lon="6.04177">
        <ele>2594.6</ele>
        <time>2024-05-04T07:41:35Z</time>
      </trkpt>
      <trkpt lat="45.23909" lon="6.04177">
        <ele>2594.9</ele>
        <time>2024-05-04T07:41:37Z</time>
      </trkpt>
      <trkpt lat="45.23909" lon="6.04172">
        <ele>2595.5</ele>
        <time>2024-05-04T07:41:43Z</time>
      </trkpt>
      <trkpt lat="45.23908" lon="6.04168">
        <ele>2595.9</ele>
        <time>2024-05-04T07:41:47Z</time>
      </trkpt>
      <trkpt lat="45.23908" lon="6.04166">
        <ele>2596.1</ele>
        <time>2024-05-04T07:41:49Z</time>
      </trkpt>
      <trkpt lat="45.23907" lon="6.04165">
        <ele>2596</ele>
        <time>2024-05-04T07:41:51Z</time>
      </trkpt>
      <trkpt lat="45.23907" lon="6.04164">
        <ele>2596.1</ele>
        <time>2024-05-04T07:41:54Z</time>
      </trkpt>
      <trkpt lat="45.23907" lon="6.0416">
        <ele>2596.2</ele>
        <time>2024-05-04T07:42:18Z</time>
      </trkpt>
      <trkpt lat="45.23913" lon="6.04157">
        <ele>2596.3</ele>
        <time>2024-05-04T07:42:35Z</time>
      </trkpt>
      <trkpt lat="45.23917" lon="6.04156">
        <ele>2596</ele>
        <time>2024-05-04T07:42:39Z</time>
      </trkpt>
      <trkpt lat="45.23919" lon="6.04154">
        <ele>2594.6</ele>
        <time>2024-05-04T07:42:42Z</time>
      </trkpt>
      <trkpt lat="45.23921" lon="6.04151">
        <ele>2593</ele>
        <time>2024-05-04T07:42:47Z</time>
      </trkpt>
      <trkpt lat="45.23924" lon="6.04151">
        <ele>2591.1</ele>
        <time>2024-05-04T07:42:51Z</time>
      </trkpt>
      <trkpt lat="45.23927" lon="6.04156">
        <ele>2589.7</ele>
        <time>2024-05-04T07:42:57Z</time>
      </trkpt>
      <trkpt lat="45.23932" lon="6.04162">
        <ele>2587.5</ele>
        <time>2024-05-04T07:43:03Z</time>
      </trkpt>
      <trkpt lat="45.23931" lon="6.04164">
        <ele>2588.4</ele>
        <time>2024-05-04T07:43:07Z</time>
      </trkpt>
      <trkpt lat="45.23931" lon="6.04165">
        <ele>2588.5</ele>
        <time>2024-05-04T07:43:10Z</time>
      </trkpt>
      <trkpt lat="45.23931" lon="6.04167">
        <ele>2588.7</ele>
        <time>2024-05-04T07:43:12Z</time>
      </trkpt>
      <trkpt lat="45.23936" lon="6.04181">
        <ele>2586.3</ele>
        <time>2024-05-04T07:43:25Z</time>
      </trkpt>
      <trkpt lat="45.23937" lon="6.04185">
        <ele>2585.9</ele>
        <time>2024-05-04T07:43:29Z</time>
      </trkpt>
      <trkpt lat="45.23936" lon="6.04188">
        <ele>2586.5</ele>
        <time>2024-05-04T07:43:32Z</time>
      </trkpt>
      <trkpt lat="45.23935" lon="6.0419">
        <ele>2587</ele>
        <time>2024-05-04T07:43:35Z</time>
      </trkpt>
      <trkpt lat="45.23935" lon="6.04193">
        <ele>2587</ele>
        <time>2024-05-04T07:43:37Z</time>
      </trkpt>
      <trkpt lat="45.23935" lon="6.04195">
        <ele>2586.9</ele>
        <time>2024-05-04T07:43:39Z</time>
      </trkpt>
      <trkpt lat="45.23934" lon="6.04195">
        <ele>2587.4</ele>
        <time>2024-05-04T07:43:43Z</time>
      </trkpt>
      <trkpt lat="45.23934" lon="6.04199">
        <ele>2586.5</ele>
        <time>2024-05-04T07:43:49Z</time>
      </trkpt>
      <trkpt lat="45.23933" lon="6.04201">
        <ele>2586.5</ele>
        <time>2024-05-04T07:43:51Z</time>
      </trkpt>
      <trkpt lat="45.23934" lon="6.04203">
        <ele>2585.6</ele>
        <time>2024-05-04T07:43:54Z</time>
      </trkpt>
      <trkpt lat="45.23934" lon="6.04204">
        <ele>2585.3</ele>
        <time>2024-05-04T07:43:56Z</time>
      </trkpt>
      <trkpt lat="45.23932" lon="6.04213">
        <ele>2584.5</ele>
        <time>2024-05-04T07:44:03Z</time>
      </trkpt>
      <trkpt lat="45.23932" lon="6.04213">
        <ele>2584.5</ele>
        <time>2024-05-04T07:44:04Z</time>
      </trkpt>
      <trkpt lat="45.23932" lon="6.04215">
        <ele>2584</ele>
        <time>2024-05-04T07:44:06Z</time>
      </trkpt>
      <trkpt lat="45.23931" lon="6.04216">
        <ele>2584.5</ele>
        <time>2024-05-04T07:44:08Z</time>
      </trkpt>
      <trkpt lat="45.2393" lon="6.04217">
        <ele>2584.9</ele>
        <time>2024-05-04T07:44:10Z</time>
      </trkpt>
      <trkpt lat="45.23927" lon="6.04223">
        <ele>2585.7</ele>
        <time>2024-05-04T07:44:16Z</time>
      </trkpt>
      <trkpt lat="45.23923" lon="6.04227">
        <ele>2587.6</ele>
        <time>2024-05-04T07:44:22Z</time>
      </trkpt>
      <trkpt lat="45.23918" lon="6.04232">
        <ele>2590.2</ele>
        <time>2024-05-04T07:44:27Z</time>
      </trkpt>
      <trkpt lat="45.23916" lon="6.04239">
        <ele>2590</ele>
        <time>2024-05-04T07:44:31Z</time>
      </trkpt>
      <trkpt lat="45.23916" lon="6.04243">
        <ele>2589.3</ele>
        <time>2024-05-04T07:44:35Z</time>
      </trkpt>
      <trkpt lat="45.23917" lon="6.04244">
        <ele>2588.8</ele>
        <time>2024-05-04T07:44:37Z</time>
      </trkpt>
      <trkpt lat="45.23919" lon="6.04245">
        <ele>2586.9</ele>
        <time>2024-05-04T07:44:39Z</time>
      </trkpt>
      <trkpt lat="45.23919" lon="6.04247">
        <ele>2586.5</ele>
        <time>2024-05-04T07:44:41Z</time>
      </trkpt>
      <trkpt lat="45.23919" lon="6.04249">
        <ele>2586.1</ele>
        <time>2024-05-04T07:44:43Z</time>
      </trkpt>
      <trkpt lat="45.23918" lon="6.0425">
        <ele>2586.8</ele>
        <time>2024-05-04T07:44:45Z</time>
      </trkpt>
      <trkpt lat="45.23914" lon="6.04249">
        <ele>2588.6</ele>
        <time>2024-05-04T07:45:03Z</time>
      </trkpt>
      <trkpt lat="45.23914" lon="6.04249">
        <ele>2588.6</ele>
        <time>2024-05-04T07:45:05Z</time>
      </trkpt>
      <trkpt lat="45.23913" lon="6.0425">
        <ele>2588.7</ele>
        <time>2024-05-04T07:45:11Z</time>
      </trkpt>
      <trkpt lat="45.23913" lon="6.0425">
        <ele>2588.7</ele>
        <time>2024-05-04T07:45:16Z</time>
      </trkpt>
      <trkpt lat="45.23913" lon="6.04248">
        <ele>2588.9</ele>
        <time>2024-05-04T07:45:35Z</time>
      </trkpt>
      <trkpt lat="45.23914" lon="6.0425">
        <ele>2588.5</ele>
        <time>2024-05-04T07:46:16Z</time>
      </trkpt>
      <trkpt lat="45.23913" lon="6.04249">
        <ele>2588.8</ele>
        <time>2024-05-04T07:46:57Z</time>
      </trkpt>
      <trkpt lat="45.23912" lon="6.04249">
        <ele>2589</ele>
        <time>2024-05-04T07:47:14Z</time>
      </trkpt>
      <trkpt lat="45.23913" lon="6.0425">
        <ele>2588.7</ele>
        <time>2024-05-04T07:48:47Z</time>
      </trkpt>
      <trkpt lat="45.23913" lon="6.0425">
        <ele>2588.7</ele>
        <time>2024-05-04T07:51:05Z</time>
      </trkpt>
      <trkpt lat="45.23914" lon="6.04249">
        <ele>2588.6</ele>
        <time>2024-05-04T07:51:06Z</time>
      </trkpt>
      <trkpt lat="45.23915" lon="6.04249">
        <ele>2588.5</ele>
        <time>2024-05-04T07:51:09Z</time>
      </trkpt>
      <trkpt lat="45.23917" lon="6.04249">
        <ele>2587.9</ele>
        <time>2024-05-04T07:51:25Z</time>
      </trkpt>
      <trkpt lat="45.23915" lon="6.0425">
        <ele>2588.3</ele>
        <time>2024-05-04T07:51:49Z</time>
      </trkpt>
      <trkpt lat="45.23917" lon="6.04255">
        <ele>2587</ele>
        <time>2024-05-04T07:52:05Z</time>
      </trkpt>
      <trkpt lat="45.23919" lon="6.04255">
        <ele>2585.1</ele>
        <time>2024-05-04T07:52:07Z</time>
      </trkpt>
      <trkpt lat="45.2392" lon="6.04255">
        <ele>2584.2</ele>
        <time>2024-05-04T07:52:09Z</time>
      </trkpt>
      <trkpt lat="45.23921" lon="6.04258">
        <ele>2582.8</ele>
        <time>2024-05-04T07:52:10Z</time>
      </trkpt>
      <trkpt lat="45.23921" lon="6.04265">
        <ele>2581.6</ele>
        <time>2024-05-04T07:52:12Z</time>
      </trkpt>
      <trkpt lat="45.23922" lon="6.04268">
        <ele>2580.1</ele>
        <time>2024-05-04T07:52:13Z</time>
      </trkpt>
      <trkpt lat="45.23922" lon="6.0427">
        <ele>2579.8</ele>
        <time>2024-05-04T07:52:14Z</time>
      </trkpt>
      <trkpt lat="45.23923" lon="6.0427">
        <ele>2578.8</ele>
        <time>2024-05-04T07:52:15Z</time>
      </trkpt>
      <trkpt lat="45.23927" lon="6.04269">
        <ele>2574.9</ele>
        <time>2024-05-04T07:52:17Z</time>
      </trkpt>
      <trkpt lat="45.23929" lon="6.04267">
        <ele>2573.4</ele>
        <time>2024-05-04T07:52:18Z</time>
      </trkpt>
      <trkpt lat="45.23931" lon="6.04266">
        <ele>2571.6</ele>
        <time>2024-05-04T07:52:19Z</time>
      </trkpt>
      <trkpt lat="45.23932" lon="6.04263">
        <ele>2571.3</ele>
        <time>2024-05-04T07:52:20Z</time>
      </trkpt>
      <trkpt lat="45.23932" lon="6.04262">
        <ele>2571.5</ele>
        <time>2024-05-04T07:52:21Z</time>
      </trkpt>
      <trkpt lat="45.23932" lon="6.04262">
        <ele>2571.5</ele>
        <time>2024-05-04T07:52:22Z</time>
      </trkpt>
      <trkpt lat="45.23932" lon="6.04263">
        <ele>2571.3</ele>
        <time>2024-05-04T07:52:23Z</time>
      </trkpt>
      <trkpt lat="45.23931" lon="6.04269">
        <ele>2571</ele>
        <time>2024-05-04T07:52:25Z</time>
      </trkpt>
      <trkpt lat="45.23931" lon="6.04273">
        <ele>2570.1</ele>
        <time>2024-05-04T07:52:26Z</time>
      </trkpt>
      <trkpt lat="45.23931" lon="6.04278">
        <ele>2569</ele>
        <time>2024-05-04T07:52:27Z</time>
      </trkpt>
      <trkpt lat="45.23931" lon="6.04282">
        <ele>2568.3</ele>
        <time>2024-05-04T07:52:28Z</time>
      </trkpt>
      <trkpt lat="45.23934" lon="6.04281">
        <ele>2565.2</ele>
        <time>2024-05-04T07:52:29Z</time>
      </trkpt>
      <trkpt lat="45.23936" lon="6.04279">
        <ele>2563.5</ele>
        <time>2024-05-04T07:52:30Z</time>
      </trkpt>
      <trkpt lat="45.23939" lon="6.04276">
        <ele>2561.1</ele>
        <time>2024-05-04T07:52:31Z</time>
      </trkpt>
      <trkpt lat="45.23942" lon="6.04275">
        <ele>2558.3</ele>
        <time>2024-05-04T07:52:32Z</time>
      </trkpt>
      <trkpt lat="45.23943" lon="6.04277">
        <ele>2556.7</ele>
        <time>2024-05-04T07:52:33Z</time>
      </trkpt>
      <trkpt lat="45.23944" lon="6.04282">
        <ele>2554.3</ele>
        <time>2024-05-04T07:52:34Z</time>
      </trkpt>
      <trkpt lat="45.23945" lon="6.04287">
        <ele>2551.8</ele>
        <time>2024-05-04T07:52:35Z</time>
      </trkpt>
      <trkpt lat="45.23948" lon="6.04289">
        <ele>2548.3</ele>
        <time>2024-05-04T07:52:36Z</time>
      </trkpt>
      <trkpt lat="45.23952" lon="6.0429">
        <ele>2544.2</ele>
        <time>2024-05-04T07:52:37Z</time>
      </trkpt>
      <trkpt lat="45.23955" lon="6.04295">
        <ele>2539.7</ele>
        <time>2024-05-04T07:52:38Z</time>
      </trkpt>
      <trkpt lat="45.23956" lon="6.043">
        <ele>2537.1</ele>
        <time>2024-05-04T07:52:39Z</time>
      </trkpt>
      <trkpt lat="45.23958" lon="6.04303">
        <ele>2534.2</ele>
        <time>2024-05-04T07:52:40Z</time>
      </trkpt>
      <trkpt lat="45.23962" lon="6.04302">
        <ele>2530.5</ele>
        <time>2024-05-04T07:52:41Z</time>
      </trkpt>
      <trkpt lat="45.23966" lon="6.04299">
        <ele>2527.5</ele>
        <time>2024-05-04T07:52:42Z</time>
      </trkpt>
      <trkpt lat="45.23969" lon="6.04299">
        <ele>2524.6</ele>
        <time>2024-05-04T07:52:43Z</time>
      </trkpt>
      <trkpt lat="45.23972" lon="6.04304">
        <ele>2519.8</ele>
        <time>2024-05-04T07:52:44Z</time>
      </trkpt>
      <trkpt lat="45.23973" lon="6.04311">
        <ele>2517.8</ele>
        <time>2024-05-04T07:52:45Z</time>
      </trkpt>
      <trkpt lat="45.23975" lon="6.04315">
        <ele>2515.7</ele>
        <time>2024-05-04T07:52:46Z</time>
      </trkpt>
      <trkpt lat="45.23979" lon="6.04314">
        <ele>2512.6</ele>
        <time>2024-05-04T07:52:47Z</time>
      </trkpt>
      <trkpt lat="45.23985" lon="6.04311">
        <ele>2508.1</ele>
        <time>2024-05-04T07:52:48Z</time>
      </trkpt>
      <trkpt lat="45.2399" lon="6.04309">
        <ele>2504.4</ele>
        <time>2024-05-04T07:52:49Z</time>
      </trkpt>
      <trkpt lat="45.23997" lon="6.04311">
        <ele>2498.4</ele>
        <time>2024-05-04T07:52:50Z</time>
      </trkpt>
      <trkpt lat="45.24" lon="6.04317">
        <ele>2494.9</ele>
        <time>2024-05-04T07:52:51Z</time>
      </trkpt>
      <trkpt lat="45.24003" lon="6.04325">
        <ele>2491.1</ele>
        <time>2024-05-04T07:52:52Z</time>
      </trkpt>
      <trkpt lat="45.24003" lon="6.04332">
        <ele>2489.9</ele>
        <time>2024-05-04T07:52:53Z</time>
      </trkpt>
      <trkpt lat="45.24003" lon="6.04339">
        <ele>2489</ele>
        <time>2024-05-04T07:52:54Z</time>
      </trkpt>
      <trkpt lat="45.24003" lon="6.04345">
        <ele>2488.3</ele>
        <time>2024-05-04T07:52:55Z</time>
      </trkpt>
      <trkpt lat="45.24003" lon="6.04351">
        <ele>2487.6</ele>
        <time>2024-05-04T07:52:56Z</time>
      </trkpt>
      <trkpt lat="45.24003" lon="6.04356">
        <ele>2487</ele>
        <time>2024-05-04T07:52:57Z</time>
      </trkpt>
      <trkpt lat="45.24003" lon="6.04358">
        <ele>2486.8</ele>
        <time>2024-05-04T07:52:58Z</time>
      </trkpt>
      <trkpt lat="45.24002" lon="6.04358">
        <ele>2487.6</ele>
        <time>2024-05-04T07:52:59Z</time>
      </trkpt>
      <trkpt lat="45.24" lon="6.04358">
        <ele>2489.3</ele>
        <time>2024-05-04T07:53:01Z</time>
      </trkpt>
      <trkpt lat="45.24001" lon="6.04361">
        <ele>2488.1</ele>
        <time>2024-05-04T07:53:03Z</time>
      </trkpt>
      <trkpt lat="45.24001" lon="6.0436">
        <ele>2488.3</ele>
        <time>2024-05-04T07:53:04Z</time>
      </trkpt>
      <trkpt lat="45.24004" lon="6.04362">
        <ele>2485.7</ele>
        <time>2024-05-04T07:53:33Z</time>
      </trkpt>
      <trkpt lat="45.24013" lon="6.04381">
        <ele>2480.1</ele>
        <time>2024-05-04T07:53:36Z</time>
      </trkpt>
      <trkpt lat="45.24016" lon="6.04388">
        <ele>2477.6</ele>
        <time>2024-05-04T07:53:37Z</time>
      </trkpt>
      <trkpt lat="45.24017" lon="6.0439">
        <ele>2476.8</ele>
        <time>2024-05-04T07:53:38Z</time>
      </trkpt>
      <trkpt lat="45.24019" lon="6.04386">
        <ele>2474.3</ele>
        <time>2024-05-04T07:53:39Z</time>
      </trkpt>
      <trkpt lat="45.24021" lon="6.0438">
        <ele>2471.9</ele>
        <time>2024-05-04T07:53:40Z</time>
      </trkpt>
      <trkpt lat="45.24021" lon="6.04375">
        <ele>2471.6</ele>
        <time>2024-05-04T07:53:41Z</time>
      </trkpt>
      <trkpt lat="45.24024" lon="6.04373">
        <ele>2468.6</ele>
        <time>2024-05-04T07:53:42Z</time>
      </trkpt>
      <trkpt lat="45.24026" lon="6.04375">
        <ele>2466.7</ele>
        <time>2024-05-04T07:53:43Z</time>
      </trkpt>
      <trkpt lat="45.24029" lon="6.04381">
        <ele>2463.9</ele>
        <time>2024-05-04T07:53:44Z</time>
      </trkpt>
      <trkpt lat="45.24033" lon="6.04385">
        <ele>2460.1</ele>
        <time>2024-05-04T07:53:45Z</time>
      </trkpt>
      <trkpt lat="45.2404" lon="6.04383">
        <ele>2453.6</ele>
        <time>2024-05-04T07:53:46Z</time>
      </trkpt>
      <trkpt lat="45.24044" lon="6.04381">
        <ele>2450.1</ele>
        <time>2024-05-04T07:53:47Z</time>
      </trkpt>
      <trkpt lat="45.24047" lon="6.04383">
        <ele>2447</ele>
        <time>2024-05-04T07:53:48Z</time>
      </trkpt>
      <trkpt lat="45.2405" lon="6.04387">
        <ele>2443.7</ele>
        <time>2024-05-04T07:53:49Z</time>
      </trkpt>
      <trkpt lat="45.24053" lon="6.0439">
        <ele>2440.3</ele>
        <time>2024-05-04T07:53:50Z</time>
      </trkpt>
      <trkpt lat="45.24058" lon="6.04391">
        <ele>2435.8</ele>
        <time>2024-05-04T07:53:51Z</time>
      </trkpt>
      <trkpt lat="45.24063" lon="6.04389">
        <ele>2432.6</ele>
        <time>2024-05-04T07:53:52Z</time>
      </trkpt>
      <trkpt lat="45.24068" lon="6.04389">
        <ele>2429</ele>
        <time>2024-05-04T07:53:53Z</time>
      </trkpt>
      <trkpt lat="45.24073" lon="6.04393">
        <ele>2424.2</ele>
        <time>2024-05-04T07:53:54Z</time>
      </trkpt>
      <trkpt lat="45.24079" lon="6.04398">
        <ele>2418</ele>
        <time>2024-05-04T07:53:55Z</time>
      </trkpt>
      <trkpt lat="45.24087" lon="6.04399">
        <ele>2412.6</ele>
        <time>2024-05-04T07:53:56Z</time>
      </trkpt>
      <trkpt lat="45.24095" lon="6.04398">
        <ele>2409</ele>
        <time>2024-05-04T07:53:57Z</time>
      </trkpt>
      <trkpt lat="45.24101" lon="6.04396">
        <ele>2406.7</ele>
        <time>2024-05-04T07:53:58Z</time>
      </trkpt>
      <trkpt lat="45.24108" lon="6.04395">
        <ele>2403.6</ele>
        <time>2024-05-04T07:53:59Z</time>
      </trkpt>
      <trkpt lat="45.24113" lon="6.04399">
        <ele>2400</ele>
        <time>2024-05-04T07:54:00Z</time>
      </trkpt>
      <trkpt lat="45.24117" lon="6.04406">
        <ele>2396.2</ele>
        <time>2024-05-04T07:54:01Z</time>
      </trkpt>
      <trkpt lat="45.24122" lon="6.04413">
        <ele>2392.2</ele>
        <time>2024-05-04T07:54:02Z</time>
      </trkpt>
      <trkpt lat="45.24129" lon="6.04418">
        <ele>2388.2</ele>
        <time>2024-05-04T07:54:03Z</time>
      </trkpt>
      <trkpt lat="45.24138" lon="6.0442">
        <ele>2384.4</ele>
        <time>2024-05-04T07:54:04Z</time>
      </trkpt>
      <trkpt lat="45.24145" lon="6.04426">
        <ele>2379.8</ele>
        <time>2024-05-04T07:54:05Z</time>
      </trkpt>
      <trkpt lat="45.24152" lon="6.0444">
        <ele>2374.1</ele>
        <time>2024-05-04T07:54:06Z</time>
      </trkpt>
      <trkpt lat="45.24156" lon="6.04454">
        <ele>2369.9</ele>
        <time>2024-05-04T07:54:07Z</time>
      </trkpt>
      <trkpt lat="45.24162" lon="6.04465">
        <ele>2365.8</ele>
        <time>2024-05-04T07:54:08Z</time>
      </trkpt>
      <trkpt lat="45.2417" lon="6.04472">
        <ele>2362.4</ele>
        <time>2024-05-04T07:54:09Z</time>
      </trkpt>
      <trkpt lat="45.24178" lon="6.04479">
        <ele>2359.2</ele>
        <time>2024-05-04T07:54:10Z</time>
      </trkpt>
      <trkpt lat="45.24184" lon="6.04486">
        <ele>2356.1</ele>
        <time>2024-05-04T07:54:11Z</time>
      </trkpt>
      <trkpt lat="45.24183" lon="6.04491">
        <ele>2354.9</ele>
        <time>2024-05-04T07:54:12Z</time>
      </trkpt>
      <trkpt lat="45.2418" lon="6.04494">
        <ele>2354.7</ele>
        <time>2024-05-04T07:54:13Z</time>
      </trkpt>
      <trkpt lat="45.24179" lon="6.04494">
        <ele>2354.9</ele>
        <time>2024-05-04T07:54:14Z</time>
      </trkpt>
      <trkpt lat="45.24178" lon="6.04494">
        <ele>2355.2</ele>
        <time>2024-05-04T07:54:15Z</time>
      </trkpt>
      <trkpt lat="45.24178" lon="6.04494">
        <ele>2355.2</ele>
        <time>2024-05-04T07:54:16Z</time>
      </trkpt>
      <trkpt lat="45.24177" lon="6.04493">
        <ele>2355.6</ele>
        <time>2024-05-04T07:54:17Z</time>
      </trkpt>
      <trkpt lat="45.24176" lon="6.0449">
        <ele>2356.6</ele>
        <time>2024-05-04T07:54:19Z</time>
      </trkpt>
      <trkpt lat="45.24175" lon="6.0449">
        <ele>2356.8</ele>
        <time>2024-05-04T07:54:20Z</time>
      </trkpt>
      <trkpt lat="45.24172" lon="6.0449">
        <ele>2357.4</ele>
        <time>2024-05-04T07:54:23Z</time>
      </trkpt>
      <trkpt lat="45.24166" lon="6.04491">
        <ele>2358.4</ele>
        <time>2024-05-04T07:54:27Z</time>
      </trkpt>
      <trkpt lat="45.24163" lon="6.0449">
        <ele>2359.4</ele>
        <time>2024-05-04T07:54:31Z</time>
      </trkpt>
      <trkpt lat="45.24163" lon="6.0449">
        <ele>2359.4</ele>
        <time>2024-05-04T07:54:33Z</time>
      </trkpt>
      <trkpt lat="45.24163" lon="6.0449">
        <ele>2359.4</ele>
        <time>2024-05-04T07:54:35Z</time>
      </trkpt>
      <trkpt lat="45.24163" lon="6.04506">
        <ele>2355</ele>
        <time>2024-05-04T07:54:57Z</time>
      </trkpt>
      <trkpt lat="45.24158" lon="6.04521">
        <ele>2351.4</ele>
        <time>2024-05-04T07:55:00Z</time>
      </trkpt>
      <trkpt lat="45.24151" lon="6.04538">
        <ele>2347.1</ele>
        <time>2024-05-04T07:55:02Z</time>
      </trkpt>
      <trkpt lat="45.24149" lon="6.04547">
        <ele>2344.1</ele>
        <time>2024-05-04T07:55:03Z</time>
      </trkpt>
      <trkpt lat="45.24152" lon="6.04555">
        <ele>2340.4</ele>
        <time>2024-05-04T07:55:04Z</time>
      </trkpt>
      <trkpt lat="45.24158" lon="6.04563">
        <ele>2335.7</ele>
        <time>2024-05-04T07:55:05Z</time>
      </trkpt>
      <trkpt lat="45.24165" lon="6.04568">
        <ele>2332</ele>
        <time>2024-05-04T07:55:06Z</time>
      </trkpt>
      <trkpt lat="45.24174" lon="6.04572">
        <ele>2327</ele>
        <time>2024-05-04T07:55:07Z</time>
      </trkpt>
      <trkpt lat="45.24181" lon="6.04577">
        <ele>2322.3</ele>
        <time>2024-05-04T07:55:08Z</time>
      </trkpt>
      <trkpt lat="45.24188" lon="6.04583">
        <ele>2317.4</ele>
        <time>2024-05-04T07:55:09Z</time>
      </trkpt>
      <trkpt lat="45.24191" lon="6.0459">
        <ele>2313.3</ele>
        <time>2024-05-04T07:55:10Z</time>
      </trkpt>
      <trkpt lat="45.2419" lon="6.04598">
        <ele>2310.1</ele>
        <time>2024-05-04T07:55:11Z</time>
      </trkpt>
      <trkpt lat="45.24187" lon="6.04609">
        <ele>2306.1</ele>
        <time>2024-05-04T07:55:12Z</time>
      </trkpt>
      <trkpt lat="45.24187" lon="6.04619">
        <ele>2301.6</ele>
        <time>2024-05-04T07:55:13Z</time>
      </trkpt>
      <trkpt lat="45.24192" lon="6.04628">
        <ele>2295.9</ele>
        <time>2024-05-04T07:55:14Z</time>
      </trkpt>
      <trkpt lat="45.24199" lon="6.04632">
        <ele>2291.8</ele>
        <time>2024-05-04T07:55:15Z</time>
      </trkpt>
      <trkpt lat="45.24207" lon="6.04634">
        <ele>2288.4</ele>
        <time>2024-05-04T07:55:16Z</time>
      </trkpt>
      <trkpt lat="45.24212" lon="6.04638">
        <ele>2284.8</ele>
        <time>2024-05-04T07:55:17Z</time>
      </trkpt>
      <trkpt lat="45.24213" lon="6.04644">
        <ele>2281.7</ele>
        <time>2024-05-04T07:55:18Z</time>
      </trkpt>
      <trkpt lat="45.24216" lon="6.04653">
        <ele>2276.6</ele>
        <time>2024-05-04T07:55:19Z</time>
      </trkpt>
      <trkpt lat="45.24218" lon="6.0466">
        <ele>2272.7</ele>
        <time>2024-05-04T07:55:20Z</time>
      </trkpt>
      <trkpt lat="45.24221" lon="6.04667">
        <ele>2268.4</ele>
        <time>2024-05-04T07:55:21Z</time>
      </trkpt>
      <trkpt lat="45.24226" lon="6.04672">
        <ele>2266</ele>
        <time>2024-05-04T07:55:22Z</time>
      </trkpt>
      <trkpt lat="45.24233" lon="6.04675">
        <ele>2264.7</ele>
        <time>2024-05-04T07:55:23Z</time>
      </trkpt>
      <trkpt lat="45.24241" lon="6.0468">
        <ele>2262.2</ele>
        <time>2024-05-04T07:55:24Z</time>
      </trkpt>
      <trkpt lat="45.24245" lon="6.0469">
        <ele>2257.5</ele>
        <time>2024-05-04T07:55:25Z</time>
      </trkpt>
      <trkpt lat="45.24249" lon="6.04703">
        <ele>2253</ele>
        <time>2024-05-04T07:55:26Z</time>
      </trkpt>
      <trkpt lat="45.24254" lon="6.04719">
        <ele>2248.6</ele>
        <time>2024-05-04T07:55:27Z</time>
      </trkpt>
      <trkpt lat="45.24257" lon="6.04735">
        <ele>2244.8</ele>
        <time>2024-05-04T07:55:28Z</time>
      </trkpt>
      <trkpt lat="45.24263" lon="6.04749">
        <ele>2240.9</ele>
        <time>2024-05-04T07:55:29Z</time>
      </trkpt>
      <trkpt lat="45.24265" lon="6.04765">
        <ele>2238.9</ele>
        <time>2024-05-04T07:55:30Z</time>
      </trkpt>
      <trkpt lat="45.24269" lon="6.04781">
        <ele>2236.7</ele>
        <time>2024-05-04T07:55:31Z</time>
      </trkpt>
      <trkpt lat="45.2427" lon="6.04796">
        <ele>2235.7</ele>
        <time>2024-05-04T07:55:32Z</time>
      </trkpt>
      <trkpt lat="45.24271" lon="6.04809">
        <ele>2235.1</ele>
        <time>2024-05-04T07:55:33Z</time>
      </trkpt>
      <trkpt lat="45.24275" lon="6.0482">
        <ele>2234.4</ele>
        <time>2024-05-04T07:55:34Z</time>
      </trkpt>
      <trkpt lat="45.24277" lon="6.04831">
        <ele>2234.2</ele>
        <time>2024-05-04T07:55:35Z</time>
      </trkpt>
      <trkpt lat="45.24279" lon="6.04841">
        <ele>2234.4</ele>
        <time>2024-05-04T07:55:36Z</time>
      </trkpt>
      <trkpt lat="45.24282" lon="6.04849">
        <ele>2234.2</ele>
        <time>2024-05-04T07:55:37Z</time>
      </trkpt>
      <trkpt lat="45.24284" lon="6.04857">
        <ele>2234.2</ele>
        <time>2024-05-04T07:55:38Z</time>
      </trkpt>
      <trkpt lat="45.24286" lon="6.04864">
        <ele>2233.9</ele>
        <time>2024-05-04T07:55:39Z</time>
      </trkpt>
      <trkpt lat="45.24287" lon="6.0487">
        <ele>2233.9</ele>
        <time>2024-05-04T07:55:40Z</time>
      </trkpt>
      <trkpt lat="45.24287" lon="6.04876">
        <ele>2234.2</ele>
        <time>2024-05-04T07:55:41Z</time>
      </trkpt>
      <trkpt lat="45.24289" lon="6.04883">
        <ele>2233.8</ele>
        <time>2024-05-04T07:55:43Z</time>
      </trkpt>
      <trkpt lat="45.2429" lon="6.04901">
        <ele>2234.8</ele>
        <time>2024-05-04T07:55:57Z</time>
      </trkpt>
      <trkpt lat="45.2429" lon="6.04904">
        <ele>2235</ele>
        <time>2024-05-04T07:56:08Z</time>
      </trkpt>
      <trkpt lat="45.24292" lon="6.04906">
        <ele>2234.4</ele>
        <time>2024-05-04T07:56:58Z</time>
      </trkpt>
      <trkpt lat="45.24295" lon="6.04903">
        <ele>2232.9</ele>
        <time>2024-05-04T07:58:03Z</time>
      </trkpt>
      <trkpt lat="45.24298" lon="6.04906">
        <ele>2231.9</ele>
        <time>2024-05-04T07:59:10Z</time>
      </trkpt>
      <trkpt lat="45.24298" lon="6.04906">
        <ele>2231.9</ele>
        <time>2024-05-04T07:59:11Z</time>
      </trkpt>
      <trkpt lat="45.24293" lon="6.04902">
        <ele>2233.6</ele>
        <time>2024-05-04T07:59:53Z</time>
      </trkpt>
      <trkpt lat="45.24293" lon="6.04904">
        <ele>2233.8</ele>
        <time>2024-05-04T07:59:56Z</time>
      </trkpt>
      <trkpt lat="45.24295" lon="6.04903">
        <ele>2232.9</ele>
        <time>2024-05-04T08:00:03Z</time>
      </trkpt>
      <trkpt lat="45.24297" lon="6.04905">
        <ele>2232.3</ele>
        <time>2024-05-04T08:00:08Z</time>
      </trkpt>
      <trkpt lat="45.24296" lon="6.04906">
        <ele>2232.8</ele>
        <time>2024-05-04T08:00:13Z</time>
      </trkpt>
      <trkpt lat="45.24295" lon="6.04905">
        <ele>2233.1</ele>
        <time>2024-05-04T08:00:16Z</time>
      </trkpt>
      <trkpt lat="45.24292" lon="6.04907">
        <ele>2234.5</ele>
        <time>2024-05-04T08:00:28Z</time>
      </trkpt>
      <trkpt lat="45.24298" lon="6.04907">
        <ele>2232</ele>
        <time>2024-05-04T08:00:59Z</time>
      </trkpt>
      <trkpt lat="45.24299" lon="6.04908">
        <ele>2231.7</ele>
        <time>2024-05-04T08:01:17Z</time>
      </trkpt>
      <trkpt lat="45.24297" lon="6.04907">
        <ele>2232.5</ele>
        <time>2024-05-04T08:01:31Z</time>
      </trkpt>
      <trkpt lat="45.24297" lon="6.04907">
        <ele>2232.5</ele>
        <time>2024-05-04T08:01:46Z</time>
      </trkpt>
      <trkpt lat="45.243" lon="6.04902">
        <ele>2230.7</ele>
        <time>2024-05-04T08:02:05Z</time>
      </trkpt>
      <trkpt lat="45.24298" lon="6.04906">
        <ele>2231.9</ele>
        <time>2024-05-04T08:02:34Z</time>
      </trkpt>
      <trkpt lat="45.24298" lon="6.04906">
        <ele>2231.9</ele>
        <time>2024-05-04T08:02:35Z</time>
      </trkpt>
      <trkpt lat="45.24297" lon="6.04906">
        <ele>2232.4</ele>
        <time>2024-05-04T08:02:39Z</time>
      </trkpt>
      <trkpt lat="45.24299" lon="6.04908">
        <ele>2231.7</ele>
        <time>2024-05-04T08:03:30Z</time>
      </trkpt>
      <trkpt lat="45.243" lon="6.04907">
        <ele>2231.2</ele>
        <time>2024-05-04T08:05:25Z</time>
      </trkpt>
      <trkpt lat="45.24301" lon="6.04907">
        <ele>2230.8</ele>
        <time>2024-05-04T08:06:55Z</time>
      </trkpt>
      <trkpt lat="45.24294" lon="6.04911">
        <ele>2234</ele>
        <time>2024-05-04T08:07:20Z</time>
      </trkpt>
      <trkpt lat="45.24291" lon="6.04908">
        <ele>2235</ele>
        <time>2024-05-04T08:08:25Z</time>
      </trkpt>
      <trkpt lat="45.24305" lon="6.04905">
        <ele>2229</ele>
        <time>2024-05-04T08:09:20Z</time>
      </trkpt>
      <trkpt lat="45.24308" lon="6.049">
        <ele>2227.3</ele>
        <time>2024-05-04T08:09:53Z</time>
      </trkpt>
      <trkpt lat="45.24307" lon="6.04903">
        <ele>2228</ele>
        <time>2024-05-04T08:09:57Z</time>
      </trkpt>
      <trkpt lat="45.24298" lon="6.04916">
        <ele>2232.9</ele>
        <time>2024-05-04T08:10:09Z</time>
      </trkpt>
      <trkpt lat="45.24297" lon="6.04918">
        <ele>2233.6</ele>
        <time>2024-05-04T08:10:10Z</time>
      </trkpt>
      <trkpt lat="45.24297" lon="6.04919">
        <ele>2233.7</ele>
        <time>2024-05-04T08:10:11Z</time>
      </trkpt>
      <trkpt lat="45.24295" lon="6.04922">
        <ele>2234.9</ele>
        <time>2024-05-04T08:10:14Z</time>
      </trkpt>
      <trkpt lat="45.24294" lon="6.04925">
        <ele>2235.8</ele>
        <time>2024-05-04T08:10:18Z</time>
      </trkpt>
      <trkpt lat="45.24293" lon="6.04927">
        <ele>2236.5</ele>
        <time>2024-05-04T08:10:20Z</time>
      </trkpt>
      <trkpt lat="45.24291" lon="6.04929">
        <ele>2237.5</ele>
        <time>2024-05-04T08:10:23Z</time>
      </trkpt>
      <trkpt lat="45.2429" lon="6.04931">
        <ele>2238.2</ele>
        <time>2024-05-04T08:10:26Z</time>
      </trkpt>
      <trkpt lat="45.24289" lon="6.04931">
        <ele>2238.6</ele>
        <time>2024-05-04T08:10:27Z</time>
      </trkpt>
      <trkpt lat="45.24281" lon="6.04928">
        <ele>2241.4</ele>
        <time>2024-05-04T08:10:38Z</time>
      </trkpt>
      <trkpt lat="45.24279" lon="6.04926">
        <ele>2241.9</ele>
        <time>2024-05-04T08:10:42Z</time>
      </trkpt>
      <trkpt lat="45.24279" lon="6.04926">
        <ele>2241.9</ele>
        <time>2024-05-04T08:10:43Z</time>
      </trkpt>
      <trkpt lat="45.24277" lon="6.04925">
        <ele>2242.5</ele>
        <time>2024-05-04T08:10:45Z</time>
      </trkpt>
      <trkpt lat="45.24276" lon="6.04924">
        <ele>2242.9</ele>
        <time>2024-05-04T08:10:47Z</time>
      </trkpt>
      <trkpt lat="45.24273" lon="6.0492">
        <ele>2243.7</ele>
        <time>2024-05-04T08:10:54Z</time>
      </trkpt>
      <trkpt lat="45.24272" lon="6.04918">
        <ele>2243.9</ele>
        <time>2024-05-04T08:10:57Z</time>
      </trkpt>
      <trkpt lat="45.24271" lon="6.04918">
        <ele>2244.3</ele>
        <time>2024-05-04T08:10:59Z</time>
      </trkpt>
      <trkpt lat="45.2427" lon="6.04916">
        <ele>2244.6</ele>
        <time>2024-05-04T08:11:03Z</time>
      </trkpt>
      <trkpt lat="45.24269" lon="6.04915">
        <ele>2245</ele>
        <time>2024-05-04T08:11:05Z</time>
      </trkpt>
      <trkpt lat="45.24267" lon="6.04913">
        <ele>2245.7</ele>
        <time>2024-05-04T08:11:09Z</time>
      </trkpt>
      <trkpt lat="45.24267" lon="6.04911">
        <ele>2245.6</ele>
        <time>2024-05-04T08:11:12Z</time>
      </trkpt>
      <trkpt lat="45.24267" lon="6.0491">
        <ele>2245.5</ele>
        <time>2024-05-04T08:11:13Z</time>
      </trkpt>
      <trkpt lat="45.24265" lon="6.04907">
        <ele>2246.1</ele>
        <time>2024-05-04T08:11:18Z</time>
      </trkpt>
      <trkpt lat="45.24262" lon="6.04903">
        <ele>2247.1</ele>
        <time>2024-05-04T08:11:23Z</time>
      </trkpt>
      <trkpt lat="45.2426" lon="6.04901">
        <ele>2247.8</ele>
        <time>2024-05-04T08:11:27Z</time>
      </trkpt>
      <trkpt lat="45.24258" lon="6.04899">
        <ele>2248.5</ele>
        <time>2024-05-04T08:11:32Z</time>
      </trkpt>
      <trkpt lat="45.24253" lon="6.04897">
        <ele>2250.5</ele>
        <time>2024-05-04T08:11:43Z</time>
      </trkpt>
      <trkpt lat="45.24251" lon="6.04894">
        <ele>2251.1</ele>
        <time>2024-05-04T08:11:49Z</time>
      </trkpt>
      <trkpt lat="45.24251" lon="6.04888">
        <ele>2250.5</ele>
        <time>2024-05-04T08:11:56Z</time>
      </trkpt>
      <trkpt lat="45.2425" lon="6.04887">
        <ele>2250.8</ele>
        <time>2024-05-04T08:11:57Z</time>
      </trkpt>
      <trkpt lat="45.24244" lon="6.04887">
        <ele>2253.6</ele>
        <time>2024-05-04T08:12:02Z</time>
      </trkpt>
      <trkpt lat="45.2424" lon="6.04884">
        <ele>2255.2</ele>
        <time>2024-05-04T08:12:09Z</time>
      </trkpt>
      <trkpt lat="45.24239" lon="6.04882">
        <ele>2255.4</ele>
        <time>2024-05-04T08:12:14Z</time>
      </trkpt>
      <trkpt lat="45.24237" lon="6.0488">
        <ele>2256.1</ele>
        <time>2024-05-04T08:12:18Z</time>
      </trkpt>
      <trkpt lat="45.24234" lon="6.04878">
        <ele>2257.3</ele>
        <time>2024-05-04T08:12:23Z</time>
      </trkpt>
      <trkpt lat="45.24231" lon="6.04875">
        <ele>2258.4</ele>
        <time>2024-05-04T08:12:28Z</time>
      </trkpt>
      <trkpt lat="45.24225" lon="6.04873">
        <ele>2261</ele>
        <time>2024-05-04T08:12:37Z</time>
      </trkpt>
      <trkpt lat="45.24221" lon="6.04871">
        <ele>2262.6</ele>
        <time>2024-05-04T08:12:43Z</time>
      </trkpt>
      <trkpt lat="45.24219" lon="6.04867">
        <ele>2263.1</ele>
        <time>2024-05-04T08:12:50Z</time>
      </trkpt>
      <trkpt lat="45.24213" lon="6.04862">
        <ele>2265.4</ele>
        <time>2024-05-04T08:12:58Z</time>
      </trkpt>
      <trkpt lat="45.24211" lon="6.04859">
        <ele>2265.9</ele>
        <time>2024-05-04T08:13:04Z</time>
      </trkpt>
      <trkpt lat="45.24211" lon="6.04857">
        <ele>2265.7</ele>
        <time>2024-05-04T08:13:09Z</time>
      </trkpt>
      <trkpt lat="45.24211" lon="6.04859">
        <ele>2265.9</ele>
        <time>2024-05-04T08:13:14Z</time>
      </trkpt>
      <trkpt lat="45.24209" lon="6.04863">
        <ele>2267.4</ele>
        <time>2024-05-04T08:13:19Z</time>
      </trkpt>
      <trkpt lat="45.2421" lon="6.04867">
        <ele>2267.4</ele>
        <time>2024-05-04T08:13:24Z</time>
      </trkpt>
      <trkpt lat="45.24206" lon="6.0487">
        <ele>2269.6</ele>
        <time>2024-05-04T08:13:29Z</time>
      </trkpt>
      <trkpt lat="45.24207" lon="6.04876">
        <ele>2269.7</ele>
        <time>2024-05-04T08:13:36Z</time>
      </trkpt>
      <trkpt lat="45.24203" lon="6.04881">
        <ele>2272.1</ele>
        <time>2024-05-04T08:13:42Z</time>
      </trkpt>
      <trkpt lat="45.242" lon="6.04881">
        <ele>2273.5</ele>
        <time>2024-05-04T08:13:48Z</time>
      </trkpt>
      <trkpt lat="45.24199" lon="6.04879">
        <ele>2273.8</ele>
        <time>2024-05-04T08:13:50Z</time>
      </trkpt>
      <trkpt lat="45.24197" lon="6.04875">
        <ele>2274.3</ele>
        <time>2024-05-04T08:13:58Z</time>
      </trkpt>
      <trkpt lat="45.24196" lon="6.04874">
        <ele>2274.7</ele>
        <time>2024-05-04T08:14:00Z</time>
      </trkpt>
      <trkpt lat="45.24194" lon="6.04873">
        <ele>2275.5</ele>
        <time>2024-05-04T08:14:03Z</time>
      </trkpt>
      <trkpt lat="45.24193" lon="6.04872">
        <ele>2275.9</ele>
        <time>2024-05-04T08:14:04Z</time>
      </trkpt>
      <trkpt lat="45.2419" lon="6.04869">
        <ele>2277</ele>
        <time>2024-05-04T08:14:08Z</time>
      </trkpt>
      <trkpt lat="45.24188" lon="6.04867">
        <ele>2277.7</ele>
        <time>2024-05-04T08:14:11Z</time>
      </trkpt>
      <trkpt lat="45.24187" lon="6.04867">
        <ele>2278.2</ele>
        <time>2024-05-04T08:14:12Z</time>
      </trkpt>
      <trkpt lat="45.24186" lon="6.04866">
        <ele>2278.5</ele>
        <time>2024-05-04T08:14:14Z</time>
      </trkpt>
      <trkpt lat="45.24185" lon="6.04863">
        <ele>2278.6</ele>
        <time>2024-05-04T08:14:20Z</time>
      </trkpt>
      <trkpt lat="45.24184" lon="6.04863">
        <ele>2279.1</ele>
        <time>2024-05-04T08:14:25Z</time>
      </trkpt>
      <trkpt lat="45.24186" lon="6.04863">
        <ele>2278.2</ele>
        <time>2024-05-04T08:14:28Z</time>
      </trkpt>
      <trkpt lat="45.24185" lon="6.04866">
        <ele>2279</ele>
        <time>2024-05-04T08:14:32Z</time>
      </trkpt>
      <trkpt lat="45.24183" lon="6.0487">
        <ele>2280.4</ele>
        <time>2024-05-04T08:14:37Z</time>
      </trkpt>
      <trkpt lat="45.24179" lon="6.04875">
        <ele>2283</ele>
        <time>2024-05-04T08:14:48Z</time>
      </trkpt>
      <trkpt lat="45.24176" lon="6.04873">
        <ele>2284.2</ele>
        <time>2024-05-04T08:14:54Z</time>
      </trkpt>
      <trkpt lat="45.24173" lon="6.0487">
        <ele>2285.2</ele>
        <time>2024-05-04T08:15:00Z</time>
      </trkpt>
      <trkpt lat="45.2417" lon="6.04867">
        <ele>2286.3</ele>
        <time>2024-05-04T08:15:06Z</time>
      </trkpt>
      <trkpt lat="45.24168" lon="6.04865">
        <ele>2286.9</ele>
        <time>2024-05-04T08:15:12Z</time>
      </trkpt>
      <trkpt lat="45.24168" lon="6.04864">
        <ele>2286.8</ele>
        <time>2024-05-04T08:15:14Z</time>
      </trkpt>
      <trkpt lat="45.24167" lon="6.04864">
        <ele>2287.3</ele>
        <time>2024-05-04T08:15:17Z</time>
      </trkpt>
      <trkpt lat="45.24162" lon="6.04861">
        <ele>2289.5</ele>
        <time>2024-05-04T08:15:23Z</time>
      </trkpt>
      <trkpt lat="45.24162" lon="6.0486">
        <ele>2289.4</ele>
        <time>2024-05-04T08:15:25Z</time>
      </trkpt>
      <trkpt lat="45.2416" lon="6.04854">
        <ele>2290.1</ele>
        <time>2024-05-04T08:15:32Z</time>
      </trkpt>
      <trkpt lat="45.24158" lon="6.04852">
        <ele>2291</ele>
        <time>2024-05-04T08:15:35Z</time>
      </trkpt>
      <trkpt lat="45.24155" lon="6.04848">
        <ele>2292.4</ele>
        <time>2024-05-04T08:15:41Z</time>
      </trkpt>
      <trkpt lat="45.24153" lon="6.04845">
        <ele>2293.2</ele>
        <time>2024-05-04T08:15:47Z</time>
      </trkpt>
      <trkpt lat="45.24148" lon="6.04839">
        <ele>2295.5</ele>
        <time>2024-05-04T08:15:58Z</time>
      </trkpt>
      <trkpt lat="45.24148" lon="6.04842">
        <ele>2295.7</ele>
        <time>2024-05-04T08:16:01Z</time>
      </trkpt>
      <trkpt lat="45.24148" lon="6.04845">
        <ele>2295.9</ele>
        <time>2024-05-04T08:16:05Z</time>
      </trkpt>
      <trkpt lat="45.24148" lon="6.04849">
        <ele>2296.2</ele>
        <time>2024-05-04T08:16:10Z</time>
      </trkpt>
      <trkpt lat="45.24147" lon="6.04857">
        <ele>2297.3</ele>
        <time>2024-05-04T08:16:17Z</time>
      </trkpt>
      <trkpt lat="45.24147" lon="6.0486">
        <ele>2297.5</ele>
        <time>2024-05-04T08:16:19Z</time>
      </trkpt>
      <trkpt lat="45.24147" lon="6.04863">
        <ele>2297.9</ele>
        <time>2024-05-04T08:16:21Z</time>
      </trkpt>
      <trkpt lat="45.24147" lon="6.04868">
        <ele>2298.6</ele>
        <time>2024-05-04T08:16:25Z</time>
      </trkpt>
      <trkpt lat="45.24146" lon="6.0487">
        <ele>2299.4</ele>
        <time>2024-05-04T08:16:29Z</time>
      </trkpt>
      <trkpt lat="45.24145" lon="6.04868">
        <ele>2299.7</ele>
        <time>2024-05-04T08:16:31Z</time>
      </trkpt>
      <trkpt lat="45.24144" lon="6.04867">
        <ele>2300.1</ele>
        <time>2024-05-04T08:16:32Z</time>
      </trkpt>
      <trkpt lat="45.24144" lon="6.04865">
        <ele>2299.8</ele>
        <time>2024-05-04T08:16:34Z</time>
      </trkpt>
      <trkpt lat="45.24143" lon="6.04862">
        <ele>2299.9</ele>
        <time>2024-05-04T08:16:38Z</time>
      </trkpt>
      <trkpt lat="45.24143" lon="6.04862">
        <ele>2299.9</ele>
        <time>2024-05-04T08:16:41Z</time>
      </trkpt>
      <trkpt lat="45.24142" lon="6.04865">
        <ele>2300.9</ele>
        <time>2024-05-04T08:16:45Z</time>
      </trkpt>
      <trkpt lat="45.24142" lon="6.04869">
        <ele>2301.5</ele>
        <time>2024-05-04T08:16:49Z</time>
      </trkpt>
      <trkpt lat="45.24142" lon="6.04873">
        <ele>2302</ele>
        <time>2024-05-04T08:16:54Z</time>
      </trkpt>
      <trkpt lat="45.24141" lon="6.0488">
        <ele>2303.6</ele>
        <time>2024-05-04T08:17:01Z</time>
      </trkpt>
      <trkpt lat="45.24142" lon="6.04881">
        <ele>2303.2</ele>
        <time>2024-05-04T08:17:02Z</time>
      </trkpt>
      <trkpt lat="45.24142" lon="6.04884">
        <ele>2303.6</ele>
        <time>2024-05-04T08:17:05Z</time>
      </trkpt>
      <trkpt lat="45.24142" lon="6.04886">
        <ele>2303.9</ele>
        <time>2024-05-04T08:17:07Z</time>
      </trkpt>
      <trkpt lat="45.2414" lon="6.04893">
        <ele>2305.8</ele>
        <time>2024-05-04T08:17:14Z</time>
      </trkpt>
      <trkpt lat="45.2414" lon="6.049">
        <ele>2306.6</ele>
        <time>2024-05-04T08:17:20Z</time>
      </trkpt>
      <trkpt lat="45.24141" lon="6.04903">
        <ele>2306.4</ele>
        <time>2024-05-04T08:17:23Z</time>
      </trkpt>
      <trkpt lat="45.24141" lon="6.04904">
        <ele>2306.5</ele>
        <time>2024-05-04T08:17:25Z</time>
      </trkpt>
      <trkpt lat="45.24139" lon="6.04902">
        <ele>2307.4</ele>
        <time>2024-05-04T08:17:27Z</time>
      </trkpt>
      <trkpt lat="45.24138" lon="6.04902">
        <ele>2308</ele>
        <time>2024-05-04T08:17:28Z</time>
      </trkpt>
      <trkpt lat="45.24137" lon="6.04899">
        <ele>2308.3</ele>
        <time>2024-05-04T08:17:31Z</time>
      </trkpt>
      <trkpt lat="45.24134" lon="6.04892">
        <ele>2309.5</ele>
        <time>2024-05-04T08:17:40Z</time>
      </trkpt>
      <trkpt lat="45.24133" lon="6.0489">
        <ele>2309.9</ele>
        <time>2024-05-04T08:17:42Z</time>
      </trkpt>
      <trkpt lat="45.24131" lon="6.04888">
        <ele>2311</ele>
        <time>2024-05-04T08:17:46Z</time>
      </trkpt>
      <trkpt lat="45.2413" lon="6.04886">
        <ele>2311.3</ele>
        <time>2024-05-04T08:17:50Z</time>
      </trkpt>
      <trkpt lat="45.24127" lon="6.04883">
        <ele>2312.9</ele>
        <time>2024-05-04T08:17:58Z</time>
      </trkpt>
      <trkpt lat="45.24125" lon="6.04879">
        <ele>2313.6</ele>
        <time>2024-05-04T08:18:05Z</time>
      </trkpt>
      <trkpt lat="45.24121" lon="6.04877">
        <ele>2315.9</ele>
        <time>2024-05-04T08:18:11Z</time>
      </trkpt>
      <trkpt lat="45.2412" lon="6.04876">
        <ele>2316.4</ele>
        <time>2024-05-04T08:18:15Z</time>
      </trkpt>
      <trkpt lat="45.24116" lon="6.04873">
        <ele>2318.5</ele>
        <time>2024-05-04T08:18:24Z</time>
      </trkpt>
      <trkpt lat="45.24112" lon="6.0487">
        <ele>2320.7</ele>
        <time>2024-05-04T08:18:30Z</time>
      </trkpt>
      <trkpt lat="45.24109" lon="6.04867">
        <ele>2322.3</ele>
        <time>2024-05-04T08:18:36Z</time>
      </trkpt>
      <trkpt lat="45.24106" lon="6.04864">
        <ele>2323.9</ele>
        <time>2024-05-04T08:18:42Z</time>
      </trkpt>
      <trkpt lat="45.24105" lon="6.0486">
        <ele>2324.1</ele>
        <time>2024-05-04T08:18:47Z</time>
      </trkpt>
      <trkpt lat="45.24103" lon="6.04855">
        <ele>2325.2</ele>
        <time>2024-05-04T08:18:54Z</time>
      </trkpt>
      <trkpt lat="45.24101" lon="6.04851">
        <ele>2326.3</ele>
        <time>2024-05-04T08:19:00Z</time>
      </trkpt>
      <trkpt lat="45.24101" lon="6.04847">
        <ele>2326.1</ele>
        <time>2024-05-04T08:19:07Z</time>
      </trkpt>
      <trkpt lat="45.24099" lon="6.04843">
        <ele>2327.3</ele>
        <time>2024-05-04T08:19:13Z</time>
      </trkpt>
      <trkpt lat="45.24098" lon="6.04843">
        <ele>2328</ele>
        <time>2024-05-04T08:19:21Z</time>
      </trkpt>
      <trkpt lat="45.24099" lon="6.04844">
        <ele>2327.3</ele>
        <time>2024-05-04T08:19:26Z</time>
      </trkpt>
      <trkpt lat="45.24098" lon="6.04848">
        <ele>2328.2</ele>
        <time>2024-05-04T08:19:32Z</time>
      </trkpt>
      <trkpt lat="45.24097" lon="6.04853">
        <ele>2329.2</ele>
        <time>2024-05-04T08:19:36Z</time>
      </trkpt>
      <trkpt lat="45.24097" lon="6.04855">
        <ele>2329.3</ele>
        <time>2024-05-04T08:19:38Z</time>
      </trkpt>
      <trkpt lat="45.24097" lon="6.04857">
        <ele>2329.4</ele>
        <time>2024-05-04T08:19:41Z</time>
      </trkpt>
      <trkpt lat="45.24095" lon="6.04866">
        <ele>2331.6</ele>
        <time>2024-05-04T08:19:49Z</time>
      </trkpt>
      <trkpt lat="45.24094" lon="6.04873">
        <ele>2333.2</ele>
        <time>2024-05-04T08:19:56Z</time>
      </trkpt>
      <trkpt lat="45.24094" lon="6.04882">
        <ele>2334.2</ele>
        <time>2024-05-04T08:20:04Z</time>
      </trkpt>
      <trkpt lat="45.24094" lon="6.04882">
        <ele>2334.2</ele>
        <time>2024-05-04T08:20:05Z</time>
      </trkpt>
      <trkpt lat="45.24092" lon="6.0488">
        <ele>2335.3</ele>
        <time>2024-05-04T08:20:19Z</time>
      </trkpt>
      <trkpt lat="45.24088" lon="6.04877">
        <ele>2337.6</ele>
        <time>2024-05-04T08:20:26Z</time>
      </trkpt>
      <trkpt lat="45.24086" lon="6.04875">
        <ele>2338.7</ele>
        <time>2024-05-04T08:20:29Z</time>
      </trkpt>
      <trkpt lat="45.24086" lon="6.04873">
        <ele>2338.5</ele>
        <time>2024-05-04T08:20:32Z</time>
      </trkpt>
      <trkpt lat="45.24083" lon="6.04869">
        <ele>2340.1</ele>
        <time>2024-05-04T08:20:39Z</time>
      </trkpt>
      <trkpt lat="45.24081" lon="6.04864">
        <ele>2340.9</ele>
        <time>2024-05-04T08:20:45Z</time>
      </trkpt>
      <trkpt lat="45.2408" lon="6.04859">
        <ele>2341.2</ele>
        <time>2024-05-04T08:20:52Z</time>
      </trkpt>
      <trkpt lat="45.24078" lon="6.04855">
        <ele>2342.4</ele>
        <time>2024-05-04T08:20:57Z</time>
      </trkpt>
      <trkpt lat="45.24074" lon="6.04849">
        <ele>2344.9</ele>
        <time>2024-05-04T08:21:06Z</time>
      </trkpt>
      <trkpt lat="45.24071" lon="6.04842">
        <ele>2346.7</ele>
        <time>2024-05-04T08:21:13Z</time>
      </trkpt>
      <trkpt lat="45.2407" lon="6.04839">
        <ele>2347.3</ele>
        <time>2024-05-04T08:21:20Z</time>
      </trkpt>
      <trkpt lat="45.24069" lon="6.04841">
        <ele>2348.1</ele>
        <time>2024-05-04T08:21:25Z</time>
      </trkpt>
      <trkpt lat="45.24067" lon="6.04845">
        <ele>2349.6</ele>
        <time>2024-05-04T08:21:32Z</time>
      </trkpt>
      <trkpt lat="45.24064" lon="6.04848">
        <ele>2351.8</ele>
        <time>2024-05-04T08:21:36Z</time>
      </trkpt>
      <trkpt lat="45.24065" lon="6.04853">
        <ele>2351.2</ele>
        <time>2024-05-04T08:21:44Z</time>
      </trkpt>
      <trkpt lat="45.24063" lon="6.04859">
        <ele>2352.8</ele>
        <time>2024-05-04T08:21:50Z</time>
      </trkpt>
      <trkpt lat="45.24062" lon="6.04865">
        <ele>2353.9</ele>
        <time>2024-05-04T08:21:56Z</time>
      </trkpt>
      <trkpt lat="45.24059" lon="6.04871">
        <ele>2356.4</ele>
        <time>2024-05-04T08:22:03Z</time>
      </trkpt>
      <trkpt lat="45.24059" lon="6.04878">
        <ele>2356.9</ele>
        <time>2024-05-04T08:22:10Z</time>
      </trkpt>
      <trkpt lat="45.24059" lon="6.04884">
        <ele>2357.4</ele>
        <time>2024-05-04T08:22:17Z</time>
      </trkpt>
      <trkpt lat="45.24055" lon="6.04881">
        <ele>2359.8</ele>
        <time>2024-05-04T08:22:31Z</time>
      </trkpt>
      <trkpt lat="45.24052" lon="6.04877">
        <ele>2361.4</ele>
        <time>2024-05-04T08:22:37Z</time>
      </trkpt>
      <trkpt lat="45.24049" lon="6.04873">
        <ele>2363.1</ele>
        <time>2024-05-04T08:22:43Z</time>
      </trkpt>
      <trkpt lat="45.24047" lon="6.04863">
        <ele>2363.9</ele>
        <time>2024-05-04T08:22:51Z</time>
      </trkpt>
      <trkpt lat="45.24048" lon="6.04858">
        <ele>2363.1</ele>
        <time>2024-05-04T08:22:56Z</time>
      </trkpt>
      <trkpt lat="45.24047" lon="6.04854">
        <ele>2363.6</ele>
        <time>2024-05-04T08:23:03Z</time>
      </trkpt>
      <trkpt lat="45.24046" lon="6.04851">
        <ele>2364.2</ele>
        <time>2024-05-04T08:23:09Z</time>
      </trkpt>
      <trkpt lat="45.24045" lon="6.04847">
        <ele>2364.7</ele>
        <time>2024-05-04T08:23:15Z</time>
      </trkpt>
      <trkpt lat="45.24044" lon="6.04841">
        <ele>2365.2</ele>
        <time>2024-05-04T08:23:23Z</time>
      </trkpt>
      <trkpt lat="45.24043" lon="6.04835">
        <ele>2365.6</ele>
        <time>2024-05-04T08:23:30Z</time>
      </trkpt>
      <trkpt lat="45.24041" lon="6.04836">
        <ele>2367.1</ele>
        <time>2024-05-04T08:23:36Z</time>
      </trkpt>
      <trkpt lat="45.24039" lon="6.04838">
        <ele>2368.5</ele>
        <time>2024-05-04T08:23:42Z</time>
      </trkpt>
      <trkpt lat="45.24039" lon="6.04839">
        <ele>2368.5</ele>
        <time>2024-05-04T08:23:44Z</time>
      </trkpt>
      <trkpt lat="45.24038" lon="6.04843">
        <ele>2369.4</ele>
        <time>2024-05-04T08:23:49Z</time>
      </trkpt>
      <trkpt lat="45.24038" lon="6.04848">
        <ele>2369.5</ele>
        <time>2024-05-04T08:23:55Z</time>
      </trkpt>
      <trkpt lat="45.24036" lon="6.04853">
        <ele>2371.1</ele>
        <time>2024-05-04T08:24:01Z</time>
      </trkpt>
      <trkpt lat="45.24033" lon="6.04858">
        <ele>2373.3</ele>
        <time>2024-05-04T08:24:08Z</time>
      </trkpt>
      <trkpt lat="45.2403" lon="6.04864">
        <ele>2375.5</ele>
        <time>2024-05-04T08:24:14Z</time>
      </trkpt>
      <trkpt lat="45.24027" lon="6.04869">
        <ele>2377.5</ele>
        <time>2024-05-04T08:24:20Z</time>
      </trkpt>
      <trkpt lat="45.24025" lon="6.04874">
        <ele>2378.8</ele>
        <time>2024-05-04T08:24:26Z</time>
      </trkpt>
      <trkpt lat="45.24023" lon="6.0488">
        <ele>2380.2</ele>
        <time>2024-05-04T08:24:34Z</time>
      </trkpt>
      <trkpt lat="45.24021" lon="6.04886">
        <ele>2381.6</ele>
        <time>2024-05-04T08:24:41Z</time>
      </trkpt>
      <trkpt lat="45.24021" lon="6.04892">
        <ele>2382.4</ele>
        <time>2024-05-04T08:24:48Z</time>
      </trkpt>
      <trkpt lat="45.24019" lon="6.04895">
        <ele>2384.4</ele>
        <time>2024-05-04T08:24:56Z</time>
      </trkpt>
      <trkpt lat="45.24017" lon="6.04888">
        <ele>2384.4</ele>
        <time>2024-05-04T08:25:05Z</time>
      </trkpt>
      <trkpt lat="45.24014" lon="6.04884">
        <ele>2386.3</ele>
        <time>2024-05-04T08:25:13Z</time>
      </trkpt>
      <trkpt lat="45.24013" lon="6.04878">
        <ele>2386.9</ele>
        <time>2024-05-04T08:25:20Z</time>
      </trkpt>
      <trkpt lat="45.24012" lon="6.04873">
        <ele>2387.5</ele>
        <time>2024-05-04T08:25:26Z</time>
      </trkpt>
      <trkpt lat="45.2401" lon="6.04867">
        <ele>2388.7</ele>
        <time>2024-05-04T08:25:33Z</time>
      </trkpt>
      <trkpt lat="45.24009" lon="6.04864">
        <ele>2389.2</ele>
        <time>2024-05-04T08:25:36Z</time>
      </trkpt>
      <trkpt lat="45.24009" lon="6.04863">
        <ele>2389.2</ele>
        <time>2024-05-04T08:25:39Z</time>
      </trkpt>
      <trkpt lat="45.24006" lon="6.04857">
        <ele>2391</ele>
        <time>2024-05-04T08:25:46Z</time>
      </trkpt>
      <trkpt lat="45.24008" lon="6.04859">
        <ele>2389.7</ele>
        <time>2024-05-04T08:25:52Z</time>
      </trkpt>
      <trkpt lat="45.24004" lon="6.04863">
        <ele>2392.5</ele>
        <time>2024-05-04T08:25:59Z</time>
      </trkpt>
      <trkpt lat="45.24003" lon="6.04869">
        <ele>2393.3</ele>
        <time>2024-05-04T08:26:05Z</time>
      </trkpt>
      <trkpt lat="45.24004" lon="6.04874">
        <ele>2392.8</ele>
        <time>2024-05-04T08:26:12Z</time>
      </trkpt>
      <trkpt lat="45.24001" lon="6.0488">
        <ele>2395</ele>
        <time>2024-05-04T08:26:20Z</time>
      </trkpt>
      <trkpt lat="45.24001" lon="6.04885">
        <ele>2395.2</ele>
        <time>2024-05-04T08:26:28Z</time>
      </trkpt>
      <trkpt lat="45.23999" lon="6.0489">
        <ele>2396.7</ele>
        <time>2024-05-04T08:26:34Z</time>
      </trkpt>
      <trkpt lat="45.23997" lon="6.04895">
        <ele>2398.6</ele>
        <time>2024-05-04T08:26:39Z</time>
      </trkpt>
      <trkpt lat="45.23995" lon="6.04899">
        <ele>2400.3</ele>
        <time>2024-05-04T08:26:44Z</time>
      </trkpt>
      <trkpt lat="45.23995" lon="6.04906">
        <ele>2401.3</ele>
        <time>2024-05-04T08:26:50Z</time>
      </trkpt>
      <trkpt lat="45.23994" lon="6.04912">
        <ele>2402.7</ele>
        <time>2024-05-04T08:26:57Z</time>
      </trkpt>
      <trkpt lat="45.23995" lon="6.04919">
        <ele>2403.5</ele>
        <time>2024-05-04T08:27:03Z</time>
      </trkpt>
      <trkpt lat="45.23994" lon="6.04923">
        <ele>2404.7</ele>
        <time>2024-05-04T08:27:09Z</time>
      </trkpt>
      <trkpt lat="45.23991" lon="6.04921">
        <ele>2405.4</ele>
        <time>2024-05-04T08:27:15Z</time>
      </trkpt>
      <trkpt lat="45.23986" lon="6.04918">
        <ele>2406.8</ele>
        <time>2024-05-04T08:27:24Z</time>
      </trkpt>
      <trkpt lat="45.23983" lon="6.04916">
        <ele>2407.7</ele>
        <time>2024-05-04T08:27:30Z</time>
      </trkpt>
      <trkpt lat="45.23981" lon="6.04919">
        <ele>2409</ele>
        <time>2024-05-04T08:27:35Z</time>
      </trkpt>
      <trkpt lat="45.23978" lon="6.04922">
        <ele>2410.7</ele>
        <time>2024-05-04T08:27:40Z</time>
      </trkpt>
      <trkpt lat="45.23973" lon="6.04926">
        <ele>2413.4</ele>
        <time>2024-05-04T08:27:46Z</time>
      </trkpt>
      <trkpt lat="45.23972" lon="6.04927">
        <ele>2413.9</ele>
        <time>2024-05-04T08:27:49Z</time>
      </trkpt>
      <trkpt lat="45.23972" lon="6.04929">
        <ele>2414.3</ele>
        <time>2024-05-04T08:27:51Z</time>
      </trkpt>
      <trkpt lat="45.23971" lon="6.04933">
        <ele>2415.4</ele>
        <time>2024-05-04T08:27:57Z</time>
      </trkpt>
      <trkpt lat="45.23971" lon="6.04937">
        <ele>2416.1</ele>
        <time>2024-05-04T08:28:03Z</time>
      </trkpt>
      <trkpt lat="45.23971" lon="6.0494">
        <ele>2416.6</ele>
        <time>2024-05-04T08:28:10Z</time>
      </trkpt>
      <trkpt lat="45.23972" lon="6.04953">
        <ele>2419.2</ele>
        <time>2024-05-04T08:29:51Z</time>
      </trkpt>
      <trkpt lat="45.23971" lon="6.04955">
        <ele>2420</ele>
        <time>2024-05-04T08:29:55Z</time>
      </trkpt>
      <trkpt lat="45.23971" lon="6.04959">
        <ele>2421</ele>
        <time>2024-05-04T08:30:00Z</time>
      </trkpt>
      <trkpt lat="45.23965" lon="6.04961">
        <ele>2423.2</ele>
        <time>2024-05-04T08:30:08Z</time>
      </trkpt>
      <trkpt lat="45.23964" lon="6.04963">
        <ele>2423.9</ele>
        <time>2024-05-04T08:30:12Z</time>
      </trkpt>
      <trkpt lat="45.23962" lon="6.04966">
        <ele>2425.2</ele>
        <time>2024-05-04T08:30:17Z</time>
      </trkpt>
      <trkpt lat="45.2396" lon="6.04967">
        <ele>2425.9</ele>
        <time>2024-05-04T08:30:22Z</time>
      </trkpt>
      <trkpt lat="45.23959" lon="6.04972">
        <ele>2427.3</ele>
        <time>2024-05-04T08:30:27Z</time>
      </trkpt>
      <trkpt lat="45.23959" lon="6.04976">
        <ele>2428.1</ele>
        <time>2024-05-04T08:30:31Z</time>
      </trkpt>
      <trkpt lat="45.23958" lon="6.04981">
        <ele>2429.5</ele>
        <time>2024-05-04T08:30:36Z</time>
      </trkpt>
      <trkpt lat="45.23955" lon="6.04989">
        <ele>2432</ele>
        <time>2024-05-04T08:30:44Z</time>
      </trkpt>
      <trkpt lat="45.23955" lon="6.04992">
        <ele>2432.6</ele>
        <time>2024-05-04T08:30:47Z</time>
      </trkpt>
      <trkpt lat="45.23955" lon="6.04996">
        <ele>2433.5</ele>
        <time>2024-05-04T08:30:51Z</time>
      </trkpt>
      <trkpt lat="45.23955" lon="6.05002">
        <ele>2434.9</ele>
        <time>2024-05-04T08:30:59Z</time>
      </trkpt>
      <trkpt lat="45.23955" lon="6.05007">
        <ele>2436.5</ele>
        <time>2024-05-04T08:31:04Z</time>
      </trkpt>
      <trkpt lat="45.23954" lon="6.0501">
        <ele>2437.6</ele>
        <time>2024-05-04T08:31:09Z</time>
      </trkpt>
      <trkpt lat="45.23952" lon="6.05013">
        <ele>2439</ele>
        <time>2024-05-04T08:31:16Z</time>
      </trkpt>
      <trkpt lat="45.23948" lon="6.05014">
        <ele>2440.2</ele>
        <time>2024-05-04T08:31:24Z</time>
      </trkpt>
      <trkpt lat="45.23945" lon="6.05015">
        <ele>2441.2</ele>
        <time>2024-05-04T08:31:31Z</time>
      </trkpt>
      <trkpt lat="45.23941" lon="6.05016">
        <ele>2442.7</ele>
        <time>2024-05-04T08:31:37Z</time>
      </trkpt>
      <trkpt lat="45.23935" lon="6.05017">
        <ele>2444.9</ele>
        <time>2024-05-04T08:31:44Z</time>
      </trkpt>
      <trkpt lat="45.23931" lon="6.05016">
        <ele>2445.9</ele>
        <time>2024-05-04T08:31:52Z</time>
      </trkpt>
      <trkpt lat="45.23927" lon="6.05017">
        <ele>2447.4</ele>
        <time>2024-05-04T08:31:57Z</time>
      </trkpt>
      <trkpt lat="45.23925" lon="6.05018">
        <ele>2448.3</ele>
        <time>2024-05-04T08:32:02Z</time>
      </trkpt>
      <trkpt lat="45.23922" lon="6.05019">
        <ele>2449.4</ele>
        <time>2024-05-04T08:32:06Z</time>
      </trkpt>
      <trkpt lat="45.2392" lon="6.05023">
        <ele>2451</ele>
        <time>2024-05-04T08:32:11Z</time>
      </trkpt>
      <trkpt lat="45.23919" lon="6.05026">
        <ele>2451.9</ele>
        <time>2024-05-04T08:32:15Z</time>
      </trkpt>
      <trkpt lat="45.23919" lon="6.05031">
        <ele>2453</ele>
        <time>2024-05-04T08:32:21Z</time>
      </trkpt>
      <trkpt lat="45.23921" lon="6.05035">
        <ele>2453.4</ele>
        <time>2024-05-04T08:32:26Z</time>
      </trkpt>
      <trkpt lat="45.23922" lon="6.05039">
        <ele>2454</ele>
        <time>2024-05-04T08:32:32Z</time>
      </trkpt>
      <trkpt lat="45.23924" lon="6.05043">
        <ele>2454.5</ele>
        <time>2024-05-04T08:32:39Z</time>
      </trkpt>
      <trkpt lat="45.23925" lon="6.05049">
        <ele>2455.6</ele>
        <time>2024-05-04T08:32:45Z</time>
      </trkpt>
      <trkpt lat="45.23924" lon="6.05053">
        <ele>2456.8</ele>
        <time>2024-05-04T08:32:51Z</time>
      </trkpt>
      <trkpt lat="45.23925" lon="6.05057">
        <ele>2457.6</ele>
        <time>2024-05-04T08:32:56Z</time>
      </trkpt>
      <trkpt lat="45.23925" lon="6.0506">
        <ele>2458.6</ele>
        <time>2024-05-04T08:33:02Z</time>
      </trkpt>
      <trkpt lat="45.23926" lon="6.05069">
        <ele>2461.2</ele>
        <time>2024-05-04T08:33:11Z</time>
      </trkpt>
      <trkpt lat="45.23928" lon="6.05073">
        <ele>2462.1</ele>
        <time>2024-05-04T08:33:15Z</time>
      </trkpt>
      <trkpt lat="45.23927" lon="6.05077">
        <ele>2463.5</ele>
        <time>2024-05-04T08:33:21Z</time>
      </trkpt>
      <trkpt lat="45.23928" lon="6.0508">
        <ele>2464.3</ele>
        <time>2024-05-04T08:33:25Z</time>
      </trkpt>
      <trkpt lat="45.23929" lon="6.05085">
        <ele>2465.7</ele>
        <time>2024-05-04T08:33:30Z</time>
      </trkpt>
      <trkpt lat="45.23929" lon="6.05087">
        <ele>2466.4</ele>
        <time>2024-05-04T08:33:33Z</time>
      </trkpt>
      <trkpt lat="45.23929" lon="6.05089">
        <ele>2467</ele>
        <time>2024-05-04T08:33:35Z</time>
      </trkpt>
      <trkpt lat="45.2393" lon="6.05093">
        <ele>2468</ele>
        <time>2024-05-04T08:33:42Z</time>
      </trkpt>
      <trkpt lat="45.23926" lon="6.05099">
        <ele>2470.5</ele>
        <time>2024-05-04T08:33:56Z</time>
      </trkpt>
      <trkpt lat="45.23922" lon="6.05099">
        <ele>2471.2</ele>
        <time>2024-05-04T08:34:02Z</time>
      </trkpt>
      <trkpt lat="45.23919" lon="6.05101">
        <ele>2472.3</ele>
        <time>2024-05-04T08:34:07Z</time>
      </trkpt>
      <trkpt lat="45.23914" lon="6.05102">
        <ele>2473.9</ele>
        <time>2024-05-04T08:34:15Z</time>
      </trkpt>
      <trkpt lat="45.2391" lon="6.05103">
        <ele>2475.6</ele>
        <time>2024-05-04T08:34:20Z</time>
      </trkpt>
      <trkpt lat="45.23905" lon="6.05103">
        <ele>2477.3</ele>
        <time>2024-05-04T08:34:27Z</time>
      </trkpt>
      <trkpt lat="45.23904" lon="6.05103">
        <ele>2477.6</ele>
        <time>2024-05-04T08:34:30Z</time>
      </trkpt>
      <trkpt lat="45.23902" lon="6.05102">
        <ele>2478</ele>
        <time>2024-05-04T08:34:32Z</time>
      </trkpt>
      <trkpt lat="45.23898" lon="6.05103">
        <ele>2479.6</ele>
        <time>2024-05-04T08:34:38Z</time>
      </trkpt>
      <trkpt lat="45.23894" lon="6.05104">
        <ele>2481.2</ele>
        <time>2024-05-04T08:34:46Z</time>
      </trkpt>
      <trkpt lat="45.2389" lon="6.05103">
        <ele>2482.3</ele>
        <time>2024-05-04T08:34:54Z</time>
      </trkpt>
      <trkpt lat="45.23885" lon="6.05101">
        <ele>2484</ele>
        <time>2024-05-04T08:35:02Z</time>
      </trkpt>
      <trkpt lat="45.23883" lon="6.051">
        <ele>2484.7</ele>
        <time>2024-05-04T08:35:06Z</time>
      </trkpt>
      <trkpt lat="45.23882" lon="6.05101">
        <ele>2485.5</ele>
        <time>2024-05-04T08:35:13Z</time>
      </trkpt>
      <trkpt lat="45.23883" lon="6.05104">
        <ele>2485.8</ele>
        <time>2024-05-04T08:35:17Z</time>
      </trkpt>
      <trkpt lat="45.23883" lon="6.05105">
        <ele>2486.1</ele>
        <time>2024-05-04T08:35:18Z</time>
      </trkpt>
      <trkpt lat="45.23883" lon="6.05109">
        <ele>2487.2</ele>
        <time>2024-05-04T08:35:23Z</time>
      </trkpt>
      <trkpt lat="45.23884" lon="6.05115">
        <ele>2488.5</ele>
        <time>2024-05-04T08:35:29Z</time>
      </trkpt>
      <trkpt lat="45.23885" lon="6.05119">
        <ele>2489.3</ele>
        <time>2024-05-04T08:35:35Z</time>
      </trkpt>
      <trkpt lat="45.23884" lon="6.05124">
        <ele>2491.2</ele>
        <time>2024-05-04T08:35:41Z</time>
      </trkpt>
      <trkpt lat="45.23884" lon="6.05128">
        <ele>2492.4</ele>
        <time>2024-05-04T08:35:46Z</time>
      </trkpt>
      <trkpt lat="45.23886" lon="6.05136">
        <ele>2494.1</ele>
        <time>2024-05-04T08:35:55Z</time>
      </trkpt>
      <trkpt lat="45.23887" lon="6.05138">
        <ele>2494.4</ele>
        <time>2024-05-04T08:35:58Z</time>
      </trkpt>
      <trkpt lat="45.2389" lon="6.05146">
        <ele>2496.3</ele>
        <time>2024-05-04T08:36:09Z</time>
      </trkpt>
      <trkpt lat="45.2389" lon="6.05148">
        <ele>2497</ele>
        <time>2024-05-04T08:36:12Z</time>
      </trkpt>
      <trkpt lat="45.2389" lon="6.05153">
        <ele>2498.8</ele>
        <time>2024-05-04T08:36:19Z</time>
      </trkpt>
      <trkpt lat="45.23893" lon="6.05158">
        <ele>2499.7</ele>
        <time>2024-05-04T08:36:26Z</time>
      </trkpt>
      <trkpt lat="45.23893" lon="6.05162">
        <ele>2501.2</ele>
        <time>2024-05-04T08:36:33Z</time>
      </trkpt>
      <trkpt lat="45.23893" lon="6.05165">
        <ele>2502.2</ele>
        <time>2024-05-04T08:36:39Z</time>
      </trkpt>
      <trkpt lat="45.23898" lon="6.0517">
        <ele>2502.6</ele>
        <time>2024-05-04T08:36:48Z</time>
      </trkpt>
      <trkpt lat="45.23903" lon="6.05174">
        <ele>2502.6</ele>
        <time>2024-05-04T08:36:54Z</time>
      </trkpt>
      <trkpt lat="45.23905" lon="6.05175">
        <ele>2502.4</ele>
        <time>2024-05-04T08:37:00Z</time>
      </trkpt>
      <trkpt lat="45.23904" lon="6.05175">
        <ele>2502.6</ele>
        <time>2024-05-04T08:37:04Z</time>
      </trkpt>
      <trkpt lat="45.23909" lon="6.05179">
        <ele>2502.6</ele>
        <time>2024-05-04T08:37:11Z</time>
      </trkpt>
      <trkpt lat="45.23915" lon="6.05187">
        <ele>2503.8</ele>
        <time>2024-05-04T08:37:21Z</time>
      </trkpt>
      <trkpt lat="45.23919" lon="6.05197">
        <ele>2506.8</ele>
        <time>2024-05-04T08:37:34Z</time>
      </trkpt>
      <trkpt lat="45.23919" lon="6.052">
        <ele>2508.4</ele>
        <time>2024-05-04T08:37:40Z</time>
      </trkpt>
      <trkpt lat="45.23918" lon="6.05202">
        <ele>2509.6</ele>
        <time>2024-05-04T08:37:45Z</time>
      </trkpt>
      <trkpt lat="45.23918" lon="6.05204">
        <ele>2510.6</ele>
        <time>2024-05-04T08:37:53Z</time>
      </trkpt>
      <trkpt lat="45.23919" lon="6.05207">
        <ele>2512</ele>
        <time>2024-05-04T08:37:57Z</time>
      </trkpt>
      <trkpt lat="45.23913" lon="6.05206">
        <ele>2512.8</ele>
        <time>2024-05-04T08:38:01Z</time>
      </trkpt>
      <trkpt lat="45.23906" lon="6.05207">
        <ele>2515.1</ele>
        <time>2024-05-04T08:38:08Z</time>
      </trkpt>
      <trkpt lat="45.23901" lon="6.05207">
        <ele>2516.3</ele>
        <time>2024-05-04T08:38:16Z</time>
      </trkpt>
      <trkpt lat="45.239" lon="6.05207">
        <ele>2516.6</ele>
        <time>2024-05-04T08:38:18Z</time>
      </trkpt>
      <trkpt lat="45.23899" lon="6.05207">
        <ele>2516.8</ele>
        <time>2024-05-04T08:38:21Z</time>
      </trkpt>
      <trkpt lat="45.23895" lon="6.0521">
        <ele>2519.2</ele>
        <time>2024-05-04T08:38:32Z</time>
      </trkpt>
      <trkpt lat="45.23891" lon="6.05212">
        <ele>2521.1</ele>
        <time>2024-05-04T08:38:39Z</time>
      </trkpt>
      <trkpt lat="45.23889" lon="6.05213">
        <ele>2522</ele>
        <time>2024-05-04T08:38:46Z</time>
      </trkpt>
      <trkpt lat="45.23887" lon="6.05215">
        <ele>2523.4</ele>
        <time>2024-05-04T08:38:51Z</time>
      </trkpt>
      <trkpt lat="45.23886" lon="6.05216">
        <ele>2524</ele>
        <time>2024-05-04T08:38:57Z</time>
      </trkpt>
      <trkpt lat="45.23881" lon="6.05216">
        <ele>2525.3</ele>
        <time>2024-05-04T08:39:04Z</time>
      </trkpt>
      <trkpt lat="45.23877" lon="6.05216">
        <ele>2526.3</ele>
        <time>2024-05-04T08:39:12Z</time>
      </trkpt>
      <trkpt lat="45.23875" lon="6.05216">
        <ele>2526.8</ele>
        <time>2024-05-04T08:39:16Z</time>
      </trkpt>
      <trkpt lat="45.23872" lon="6.05216">
        <ele>2527.6</ele>
        <time>2024-05-04T08:39:22Z</time>
      </trkpt>
      <trkpt lat="45.23869" lon="6.05217">
        <ele>2528.8</ele>
        <time>2024-05-04T08:39:32Z</time>
      </trkpt>
      <trkpt lat="45.23866" lon="6.05217">
        <ele>2529.5</ele>
        <time>2024-05-04T08:39:37Z</time>
      </trkpt>
      <trkpt lat="45.23866" lon="6.05219">
        <ele>2530.4</ele>
        <time>2024-05-04T08:39:41Z</time>
      </trkpt>
      <trkpt lat="45.23867" lon="6.05221">
        <ele>2531</ele>
        <time>2024-05-04T08:39:44Z</time>
      </trkpt>
      <trkpt lat="45.2387" lon="6.05228">
        <ele>2533.7</ele>
        <time>2024-05-04T08:39:52Z</time>
      </trkpt>
      <trkpt lat="45.23872" lon="6.0523">
        <ele>2534.3</ele>
        <time>2024-05-04T08:39:57Z</time>
      </trkpt>
      <trkpt lat="45.23875" lon="6.05233">
        <ele>2535.1</ele>
        <time>2024-05-04T08:40:02Z</time>
      </trkpt>
      <trkpt lat="45.23878" lon="6.05235">
        <ele>2535.5</ele>
        <time>2024-05-04T08:40:06Z</time>
      </trkpt>
      <trkpt lat="45.2388" lon="6.05237">
        <ele>2536</ele>
        <time>2024-05-04T08:40:10Z</time>
      </trkpt>
      <trkpt lat="45.2388" lon="6.05238">
        <ele>2536.6</ele>
        <time>2024-05-04T08:40:13Z</time>
      </trkpt>
      <trkpt lat="45.23881" lon="6.0524">
        <ele>2537.4</ele>
        <time>2024-05-04T08:40:16Z</time>
      </trkpt>
      <trkpt lat="45.23884" lon="6.05244">
        <ele>2538.9</ele>
        <time>2024-05-04T08:40:21Z</time>
      </trkpt>
      <trkpt lat="45.23884" lon="6.05244">
        <ele>2538.9</ele>
        <time>2024-05-04T08:40:23Z</time>
      </trkpt>
      <trkpt lat="45.23884" lon="6.05245">
        <ele>2539.4</ele>
        <time>2024-05-04T08:40:26Z</time>
      </trkpt>
      <trkpt lat="45.23887" lon="6.05248">
        <ele>2540.3</ele>
        <time>2024-05-04T08:40:32Z</time>
      </trkpt>
      <trkpt lat="45.23874" lon="6.05248">
        <ele>2543.2</ele>
        <time>2024-05-04T08:40:49Z</time>
      </trkpt>
      <trkpt lat="45.23872" lon="6.05249">
        <ele>2544.1</ele>
        <time>2024-05-04T08:40:52Z</time>
      </trkpt>
      <trkpt lat="45.23868" lon="6.05249">
        <ele>2545</ele>
        <time>2024-05-04T08:41:03Z</time>
      </trkpt>
      <trkpt lat="45.23865" lon="6.05249">
        <ele>2545.7</ele>
        <time>2024-05-04T08:41:08Z</time>
      </trkpt>
      <trkpt lat="45.23863" lon="6.05248">
        <ele>2545.6</ele>
        <time>2024-05-04T08:41:13Z</time>
      </trkpt>
      <trkpt lat="45.23862" lon="6.05248">
        <ele>2545.8</ele>
        <time>2024-05-04T08:41:15Z</time>
      </trkpt>
      <trkpt lat="45.23862" lon="6.05249">
        <ele>2546.3</ele>
        <time>2024-05-04T08:41:18Z</time>
      </trkpt>
      <trkpt lat="45.23857" lon="6.05249">
        <ele>2548.1</ele>
        <time>2024-05-04T08:41:27Z</time>
      </trkpt>
      <trkpt lat="45.23853" lon="6.05249">
        <ele>2549.7</ele>
        <time>2024-05-04T08:41:34Z</time>
      </trkpt>
      <trkpt lat="45.2385" lon="6.05248">
        <ele>2550.4</ele>
        <time>2024-05-04T08:41:42Z</time>
      </trkpt>
      <trkpt lat="45.23847" lon="6.05247">
        <ele>2551.2</ele>
        <time>2024-05-04T08:41:50Z</time>
      </trkpt>
      <trkpt lat="45.23849" lon="6.05249">
        <ele>2551.3</ele>
        <time>2024-05-04T08:41:54Z</time>
      </trkpt>
      <trkpt lat="45.23852" lon="6.05253">
        <ele>2551.9</ele>
        <time>2024-05-04T08:42:01Z</time>
      </trkpt>
      <trkpt lat="45.23855" lon="6.05257">
        <ele>2552.5</ele>
        <time>2024-05-04T08:42:07Z</time>
      </trkpt>
      <trkpt lat="45.23856" lon="6.05262">
        <ele>2554.4</ele>
        <time>2024-05-04T08:42:13Z</time>
      </trkpt>
      <trkpt lat="45.23858" lon="6.05265">
        <ele>2555.1</ele>
        <time>2024-05-04T08:42:16Z</time>
      </trkpt>
      <trkpt lat="45.23863" lon="6.05272">
        <ele>2556.7</ele>
        <time>2024-05-04T08:42:26Z</time>
      </trkpt>
      <trkpt lat="45.23864" lon="6.05274">
        <ele>2557.2</ele>
        <time>2024-05-04T08:42:29Z</time>
      </trkpt>
      <trkpt lat="45.23865" lon="6.05275">
        <ele>2557.4</ele>
        <time>2024-05-04T08:42:33Z</time>
      </trkpt>
      <trkpt lat="45.23869" lon="6.05283">
        <ele>2558.7</ele>
        <time>2024-05-04T08:42:43Z</time>
      </trkpt>
      <trkpt lat="45.23873" lon="6.05287">
        <ele>2558</ele>
        <time>2024-05-04T08:42:56Z</time>
      </trkpt>
      <trkpt lat="45.23877" lon="6.05289">
        <ele>2556.4</ele>
        <time>2024-05-04T08:43:08Z</time>
      </trkpt>
      <trkpt lat="45.23877" lon="6.0529">
        <ele>2556.6</ele>
        <time>2024-05-04T08:43:12Z</time>
      </trkpt>
      <trkpt lat="45.23876" lon="6.05291">
        <ele>2557.3</ele>
        <time>2024-05-04T08:43:15Z</time>
      </trkpt>
      <trkpt lat="45.23875" lon="6.05293">
        <ele>2558.3</ele>
        <time>2024-05-04T08:43:19Z</time>
      </trkpt>
      <trkpt lat="45.23874" lon="6.05296">
        <ele>2559.5</ele>
        <time>2024-05-04T08:43:24Z</time>
      </trkpt>
      <trkpt lat="45.23872" lon="6.05299">
        <ele>2561.5</ele>
        <time>2024-05-04T08:43:29Z</time>
      </trkpt>
      <trkpt lat="45.23871" lon="6.05305">
        <ele>2563.7</ele>
        <time>2024-05-04T08:43:38Z</time>
      </trkpt>
      <trkpt lat="45.23866" lon="6.05316">
        <ele>2568.3</ele>
        <time>2024-05-04T08:43:55Z</time>
      </trkpt>
      <trkpt lat="45.23865" lon="6.05317">
        <ele>2569.1</ele>
        <time>2024-05-04T08:43:59Z</time>
      </trkpt>
      <trkpt lat="45.23864" lon="6.05322">
        <ele>2570.4</ele>
        <time>2024-05-04T08:44:08Z</time>
      </trkpt>
      <trkpt lat="45.23863" lon="6.05327">
        <ele>2571.7</ele>
        <time>2024-05-04T08:44:15Z</time>
      </trkpt>
      <trkpt lat="45.23861" lon="6.05329">
        <ele>2573.6</ele>
        <time>2024-05-04T08:44:21Z</time>
      </trkpt>
      <trkpt lat="45.23858" lon="6.05334">
        <ele>2576</ele>
        <time>2024-05-04T08:44:28Z</time>
      </trkpt>
      <trkpt lat="45.23857" lon="6.05336">
        <ele>2576.4</ele>
        <time>2024-05-04T08:44:34Z</time>
      </trkpt>
      <trkpt lat="45.23855" lon="6.05339">
        <ele>2577.5</ele>
        <time>2024-05-04T08:44:38Z</time>
      </trkpt>
      <trkpt lat="45.23853" lon="6.05345">
        <ele>2578.5</ele>
        <time>2024-05-04T08:44:46Z</time>
      </trkpt>
      <trkpt lat="45.2385" lon="6.05349">
        <ele>2580.4</ele>
        <time>2024-05-04T08:44:52Z</time>
      </trkpt>
      <trkpt lat="45.23848" lon="6.05355">
        <ele>2581.6</ele>
        <time>2024-05-04T08:45:01Z</time>
      </trkpt>
      <trkpt lat="45.23845" lon="6.05362">
        <ele>2583.8</ele>
        <time>2024-05-04T08:45:09Z</time>
      </trkpt>
      <trkpt lat="45.23844" lon="6.05365">
        <ele>2585</ele>
        <time>2024-05-04T08:45:14Z</time>
      </trkpt>
      <trkpt lat="45.23843" lon="6.05371">
        <ele>2586.4</ele>
        <time>2024-05-04T08:45:21Z</time>
      </trkpt>
      <trkpt lat="45.23842" lon="6.05374">
        <ele>2587.6</ele>
        <time>2024-05-04T08:45:26Z</time>
      </trkpt>
      <trkpt lat="45.23843" lon="6.05382">
        <ele>2587.6</ele>
        <time>2024-05-04T08:45:36Z</time>
      </trkpt>
      <trkpt lat="45.23842" lon="6.05385">
        <ele>2588.8</ele>
        <time>2024-05-04T08:45:39Z</time>
      </trkpt>
      <trkpt lat="45.2384" lon="6.05381">
        <ele>2590.1</ele>
        <time>2024-05-04T08:45:49Z</time>
      </trkpt>
      <trkpt lat="45.23839" lon="6.05376">
        <ele>2590.3</ele>
        <time>2024-05-04T08:45:54Z</time>
      </trkpt>
      <trkpt lat="45.23839" lon="6.05373">
        <ele>2590</ele>
        <time>2024-05-04T08:45:56Z</time>
      </trkpt>
      <trkpt lat="45.23838" lon="6.05371">
        <ele>2590.5</ele>
        <time>2024-05-04T08:45:58Z</time>
      </trkpt>
      <trkpt lat="45.23836" lon="6.05369">
        <ele>2591.9</ele>
        <time>2024-05-04T08:46:01Z</time>
      </trkpt>
      <trkpt lat="45.23834" lon="6.05365">
        <ele>2593</ele>
        <time>2024-05-04T08:46:06Z</time>
      </trkpt>
      <trkpt lat="45.23833" lon="6.05358">
        <ele>2593.2</ele>
        <time>2024-05-04T08:46:15Z</time>
      </trkpt>
      <trkpt lat="45.23829" lon="6.05341">
        <ele>2595.2</ele>
        <time>2024-05-04T08:46:31Z</time>
      </trkpt>
      <trkpt lat="45.23829" lon="6.05338">
        <ele>2594.9</ele>
        <time>2024-05-04T08:46:35Z</time>
      </trkpt>
      <trkpt lat="45.23829" lon="6.05335">
        <ele>2594.6</ele>
        <time>2024-05-04T08:46:39Z</time>
      </trkpt>
      <trkpt lat="45.23828" lon="6.05333">
        <ele>2595</ele>
        <time>2024-05-04T08:46:43Z</time>
      </trkpt>
      <trkpt lat="45.23827" lon="6.05331">
        <ele>2594.9</ele>
        <time>2024-05-04T08:46:48Z</time>
      </trkpt>
      <trkpt lat="45.23826" lon="6.05336">
        <ele>2596.6</ele>
        <time>2024-05-04T08:46:53Z</time>
      </trkpt>
      <trkpt lat="45.23824" lon="6.05346">
        <ele>2599.4</ele>
        <time>2024-05-04T08:47:03Z</time>
      </trkpt>
      <trkpt lat="45.23822" lon="6.05354">
        <ele>2602.3</ele>
        <time>2024-05-04T08:47:10Z</time>
      </trkpt>
      <trkpt lat="45.23821" lon="6.05359">
        <ele>2604.1</ele>
        <time>2024-05-04T08:47:16Z</time>
      </trkpt>
      <trkpt lat="45.2382" lon="6.05363">
        <ele>2605.7</ele>
        <time>2024-05-04T08:47:20Z</time>
      </trkpt>
      <trkpt lat="45.23819" lon="6.05356">
        <ele>2605.3</ele>
        <time>2024-05-04T08:47:35Z</time>
      </trkpt>
      <trkpt lat="45.23815" lon="6.05341">
        <ele>2604.7</ele>
        <time>2024-05-04T08:47:53Z</time>
      </trkpt>
      <trkpt lat="45.23813" lon="6.05338">
        <ele>2605.1</ele>
        <time>2024-05-04T08:47:58Z</time>
      </trkpt>
      <trkpt lat="45.2381" lon="6.05333">
        <ele>2605.3</ele>
        <time>2024-05-04T08:48:05Z</time>
      </trkpt>
      <trkpt lat="45.23807" lon="6.05331">
        <ele>2606.3</ele>
        <time>2024-05-04T08:48:16Z</time>
      </trkpt>
      <trkpt lat="45.23807" lon="6.05332">
        <ele>2606.6</ele>
        <time>2024-05-04T08:48:18Z</time>
      </trkpt>
      <trkpt lat="45.23808" lon="6.05336">
        <ele>2607.6</ele>
        <time>2024-05-04T08:48:22Z</time>
      </trkpt>
      <trkpt lat="45.23808" lon="6.05342">
        <ele>2609.7</ele>
        <time>2024-05-04T08:48:29Z</time>
      </trkpt>
      <trkpt lat="45.23807" lon="6.05345">
        <ele>2611.6</ele>
        <time>2024-05-04T08:48:35Z</time>
      </trkpt>
      <trkpt lat="45.23799" lon="6.05336">
        <ele>2614.2</ele>
        <time>2024-05-04T08:48:52Z</time>
      </trkpt>
      <trkpt lat="45.23798" lon="6.05336">
        <ele>2615</ele>
        <time>2024-05-04T08:48:54Z</time>
      </trkpt>
      <trkpt lat="45.23796" lon="6.05334">
        <ele>2615.8</ele>
        <time>2024-05-04T08:48:59Z</time>
      </trkpt>
      <trkpt lat="45.23796" lon="6.05335">
        <ele>2616.2</ele>
        <time>2024-05-04T08:49:08Z</time>
      </trkpt>
      <trkpt lat="45.23798" lon="6.0534">
        <ele>2616.6</ele>
        <time>2024-05-04T08:49:14Z</time>
      </trkpt>
      <trkpt lat="45.23798" lon="6.05341">
        <ele>2616.9</ele>
        <time>2024-05-04T08:49:17Z</time>
      </trkpt>
      <trkpt lat="45.23798" lon="6.05346">
        <ele>2618.9</ele>
        <time>2024-05-04T08:49:22Z</time>
      </trkpt>
      <trkpt lat="45.23798" lon="6.05348">
        <ele>2619.6</ele>
        <time>2024-05-04T08:49:24Z</time>
      </trkpt>
      <trkpt lat="45.23798" lon="6.05349">
        <ele>2620</ele>
        <time>2024-05-04T08:49:26Z</time>
      </trkpt>
      <trkpt lat="45.23798" lon="6.05351">
        <ele>2620.8</ele>
        <time>2024-05-04T08:49:29Z</time>
      </trkpt>
      <trkpt lat="45.23797" lon="6.0535">
        <ele>2621.2</ele>
        <time>2024-05-04T08:49:34Z</time>
      </trkpt>
      <trkpt lat="45.23795" lon="6.05349">
        <ele>2622.3</ele>
        <time>2024-05-04T08:49:37Z</time>
      </trkpt>
      <trkpt lat="45.2379" lon="6.05342">
        <ele>2623.6</ele>
        <time>2024-05-04T08:49:46Z</time>
      </trkpt>
      <trkpt lat="45.23788" lon="6.05341">
        <ele>2624.8</ele>
        <time>2024-05-04T08:49:48Z</time>
      </trkpt>
      <trkpt lat="45.23787" lon="6.0534">
        <ele>2625.2</ele>
        <time>2024-05-04T08:49:52Z</time>
      </trkpt>
      <trkpt lat="45.23785" lon="6.05337">
        <ele>2625.6</ele>
        <time>2024-05-04T08:49:58Z</time>
      </trkpt>
      <trkpt lat="45.2378" lon="6.0533">
        <ele>2627.4</ele>
        <time>2024-05-04T08:50:09Z</time>
      </trkpt>
      <trkpt lat="45.23779" lon="6.0533">
        <ele>2628.2</ele>
        <time>2024-05-04T08:50:11Z</time>
      </trkpt>
      <trkpt lat="45.23776" lon="6.05327">
        <ele>2629.8</ele>
        <time>2024-05-04T08:50:17Z</time>
      </trkpt>
      <trkpt lat="45.23773" lon="6.05325">
        <ele>2631.7</ele>
        <time>2024-05-04T08:50:22Z</time>
      </trkpt>
      <trkpt lat="45.23773" lon="6.05325">
        <ele>2631.7</ele>
        <time>2024-05-04T08:50:25Z</time>
      </trkpt>
      <trkpt lat="45.23775" lon="6.05327">
        <ele>2630.6</ele>
        <time>2024-05-04T08:50:30Z</time>
      </trkpt>
      <trkpt lat="45.23776" lon="6.05327">
        <ele>2629.8</ele>
        <time>2024-05-04T08:50:32Z</time>
      </trkpt>
      <trkpt lat="45.23776" lon="6.05328">
        <ele>2630.1</ele>
        <time>2024-05-04T08:50:34Z</time>
      </trkpt>
      <trkpt lat="45.23782" lon="6.05352">
        <ele>2633.5</ele>
        <time>2024-05-04T08:50:58Z</time>
      </trkpt>
      <trkpt lat="45.23783" lon="6.05353">
        <ele>2633.1</ele>
        <time>2024-05-04T08:50:59Z</time>
      </trkpt>
      <trkpt lat="45.23784" lon="6.05361">
        <ele>2635.3</ele>
        <time>2024-05-04T08:51:08Z</time>
      </trkpt>
      <trkpt lat="45.23784" lon="6.05369">
        <ele>2636.6</ele>
        <time>2024-05-04T08:51:16Z</time>
      </trkpt>
      <trkpt lat="45.23784" lon="6.05372">
        <ele>2637.1</ele>
        <time>2024-05-04T08:51:21Z</time>
      </trkpt>
      <trkpt lat="45.23783" lon="6.0538">
        <ele>2639.2</ele>
        <time>2024-05-04T08:51:36Z</time>
      </trkpt>
      <trkpt lat="45.23781" lon="6.0538">
        <ele>2640.8</ele>
        <time>2024-05-04T08:51:42Z</time>
      </trkpt>
      <trkpt lat="45.23777" lon="6.05374">
        <ele>2642.9</ele>
        <time>2024-05-04T08:51:50Z</time>
      </trkpt>
      <trkpt lat="45.23775" lon="6.05371">
        <ele>2644</ele>
        <time>2024-05-04T08:51:53Z</time>
      </trkpt>
      <trkpt lat="45.23773" lon="6.05368">
        <ele>2644.9</ele>
        <time>2024-05-04T08:51:58Z</time>
      </trkpt>
      <trkpt lat="45.23775" lon="6.0538">
        <ele>2645.6</ele>
        <time>2024-05-04T08:52:13Z</time>
      </trkpt>
      <trkpt lat="45.23775" lon="6.05385">
        <ele>2646.6</ele>
        <time>2024-05-04T08:52:20Z</time>
      </trkpt>
      <trkpt lat="45.23774" lon="6.05391">
        <ele>2648.6</ele>
        <time>2024-05-04T08:52:28Z</time>
      </trkpt>
      <trkpt lat="45.23773" lon="6.05392">
        <ele>2649.6</ele>
        <time>2024-05-04T08:52:34Z</time>
      </trkpt>
      <trkpt lat="45.23769" lon="6.05382">
        <ele>2650.9</ele>
        <time>2024-05-04T08:52:48Z</time>
      </trkpt>
      <trkpt lat="45.23769" lon="6.05384">
        <ele>2651.3</ele>
        <time>2024-05-04T08:52:54Z</time>
      </trkpt>
      <trkpt lat="45.2377" lon="6.05386">
        <ele>2650.9</ele>
        <time>2024-05-04T08:52:58Z</time>
      </trkpt>
      <trkpt lat="45.2377" lon="6.05387">
        <ele>2651.1</ele>
        <time>2024-05-04T08:53:01Z</time>
      </trkpt>
      <trkpt lat="45.2377" lon="6.0539">
        <ele>2651.7</ele>
        <time>2024-05-04T08:53:07Z</time>
      </trkpt>
      <trkpt lat="45.23769" lon="6.05401">
        <ele>2654.6</ele>
        <time>2024-05-04T08:53:24Z</time>
      </trkpt>
      <trkpt lat="45.2377" lon="6.05411">
        <ele>2655.8</ele>
        <time>2024-05-04T08:53:36Z</time>
      </trkpt>
      <trkpt lat="45.23769" lon="6.05414">
        <ele>2657.1</ele>
        <time>2024-05-04T08:53:45Z</time>
      </trkpt>
      <trkpt lat="45.23765" lon="6.0541">
        <ele>2659.4</ele>
        <time>2024-05-04T08:54:03Z</time>
      </trkpt>
      <trkpt lat="45.23759" lon="6.05396">
        <ele>2661.7</ele>
        <time>2024-05-04T08:54:22Z</time>
      </trkpt>
      <trkpt lat="45.23758" lon="6.05391">
        <ele>2661.7</ele>
        <time>2024-05-04T08:54:28Z</time>
      </trkpt>
      <trkpt lat="45.23756" lon="6.05385">
        <ele>2662.1</ele>
        <time>2024-05-04T08:54:37Z</time>
      </trkpt>
      <trkpt lat="45.23753" lon="6.05381">
        <ele>2663.6</ele>
        <time>2024-05-04T08:54:46Z</time>
      </trkpt>
      <trkpt lat="45.23755" lon="6.05384">
        <ele>2662.7</ele>
        <time>2024-05-04T08:54:55Z</time>
      </trkpt>
      <trkpt lat="45.23755" lon="6.05385">
        <ele>2662.9</ele>
        <time>2024-05-04T08:54:58Z</time>
      </trkpt>
      <trkpt lat="45.23755" lon="6.05388">
        <ele>2663.6</ele>
        <time>2024-05-04T08:55:01Z</time>
      </trkpt>
      <trkpt lat="45.23755" lon="6.05391">
        <ele>2664.2</ele>
        <time>2024-05-04T08:55:30Z</time>
      </trkpt>
      <trkpt lat="45.23754" lon="6.0539">
        <ele>2664.9</ele>
        <time>2024-05-04T08:55:50Z</time>
      </trkpt>
      <trkpt lat="45.23754" lon="6.0539">
        <ele>2664.9</ele>
        <time>2024-05-04T08:56:00Z</time>
      </trkpt>
      <trkpt lat="45.23738" lon="6.05396">
        <ele>2677.7</ele>
        <time>2024-05-04T08:56:57Z</time>
      </trkpt>
      <trkpt lat="45.23737" lon="6.05396">
        <ele>2678.4</ele>
        <time>2024-05-04T08:57:07Z</time>
      </trkpt>
      <trkpt lat="45.23736" lon="6.05399">
        <ele>2679.3</ele>
        <time>2024-05-04T08:57:17Z</time>
      </trkpt>
      <trkpt lat="45.23736" lon="6.05399">
        <ele>2679.3</ele>
        <time>2024-05-04T08:57:21Z</time>
      </trkpt>
      <trkpt lat="45.23737" lon="6.054">
        <ele>2678.7</ele>
        <time>2024-05-04T08:57:25Z</time>
      </trkpt>
      <trkpt lat="45.23739" lon="6.054">
        <ele>2677.3</ele>
        <time>2024-05-04T08:57:30Z</time>
      </trkpt>
      <trkpt lat="45.2374" lon="6.05401">
        <ele>2676.7</ele>
        <time>2024-05-04T08:57:33Z</time>
      </trkpt>
      <trkpt lat="45.2374" lon="6.05402">
        <ele>2676.8</ele>
        <time>2024-05-04T08:57:36Z</time>
      </trkpt>
      <trkpt lat="45.23734" lon="6.05402">
        <ele>2680.9</ele>
        <time>2024-05-04T08:57:51Z</time>
      </trkpt>
      <trkpt lat="45.23731" lon="6.05402">
        <ele>2683</ele>
        <time>2024-05-04T08:57:58Z</time>
      </trkpt>
      <trkpt lat="45.23729" lon="6.05401">
        <ele>2684.3</ele>
        <time>2024-05-04T08:58:00Z</time>
      </trkpt>
      <trkpt lat="45.23729" lon="6.05401">
        <ele>2684.3</ele>
        <time>2024-05-04T08:58:02Z</time>
      </trkpt>
      <trkpt lat="45.23729" lon="6.05401">
        <ele>2684.3</ele>
        <time>2024-05-04T08:58:04Z</time>
      </trkpt>
      <trkpt lat="45.23728" lon="6.05401">
        <ele>2685</ele>
        <time>2024-05-04T08:58:07Z</time>
      </trkpt>
      <trkpt lat="45.23727" lon="6.05401">
        <ele>2685.7</ele>
        <time>2024-05-04T08:58:10Z</time>
      </trkpt>
      <trkpt lat="45.23724" lon="6.05402">
        <ele>2687.8</ele>
        <time>2024-05-04T08:58:19Z</time>
      </trkpt>
      <trkpt lat="45.23722" lon="6.05401">
        <ele>2689.1</ele>
        <time>2024-05-04T08:58:25Z</time>
      </trkpt>
      <trkpt lat="45.23721" lon="6.05401">
        <ele>2689.6</ele>
        <time>2024-05-04T08:58:27Z</time>
      </trkpt>
      <trkpt lat="45.2372" lon="6.05401">
        <ele>2690.1</ele>
        <time>2024-05-04T08:58:32Z</time>
      </trkpt>
      <trkpt lat="45.23717" lon="6.054">
        <ele>2691.6</ele>
        <time>2024-05-04T08:58:38Z</time>
      </trkpt>
      <trkpt lat="45.23715" lon="6.05399">
        <ele>2692.6</ele>
        <time>2024-05-04T08:58:43Z</time>
      </trkpt>
      <trkpt lat="45.23713" lon="6.05399">
        <ele>2693.6</ele>
        <time>2024-05-04T08:58:48Z</time>
      </trkpt>
      <trkpt lat="45.23712" lon="6.05398">
        <ele>2694.2</ele>
        <time>2024-05-04T08:58:49Z</time>
      </trkpt>
      <trkpt lat="45.23711" lon="6.05397">
        <ele>2694.8</ele>
        <time>2024-05-04T08:58:52Z</time>
      </trkpt>
      <trkpt lat="45.2371" lon="6.05397">
        <ele>2695.3</ele>
        <time>2024-05-04T08:58:56Z</time>
      </trkpt>
      <trkpt lat="45.23708" lon="6.05396">
        <ele>2696.4</ele>
        <time>2024-05-04T08:59:01Z</time>
      </trkpt>
      <trkpt lat="45.23706" lon="6.05395">
        <ele>2697.6</ele>
        <time>2024-05-04T08:59:06Z</time>
      </trkpt>
      <trkpt lat="45.23705" lon="6.05395">
        <ele>2698.1</ele>
        <time>2024-05-04T08:59:09Z</time>
      </trkpt>
      <trkpt lat="45.23703" lon="6.05394">
        <ele>2699.3</ele>
        <time>2024-05-04T08:59:14Z</time>
      </trkpt>
      <trkpt lat="45.23701" lon="6.05393">
        <ele>2700.5</ele>
        <time>2024-05-04T08:59:21Z</time>
      </trkpt>
      <trkpt lat="45.23699" lon="6.05388">
        <ele>2702.2</ele>
        <time>2024-05-04T08:59:29Z</time>
      </trkpt>
      <trkpt lat="45.23697" lon="6.05386">
        <ele>2702.9</ele>
        <time>2024-05-04T08:59:34Z</time>
      </trkpt>
      <trkpt lat="45.23695" lon="6.05385">
        <ele>2703.8</ele>
        <time>2024-05-04T08:59:43Z</time>
      </trkpt>
      <trkpt lat="45.23693" lon="6.05386">
        <ele>2704.3</ele>
        <time>2024-05-04T08:59:47Z</time>
      </trkpt>
      <trkpt lat="45.23692" lon="6.05386">
        <ele>2704.2</ele>
        <time>2024-05-04T08:59:51Z</time>
      </trkpt>
      <trkpt lat="45.23692" lon="6.05386">
        <ele>2704.2</ele>
        <time>2024-05-04T08:59:53Z</time>
      </trkpt>
      <trkpt lat="45.23691" lon="6.05386">
        <ele>2704.2</ele>
        <time>2024-05-04T08:59:56Z</time>
      </trkpt>
      <trkpt lat="45.23688" lon="6.0539">
        <ele>2704.6</ele>
        <time>2024-05-04T09:00:08Z</time>
      </trkpt>
      <trkpt lat="45.23685" lon="6.05389">
        <ele>2704.6</ele>
        <time>2024-05-04T09:00:48Z</time>
      </trkpt>
      <trkpt lat="45.23686" lon="6.0539">
        <ele>2704.6</ele>
        <time>2024-05-04T09:01:19Z</time>
      </trkpt>
      <trkpt lat="45.23686" lon="6.05392">
        <ele>2704.3</ele>
        <time>2024-05-04T09:02:27Z</time>
      </trkpt>
      <trkpt lat="45.23685" lon="6.05391">
        <ele>2704.4</ele>
        <time>2024-05-04T09:03:14Z</time>
      </trkpt>
      <trkpt lat="45.23685" lon="6.05391">
        <ele>2704.4</ele>
        <time>2024-05-04T09:03:24Z</time>
      </trkpt>
      <trkpt lat="45.23686" lon="6.05391">
        <ele>2704.4</ele>
        <time>2024-05-04T09:04:42Z</time>
      </trkpt>
      <trkpt lat="45.23686" lon="6.05391">
        <ele>2704.4</ele>
        <time>2024-05-04T09:04:45Z</time>
      </trkpt>
      <trkpt lat="45.23688" lon="6.05393">
        <ele>2704.2</ele>
        <time>2024-05-04T09:05:10Z</time>
      </trkpt>
      <trkpt lat="45.23685" lon="6.05389">
        <ele>2704.6</ele>
        <time>2024-05-04T09:06:32Z</time>
      </trkpt>
      <trkpt lat="45.23686" lon="6.05393">
        <ele>2704.2</ele>
        <time>2024-05-04T09:07:03Z</time>
      </trkpt>
      <trkpt lat="45.23685" lon="6.05393">
        <ele>2704.2</ele>
        <time>2024-05-04T09:08:03Z</time>
      </trkpt>
      <trkpt lat="45.23685" lon="6.05393">
        <ele>2704.2</ele>
        <time>2024-05-04T09:08:20Z</time>
      </trkpt>
      <trkpt lat="45.23685" lon="6.05393">
        <ele>2704.2</ele>
        <time>2024-05-04T09:08:25Z</time>
      </trkpt>
      <trkpt lat="45.23688" lon="6.05392">
        <ele>2704.3</ele>
        <time>2024-05-04T09:11:41Z</time>
      </trkpt>
      <trkpt lat="45.2369" lon="6.05395">
        <ele>2703.8</ele>
        <time>2024-05-04T09:15:13Z</time>
      </trkpt>
      <trkpt lat="45.23689" lon="6.05394">
        <ele>2704</ele>
        <time>2024-05-04T09:15:31Z</time>
      </trkpt>
      <trkpt lat="45.2369" lon="6.05399">
        <ele>2703.1</ele>
        <time>2024-05-04T09:17:59Z</time>
      </trkpt>
      <trkpt lat="45.23693" lon="6.05407">
        <ele>2701.3</ele>
        <time>2024-05-04T09:18:01Z</time>
      </trkpt>
      <trkpt lat="45.23702" lon="6.05412">
        <ele>2697</ele>
        <time>2024-05-04T09:18:04Z</time>
      </trkpt>
      <trkpt lat="45.23704" lon="6.05413">
        <ele>2696.1</ele>
        <time>2024-05-04T09:18:05Z</time>
      </trkpt>
      <trkpt lat="45.23705" lon="6.05413">
        <ele>2695.7</ele>
        <time>2024-05-04T09:18:06Z</time>
      </trkpt>
      <trkpt lat="45.23705" lon="6.05414">
        <ele>2695.6</ele>
        <time>2024-05-04T09:18:07Z</time>
      </trkpt>
      <trkpt lat="45.23706" lon="6.05415">
        <ele>2695.1</ele>
        <time>2024-05-04T09:18:08Z</time>
      </trkpt>
      <trkpt lat="45.23706" lon="6.05416">
        <ele>2694.9</ele>
        <time>2024-05-04T09:18:10Z</time>
      </trkpt>
      <trkpt lat="45.23722" lon="6.05419">
        <ele>2688.1</ele>
        <time>2024-05-04T09:18:18Z</time>
      </trkpt>
      <trkpt lat="45.23727" lon="6.05418">
        <ele>2685.6</ele>
        <time>2024-05-04T09:18:19Z</time>
      </trkpt>
      <trkpt lat="45.2373" lon="6.05416">
        <ele>2684.2</ele>
        <time>2024-05-04T09:18:20Z</time>
      </trkpt>
      <trkpt lat="45.23733" lon="6.05415">
        <ele>2682.3</ele>
        <time>2024-05-04T09:18:21Z</time>
      </trkpt>
      <trkpt lat="45.23735" lon="6.05412">
        <ele>2680.9</ele>
        <time>2024-05-04T09:18:22Z</time>
      </trkpt>
      <trkpt lat="45.23735" lon="6.05411">
        <ele>2680.8</ele>
        <time>2024-05-04T09:18:23Z</time>
      </trkpt>
      <trkpt lat="45.23736" lon="6.05409">
        <ele>2680</ele>
        <time>2024-05-04T09:18:24Z</time>
      </trkpt>
      <trkpt lat="45.23737" lon="6.05407">
        <ele>2679.2</ele>
        <time>2024-05-04T09:18:26Z</time>
      </trkpt>
      <trkpt lat="45.23737" lon="6.05407">
        <ele>2679.2</ele>
        <time>2024-05-04T09:18:28Z</time>
      </trkpt>
      <trkpt lat="45.23737" lon="6.0541">
        <ele>2679.4</ele>
        <time>2024-05-04T09:18:30Z</time>
      </trkpt>
      <trkpt lat="45.23739" lon="6.05415">
        <ele>2678.6</ele>
        <time>2024-05-04T09:18:32Z</time>
      </trkpt>
      <trkpt lat="45.23743" lon="6.05426">
        <ele>2674.5</ele>
        <time>2024-05-04T09:18:36Z</time>
      </trkpt>
      <trkpt lat="45.2375" lon="6.05432">
        <ele>2670.3</ele>
        <time>2024-05-04T09:18:38Z</time>
      </trkpt>
      <trkpt lat="45.23754" lon="6.05434">
        <ele>2668.1</ele>
        <time>2024-05-04T09:18:39Z</time>
      </trkpt>
      <trkpt lat="45.23756" lon="6.05433">
        <ele>2667.1</ele>
        <time>2024-05-04T09:18:40Z</time>
      </trkpt>
      <trkpt lat="45.23756" lon="6.05432">
        <ele>2667.1</ele>
        <time>2024-05-04T09:18:41Z</time>
      </trkpt>
      <trkpt lat="45.23756" lon="6.05431">
        <ele>2667.1</ele>
        <time>2024-05-04T09:18:42Z</time>
      </trkpt>
      <trkpt lat="45.23755" lon="6.05431">
        <ele>2667.7</ele>
        <time>2024-05-04T09:18:43Z</time>
      </trkpt>
      <trkpt lat="45.23756" lon="6.05431">
        <ele>2667.1</ele>
        <time>2024-05-04T09:18:45Z</time>
      </trkpt>
      <trkpt lat="45.23759" lon="6.0544">
        <ele>2665.7</ele>
        <time>2024-05-04T09:18:53Z</time>
      </trkpt>
      <trkpt lat="45.23765" lon="6.05442">
        <ele>2663.3</ele>
        <time>2024-05-04T09:18:58Z</time>
      </trkpt>
      <trkpt lat="45.23765" lon="6.05442">
        <ele>2663.3</ele>
        <time>2024-05-04T09:18:59Z</time>
      </trkpt>
      <trkpt lat="45.23765" lon="6.05442">
        <ele>2663.3</ele>
        <time>2024-05-04T09:19:00Z</time>
      </trkpt>
      <trkpt lat="45.23765" lon="6.05442">
        <ele>2663.3</ele>
        <time>2024-05-04T09:19:02Z</time>
      </trkpt>
      <trkpt lat="45.23768" lon="6.05448">
        <ele>2662.2</ele>
        <time>2024-05-04T09:19:12Z</time>
      </trkpt>
      <trkpt lat="45.23768" lon="6.05448">
        <ele>2662.2</ele>
        <time>2024-05-04T09:19:14Z</time>
      </trkpt>
      <trkpt lat="45.23771" lon="6.05447">
        <ele>2661.3</ele>
        <time>2024-05-04T09:19:25Z</time>
      </trkpt>
      <trkpt lat="45.23771" lon="6.05447">
        <ele>2661.3</ele>
        <time>2024-05-04T09:19:27Z</time>
      </trkpt>
      <trkpt lat="45.23772" lon="6.05447">
        <ele>2661</ele>
        <time>2024-05-04T09:19:29Z</time>
      </trkpt>
      <trkpt lat="45.23775" lon="6.05448">
        <ele>2660</ele>
        <time>2024-05-04T09:19:31Z</time>
      </trkpt>
      <trkpt lat="45.23777" lon="6.0545">
        <ele>2659.4</ele>
        <time>2024-05-04T09:19:33Z</time>
      </trkpt>
      <trkpt lat="45.23777" lon="6.0545">
        <ele>2659.4</ele>
        <time>2024-05-04T09:19:35Z</time>
      </trkpt>
      <trkpt lat="45.23777" lon="6.0545">
        <ele>2659.4</ele>
        <time>2024-05-04T09:19:37Z</time>
      </trkpt>
      <trkpt lat="45.23783" lon="6.05446">
        <ele>2655.9</ele>
        <time>2024-05-04T09:19:49Z</time>
      </trkpt>
      <trkpt lat="45.23783" lon="6.05439">
        <ele>2654.1</ele>
        <time>2024-05-04T09:19:51Z</time>
      </trkpt>
      <trkpt lat="45.23783" lon="6.05436">
        <ele>2653.1</ele>
        <time>2024-05-04T09:19:52Z</time>
      </trkpt>
      <trkpt lat="45.23783" lon="6.05434">
        <ele>2652.5</ele>
        <time>2024-05-04T09:19:53Z</time>
      </trkpt>
      <trkpt lat="45.23785" lon="6.05434">
        <ele>2651.2</ele>
        <time>2024-05-04T09:19:54Z</time>
      </trkpt>
      <trkpt lat="45.23787" lon="6.05435">
        <ele>2650.2</ele>
        <time>2024-05-04T09:19:55Z</time>
      </trkpt>
      <trkpt lat="45.2379" lon="6.05436">
        <ele>2648.6</ele>
        <time>2024-05-04T09:19:56Z</time>
      </trkpt>
      <trkpt lat="45.23792" lon="6.05437">
        <ele>2647.6</ele>
        <time>2024-05-04T09:19:57Z</time>
      </trkpt>
      <trkpt lat="45.23795" lon="6.05436">
        <ele>2645.3</ele>
        <time>2024-05-04T09:19:58Z</time>
      </trkpt>
      <trkpt lat="45.23798" lon="6.05435">
        <ele>2642.9</ele>
        <time>2024-05-04T09:19:59Z</time>
      </trkpt>
      <trkpt lat="45.238" lon="6.05431">
        <ele>2640</ele>
        <time>2024-05-04T09:20:00Z</time>
      </trkpt>
      <trkpt lat="45.23799" lon="6.05423">
        <ele>2637.5</ele>
        <time>2024-05-04T09:20:01Z</time>
      </trkpt>
      <trkpt lat="45.23798" lon="6.05415">
        <ele>2635.3</ele>
        <time>2024-05-04T09:20:02Z</time>
      </trkpt>
      <trkpt lat="45.23799" lon="6.05412">
        <ele>2633.7</ele>
        <time>2024-05-04T09:20:03Z</time>
      </trkpt>
      <trkpt lat="45.23801" lon="6.05412">
        <ele>2632.2</ele>
        <time>2024-05-04T09:20:04Z</time>
      </trkpt>
      <trkpt lat="45.23802" lon="6.05415">
        <ele>2632.2</ele>
        <time>2024-05-04T09:20:05Z</time>
      </trkpt>
      <trkpt lat="45.23805" lon="6.05417">
        <ele>2630.6</ele>
        <time>2024-05-04T09:20:06Z</time>
      </trkpt>
      <trkpt lat="45.23809" lon="6.0542">
        <ele>2628.5</ele>
        <time>2024-05-04T09:20:07Z</time>
      </trkpt>
      <trkpt lat="45.23813" lon="6.05423">
        <ele>2626.3</ele>
        <time>2024-05-04T09:20:08Z</time>
      </trkpt>
      <trkpt lat="45.23817" lon="6.05425">
        <ele>2623.7</ele>
        <time>2024-05-04T09:20:09Z</time>
      </trkpt>
      <trkpt lat="45.23822" lon="6.05429">
        <ele>2621.1</ele>
        <time>2024-05-04T09:20:10Z</time>
      </trkpt>
      <trkpt lat="45.23828" lon="6.05433">
        <ele>2617.7</ele>
        <time>2024-05-04T09:20:11Z</time>
      </trkpt>
      <trkpt lat="45.23835" lon="6.05436">
        <ele>2612.8</ele>
        <time>2024-05-04T09:20:12Z</time>
      </trkpt>
      <trkpt lat="45.23844" lon="6.05439">
        <ele>2605.7</ele>
        <time>2024-05-04T09:20:13Z</time>
      </trkpt>
      <trkpt lat="45.23849" lon="6.0544">
        <ele>2601.4</ele>
        <time>2024-05-04T09:20:14Z</time>
      </trkpt>
      <trkpt lat="45.23853" lon="6.05434">
        <ele>2595.1</ele>
        <time>2024-05-04T09:20:15Z</time>
      </trkpt>
      <trkpt lat="45.23857" lon="6.05428">
        <ele>2588.7</ele>
        <time>2024-05-04T09:20:16Z</time>
      </trkpt>
      <trkpt lat="45.23865" lon="6.05423">
        <ele>2579.1</ele>
        <time>2024-05-04T09:20:17Z</time>
      </trkpt>
      <trkpt lat="45.23874" lon="6.05423">
        <ele>2570.7</ele>
        <time>2024-05-04T09:20:18Z</time>
      </trkpt>
      <trkpt lat="45.23883" lon="6.05427">
        <ele>2564</ele>
        <time>2024-05-04T09:20:19Z</time>
      </trkpt>
      <trkpt lat="45.23892" lon="6.05431">
        <ele>2558.2</ele>
        <time>2024-05-04T09:20:20Z</time>
      </trkpt>
      <trkpt lat="45.23899" lon="6.05431">
        <ele>2553.6</ele>
        <time>2024-05-04T09:20:21Z</time>
      </trkpt>
      <trkpt lat="45.23906" lon="6.05424">
        <ele>2546.7</ele>
        <time>2024-05-04T09:20:22Z</time>
      </trkpt>
      <trkpt lat="45.23916" lon="6.05409">
        <ele>2537.3</ele>
        <time>2024-05-04T09:20:23Z</time>
      </trkpt>
      <trkpt lat="45.23924" lon="6.0539">
        <ele>2530.5</ele>
        <time>2024-05-04T09:20:24Z</time>
      </trkpt>
      <trkpt lat="45.2393" lon="6.05372">
        <ele>2528.2</ele>
        <time>2024-05-04T09:20:25Z</time>
      </trkpt>
      <trkpt lat="45.23936" lon="6.05358">
        <ele>2526.4</ele>
        <time>2024-05-04T09:20:26Z</time>
      </trkpt>
      <trkpt lat="45.23942" lon="6.05348">
        <ele>2524.7</ele>
        <time>2024-05-04T09:20:27Z</time>
      </trkpt>
      <trkpt lat="45.23949" lon="6.05342">
        <ele>2524.3</ele>
        <time>2024-05-04T09:20:28Z</time>
      </trkpt>
      <trkpt lat="45.23958" lon="6.05345">
        <ele>2524</ele>
        <time>2024-05-04T09:20:29Z</time>
      </trkpt>
      <trkpt lat="45.23965" lon="6.05357">
        <ele>2522.7</ele>
        <time>2024-05-04T09:20:30Z</time>
      </trkpt>
      <trkpt lat="45.23972" lon="6.05365">
        <ele>2521.2</ele>
        <time>2024-05-04T09:20:31Z</time>
      </trkpt>
      <trkpt lat="45.23977" lon="6.0537">
        <ele>2518.9</ele>
        <time>2024-05-04T09:20:32Z</time>
      </trkpt>
      <trkpt lat="45.23981" lon="6.05372">
        <ele>2517.7</ele>
        <time>2024-05-04T09:20:33Z</time>
      </trkpt>
      <trkpt lat="45.23984" lon="6.05373">
        <ele>2516.9</ele>
        <time>2024-05-04T09:20:34Z</time>
      </trkpt>
      <trkpt lat="45.23982" lon="6.05373">
        <ele>2517.3</ele>
        <time>2024-05-04T09:20:36Z</time>
      </trkpt>
      <trkpt lat="45.23981" lon="6.05375">
        <ele>2517.3</ele>
        <time>2024-05-04T09:21:33Z</time>
      </trkpt>
      <trkpt lat="45.23981" lon="6.05375">
        <ele>2517.3</ele>
        <time>2024-05-04T09:21:46Z</time>
      </trkpt>
      <trkpt lat="45.23988" lon="6.05379">
        <ele>2515.6</ele>
        <time>2024-05-04T09:21:53Z</time>
      </trkpt>
      <trkpt lat="45.23991" lon="6.0538">
        <ele>2515.1</ele>
        <time>2024-05-04T09:21:54Z</time>
      </trkpt>
      <trkpt lat="45.23994" lon="6.0538">
        <ele>2514.6</ele>
        <time>2024-05-04T09:21:55Z</time>
      </trkpt>
      <trkpt lat="45.24002" lon="6.05383">
        <ele>2512.8</ele>
        <time>2024-05-04T09:21:57Z</time>
      </trkpt>
      <trkpt lat="45.24012" lon="6.05393">
        <ele>2508.4</ele>
        <time>2024-05-04T09:21:59Z</time>
      </trkpt>
      <trkpt lat="45.24016" lon="6.05399">
        <ele>2506.6</ele>
        <time>2024-05-04T09:22:00Z</time>
      </trkpt>
      <trkpt lat="45.24019" lon="6.05398">
        <ele>2505.7</ele>
        <time>2024-05-04T09:22:01Z</time>
      </trkpt>
      <trkpt lat="45.24022" lon="6.05395">
        <ele>2504.7</ele>
        <time>2024-05-04T09:22:02Z</time>
      </trkpt>
      <trkpt lat="45.24023" lon="6.05391">
        <ele>2504.2</ele>
        <time>2024-05-04T09:22:03Z</time>
      </trkpt>
      <trkpt lat="45.24021" lon="6.05388">
        <ele>2504.8</ele>
        <time>2024-05-04T09:22:04Z</time>
      </trkpt>
      <trkpt lat="45.24019" lon="6.05387">
        <ele>2505.4</ele>
        <time>2024-05-04T09:22:05Z</time>
      </trkpt>
      <trkpt lat="45.24022" lon="6.05389">
        <ele>2504.5</ele>
        <time>2024-05-04T09:22:06Z</time>
      </trkpt>
      <trkpt lat="45.24024" lon="6.0539">
        <ele>2503.7</ele>
        <time>2024-05-04T09:22:07Z</time>
      </trkpt>
      <trkpt lat="45.24027" lon="6.05392">
        <ele>2502.6</ele>
        <time>2024-05-04T09:22:11Z</time>
      </trkpt>
      <trkpt lat="45.2403" lon="6.05394">
        <ele>2501.5</ele>
        <time>2024-05-04T09:22:23Z</time>
      </trkpt>
      <trkpt lat="45.24033" lon="6.05395">
        <ele>2500.3</ele>
        <time>2024-05-04T09:22:24Z</time>
      </trkpt>
      <trkpt lat="45.24038" lon="6.054">
        <ele>2498.7</ele>
        <time>2024-05-04T09:22:25Z</time>
      </trkpt>
      <trkpt lat="45.24043" lon="6.05404">
        <ele>2497.1</ele>
        <time>2024-05-04T09:22:26Z</time>
      </trkpt>
      <trkpt lat="45.24048" lon="6.05408">
        <ele>2495.6</ele>
        <time>2024-05-04T09:22:27Z</time>
      </trkpt>
      <trkpt lat="45.24052" lon="6.05414">
        <ele>2495</ele>
        <time>2024-05-04T09:22:28Z</time>
      </trkpt>
      <trkpt lat="45.24055" lon="6.0542">
        <ele>2493.6</ele>
        <time>2024-05-04T09:22:29Z</time>
      </trkpt>
      <trkpt lat="45.24059" lon="6.05425">
        <ele>2490.6</ele>
        <time>2024-05-04T09:22:30Z</time>
      </trkpt>
      <trkpt lat="45.24064" lon="6.05429">
        <ele>2487</ele>
        <time>2024-05-04T09:22:31Z</time>
      </trkpt>
      <trkpt lat="45.2407" lon="6.05428">
        <ele>2483.7</ele>
        <time>2024-05-04T09:22:32Z</time>
      </trkpt>
      <trkpt lat="45.24076" lon="6.05425">
        <ele>2481</ele>
        <time>2024-05-04T09:22:33Z</time>
      </trkpt>
      <trkpt lat="45.2408" lon="6.05419">
        <ele>2480.2</ele>
        <time>2024-05-04T09:22:34Z</time>
      </trkpt>
      <trkpt lat="45.24085" lon="6.05416">
        <ele>2478</ele>
        <time>2024-05-04T09:22:35Z</time>
      </trkpt>
      <trkpt lat="45.24091" lon="6.05414">
        <ele>2474.6</ele>
        <time>2024-05-04T09:22:36Z</time>
      </trkpt>
      <trkpt lat="45.24096" lon="6.05414">
        <ele>2472</ele>
        <time>2024-05-04T09:22:37Z</time>
      </trkpt>
      <trkpt lat="45.241" lon="6.05413">
        <ele>2469.8</ele>
        <time>2024-05-04T09:22:38Z</time>
      </trkpt>
      <trkpt lat="45.24102" lon="6.05411">
        <ele>2468.7</ele>
        <time>2024-05-04T09:22:39Z</time>
      </trkpt>
      <trkpt lat="45.24103" lon="6.0541">
        <ele>2468.1</ele>
        <time>2024-05-04T09:22:40Z</time>
      </trkpt>
      <trkpt lat="45.24103" lon="6.05409">
        <ele>2468.1</ele>
        <time>2024-05-04T09:22:41Z</time>
      </trkpt>
      <trkpt lat="45.24103" lon="6.05409">
        <ele>2468.1</ele>
        <time>2024-05-04T09:22:42Z</time>
      </trkpt>
      <trkpt lat="45.24104" lon="6.0541">
        <ele>2467.6</ele>
        <time>2024-05-04T09:22:43Z</time>
      </trkpt>
      <trkpt lat="45.24103" lon="6.05412">
        <ele>2468.2</ele>
        <time>2024-05-04T09:22:45Z</time>
      </trkpt>
      <trkpt lat="45.24102" lon="6.05416">
        <ele>2468.9</ele>
        <time>2024-05-04T09:22:47Z</time>
      </trkpt>
      <trkpt lat="45.24104" lon="6.05416">
        <ele>2467.8</ele>
        <time>2024-05-04T09:22:48Z</time>
      </trkpt>
      <trkpt lat="45.24107" lon="6.05418">
        <ele>2465.8</ele>
        <time>2024-05-04T09:22:49Z</time>
      </trkpt>
      <trkpt lat="45.2411" lon="6.05422">
        <ele>2462.9</ele>
        <time>2024-05-04T09:22:50Z</time>
      </trkpt>
      <trkpt lat="45.24115" lon="6.05427">
        <ele>2458.1</ele>
        <time>2024-05-04T09:22:51Z</time>
      </trkpt>
      <trkpt lat="45.24121" lon="6.0543">
        <ele>2453.4</ele>
        <time>2024-05-04T09:22:52Z</time>
      </trkpt>
      <trkpt lat="45.24129" lon="6.0543">
        <ele>2448.4</ele>
        <time>2024-05-04T09:22:53Z</time>
      </trkpt>
      <trkpt lat="45.24137" lon="6.05429">
        <ele>2443.5</ele>
        <time>2024-05-04T09:22:54Z</time>
      </trkpt>
      <trkpt lat="45.24147" lon="6.0543">
        <ele>2440.3</ele>
        <time>2024-05-04T09:22:55Z</time>
      </trkpt>
      <trkpt lat="45.24156" lon="6.05431">
        <ele>2438.3</ele>
        <time>2024-05-04T09:22:56Z</time>
      </trkpt>
      <trkpt lat="45.24164" lon="6.05429">
        <ele>2436.4</ele>
        <time>2024-05-04T09:22:57Z</time>
      </trkpt>
      <trkpt lat="45.24172" lon="6.05428">
        <ele>2434.5</ele>
        <time>2024-05-04T09:22:58Z</time>
      </trkpt>
      <trkpt lat="45.24181" lon="6.05428">
        <ele>2432.5</ele>
        <time>2024-05-04T09:22:59Z</time>
      </trkpt>
      <trkpt lat="45.24189" lon="6.0543">
        <ele>2431.4</ele>
        <time>2024-05-04T09:23:00Z</time>
      </trkpt>
      <trkpt lat="45.24196" lon="6.05434">
        <ele>2431.4</ele>
        <time>2024-05-04T09:23:01Z</time>
      </trkpt>
      <trkpt lat="45.24203" lon="6.05437">
        <ele>2430.6</ele>
        <time>2024-05-04T09:23:02Z</time>
      </trkpt>
      <trkpt lat="45.24211" lon="6.0544">
        <ele>2429.5</ele>
        <time>2024-05-04T09:23:03Z</time>
      </trkpt>
      <trkpt lat="45.24218" lon="6.05442">
        <ele>2428.2</ele>
        <time>2024-05-04T09:23:04Z</time>
      </trkpt>
      <trkpt lat="45.24224" lon="6.05444">
        <ele>2426.9</ele>
        <time>2024-05-04T09:23:05Z</time>
      </trkpt>
      <trkpt lat="45.24229" lon="6.05447">
        <ele>2425</ele>
        <time>2024-05-04T09:23:06Z</time>
      </trkpt>
      <trkpt lat="45.24233" lon="6.0545">
        <ele>2423.3</ele>
        <time>2024-05-04T09:23:07Z</time>
      </trkpt>
      <trkpt lat="45.24237" lon="6.05456">
        <ele>2421.7</ele>
        <time>2024-05-04T09:23:09Z</time>
      </trkpt>
      <trkpt lat="45.2424" lon="6.05462">
        <ele>2420.4</ele>
        <time>2024-05-04T09:23:11Z</time>
      </trkpt>
      <trkpt lat="45.24243" lon="6.05471">
        <ele>2419</ele>
        <time>2024-05-04T09:23:13Z</time>
      </trkpt>
      <trkpt lat="45.24248" lon="6.05483">
        <ele>2416.5</ele>
        <time>2024-05-04T09:23:15Z</time>
      </trkpt>
      <trkpt lat="45.24256" lon="6.05497">
        <ele>2413.8</ele>
        <time>2024-05-04T09:23:17Z</time>
      </trkpt>
      <trkpt lat="45.24258" lon="6.05503">
        <ele>2413.1</ele>
        <time>2024-05-04T09:23:18Z</time>
      </trkpt>
      <trkpt lat="45.24258" lon="6.05508">
        <ele>2413</ele>
        <time>2024-05-04T09:23:19Z</time>
      </trkpt>
      <trkpt lat="45.24258" lon="6.05518">
        <ele>2412.6</ele>
        <time>2024-05-04T09:23:21Z</time>
      </trkpt>
      <trkpt lat="45.24261" lon="6.05536">
        <ele>2410.4</ele>
        <time>2024-05-04T09:23:24Z</time>
      </trkpt>
      <trkpt lat="45.24267" lon="6.05552">
        <ele>2405.7</ele>
        <time>2024-05-04T09:23:26Z</time>
      </trkpt>
      <trkpt lat="45.24271" lon="6.05562">
        <ele>2403.6</ele>
        <time>2024-05-04T09:23:27Z</time>
      </trkpt>
      <trkpt lat="45.24275" lon="6.05573">
        <ele>2402.9</ele>
        <time>2024-05-04T09:23:28Z</time>
      </trkpt>
      <trkpt lat="45.2428" lon="6.05584">
        <ele>2402.3</ele>
        <time>2024-05-04T09:23:29Z</time>
      </trkpt>
      <trkpt lat="45.24285" lon="6.05595">
        <ele>2402.4</ele>
        <time>2024-05-04T09:23:30Z</time>
      </trkpt>
      <trkpt lat="45.24291" lon="6.05605">
        <ele>2401.7</ele>
        <time>2024-05-04T09:23:31Z</time>
      </trkpt>
      <trkpt lat="45.24297" lon="6.05614">
        <ele>2400.7</ele>
        <time>2024-05-04T09:23:32Z</time>
      </trkpt>
      <trkpt lat="45.24302" lon="6.05621">
        <ele>2400.1</ele>
        <time>2024-05-04T09:23:33Z</time>
      </trkpt>
      <trkpt lat="45.24308" lon="6.05628">
        <ele>2399.6</ele>
        <time>2024-05-04T09:23:34Z</time>
      </trkpt>
      <trkpt lat="45.24313" lon="6.05635">
        <ele>2399.7</ele>
        <time>2024-05-04T09:23:35Z</time>
      </trkpt>
      <trkpt lat="45.24318" lon="6.0564">
        <ele>2399.3</ele>
        <time>2024-05-04T09:23:36Z</time>
      </trkpt>
      <trkpt lat="45.24323" lon="6.05646">
        <ele>2399.1</ele>
        <time>2024-05-04T09:23:37Z</time>
      </trkpt>
      <trkpt lat="45.24333" lon="6.05657">
        <ele>2398</ele>
        <time>2024-05-04T09:23:39Z</time>
      </trkpt>
      <trkpt lat="45.24339" lon="6.05667">
        <ele>2397.8</ele>
        <time>2024-05-04T09:23:41Z</time>
      </trkpt>
      <trkpt lat="45.24347" lon="6.05674">
        <ele>2396.2</ele>
        <time>2024-05-04T09:23:43Z</time>
      </trkpt>
      <trkpt lat="45.24351" lon="6.05677">
        <ele>2395.1</ele>
        <time>2024-05-04T09:23:44Z</time>
      </trkpt>
      <trkpt lat="45.24355" lon="6.05681">
        <ele>2394.2</ele>
        <time>2024-05-04T09:23:45Z</time>
      </trkpt>
      <trkpt lat="45.24362" lon="6.05691">
        <ele>2393</ele>
        <time>2024-05-04T09:23:47Z</time>
      </trkpt>
      <trkpt lat="45.24369" lon="6.05702">
        <ele>2391.7</ele>
        <time>2024-05-04T09:23:49Z</time>
      </trkpt>
      <trkpt lat="45.24371" lon="6.05707">
        <ele>2391.8</ele>
        <time>2024-05-04T09:23:50Z</time>
      </trkpt>
      <trkpt lat="45.24373" lon="6.05712">
        <ele>2391.9</ele>
        <time>2024-05-04T09:23:51Z</time>
      </trkpt>
      <trkpt lat="45.24374" lon="6.05715">
        <ele>2392</ele>
        <time>2024-05-04T09:23:52Z</time>
      </trkpt>
      <trkpt lat="45.24374" lon="6.05718">
        <ele>2392.6</ele>
        <time>2024-05-04T09:23:54Z</time>
      </trkpt>
      <trkpt lat="45.24374" lon="6.05717">
        <ele>2392.4</ele>
        <time>2024-05-04T09:23:55Z</time>
      </trkpt>
      <trkpt lat="45.24374" lon="6.05716">
        <ele>2392.2</ele>
        <time>2024-05-04T09:24:01Z</time>
      </trkpt>
      <trkpt lat="45.24374" lon="6.05716">
        <ele>2392.2</ele>
        <time>2024-05-04T09:24:18Z</time>
      </trkpt>
      <trkpt lat="45.24374" lon="6.05716">
        <ele>2392.2</ele>
        <time>2024-05-04T09:24:46Z</time>
      </trkpt>
      <trkpt lat="45.24374" lon="6.05716">
        <ele>2392.2</ele>
        <time>2024-05-04T09:24:58Z</time>
      </trkpt>
      <trkpt lat="45.24374" lon="6.05716">
        <ele>2392.2</ele>
        <time>2024-05-04T09:25:01Z</time>
      </trkpt>
      <trkpt lat="45.24374" lon="6.05716">
        <ele>2392.2</ele>
        <time>2024-05-04T09:25:03Z</time>
      </trkpt>
      <trkpt lat="45.24374" lon="6.05714">
        <ele>2391.8</ele>
        <time>2024-05-04T09:26:20Z</time>
      </trkpt>
      <trkpt lat="45.24374" lon="6.05715">
        <ele>2392</ele>
        <time>2024-05-04T09:26:57Z</time>
      </trkpt>
      <trkpt lat="45.24373" lon="6.05714">
        <ele>2392.3</ele>
        <time>2024-05-04T09:27:18Z</time>
      </trkpt>
      <trkpt lat="45.24373" lon="6.05714">
        <ele>2392.3</ele>
        <time>2024-05-04T09:28:06Z</time>
      </trkpt>
      <trkpt lat="45.2437" lon="6.05716">
        <ele>2394</ele>
        <time>2024-05-04T09:30:19Z</time>
      </trkpt>
      <trkpt lat="45.24371" lon="6.05722">
        <ele>2394.7</ele>
        <time>2024-05-04T09:31:36Z</time>
      </trkpt>
      <trkpt lat="45.24372" lon="6.05716">
        <ele>2393.1</ele>
        <time>2024-05-04T09:31:46Z</time>
      </trkpt>
      <trkpt lat="45.24372" lon="6.05729">
        <ele>2395.6</ele>
        <time>2024-05-04T09:32:01Z</time>
      </trkpt>
      <trkpt lat="45.24373" lon="6.05733">
        <ele>2395.9</ele>
        <time>2024-05-04T09:32:05Z</time>
      </trkpt>
      <trkpt lat="45.24374" lon="6.05735">
        <ele>2395.9</ele>
        <time>2024-05-04T09:32:08Z</time>
      </trkpt>
      <trkpt lat="45.24374" lon="6.05736">
        <ele>2396.1</ele>
        <time>2024-05-04T09:32:09Z</time>
      </trkpt>
      <trkpt lat="45.24374" lon="6.05743">
        <ele>2397.5</ele>
        <time>2024-05-04T09:32:17Z</time>
      </trkpt>
      <trkpt lat="45.24374" lon="6.05745">
        <ele>2397.9</ele>
        <time>2024-05-04T09:32:20Z</time>
      </trkpt>
      <trkpt lat="45.24374" lon="6.05746">
        <ele>2398</ele>
        <time>2024-05-04T09:32:22Z</time>
      </trkpt>
      <trkpt lat="45.24373" lon="6.05748">
        <ele>2398.8</ele>
        <time>2024-05-04T09:32:24Z</time>
      </trkpt>
      <trkpt lat="45.24373" lon="6.05749">
        <ele>2399</ele>
        <time>2024-05-04T09:32:25Z</time>
      </trkpt>
      <trkpt lat="45.24372" lon="6.05757">
        <ele>2401.3</ele>
        <time>2024-05-04T09:32:33Z</time>
      </trkpt>
      <trkpt lat="45.24373" lon="6.05767">
        <ele>2403.5</ele>
        <time>2024-05-04T09:32:47Z</time>
      </trkpt>
      <trkpt lat="45.24371" lon="6.0577">
        <ele>2405</ele>
        <time>2024-05-04T09:32:52Z</time>
      </trkpt>
      <trkpt lat="45.2436" lon="6.05753">
        <ele>2404.4</ele>
        <time>2024-05-04T09:33:28Z</time>
      </trkpt>
      <trkpt lat="45.24358" lon="6.05749">
        <ele>2404.4</ele>
        <time>2024-05-04T09:33:34Z</time>
      </trkpt>
      <trkpt lat="45.24356" lon="6.05746">
        <ele>2405</ele>
        <time>2024-05-04T09:33:39Z</time>
      </trkpt>
      <trkpt lat="45.24354" lon="6.05743">
        <ele>2405.6</ele>
        <time>2024-05-04T09:33:43Z</time>
      </trkpt>
      <trkpt lat="45.24354" lon="6.05742">
        <ele>2405.5</ele>
        <time>2024-05-04T09:33:45Z</time>
      </trkpt>
      <trkpt lat="45.24352" lon="6.0574">
        <ele>2406.3</ele>
        <time>2024-05-04T09:33:48Z</time>
      </trkpt>
      <trkpt lat="45.2435" lon="6.05737">
        <ele>2406.9</ele>
        <time>2024-05-04T09:33:53Z</time>
      </trkpt>
      <trkpt lat="45.24348" lon="6.05733">
        <ele>2407.4</ele>
        <time>2024-05-04T09:33:58Z</time>
      </trkpt>
      <trkpt lat="45.24343" lon="6.05725">
        <ele>2409.1</ele>
        <time>2024-05-04T09:34:12Z</time>
      </trkpt>
      <trkpt lat="45.24335" lon="6.05714">
        <ele>2411.1</ele>
        <time>2024-05-04T09:34:32Z</time>
      </trkpt>
      <trkpt lat="45.24332" lon="6.05711">
        <ele>2411.8</ele>
        <time>2024-05-04T09:34:39Z</time>
      </trkpt>
      <trkpt lat="45.24328" lon="6.05708">
        <ele>2413</ele>
        <time>2024-05-04T09:34:47Z</time>
      </trkpt>
      <trkpt lat="45.24322" lon="6.05702">
        <ele>2414.5</ele>
        <time>2024-05-04T09:35:00Z</time>
      </trkpt>
      <trkpt lat="45.24316" lon="6.05698">
        <ele>2416.6</ele>
        <time>2024-05-04T09:35:12Z</time>
      </trkpt>
      <trkpt lat="45.24314" lon="6.05696">
        <ele>2417.1</ele>
        <time>2024-05-04T09:35:17Z</time>
      </trkpt>
      <trkpt lat="45.2431" lon="6.05691">
        <ele>2417.6</ele>
        <time>2024-05-04T09:35:27Z</time>
      </trkpt>
      <trkpt lat="45.24304" lon="6.0569">
        <ele>2420.1</ele>
        <time>2024-05-04T09:35:35Z</time>
      </trkpt>
      <trkpt lat="45.24302" lon="6.05689">
        <ele>2420.6</ele>
        <time>2024-05-04T09:35:39Z</time>
      </trkpt>
      <trkpt lat="45.243" lon="6.05688">
        <ele>2421.1</ele>
        <time>2024-05-04T09:35:42Z</time>
      </trkpt>
      <trkpt lat="45.24299" lon="6.05687">
        <ele>2421.2</ele>
        <time>2024-05-04T09:35:54Z</time>
      </trkpt>
      <trkpt lat="45.24299" lon="6.05688">
        <ele>2421.6</ele>
        <time>2024-05-04T09:35:56Z</time>
      </trkpt>
      <trkpt lat="45.243" lon="6.05689">
        <ele>2421.5</ele>
        <time>2024-05-04T09:35:59Z</time>
      </trkpt>
      <trkpt lat="45.243" lon="6.05693">
        <ele>2422.9</ele>
        <time>2024-05-04T09:36:04Z</time>
      </trkpt>
      <trkpt lat="45.24301" lon="6.05708">
        <ele>2425.8</ele>
        <time>2024-05-04T09:36:22Z</time>
      </trkpt>
      <trkpt lat="45.24301" lon="6.05712">
        <ele>2426.7</ele>
        <time>2024-05-04T09:36:30Z</time>
      </trkpt>
      <trkpt lat="45.24302" lon="6.05717">
        <ele>2427.3</ele>
        <time>2024-05-04T09:36:37Z</time>
      </trkpt>
      <trkpt lat="45.243" lon="6.05725">
        <ele>2429.6</ele>
        <time>2024-05-04T09:36:45Z</time>
      </trkpt>
      <trkpt lat="45.24301" lon="6.05728">
        <ele>2429.6</ele>
        <time>2024-05-04T09:36:50Z</time>
      </trkpt>
      <trkpt lat="45.24302" lon="6.0573">
        <ele>2429.5</ele>
        <time>2024-05-04T09:36:53Z</time>
      </trkpt>
      <trkpt lat="45.24305" lon="6.05744">
        <ele>2430.3</ele>
        <time>2024-05-04T09:37:11Z</time>
      </trkpt>
      <trkpt lat="45.24304" lon="6.05747">
        <ele>2431.1</ele>
        <time>2024-05-04T09:37:14Z</time>
      </trkpt>
      <trkpt lat="45.24303" lon="6.0575">
        <ele>2431.9</ele>
        <time>2024-05-04T09:37:17Z</time>
      </trkpt>
      <trkpt lat="45.24302" lon="6.05755">
        <ele>2432.9</ele>
        <time>2024-05-04T09:37:23Z</time>
      </trkpt>
      <trkpt lat="45.24302" lon="6.0577">
        <ele>2434.6</ele>
        <time>2024-05-04T09:37:47Z</time>
      </trkpt>
      <trkpt lat="45.24301" lon="6.05774">
        <ele>2435.5</ele>
        <time>2024-05-04T09:37:51Z</time>
      </trkpt>
      <trkpt lat="45.24301" lon="6.05778">
        <ele>2436</ele>
        <time>2024-05-04T09:37:55Z</time>
      </trkpt>
      <trkpt lat="45.243" lon="6.05782">
        <ele>2437.6</ele>
        <time>2024-05-04T09:37:59Z</time>
      </trkpt>
      <trkpt lat="45.24299" lon="6.05787">
        <ele>2439.5</ele>
        <time>2024-05-04T09:38:04Z</time>
      </trkpt>
      <trkpt lat="45.24298" lon="6.05793">
        <ele>2441.6</ele>
        <time>2024-05-04T09:38:12Z</time>
      </trkpt>
      <trkpt lat="45.243" lon="6.05808">
        <ele>2444.9</ele>
        <time>2024-05-04T09:38:34Z</time>
      </trkpt>
      <trkpt lat="45.24301" lon="6.05808">
        <ele>2444.6</ele>
        <time>2024-05-04T09:38:38Z</time>
      </trkpt>
      <trkpt lat="45.243" lon="6.05806">
        <ele>2444.7</ele>
        <time>2024-05-04T09:38:44Z</time>
      </trkpt>
      <trkpt lat="45.24298" lon="6.05806">
        <ele>2445.2</ele>
        <time>2024-05-04T09:38:48Z</time>
      </trkpt>
      <trkpt lat="45.24297" lon="6.05805">
        <ele>2445.3</ele>
        <time>2024-05-04T09:38:50Z</time>
      </trkpt>
      <trkpt lat="45.24295" lon="6.05805">
        <ele>2445.9</ele>
        <time>2024-05-04T09:38:53Z</time>
      </trkpt>
      <trkpt lat="45.24293" lon="6.05803">
        <ele>2446</ele>
        <time>2024-05-04T09:38:57Z</time>
      </trkpt>
      <trkpt lat="45.24291" lon="6.058">
        <ele>2445.8</ele>
        <time>2024-05-04T09:39:01Z</time>
      </trkpt>
      <trkpt lat="45.24277" lon="6.05788">
        <ele>2448.2</ele>
        <time>2024-05-04T09:39:33Z</time>
      </trkpt>
      <trkpt lat="45.24278" lon="6.05791">
        <ele>2448.3</ele>
        <time>2024-05-04T09:39:37Z</time>
      </trkpt>
      <trkpt lat="45.2428" lon="6.058">
        <ele>2449.3</ele>
        <time>2024-05-04T09:39:46Z</time>
      </trkpt>
      <trkpt lat="45.2428" lon="6.05806">
        <ele>2450.5</ele>
        <time>2024-05-04T09:39:59Z</time>
      </trkpt>
      <trkpt lat="45.24282" lon="6.05814">
        <ele>2451.7</ele>
        <time>2024-05-04T09:40:11Z</time>
      </trkpt>
      <trkpt lat="45.24281" lon="6.05819">
        <ele>2453.2</ele>
        <time>2024-05-04T09:40:20Z</time>
      </trkpt>
      <trkpt lat="45.24284" lon="6.0583">
        <ele>2454.6</ele>
        <time>2024-05-04T09:40:31Z</time>
      </trkpt>
      <trkpt lat="45.24286" lon="6.05835">
        <ele>2454.6</ele>
        <time>2024-05-04T09:40:38Z</time>
      </trkpt>
      <trkpt lat="45.24286" lon="6.05837">
        <ele>2454.7</ele>
        <time>2024-05-04T09:40:42Z</time>
      </trkpt>
      <trkpt lat="45.24285" lon="6.05843">
        <ele>2455.6</ele>
        <time>2024-05-04T09:40:50Z</time>
      </trkpt>
      <trkpt lat="45.24282" lon="6.05856">
        <ele>2458.1</ele>
        <time>2024-05-04T09:41:03Z</time>
      </trkpt>
      <trkpt lat="45.24281" lon="6.05868">
        <ele>2460.2</ele>
        <time>2024-05-04T09:41:20Z</time>
      </trkpt>
      <trkpt lat="45.24278" lon="6.05879">
        <ele>2463.5</ele>
        <time>2024-05-04T09:41:36Z</time>
      </trkpt>
      <trkpt lat="45.24277" lon="6.05884">
        <ele>2464.9</ele>
        <time>2024-05-04T09:41:41Z</time>
      </trkpt>
      <trkpt lat="45.2428" lon="6.05885">
        <ele>2463.2</ele>
        <time>2024-05-04T09:41:47Z</time>
      </trkpt>
      <trkpt lat="45.24281" lon="6.05885">
        <ele>2462.7</ele>
        <time>2024-05-04T09:41:53Z</time>
      </trkpt>
      <trkpt lat="45.24283" lon="6.05884">
        <ele>2461.4</ele>
        <time>2024-05-04T09:42:17Z</time>
      </trkpt>
      <trkpt lat="45.24283" lon="6.05884">
        <ele>2461.4</ele>
        <time>2024-05-04T09:42:44Z</time>
      </trkpt>
      <trkpt lat="45.24282" lon="6.05897">
        <ele>2464.7</ele>
        <time>2024-05-04T09:43:51Z</time>
      </trkpt>
      <trkpt lat="45.24283" lon="6.05898">
        <ele>2464.4</ele>
        <time>2024-05-04T09:43:53Z</time>
      </trkpt>
      <trkpt lat="45.24286" lon="6.05906">
        <ele>2464.7</ele>
        <time>2024-05-04T09:44:04Z</time>
      </trkpt>
      <trkpt lat="45.2429" lon="6.0592">
        <ele>2465.6</ele>
        <time>2024-05-04T09:44:27Z</time>
      </trkpt>
      <trkpt lat="45.24289" lon="6.05924">
        <ele>2467</ele>
        <time>2024-05-04T09:44:38Z</time>
      </trkpt>
      <trkpt lat="45.24289" lon="6.05929">
        <ele>2468</ele>
        <time>2024-05-04T09:44:43Z</time>
      </trkpt>
      <trkpt lat="45.2429" lon="6.05932">
        <ele>2468</ele>
        <time>2024-05-04T09:44:48Z</time>
      </trkpt>
      <trkpt lat="45.24291" lon="6.05939">
        <ele>2468.8</ele>
        <time>2024-05-04T09:44:56Z</time>
      </trkpt>
      <trkpt lat="45.2429" lon="6.05942">
        <ele>2470</ele>
        <time>2024-05-04T09:45:01Z</time>
      </trkpt>
      <trkpt lat="45.24289" lon="6.05944">
        <ele>2471</ele>
        <time>2024-05-04T09:45:05Z</time>
      </trkpt>
      <trkpt lat="45.2429" lon="6.05962">
        <ele>2474.5</ele>
        <time>2024-05-04T09:45:30Z</time>
      </trkpt>
      <trkpt lat="45.24291" lon="6.05965">
        <ele>2474.4</ele>
        <time>2024-05-04T09:45:38Z</time>
      </trkpt>
      <trkpt lat="45.24292" lon="6.05971">
        <ele>2475</ele>
        <time>2024-05-04T09:45:47Z</time>
      </trkpt>
      <trkpt lat="45.24291" lon="6.05977">
        <ele>2477</ele>
        <time>2024-05-04T09:45:56Z</time>
      </trkpt>
      <trkpt lat="45.24289" lon="6.05985">
        <ele>2480.2</ele>
        <time>2024-05-04T09:46:07Z</time>
      </trkpt>
      <trkpt lat="45.24289" lon="6.05993">
        <ele>2481.8</ele>
        <time>2024-05-04T09:46:20Z</time>
      </trkpt>
      <trkpt lat="45.24289" lon="6.05997">
        <ele>2482.7</ele>
        <time>2024-05-04T09:46:25Z</time>
      </trkpt>
      <trkpt lat="45.24289" lon="6.06">
        <ele>2483.3</ele>
        <time>2024-05-04T09:46:28Z</time>
      </trkpt>
      <trkpt lat="45.2429" lon="6.06005">
        <ele>2484.6</ele>
        <time>2024-05-04T09:46:38Z</time>
      </trkpt>
      <trkpt lat="45.24293" lon="6.06016">
        <ele>2486.8</ele>
        <time>2024-05-04T09:46:57Z</time>
      </trkpt>
      <trkpt lat="45.24293" lon="6.06023">
        <ele>2489.9</ele>
        <time>2024-05-04T09:47:08Z</time>
      </trkpt>
      <trkpt lat="45.24294" lon="6.06025">
        <ele>2489.9</ele>
        <time>2024-05-04T09:47:14Z</time>
      </trkpt>
      <trkpt lat="45.24292" lon="6.06021">
        <ele>2489.8</ele>
        <time>2024-05-04T09:47:27Z</time>
      </trkpt>
      <trkpt lat="45.24287" lon="6.06018">
        <ele>2492.6</ele>
        <time>2024-05-04T09:47:36Z</time>
      </trkpt>
      <trkpt lat="45.24283" lon="6.06013">
        <ele>2493.8</ele>
        <time>2024-05-04T09:47:49Z</time>
      </trkpt>
      <trkpt lat="45.24282" lon="6.0601">
        <ele>2493.4</ele>
        <time>2024-05-04T09:47:54Z</time>
      </trkpt>
      <trkpt lat="45.2428" lon="6.06006">
        <ele>2493.5</ele>
        <time>2024-05-04T09:48:02Z</time>
      </trkpt>
      <trkpt lat="45.24279" lon="6.06003">
        <ele>2493.1</ele>
        <time>2024-05-04T09:48:07Z</time>
      </trkpt>
      <trkpt lat="45.24277" lon="6.06003">
        <ele>2494.8</ele>
        <time>2024-05-04T09:48:10Z</time>
      </trkpt>
      <trkpt lat="45.24273" lon="6.05992">
        <ele>2494.5</ele>
        <time>2024-05-04T09:48:29Z</time>
      </trkpt>
      <trkpt lat="45.24268" lon="6.05983">
        <ele>2495.9</ele>
        <time>2024-05-04T09:48:50Z</time>
      </trkpt>
      <trkpt lat="45.24266" lon="6.05977">
        <ele>2495.8</ele>
        <time>2024-05-04T09:48:59Z</time>
      </trkpt>
      <trkpt lat="45.24264" lon="6.05977">
        <ele>2497.2</ele>
        <time>2024-05-04T09:49:03Z</time>
      </trkpt>
      <trkpt lat="45.24262" lon="6.05975">
        <ele>2498.1</ele>
        <time>2024-05-04T09:49:10Z</time>
      </trkpt>
      <trkpt lat="45.24261" lon="6.05971">
        <ele>2497.7</ele>
        <time>2024-05-04T09:49:17Z</time>
      </trkpt>
      <trkpt lat="45.24257" lon="6.05968">
        <ele>2499.5</ele>
        <time>2024-05-04T09:49:26Z</time>
      </trkpt>
      <trkpt lat="45.24251" lon="6.05963">
        <ele>2502</ele>
        <time>2024-05-04T09:49:40Z</time>
      </trkpt>
      <trkpt lat="45.24246" lon="6.05955">
        <ele>2502.9</ele>
        <time>2024-05-04T09:49:54Z</time>
      </trkpt>
      <trkpt lat="45.24243" lon="6.05951">
        <ele>2503.9</ele>
        <time>2024-05-04T09:50:01Z</time>
      </trkpt>
      <trkpt lat="45.24239" lon="6.05946">
        <ele>2505.6</ele>
        <time>2024-05-04T09:50:13Z</time>
      </trkpt>
      <trkpt lat="45.24237" lon="6.05943">
        <ele>2506.6</ele>
        <time>2024-05-04T09:50:19Z</time>
      </trkpt>
      <trkpt lat="45.24237" lon="6.05941">
        <ele>2506.3</ele>
        <time>2024-05-04T09:50:33Z</time>
      </trkpt>
      <trkpt lat="45.24236" lon="6.05949">
        <ele>2508.9</ele>
        <time>2024-05-04T09:50:45Z</time>
      </trkpt>
      <trkpt lat="45.24236" lon="6.05955">
        <ele>2510.6</ele>
        <time>2024-05-04T09:50:54Z</time>
      </trkpt>
      <trkpt lat="45.24237" lon="6.05959">
        <ele>2511</ele>
        <time>2024-05-04T09:51:01Z</time>
      </trkpt>
      <trkpt lat="45.24238" lon="6.05964">
        <ele>2511.8</ele>
        <time>2024-05-04T09:51:08Z</time>
      </trkpt>
      <trkpt lat="45.2424" lon="6.05972">
        <ele>2512.8</ele>
        <time>2024-05-04T09:51:20Z</time>
      </trkpt>
      <trkpt lat="45.24243" lon="6.0598">
        <ele>2513</ele>
        <time>2024-05-04T09:51:32Z</time>
      </trkpt>
      <trkpt lat="45.24244" lon="6.05989">
        <ele>2514.9</ele>
        <time>2024-05-04T09:51:43Z</time>
      </trkpt>
      <trkpt lat="45.24244" lon="6.05994">
        <ele>2516.4</ele>
        <time>2024-05-04T09:51:51Z</time>
      </trkpt>
      <trkpt lat="45.24245" lon="6.06008">
        <ele>2520</ele>
        <time>2024-05-04T09:52:14Z</time>
      </trkpt>
      <trkpt lat="45.24244" lon="6.06013">
        <ele>2522.3</ele>
        <time>2024-05-04T09:52:23Z</time>
      </trkpt>
      <trkpt lat="45.24245" lon="6.06021">
        <ele>2524.2</ele>
        <time>2024-05-04T09:52:35Z</time>
      </trkpt>
      <trkpt lat="45.24246" lon="6.0603">
        <ele>2526.6</ele>
        <time>2024-05-04T09:52:47Z</time>
      </trkpt>
      <trkpt lat="45.24244" lon="6.06036">
        <ele>2530</ele>
        <time>2024-05-04T09:52:54Z</time>
      </trkpt>
      <trkpt lat="45.24247" lon="6.06038">
        <ele>2528.9</ele>
        <time>2024-05-04T09:52:59Z</time>
      </trkpt>
      <trkpt lat="45.24249" lon="6.06039">
        <ele>2528.1</ele>
        <time>2024-05-04T09:53:01Z</time>
      </trkpt>
      <trkpt lat="45.2425" lon="6.0604">
        <ele>2527.8</ele>
        <time>2024-05-04T09:53:04Z</time>
      </trkpt>
      <trkpt lat="45.24252" lon="6.06044">
        <ele>2528.2</ele>
        <time>2024-05-04T09:53:08Z</time>
      </trkpt>
      <trkpt lat="45.24252" lon="6.06046">
        <ele>2529</ele>
        <time>2024-05-04T09:53:13Z</time>
      </trkpt>
      <trkpt lat="45.24256" lon="6.06052">
        <ele>2529.2</ele>
        <time>2024-05-04T09:53:23Z</time>
      </trkpt>
      <trkpt lat="45.24256" lon="6.06054">
        <ele>2530.1</ele>
        <time>2024-05-04T09:53:28Z</time>
      </trkpt>
      <trkpt lat="45.2426" lon="6.06064">
        <ele>2533.4</ele>
        <time>2024-05-04T09:53:46Z</time>
      </trkpt>
      <trkpt lat="45.24258" lon="6.06069">
        <ele>2537.2</ele>
        <time>2024-05-04T09:54:05Z</time>
      </trkpt>
      <trkpt lat="45.24254" lon="6.06064">
        <ele>2536.5</ele>
        <time>2024-05-04T09:54:11Z</time>
      </trkpt>
      <trkpt lat="45.24251" lon="6.0606">
        <ele>2535.9</ele>
        <time>2024-05-04T09:54:22Z</time>
      </trkpt>
      <trkpt lat="45.24248" lon="6.06059">
        <ele>2536.9</ele>
        <time>2024-05-04T09:54:28Z</time>
      </trkpt>
      <trkpt lat="45.24236" lon="6.06047">
        <ele>2538.4</ele>
        <time>2024-05-04T09:54:59Z</time>
      </trkpt>
      <trkpt lat="45.2423" lon="6.06039">
        <ele>2539.7</ele>
        <time>2024-05-04T09:55:14Z</time>
      </trkpt>
      <trkpt lat="45.24228" lon="6.06033">
        <ele>2539.4</ele>
        <time>2024-05-04T09:55:27Z</time>
      </trkpt>
      <trkpt lat="45.24227" lon="6.06033">
        <ele>2540</ele>
        <time>2024-05-04T09:55:33Z</time>
      </trkpt>
      <trkpt lat="45.24225" lon="6.06028">
        <ele>2540.2</ele>
        <time>2024-05-04T09:55:41Z</time>
      </trkpt>
      <trkpt lat="45.24221" lon="6.06022">
        <ele>2541</ele>
        <time>2024-05-04T09:55:53Z</time>
      </trkpt>
      <trkpt lat="45.24216" lon="6.06018">
        <ele>2543.2</ele>
        <time>2024-05-04T09:56:03Z</time>
      </trkpt>
      <trkpt lat="45.24215" lon="6.06014">
        <ele>2542.6</ele>
        <time>2024-05-04T09:56:11Z</time>
      </trkpt>
      <trkpt lat="45.24214" lon="6.06011">
        <ele>2542.4</ele>
        <time>2024-05-04T09:56:17Z</time>
      </trkpt>
      <trkpt lat="45.24209" lon="6.06006">
        <ele>2544.4</ele>
        <time>2024-05-04T09:56:28Z</time>
      </trkpt>
      <trkpt lat="45.24208" lon="6.06002">
        <ele>2543.9</ele>
        <time>2024-05-04T09:56:39Z</time>
      </trkpt>
      <trkpt lat="45.24209" lon="6.06002">
        <ele>2543.1</ele>
        <time>2024-05-04T09:56:43Z</time>
      </trkpt>
      <trkpt lat="45.24207" lon="6.06012">
        <ele>2547.6</ele>
        <time>2024-05-04T09:56:55Z</time>
      </trkpt>
      <trkpt lat="45.24207" lon="6.06025">
        <ele>2551.6</ele>
        <time>2024-05-04T09:57:15Z</time>
      </trkpt>
      <trkpt lat="45.24207" lon="6.06029">
        <ele>2552.7</ele>
        <time>2024-05-04T09:57:23Z</time>
      </trkpt>
      <trkpt lat="45.24209" lon="6.06036">
        <ele>2553.1</ele>
        <time>2024-05-04T09:57:34Z</time>
      </trkpt>
      <trkpt lat="45.24211" lon="6.06044">
        <ele>2553.7</ele>
        <time>2024-05-04T09:57:44Z</time>
      </trkpt>
      <trkpt lat="45.24212" lon="6.0605">
        <ele>2554.4</ele>
        <time>2024-05-04T09:57:54Z</time>
      </trkpt>
      <trkpt lat="45.24215" lon="6.06058">
        <ele>2554.7</ele>
        <time>2024-05-04T09:58:07Z</time>
      </trkpt>
      <trkpt lat="45.24216" lon="6.06063">
        <ele>2556.5</ele>
        <time>2024-05-04T09:58:15Z</time>
      </trkpt>
      <trkpt lat="45.24217" lon="6.06067">
        <ele>2557.7</ele>
        <time>2024-05-04T09:58:22Z</time>
      </trkpt>
      <trkpt lat="45.24216" lon="6.06071">
        <ele>2560.5</ele>
        <time>2024-05-04T09:58:29Z</time>
      </trkpt>
      <trkpt lat="45.24221" lon="6.06077">
        <ele>2559.7</ele>
        <time>2024-05-04T09:58:44Z</time>
      </trkpt>
      <trkpt lat="45.24226" lon="6.06082">
        <ele>2559.6</ele>
        <time>2024-05-04T09:58:57Z</time>
      </trkpt>
      <trkpt lat="45.24227" lon="6.06088">
        <ele>2562.4</ele>
        <time>2024-05-04T09:59:06Z</time>
      </trkpt>
      <trkpt lat="45.24231" lon="6.06092">
        <ele>2562.8</ele>
        <time>2024-05-04T09:59:16Z</time>
      </trkpt>
      <trkpt lat="45.24235" lon="6.06098">
        <ele>2564.2</ele>
        <time>2024-05-04T09:59:27Z</time>
      </trkpt>
      <trkpt lat="45.24237" lon="6.06103">
        <ele>2566</ele>
        <time>2024-05-04T09:59:41Z</time>
      </trkpt>
      <trkpt lat="45.24241" lon="6.06108">
        <ele>2566.8</ele>
        <time>2024-05-04T09:59:53Z</time>
      </trkpt>
      <trkpt lat="45.24242" lon="6.06109">
        <ele>2566.9</ele>
        <time>2024-05-04T09:59:59Z</time>
      </trkpt>
      <trkpt lat="45.24249" lon="6.06115">
        <ele>2566.3</ele>
        <time>2024-05-04T10:00:17Z</time>
      </trkpt>
      <trkpt lat="45.24252" lon="6.06118">
        <ele>2566.4</ele>
        <time>2024-05-04T10:00:27Z</time>
      </trkpt>
      <trkpt lat="45.24261" lon="6.06125">
        <ele>2566.1</ele>
        <time>2024-05-04T10:00:57Z</time>
      </trkpt>
      <trkpt lat="45.24266" lon="6.06129">
        <ele>2566.2</ele>
        <time>2024-05-04T10:01:07Z</time>
      </trkpt>
      <trkpt lat="45.24269" lon="6.06132">
        <ele>2566.6</ele>
        <time>2024-05-04T10:01:16Z</time>
      </trkpt>
      <trkpt lat="45.24271" lon="6.06132">
        <ele>2565.8</ele>
        <time>2024-05-04T10:01:20Z</time>
      </trkpt>
      <trkpt lat="45.24273" lon="6.06132">
        <ele>2565.1</ele>
        <time>2024-05-04T10:01:29Z</time>
      </trkpt>
      <trkpt lat="45.24275" lon="6.06133">
        <ele>2564.9</ele>
        <time>2024-05-04T10:01:34Z</time>
      </trkpt>
      <trkpt lat="45.24274" lon="6.0614">
        <ele>2568.7</ele>
        <time>2024-05-04T10:01:49Z</time>
      </trkpt>
      <trkpt lat="45.24278" lon="6.06144">
        <ele>2568.3</ele>
        <time>2024-05-04T10:01:56Z</time>
      </trkpt>
      <trkpt lat="45.24276" lon="6.06149">
        <ele>2570.6</ele>
        <time>2024-05-04T10:02:05Z</time>
      </trkpt>
      <trkpt lat="45.2428" lon="6.06151">
        <ele>2568.9</ele>
        <time>2024-05-04T10:02:11Z</time>
      </trkpt>
      <trkpt lat="45.24282" lon="6.06155">
        <ele>2568.6</ele>
        <time>2024-05-04T10:02:19Z</time>
      </trkpt>
      <trkpt lat="45.24276" lon="6.06159">
        <ele>2573.5</ele>
        <time>2024-05-04T10:02:26Z</time>
      </trkpt>
      <trkpt lat="45.24283" lon="6.06166">
        <ele>2571.4</ele>
        <time>2024-05-04T10:02:38Z</time>
      </trkpt>
      <trkpt lat="45.24284" lon="6.06167">
        <ele>2571</ele>
        <time>2024-05-04T10:02:41Z</time>
      </trkpt>
      <trkpt lat="45.24284" lon="6.06169">
        <ele>2571.5</ele>
        <time>2024-05-04T10:02:43Z</time>
      </trkpt>
      <trkpt lat="45.24283" lon="6.06169">
        <ele>2572.1</ele>
        <time>2024-05-04T10:02:44Z</time>
      </trkpt>
      <trkpt lat="45.24273" lon="6.06169">
        <ele>2577.5</ele>
        <time>2024-05-04T10:03:05Z</time>
      </trkpt>
      <trkpt lat="45.24269" lon="6.06165">
        <ele>2578</ele>
        <time>2024-05-04T10:03:15Z</time>
      </trkpt>
      <trkpt lat="45.24267" lon="6.06159">
        <ele>2577</ele>
        <time>2024-05-04T10:03:25Z</time>
      </trkpt>
      <trkpt lat="45.24262" lon="6.06157">
        <ele>2578.3</ele>
        <time>2024-05-04T10:03:37Z</time>
      </trkpt>
      <trkpt lat="45.24264" lon="6.06158">
        <ele>2577.8</ele>
        <time>2024-05-04T10:03:48Z</time>
      </trkpt>
      <trkpt lat="45.24266" lon="6.06162">
        <ele>2578.2</ele>
        <time>2024-05-04T10:03:57Z</time>
      </trkpt>
      <trkpt lat="45.24266" lon="6.06169">
        <ele>2580.4</ele>
        <time>2024-05-04T10:04:08Z</time>
      </trkpt>
      <trkpt lat="45.2427" lon="6.06176">
        <ele>2580.7</ele>
        <time>2024-05-04T10:04:21Z</time>
      </trkpt>
      <trkpt lat="45.24263" lon="6.06177">
        <ele>2584</ele>
        <time>2024-05-04T10:04:37Z</time>
      </trkpt>
      <trkpt lat="45.24262" lon="6.06176">
        <ele>2584.2</ele>
        <time>2024-05-04T10:04:44Z</time>
      </trkpt>
      <trkpt lat="45.24259" lon="6.06174">
        <ele>2584.8</ele>
        <time>2024-05-04T10:04:51Z</time>
      </trkpt>
      <trkpt lat="45.24256" lon="6.06172">
        <ele>2585.4</ele>
        <time>2024-05-04T10:05:00Z</time>
      </trkpt>
      <trkpt lat="45.24253" lon="6.06173">
        <ele>2587</ele>
        <time>2024-05-04T10:05:09Z</time>
      </trkpt>
      <trkpt lat="45.24247" lon="6.06174">
        <ele>2590.1</ele>
        <time>2024-05-04T10:05:20Z</time>
      </trkpt>
      <trkpt lat="45.24245" lon="6.06174">
        <ele>2591.1</ele>
        <time>2024-05-04T10:05:24Z</time>
      </trkpt>
      <trkpt lat="45.24242" lon="6.06173">
        <ele>2592.2</ele>
        <time>2024-05-04T10:05:34Z</time>
      </trkpt>
      <trkpt lat="45.24236" lon="6.06172">
        <ele>2594.9</ele>
        <time>2024-05-04T10:05:44Z</time>
      </trkpt>
      <trkpt lat="45.24231" lon="6.0617">
        <ele>2596.7</ele>
        <time>2024-05-04T10:05:55Z</time>
      </trkpt>
      <trkpt lat="45.2423" lon="6.06169">
        <ele>2596.9</ele>
        <time>2024-05-04T10:06:02Z</time>
      </trkpt>
      <trkpt lat="45.24225" lon="6.06166">
        <ele>2598.4</ele>
        <time>2024-05-04T10:06:12Z</time>
      </trkpt>
      <trkpt lat="45.24226" lon="6.06168">
        <ele>2598.5</ele>
        <time>2024-05-04T10:06:28Z</time>
      </trkpt>
      <trkpt lat="45.2423" lon="6.06174">
        <ele>2598.5</ele>
        <time>2024-05-04T10:06:41Z</time>
      </trkpt>
      <trkpt lat="45.24235" lon="6.0618">
        <ele>2598.1</ele>
        <time>2024-05-04T10:06:51Z</time>
      </trkpt>
      <trkpt lat="45.24242" lon="6.06188">
        <ele>2597.5</ele>
        <time>2024-05-04T10:07:03Z</time>
      </trkpt>
      <trkpt lat="45.24245" lon="6.06192">
        <ele>2597.5</ele>
        <time>2024-05-04T10:07:10Z</time>
      </trkpt>
      <trkpt lat="45.24247" lon="6.06194">
        <ele>2597.2</ele>
        <time>2024-05-04T10:07:14Z</time>
      </trkpt>
      <trkpt lat="45.24245" lon="6.06203">
        <ele>2602.5</ele>
        <time>2024-05-04T10:07:25Z</time>
      </trkpt>
      <trkpt lat="45.24248" lon="6.06213">
        <ele>2606.2</ele>
        <time>2024-05-04T10:07:43Z</time>
      </trkpt>
      <trkpt lat="45.24251" lon="6.06217">
        <ele>2606.8</ele>
        <time>2024-05-04T10:07:50Z</time>
      </trkpt>
      <trkpt lat="45.24255" lon="6.06221">
        <ele>2606.3</ele>
        <time>2024-05-04T10:08:00Z</time>
      </trkpt>
      <trkpt lat="45.24257" lon="6.06226">
        <ele>2608.4</ele>
        <time>2024-05-04T10:08:12Z</time>
      </trkpt>
      <trkpt lat="45.24253" lon="6.06228">
        <ele>2612.4</ele>
        <time>2024-05-04T10:08:35Z</time>
      </trkpt>
      <trkpt lat="45.2425" lon="6.06228">
        <ele>2614.4</ele>
        <time>2024-05-04T10:08:43Z</time>
      </trkpt>
      <trkpt lat="45.24244" lon="6.06227">
        <ele>2616</ele>
        <time>2024-05-04T10:08:52Z</time>
      </trkpt>
      <trkpt lat="45.24241" lon="6.06225">
        <ele>2615.7</ele>
        <time>2024-05-04T10:09:03Z</time>
      </trkpt>
      <trkpt lat="45.24236" lon="6.06223">
        <ele>2616.1</ele>
        <time>2024-05-04T10:09:15Z</time>
      </trkpt>
      <trkpt lat="45.24232" lon="6.06222">
        <ele>2617</ele>
        <time>2024-05-04T10:09:22Z</time>
      </trkpt>
      <trkpt lat="45.24229" lon="6.06221">
        <ele>2617.8</ele>
        <time>2024-05-04T10:09:31Z</time>
      </trkpt>
      <trkpt lat="45.24222" lon="6.06217">
        <ele>2618.9</ele>
        <time>2024-05-04T10:09:44Z</time>
      </trkpt>
      <trkpt lat="45.24219" lon="6.06214">
        <ele>2620.3</ele>
        <time>2024-05-04T10:09:52Z</time>
      </trkpt>
      <trkpt lat="45.24217" lon="6.06211">
        <ele>2620.8</ele>
        <time>2024-05-04T10:09:57Z</time>
      </trkpt>
      <trkpt lat="45.24216" lon="6.06208">
        <ele>2620.5</ele>
        <time>2024-05-04T10:10:06Z</time>
      </trkpt>
      <trkpt lat="45.24215" lon="6.06208">
        <ele>2621.4</ele>
        <time>2024-05-04T10:10:12Z</time>
      </trkpt>
      <trkpt lat="45.24217" lon="6.06214">
        <ele>2622</ele>
        <time>2024-05-04T10:10:32Z</time>
      </trkpt>
      <trkpt lat="45.24218" lon="6.0622">
        <ele>2623.6</ele>
        <time>2024-05-04T10:10:42Z</time>
      </trkpt>
      <trkpt lat="45.24219" lon="6.06228">
        <ele>2627.8</ele>
        <time>2024-05-04T10:10:56Z</time>
      </trkpt>
      <trkpt lat="45.24222" lon="6.0623">
        <ele>2627</ele>
        <time>2024-05-04T10:11:03Z</time>
      </trkpt>
      <trkpt lat="45.24231" lon="6.06238">
        <ele>2629.5</ele>
        <time>2024-05-04T10:11:13Z</time>
      </trkpt>
      <trkpt lat="45.24231" lon="6.06238">
        <ele>2629.5</ele>
        <time>2024-05-04T10:11:14Z</time>
      </trkpt>
      <trkpt lat="45.24236" lon="6.06244">
        <ele>2632</ele>
        <time>2024-05-04T10:11:33Z</time>
      </trkpt>
      <trkpt lat="45.24238" lon="6.06249">
        <ele>2635</ele>
        <time>2024-05-04T10:11:42Z</time>
      </trkpt>
      <trkpt lat="45.24238" lon="6.06249">
        <ele>2635</ele>
        <time>2024-05-04T10:11:43Z</time>
      </trkpt>
      <trkpt lat="45.24226" lon="6.06251">
        <ele>2641.3</ele>
        <time>2024-05-04T10:12:18Z</time>
      </trkpt>
      <trkpt lat="45.24222" lon="6.06248">
        <ele>2640.6</ele>
        <time>2024-05-04T10:12:28Z</time>
      </trkpt>
      <trkpt lat="45.24216" lon="6.06243">
        <ele>2640.4</ele>
        <time>2024-05-04T10:12:38Z</time>
      </trkpt>
      <trkpt lat="45.24212" lon="6.06239">
        <ele>2640.1</ele>
        <time>2024-05-04T10:12:47Z</time>
      </trkpt>
      <trkpt lat="45.2421" lon="6.06236">
        <ele>2639.6</ele>
        <time>2024-05-04T10:12:56Z</time>
      </trkpt>
      <trkpt lat="45.24207" lon="6.06233">
        <ele>2639.8</ele>
        <time>2024-05-04T10:13:04Z</time>
      </trkpt>
      <trkpt lat="45.24204" lon="6.06228">
        <ele>2639.2</ele>
        <time>2024-05-04T10:13:20Z</time>
      </trkpt>
      <trkpt lat="45.24205" lon="6.06229">
        <ele>2639</ele>
        <time>2024-05-04T10:13:33Z</time>
      </trkpt>
      <trkpt lat="45.24208" lon="6.06239">
        <ele>2642.7</ele>
        <time>2024-05-04T10:13:57Z</time>
      </trkpt>
      <trkpt lat="45.24213" lon="6.06245">
        <ele>2643.4</ele>
        <time>2024-05-04T10:14:08Z</time>
      </trkpt>
      <trkpt lat="45.24214" lon="6.06247">
        <ele>2644.2</ele>
        <time>2024-05-04T10:14:12Z</time>
      </trkpt>
      <trkpt lat="45.24219" lon="6.06255">
        <ele>2647.5</ele>
        <time>2024-05-04T10:14:32Z</time>
      </trkpt>
      <trkpt lat="45.24224" lon="6.06261">
        <ele>2650</ele>
        <time>2024-05-04T10:14:44Z</time>
      </trkpt>
      <trkpt lat="45.24228" lon="6.06265">
        <ele>2651.7</ele>
        <time>2024-05-04T10:14:52Z</time>
      </trkpt>
      <trkpt lat="45.2423" lon="6.06267">
        <ele>2652.6</ele>
        <time>2024-05-04T10:14:56Z</time>
      </trkpt>
      <trkpt lat="45.24232" lon="6.06268">
        <ele>2652.6</ele>
        <time>2024-05-04T10:15:00Z</time>
      </trkpt>
      <trkpt lat="45.2423" lon="6.06269">
        <ele>2654.2</ele>
        <time>2024-05-04T10:15:07Z</time>
      </trkpt>
      <trkpt lat="45.24231" lon="6.06271">
        <ele>2655.4</ele>
        <time>2024-05-04T10:15:10Z</time>
      </trkpt>
      <trkpt lat="45.24236" lon="6.06277">
        <ele>2658.4</ele>
        <time>2024-05-04T10:15:26Z</time>
      </trkpt>
      <trkpt lat="45.24232" lon="6.06284">
        <ele>2662.6</ele>
        <time>2024-05-04T10:15:55Z</time>
      </trkpt>
      <trkpt lat="45.24229" lon="6.06282">
        <ele>2663.2</ele>
        <time>2024-05-04T10:16:02Z</time>
      </trkpt>
      <trkpt lat="45.24226" lon="6.06281">
        <ele>2664.1</ele>
        <time>2024-05-04T10:16:10Z</time>
      </trkpt>
      <trkpt lat="45.24223" lon="6.06282">
        <ele>2665.8</ele>
        <time>2024-05-04T10:16:17Z</time>
      </trkpt>
      <trkpt lat="45.24218" lon="6.06279">
        <ele>2666</ele>
        <time>2024-05-04T10:16:26Z</time>
      </trkpt>
      <trkpt lat="45.24213" lon="6.06276">
        <ele>2665.7</ele>
        <time>2024-05-04T10:16:36Z</time>
      </trkpt>
      <trkpt lat="45.24208" lon="6.06273">
        <ele>2665.3</ele>
        <time>2024-05-04T10:16:46Z</time>
      </trkpt>
      <trkpt lat="45.24203" lon="6.0627">
        <ele>2665</ele>
        <time>2024-05-04T10:17:01Z</time>
      </trkpt>
      <trkpt lat="45.24199" lon="6.06266">
        <ele>2664</ele>
        <time>2024-05-04T10:17:19Z</time>
      </trkpt>
      <trkpt lat="45.24201" lon="6.06266">
        <ele>2663.2</ele>
        <time>2024-05-04T10:17:28Z</time>
      </trkpt>
      <trkpt lat="45.24202" lon="6.06267">
        <ele>2663.4</ele>
        <time>2024-05-04T10:17:32Z</time>
      </trkpt>
      <trkpt lat="45.24206" lon="6.06272">
        <ele>2665.3</ele>
        <time>2024-05-04T10:17:43Z</time>
      </trkpt>
      <trkpt lat="45.24212" lon="6.0628">
        <ele>2668.6</ele>
        <time>2024-05-04T10:18:00Z</time>
      </trkpt>
      <trkpt lat="45.24212" lon="6.06281">
        <ele>2669.1</ele>
        <time>2024-05-04T10:18:04Z</time>
      </trkpt>
      <trkpt lat="45.24213" lon="6.06283">
        <ele>2669.9</ele>
        <time>2024-05-04T10:18:07Z</time>
      </trkpt>
      <trkpt lat="45.24213" lon="6.06284">
        <ele>2670.5</ele>
        <time>2024-05-04T10:18:09Z</time>
      </trkpt>
      <trkpt lat="45.24222" lon="6.06299">
        <ele>2674.8</ele>
        <time>2024-05-04T10:18:49Z</time>
      </trkpt>
      <trkpt lat="45.24229" lon="6.06305">
        <ele>2672.2</ele>
        <time>2024-05-04T10:19:05Z</time>
      </trkpt>
      <trkpt lat="45.24221" lon="6.06305">
        <ele>2678.3</ele>
        <time>2024-05-04T10:19:35Z</time>
      </trkpt>
      <trkpt lat="45.24216" lon="6.06305">
        <ele>2680.8</ele>
        <time>2024-05-04T10:19:46Z</time>
      </trkpt>
      <trkpt lat="45.24215" lon="6.06305">
        <ele>2681.3</ele>
        <time>2024-05-04T10:19:56Z</time>
      </trkpt>
      <trkpt lat="45.24211" lon="6.06304">
        <ele>2682.8</ele>
        <time>2024-05-04T10:20:15Z</time>
      </trkpt>
      <trkpt lat="45.24215" lon="6.06305">
        <ele>2681.3</ele>
        <time>2024-05-04T10:20:36Z</time>
      </trkpt>
      <trkpt lat="45.24218" lon="6.06311">
        <ele>2681.5</ele>
        <time>2024-05-04T10:20:50Z</time>
      </trkpt>
      <trkpt lat="45.24223" lon="6.06311">
        <ele>2678.5</ele>
        <time>2024-05-04T10:21:01Z</time>
      </trkpt>
      <trkpt lat="45.24227" lon="6.06316">
        <ele>2675.6</ele>
        <time>2024-05-04T10:21:12Z</time>
      </trkpt>
      <trkpt lat="45.24228" lon="6.06315">
        <ele>2674.5</ele>
        <time>2024-05-04T10:21:21Z</time>
      </trkpt>
      <trkpt lat="45.24232" lon="6.06313">
        <ele>2670.5</ele>
        <time>2024-05-04T10:21:27Z</time>
      </trkpt>
      <trkpt lat="45.24229" lon="6.06319">
        <ele>2674</ele>
        <time>2024-05-04T10:21:57Z</time>
      </trkpt>
      <trkpt lat="45.2422" lon="6.0632">
        <ele>2682.5</ele>
        <time>2024-05-04T10:22:16Z</time>
      </trkpt>
      <trkpt lat="45.24218" lon="6.0632">
        <ele>2683.8</ele>
        <time>2024-05-04T10:22:22Z</time>
      </trkpt>
      <trkpt lat="45.24219" lon="6.06319">
        <ele>2682.9</ele>
        <time>2024-05-04T10:22:41Z</time>
      </trkpt>
      <trkpt lat="45.2422" lon="6.0632">
        <ele>2682.5</ele>
        <time>2024-05-04T10:22:47Z</time>
      </trkpt>
      <trkpt lat="45.24223" lon="6.06324">
        <ele>2681.1</ele>
        <time>2024-05-04T10:22:59Z</time>
      </trkpt>
      <trkpt lat="45.24218" lon="6.06328">
        <ele>2685.8</ele>
        <time>2024-05-04T10:23:31Z</time>
      </trkpt>
      <trkpt lat="45.24214" lon="6.06328">
        <ele>2688.7</ele>
        <time>2024-05-04T10:23:41Z</time>
      </trkpt>
      <trkpt lat="45.24211" lon="6.06327">
        <ele>2690.5</ele>
        <time>2024-05-04T10:23:52Z</time>
      </trkpt>
      <trkpt lat="45.24212" lon="6.06327">
        <ele>2689.8</ele>
        <time>2024-05-04T10:24:11Z</time>
      </trkpt>
      <trkpt lat="45.24215" lon="6.0633">
        <ele>2688.5</ele>
        <time>2024-05-04T10:24:25Z</time>
      </trkpt>
      <trkpt lat="45.24217" lon="6.06336">
        <ele>2687.9</ele>
        <time>2024-05-04T10:24:51Z</time>
      </trkpt>
      <trkpt lat="45.2421" lon="6.06331">
        <ele>2692.5</ele>
        <time>2024-05-04T10:25:14Z</time>
      </trkpt>
      <trkpt lat="45.24206" lon="6.0633">
        <ele>2695.1</ele>
        <time>2024-05-04T10:25:23Z</time>
      </trkpt>
      <trkpt lat="45.24206" lon="6.0633">
        <ele>2695.1</ele>
        <time>2024-05-04T10:25:46Z</time>
      </trkpt>
      <trkpt lat="45.24212" lon="6.06337">
        <ele>2691.9</ele>
        <time>2024-05-04T10:26:04Z</time>
      </trkpt>
      <trkpt lat="45.24212" lon="6.06336">
        <ele>2691.9</ele>
        <time>2024-05-04T10:26:26Z</time>
      </trkpt>
      <trkpt lat="45.24213" lon="6.06336">
        <ele>2691.1</ele>
        <time>2024-05-04T10:26:27Z</time>
      </trkpt>
      <trkpt lat="45.2421" lon="6.06337">
        <ele>2693.5</ele>
        <time>2024-05-04T10:27:11Z</time>
      </trkpt>
      <trkpt lat="45.24208" lon="6.06337">
        <ele>2695.2</ele>
        <time>2024-05-04T10:27:31Z</time>
      </trkpt>
      <trkpt lat="45.24209" lon="6.06338">
        <ele>2694.5</ele>
        <time>2024-05-04T10:29:03Z</time>
      </trkpt>
      <trkpt lat="45.24205" lon="6.06348">
        <ele>2699.4</ele>
        <time>2024-05-04T10:30:36Z</time>
      </trkpt>
      <trkpt lat="45.24207" lon="6.06346">
        <ele>2697.1</ele>
        <time>2024-05-04T10:30:57Z</time>
      </trkpt>
      <trkpt lat="45.24207" lon="6.06346">
        <ele>2697.1</ele>
        <time>2024-05-04T10:30:59Z</time>
      </trkpt>
      <trkpt lat="45.24207" lon="6.06345">
        <ele>2697</ele>
        <time>2024-05-04T10:31:20Z</time>
      </trkpt>
      <trkpt lat="45.24205" lon="6.06347">
        <ele>2699.2</ele>
        <time>2024-05-04T10:31:35Z</time>
      </trkpt>
      <trkpt lat="45.24205" lon="6.06347">
        <ele>2699.2</ele>
        <time>2024-05-04T10:31:46Z</time>
      </trkpt>
      <trkpt lat="45.24203" lon="6.06349">
        <ele>2701.5</ele>
        <time>2024-05-04T10:31:58Z</time>
      </trkpt>
      <trkpt lat="45.24206" lon="6.06352">
        <ele>2699</ele>
        <time>2024-05-04T10:32:30Z</time>
      </trkpt>
      <trkpt lat="45.24205" lon="6.06353">
        <ele>2700.2</ele>
        <time>2024-05-04T10:32:39Z</time>
      </trkpt>
      <trkpt lat="45.24205" lon="6.06353">
        <ele>2700.2</ele>
        <time>2024-05-04T10:32:44Z</time>
      </trkpt>
      <trkpt lat="45.24205" lon="6.06354">
        <ele>2700.3</ele>
        <time>2024-05-04T10:32:50Z</time>
      </trkpt>
      <trkpt lat="45.24204" lon="6.06355">
        <ele>2701.6</ele>
        <time>2024-05-04T10:33:05Z</time>
      </trkpt>
      <trkpt lat="45.24204" lon="6.06356">
        <ele>2701.8</ele>
        <time>2024-05-04T10:33:08Z</time>
      </trkpt>
      <trkpt lat="45.24201" lon="6.06358">
        <ele>2705.5</ele>
        <time>2024-05-04T10:33:32Z</time>
      </trkpt>
      <trkpt lat="45.24198" lon="6.06358">
        <ele>2708.9</ele>
        <time>2024-05-04T10:33:43Z</time>
      </trkpt>
      <trkpt lat="45.24199" lon="6.06357">
        <ele>2707.5</ele>
        <time>2024-05-04T10:33:54Z</time>
      </trkpt>
      <trkpt lat="45.24197" lon="6.06357">
        <ele>2709.8</ele>
        <time>2024-05-04T10:34:06Z</time>
      </trkpt>
      <trkpt lat="45.24197" lon="6.06357">
        <ele>2709.8</ele>
        <time>2024-05-04T10:34:10Z</time>
      </trkpt>
      <trkpt lat="45.24196" lon="6.06359">
        <ele>2711.5</ele>
        <time>2024-05-04T10:34:20Z</time>
      </trkpt>
      <trkpt lat="45.24195" lon="6.06361">
        <ele>2713.3</ele>
        <time>2024-05-04T10:34:31Z</time>
      </trkpt>
      <trkpt lat="45.24194" lon="6.06362">
        <ele>2714.1</ele>
        <time>2024-05-04T10:34:33Z</time>
      </trkpt>
      <trkpt lat="45.24192" lon="6.06365">
        <ele>2714.3</ele>
        <time>2024-05-04T10:34:57Z</time>
      </trkpt>
      <trkpt lat="45.2419" lon="6.06366">
        <ele>2714.2</ele>
        <time>2024-05-04T10:35:08Z</time>
      </trkpt>
      <trkpt lat="45.2419" lon="6.06367">
        <ele>2714.3</ele>
        <time>2024-05-04T10:35:16Z</time>
      </trkpt>
      <trkpt lat="45.24189" lon="6.06367">
        <ele>2714.2</ele>
        <time>2024-05-04T10:35:21Z</time>
      </trkpt>
      <trkpt lat="45.24189" lon="6.06368">
        <ele>2714.3</ele>
        <time>2024-05-04T10:35:31Z</time>
      </trkpt>
      <trkpt lat="45.24188" lon="6.0637">
        <ele>2714.3</ele>
        <time>2024-05-04T10:35:41Z</time>
      </trkpt>
      <trkpt lat="45.24187" lon="6.06371">
        <ele>2714.2</ele>
        <time>2024-05-04T10:35:50Z</time>
      </trkpt>
      <trkpt lat="45.24187" lon="6.06372">
        <ele>2714.3</ele>
        <time>2024-05-04T10:36:02Z</time>
      </trkpt>
      <trkpt lat="45.24187" lon="6.06373">
        <ele>2714.4</ele>
        <time>2024-05-04T10:36:07Z</time>
      </trkpt>
      <trkpt lat="45.24183" lon="6.06374">
        <ele>2713.7</ele>
        <time>2024-05-04T10:36:25Z</time>
      </trkpt>
      <trkpt lat="45.24184" lon="6.06374">
        <ele>2713.9</ele>
        <time>2024-05-04T10:36:28Z</time>
      </trkpt>
      <trkpt lat="45.24187" lon="6.0638">
        <ele>2714.9</ele>
        <time>2024-05-04T10:36:39Z</time>
      </trkpt>
      <trkpt lat="45.24188" lon="6.06382">
        <ele>2715.3</ele>
        <time>2024-05-04T10:36:50Z</time>
      </trkpt>
      <trkpt lat="45.24187" lon="6.06381">
        <ele>2715</ele>
        <time>2024-05-04T10:37:45Z</time>
      </trkpt>
      <trkpt lat="45.24187" lon="6.06379">
        <ele>2714.8</ele>
        <time>2024-05-04T10:37:58Z</time>
      </trkpt>
      <trkpt lat="45.24188" lon="6.06377">
        <ele>2714.9</ele>
        <time>2024-05-04T10:42:44Z</time>
      </trkpt>
      <trkpt lat="45.24191" lon="6.06383">
        <ele>2716.2</ele>
        <time>2024-05-04T10:46:13Z</time>
      </trkpt>
      <trkpt lat="45.24192" lon="6.06394">
        <ele>2716.8</ele>
        <time>2024-05-04T10:46:29Z</time>
      </trkpt>
      <trkpt lat="45.24193" lon="6.06397">
        <ele>2717</ele>
        <time>2024-05-04T10:47:42Z</time>
      </trkpt>
      <trkpt lat="45.24195" lon="6.06403">
        <ele>2716.9</ele>
        <time>2024-05-04T10:47:59Z</time>
      </trkpt>
      <trkpt lat="45.24198" lon="6.06405">
        <ele>2713.5</ele>
        <time>2024-05-04T10:48:02Z</time>
      </trkpt>
      <trkpt lat="45.242" lon="6.06412">
        <ele>2711.4</ele>
        <time>2024-05-04T10:48:05Z</time>
      </trkpt>
      <trkpt lat="45.242" lon="6.06413">
        <ele>2711.4</ele>
        <time>2024-05-04T10:48:06Z</time>
      </trkpt>
      <trkpt lat="45.24201" lon="6.06415">
        <ele>2710.4</ele>
        <time>2024-05-04T10:48:07Z</time>
      </trkpt>
      <trkpt lat="45.24203" lon="6.06418">
        <ele>2708.2</ele>
        <time>2024-05-04T10:48:09Z</time>
      </trkpt>
      <trkpt lat="45.24204" lon="6.06419">
        <ele>2707.2</ele>
        <time>2024-05-04T10:48:11Z</time>
      </trkpt>
      <trkpt lat="45.24203" lon="6.06418">
        <ele>2708.2</ele>
        <time>2024-05-04T10:48:13Z</time>
      </trkpt>
      <trkpt lat="45.24207" lon="6.06422">
        <ele>2704.2</ele>
        <time>2024-05-04T10:48:18Z</time>
      </trkpt>
      <trkpt lat="45.24207" lon="6.06424">
        <ele>2704.2</ele>
        <time>2024-05-04T10:48:19Z</time>
      </trkpt>
      <trkpt lat="45.24207" lon="6.06426">
        <ele>2704.1</ele>
        <time>2024-05-04T10:48:21Z</time>
      </trkpt>
      <trkpt lat="45.24207" lon="6.06426">
        <ele>2704.1</ele>
        <time>2024-05-04T10:48:22Z</time>
      </trkpt>
      <trkpt lat="45.24207" lon="6.06426">
        <ele>2704.1</ele>
        <time>2024-05-04T10:48:26Z</time>
      </trkpt>
      <trkpt lat="45.24209" lon="6.06419">
        <ele>2702.4</ele>
        <time>2024-05-04T10:48:48Z</time>
      </trkpt>
      <trkpt lat="45.24209" lon="6.0642">
        <ele>2702.4</ele>
        <time>2024-05-04T10:48:53Z</time>
      </trkpt>
      <trkpt lat="45.2421" lon="6.0642">
        <ele>2701.4</ele>
        <time>2024-05-04T10:48:54Z</time>
      </trkpt>
      <trkpt lat="45.24211" lon="6.06424">
        <ele>2700.7</ele>
        <time>2024-05-04T10:49:00Z</time>
      </trkpt>
      <trkpt lat="45.24211" lon="6.06431">
        <ele>2701</ele>
        <time>2024-05-04T10:49:08Z</time>
      </trkpt>
      <trkpt lat="45.24215" lon="6.06437">
        <ele>2698.7</ele>
        <time>2024-05-04T10:49:18Z</time>
      </trkpt>
      <trkpt lat="45.24216" lon="6.06437">
        <ele>2698.1</ele>
        <time>2024-05-04T10:49:23Z</time>
      </trkpt>
      <trkpt lat="45.24216" lon="6.0644">
        <ele>2698.5</ele>
        <time>2024-05-04T10:49:27Z</time>
      </trkpt>
      <trkpt lat="45.24216" lon="6.0644">
        <ele>2698.5</ele>
        <time>2024-05-04T10:49:28Z</time>
      </trkpt>
      <trkpt lat="45.24217" lon="6.06439">
        <ele>2697.8</ele>
        <time>2024-05-04T10:49:32Z</time>
      </trkpt>
      <trkpt lat="45.2422" lon="6.06443">
        <ele>2696.8</ele>
        <time>2024-05-04T10:49:36Z</time>
      </trkpt>
      <trkpt lat="45.2422" lon="6.06446">
        <ele>2697.1</ele>
        <time>2024-05-04T10:49:39Z</time>
      </trkpt>
      <trkpt lat="45.24223" lon="6.06459">
        <ele>2695.5</ele>
        <time>2024-05-04T10:49:45Z</time>
      </trkpt>
      <trkpt lat="45.24225" lon="6.06463">
        <ele>2694.5</ele>
        <time>2024-05-04T10:49:47Z</time>
      </trkpt>
      <trkpt lat="45.2423" lon="6.06467">
        <ele>2692.1</ele>
        <time>2024-05-04T10:49:49Z</time>
      </trkpt>
      <trkpt lat="45.24233" lon="6.06469">
        <ele>2690.9</ele>
        <time>2024-05-04T10:49:51Z</time>
      </trkpt>
      <trkpt lat="45.24238" lon="6.06471">
        <ele>2688.9</ele>
        <time>2024-05-04T10:49:53Z</time>
      </trkpt>
      <trkpt lat="45.24243" lon="6.06474">
        <ele>2686.9</ele>
        <time>2024-05-04T10:49:55Z</time>
      </trkpt>
      <trkpt lat="45.24245" lon="6.06473">
        <ele>2686.1</ele>
        <time>2024-05-04T10:49:57Z</time>
      </trkpt>
      <trkpt lat="45.24246" lon="6.06468">
        <ele>2684.4</ele>
        <time>2024-05-04T10:49:59Z</time>
      </trkpt>
      <trkpt lat="45.24246" lon="6.06467">
        <ele>2684.1</ele>
        <time>2024-05-04T10:50:00Z</time>
      </trkpt>
      <trkpt lat="45.24246" lon="6.06465">
        <ele>2683.5</ele>
        <time>2024-05-04T10:50:01Z</time>
      </trkpt>
      <trkpt lat="45.24246" lon="6.06464">
        <ele>2683.2</ele>
        <time>2024-05-04T10:50:02Z</time>
      </trkpt>
      <trkpt lat="45.24246" lon="6.06462">
        <ele>2682.6</ele>
        <time>2024-05-04T10:50:03Z</time>
      </trkpt>
      <trkpt lat="45.24246" lon="6.0646">
        <ele>2682</ele>
        <time>2024-05-04T10:50:04Z</time>
      </trkpt>
      <trkpt lat="45.24245" lon="6.06458">
        <ele>2682</ele>
        <time>2024-05-04T10:50:06Z</time>
      </trkpt>
      <trkpt lat="45.24245" lon="6.06456">
        <ele>2681.4</ele>
        <time>2024-05-04T10:50:07Z</time>
      </trkpt>
      <trkpt lat="45.24242" lon="6.06454">
        <ele>2682.8</ele>
        <time>2024-05-04T10:50:09Z</time>
      </trkpt>
      <trkpt lat="45.24242" lon="6.06455">
        <ele>2683</ele>
        <time>2024-05-04T10:50:10Z</time>
      </trkpt>
      <trkpt lat="45.24241" lon="6.06456">
        <ele>2683.9</ele>
        <time>2024-05-04T10:50:11Z</time>
      </trkpt>
      <trkpt lat="45.24241" lon="6.06457">
        <ele>2684.2</ele>
        <time>2024-05-04T10:50:13Z</time>
      </trkpt>
      <trkpt lat="45.24242" lon="6.06458">
        <ele>2683.8</ele>
        <time>2024-05-04T10:50:17Z</time>
      </trkpt>
      <trkpt lat="45.24245" lon="6.06457">
        <ele>2681.7</ele>
        <time>2024-05-04T10:50:21Z</time>
      </trkpt>
      <trkpt lat="45.24245" lon="6.06456">
        <ele>2681.4</ele>
        <time>2024-05-04T10:50:24Z</time>
      </trkpt>
      <trkpt lat="45.24242" lon="6.06454">
        <ele>2682.8</ele>
        <time>2024-05-04T10:50:27Z</time>
      </trkpt>
      <trkpt lat="45.24243" lon="6.06451">
        <ele>2681.3</ele>
        <time>2024-05-04T10:50:29Z</time>
      </trkpt>
      <trkpt lat="45.24244" lon="6.06449">
        <ele>2680</ele>
        <time>2024-05-04T10:50:33Z</time>
      </trkpt>
      <trkpt lat="45.24246" lon="6.06449">
        <ele>2678.6</ele>
        <time>2024-05-04T10:50:35Z</time>
      </trkpt>
      <trkpt lat="45.24246" lon="6.06447">
        <ele>2678</ele>
        <time>2024-05-04T10:50:37Z</time>
      </trkpt>
      <trkpt lat="45.24245" lon="6.06447">
        <ele>2678.7</ele>
        <time>2024-05-04T10:50:40Z</time>
      </trkpt>
      <trkpt lat="45.24248" lon="6.06449">
        <ele>2677.1</ele>
        <time>2024-05-04T10:50:42Z</time>
      </trkpt>
      <trkpt lat="45.24247" lon="6.06445">
        <ele>2676.6</ele>
        <time>2024-05-04T10:50:45Z</time>
      </trkpt>
      <trkpt lat="45.24247" lon="6.06446">
        <ele>2676.9</ele>
        <time>2024-05-04T10:50:46Z</time>
      </trkpt>
      <trkpt lat="45.24248" lon="6.06447">
        <ele>2676.4</ele>
        <time>2024-05-04T10:50:47Z</time>
      </trkpt>
      <trkpt lat="45.24248" lon="6.06447">
        <ele>2676.4</ele>
        <time>2024-05-04T10:50:48Z</time>
      </trkpt>
      <trkpt lat="45.24249" lon="6.06446">
        <ele>2675.3</ele>
        <time>2024-05-04T10:50:50Z</time>
      </trkpt>
      <trkpt lat="45.24248" lon="6.06444">
        <ele>2675.4</ele>
        <time>2024-05-04T10:50:52Z</time>
      </trkpt>
      <trkpt lat="45.24258" lon="6.06442">
        <ele>2666.3</ele>
        <time>2024-05-04T10:51:23Z</time>
      </trkpt>
      <trkpt lat="45.2426" lon="6.06441">
        <ele>2664.2</ele>
        <time>2024-05-04T10:51:25Z</time>
      </trkpt>
      <trkpt lat="45.24264" lon="6.06442">
        <ele>2661.5</ele>
        <time>2024-05-04T10:51:27Z</time>
      </trkpt>
      <trkpt lat="45.24267" lon="6.06442">
        <ele>2659.1</ele>
        <time>2024-05-04T10:51:29Z</time>
      </trkpt>
      <trkpt lat="45.24267" lon="6.06441">
        <ele>2658.5</ele>
        <time>2024-05-04T10:51:30Z</time>
      </trkpt>
      <trkpt lat="45.24266" lon="6.0644">
        <ele>2658.7</ele>
        <time>2024-05-04T10:51:31Z</time>
      </trkpt>
      <trkpt lat="45.24266" lon="6.06441">
        <ele>2659.3</ele>
        <time>2024-05-04T10:51:32Z</time>
      </trkpt>
      <trkpt lat="45.24266" lon="6.0644">
        <ele>2658.7</ele>
        <time>2024-05-04T10:51:34Z</time>
      </trkpt>
      <trkpt lat="45.24265" lon="6.06437">
        <ele>2657.8</ele>
        <time>2024-05-04T10:51:38Z</time>
      </trkpt>
      <trkpt lat="45.24271" lon="6.06433">
        <ele>2650.4</ele>
        <time>2024-05-04T10:51:42Z</time>
      </trkpt>
      <trkpt lat="45.2427" lon="6.06431">
        <ele>2650</ele>
        <time>2024-05-04T10:51:44Z</time>
      </trkpt>
      <trkpt lat="45.2427" lon="6.0643">
        <ele>2649.4</ele>
        <time>2024-05-04T10:51:45Z</time>
      </trkpt>
      <trkpt lat="45.2427" lon="6.06429">
        <ele>2648.8</ele>
        <time>2024-05-04T10:51:46Z</time>
      </trkpt>
      <trkpt lat="45.24273" lon="6.06426">
        <ele>2644.3</ele>
        <time>2024-05-04T10:51:48Z</time>
      </trkpt>
      <trkpt lat="45.24275" lon="6.06425">
        <ele>2641.9</ele>
        <time>2024-05-04T10:51:50Z</time>
      </trkpt>
      <trkpt lat="45.24278" lon="6.06423">
        <ele>2637.9</ele>
        <time>2024-05-04T10:51:52Z</time>
      </trkpt>
      <trkpt lat="45.24278" lon="6.06422">
        <ele>2637.2</ele>
        <time>2024-05-04T10:51:53Z</time>
      </trkpt>
      <trkpt lat="45.24277" lon="6.06421">
        <ele>2637.5</ele>
        <time>2024-05-04T10:51:54Z</time>
      </trkpt>
      <trkpt lat="45.24278" lon="6.06419">
        <ele>2635.3</ele>
        <time>2024-05-04T10:51:56Z</time>
      </trkpt>
      <trkpt lat="45.24278" lon="6.0642">
        <ele>2635.9</ele>
        <time>2024-05-04T10:51:57Z</time>
      </trkpt>
      <trkpt lat="45.24277" lon="6.0642">
        <ele>2636.9</ele>
        <time>2024-05-04T10:51:58Z</time>
      </trkpt>
      <trkpt lat="45.24277" lon="6.0642">
        <ele>2636.9</ele>
        <time>2024-05-04T10:52:01Z</time>
      </trkpt>
      <trkpt lat="45.24276" lon="6.06417">
        <ele>2635.9</ele>
        <time>2024-05-04T10:52:04Z</time>
      </trkpt>
      <trkpt lat="45.24276" lon="6.06416">
        <ele>2635.3</ele>
        <time>2024-05-04T10:52:05Z</time>
      </trkpt>
      <trkpt lat="45.24277" lon="6.06416">
        <ele>2634.4</ele>
        <time>2024-05-04T10:52:08Z</time>
      </trkpt>
      <trkpt lat="45.24281" lon="6.06416">
        <ele>2630.3</ele>
        <time>2024-05-04T10:52:11Z</time>
      </trkpt>
      <trkpt lat="45.24281" lon="6.06414">
        <ele>2629.3</ele>
        <time>2024-05-04T10:52:13Z</time>
      </trkpt>
      <trkpt lat="45.24281" lon="6.06413">
        <ele>2628.8</ele>
        <time>2024-05-04T10:52:14Z</time>
      </trkpt>
      <trkpt lat="45.24279" lon="6.06405">
        <ele>2626.8</ele>
        <time>2024-05-04T10:52:17Z</time>
      </trkpt>
      <trkpt lat="45.24277" lon="6.06404">
        <ele>2628.4</ele>
        <time>2024-05-04T10:52:18Z</time>
      </trkpt>
      <trkpt lat="45.24276" lon="6.064">
        <ele>2627.4</ele>
        <time>2024-05-04T10:52:20Z</time>
      </trkpt>
      <trkpt lat="45.24279" lon="6.06402">
        <ele>2625.3</ele>
        <time>2024-05-04T10:52:22Z</time>
      </trkpt>
      <trkpt lat="45.2428" lon="6.06403">
        <ele>2624.7</ele>
        <time>2024-05-04T10:52:23Z</time>
      </trkpt>
      <trkpt lat="45.24282" lon="6.06401">
        <ele>2621.5</ele>
        <time>2024-05-04T10:52:25Z</time>
      </trkpt>
      <trkpt lat="45.24281" lon="6.064">
        <ele>2622.1</ele>
        <time>2024-05-04T10:52:26Z</time>
      </trkpt>
      <trkpt lat="45.24279" lon="6.06398">
        <ele>2623.3</ele>
        <time>2024-05-04T10:52:27Z</time>
      </trkpt>
      <trkpt lat="45.24277" lon="6.06395">
        <ele>2623.9</ele>
        <time>2024-05-04T10:52:29Z</time>
      </trkpt>
      <trkpt lat="45.24277" lon="6.06393">
        <ele>2622.9</ele>
        <time>2024-05-04T10:52:30Z</time>
      </trkpt>
      <trkpt lat="45.24275" lon="6.0639">
        <ele>2623.4</ele>
        <time>2024-05-04T10:52:31Z</time>
      </trkpt>
      <trkpt lat="45.24274" lon="6.06389">
        <ele>2624</ele>
        <time>2024-05-04T10:52:32Z</time>
      </trkpt>
      <trkpt lat="45.24274" lon="6.06387">
        <ele>2623.7</ele>
        <time>2024-05-04T10:52:33Z</time>
      </trkpt>
      <trkpt lat="45.24274" lon="6.06385">
        <ele>2623.4</ele>
        <time>2024-05-04T10:52:34Z</time>
      </trkpt>
      <trkpt lat="45.24275" lon="6.06384">
        <ele>2622.2</ele>
        <time>2024-05-04T10:52:35Z</time>
      </trkpt>
      <trkpt lat="45.24276" lon="6.06384">
        <ele>2621.2</ele>
        <time>2024-05-04T10:52:36Z</time>
      </trkpt>
      <trkpt lat="45.24277" lon="6.06383">
        <ele>2620</ele>
        <time>2024-05-04T10:52:38Z</time>
      </trkpt>
      <trkpt lat="45.2428" lon="6.06383">
        <ele>2616.6</ele>
        <time>2024-05-04T10:52:40Z</time>
      </trkpt>
      <trkpt lat="45.24279" lon="6.06385">
        <ele>2618.1</ele>
        <time>2024-05-04T10:52:44Z</time>
      </trkpt>
      <trkpt lat="45.2428" lon="6.06383">
        <ele>2616.6</ele>
        <time>2024-05-04T10:52:49Z</time>
      </trkpt>
      <trkpt lat="45.24284" lon="6.06382">
        <ele>2611.9</ele>
        <time>2024-05-04T10:53:21Z</time>
      </trkpt>
      <trkpt lat="45.24284" lon="6.06382">
        <ele>2611.9</ele>
        <time>2024-05-04T10:53:22Z</time>
      </trkpt>
      <trkpt lat="45.24285" lon="6.06377">
        <ele>2609.9</ele>
        <time>2024-05-04T10:53:47Z</time>
      </trkpt>
      <trkpt lat="45.24286" lon="6.06378">
        <ele>2608.9</ele>
        <time>2024-05-04T10:53:48Z</time>
      </trkpt>
      <trkpt lat="45.2429" lon="6.06379">
        <ele>2604.5</ele>
        <time>2024-05-04T10:53:50Z</time>
      </trkpt>
      <trkpt lat="45.2429" lon="6.06378">
        <ele>2604.3</ele>
        <time>2024-05-04T10:53:51Z</time>
      </trkpt>
      <trkpt lat="45.2429" lon="6.06377">
        <ele>2604.1</ele>
        <time>2024-05-04T10:53:52Z</time>
      </trkpt>
      <trkpt lat="45.24293" lon="6.06376">
        <ele>2600.4</ele>
        <time>2024-05-04T10:53:53Z</time>
      </trkpt>
      <trkpt lat="45.24299" lon="6.06376">
        <ele>2593.4</ele>
        <time>2024-05-04T10:53:55Z</time>
      </trkpt>
      <trkpt lat="45.24302" lon="6.06377">
        <ele>2590.1</ele>
        <time>2024-05-04T10:53:56Z</time>
      </trkpt>
      <trkpt lat="45.24304" lon="6.06379">
        <ele>2588.3</ele>
        <time>2024-05-04T10:53:57Z</time>
      </trkpt>
      <trkpt lat="45.24306" lon="6.06379">
        <ele>2586</ele>
        <time>2024-05-04T10:53:58Z</time>
      </trkpt>
      <trkpt lat="45.24307" lon="6.06378">
        <ele>2584.6</ele>
        <time>2024-05-04T10:53:59Z</time>
      </trkpt>
      <trkpt lat="45.24308" lon="6.06378">
        <ele>2583.4</ele>
        <time>2024-05-04T10:54:00Z</time>
      </trkpt>
      <trkpt lat="45.2431" lon="6.06376">
        <ele>2580.6</ele>
        <time>2024-05-04T10:54:01Z</time>
      </trkpt>
      <trkpt lat="45.24311" lon="6.06375">
        <ele>2579.1</ele>
        <time>2024-05-04T10:54:02Z</time>
      </trkpt>
      <trkpt lat="45.24312" lon="6.06373">
        <ele>2577.4</ele>
        <time>2024-05-04T10:54:03Z</time>
      </trkpt>
      <trkpt lat="45.24312" lon="6.06371">
        <ele>2576.9</ele>
        <time>2024-05-04T10:54:04Z</time>
      </trkpt>
      <trkpt lat="45.24312" lon="6.06369">
        <ele>2576.3</ele>
        <time>2024-05-04T10:54:05Z</time>
      </trkpt>
      <trkpt lat="45.24314" lon="6.06368">
        <ele>2573.6</ele>
        <time>2024-05-04T10:54:07Z</time>
      </trkpt>
      <trkpt lat="45.24315" lon="6.06365">
        <ele>2571.6</ele>
        <time>2024-05-04T10:54:09Z</time>
      </trkpt>
      <trkpt lat="45.24316" lon="6.06366">
        <ele>2570.6</ele>
        <time>2024-05-04T10:54:11Z</time>
      </trkpt>
      <trkpt lat="45.24325" lon="6.06364">
        <ele>2559.1</ele>
        <time>2024-05-04T10:54:14Z</time>
      </trkpt>
      <trkpt lat="45.24327" lon="6.06363">
        <ele>2556.4</ele>
        <time>2024-05-04T10:54:15Z</time>
      </trkpt>
      <trkpt lat="45.24329" lon="6.06361">
        <ele>2553.3</ele>
        <time>2024-05-04T10:54:16Z</time>
      </trkpt>
      <trkpt lat="45.24331" lon="6.06359">
        <ele>2550.7</ele>
        <time>2024-05-04T10:54:17Z</time>
      </trkpt>
      <trkpt lat="45.24333" lon="6.06359">
        <ele>2548.2</ele>
        <time>2024-05-04T10:54:18Z</time>
      </trkpt>
      <trkpt lat="45.24334" lon="6.06357">
        <ele>2546.8</ele>
        <time>2024-05-04T10:54:19Z</time>
      </trkpt>
      <trkpt lat="45.24336" lon="6.06356">
        <ele>2544.3</ele>
        <time>2024-05-04T10:54:20Z</time>
      </trkpt>
      <trkpt lat="45.24337" lon="6.06353">
        <ele>2542.7</ele>
        <time>2024-05-04T10:54:21Z</time>
      </trkpt>
      <trkpt lat="45.24339" lon="6.06351">
        <ele>2539.9</ele>
        <time>2024-05-04T10:54:22Z</time>
      </trkpt>
      <trkpt lat="45.2434" lon="6.0635">
        <ele>2538.5</ele>
        <time>2024-05-04T10:54:23Z</time>
      </trkpt>
      <trkpt lat="45.24342" lon="6.06348">
        <ele>2535.7</ele>
        <time>2024-05-04T10:54:25Z</time>
      </trkpt>
      <trkpt lat="45.24333" lon="6.06351">
        <ele>2547.3</ele>
        <time>2024-05-04T10:54:30Z</time>
      </trkpt>
      <trkpt lat="45.24333" lon="6.06351">
        <ele>2547.3</ele>
        <time>2024-05-04T10:54:32Z</time>
      </trkpt>
      <trkpt lat="45.24332" lon="6.06348">
        <ele>2548.3</ele>
        <time>2024-05-04T10:54:37Z</time>
      </trkpt>
      <trkpt lat="45.24328" lon="6.0635">
        <ele>2553.7</ele>
        <time>2024-05-04T10:54:42Z</time>
      </trkpt>
      <trkpt lat="45.24327" lon="6.06361">
        <ele>2555.7</ele>
        <time>2024-05-04T10:55:31Z</time>
      </trkpt>
      <trkpt lat="45.24329" lon="6.06349">
        <ele>2552.3</ele>
        <time>2024-05-04T10:56:28Z</time>
      </trkpt>
      <trkpt lat="45.24341" lon="6.06337">
        <ele>2535.1</ele>
        <time>2024-05-04T10:56:42Z</time>
      </trkpt>
      <trkpt lat="45.24335" lon="6.06339">
        <ele>2543.4</ele>
        <time>2024-05-04T10:56:44Z</time>
      </trkpt>
      <trkpt lat="45.24335" lon="6.06339">
        <ele>2543.4</ele>
        <time>2024-05-04T10:56:46Z</time>
      </trkpt>
      <trkpt lat="45.24333" lon="6.06337">
        <ele>2545.9</ele>
        <time>2024-05-04T10:56:49Z</time>
      </trkpt>
      <trkpt lat="45.24325" lon="6.06351">
        <ele>2557.7</ele>
        <time>2024-05-04T10:57:20Z</time>
      </trkpt>
      <trkpt lat="45.24331" lon="6.06353">
        <ele>2550.1</ele>
        <time>2024-05-04T10:57:22Z</time>
      </trkpt>
      <trkpt lat="45.24336" lon="6.06351">
        <ele>2543.6</ele>
        <time>2024-05-04T10:57:23Z</time>
      </trkpt>
      <trkpt lat="45.2434" lon="6.06348">
        <ele>2538.2</ele>
        <time>2024-05-04T10:57:24Z</time>
      </trkpt>
      <trkpt lat="45.24345" lon="6.06347">
        <ele>2531.8</ele>
        <time>2024-05-04T10:57:25Z</time>
      </trkpt>
      <trkpt lat="45.2435" lon="6.06346">
        <ele>2525.2</ele>
        <time>2024-05-04T10:57:26Z</time>
      </trkpt>
      <trkpt lat="45.24353" lon="6.06349">
        <ele>2522.2</ele>
        <time>2024-05-04T10:57:27Z</time>
      </trkpt>
      <trkpt lat="45.24357" lon="6.0635">
        <ele>2517.5</ele>
        <time>2024-05-04T10:57:28Z</time>
      </trkpt>
      <trkpt lat="45.2436" lon="6.06354">
        <ele>2515</ele>
        <time>2024-05-04T10:57:29Z</time>
      </trkpt>
      <trkpt lat="45.24365" lon="6.06355">
        <ele>2510.1</ele>
        <time>2024-05-04T10:57:30Z</time>
      </trkpt>
      <trkpt lat="45.24367" lon="6.06355">
        <ele>2508</ele>
        <time>2024-05-04T10:57:31Z</time>
      </trkpt>
      <trkpt lat="45.2437" lon="6.06355">
        <ele>2505</ele>
        <time>2024-05-04T10:57:32Z</time>
      </trkpt>
      <trkpt lat="45.24375" lon="6.06354">
        <ele>2499.6</ele>
        <time>2024-05-04T10:57:33Z</time>
      </trkpt>
      <trkpt lat="45.24377" lon="6.0636">
        <ele>2499.6</ele>
        <time>2024-05-04T10:57:34Z</time>
      </trkpt>
      <trkpt lat="45.24381" lon="6.06362">
        <ele>2496.3</ele>
        <time>2024-05-04T10:57:35Z</time>
      </trkpt>
      <trkpt lat="45.24385" lon="6.06362">
        <ele>2492.3</ele>
        <time>2024-05-04T10:57:36Z</time>
      </trkpt>
      <trkpt lat="45.24386" lon="6.0636">
        <ele>2490.5</ele>
        <time>2024-05-04T10:57:37Z</time>
      </trkpt>
      <trkpt lat="45.24387" lon="6.06356">
        <ele>2488.1</ele>
        <time>2024-05-04T10:57:38Z</time>
      </trkpt>
      <trkpt lat="45.24388" lon="6.06354">
        <ele>2486.3</ele>
        <time>2024-05-04T10:57:39Z</time>
      </trkpt>
      <trkpt lat="45.24392" lon="6.06353">
        <ele>2482.4</ele>
        <time>2024-05-04T10:57:40Z</time>
      </trkpt>
      <trkpt lat="45.24395" lon="6.06354">
        <ele>2480.2</ele>
        <time>2024-05-04T10:57:41Z</time>
      </trkpt>
      <trkpt lat="45.24397" lon="6.06355">
        <ele>2478.8</ele>
        <time>2024-05-04T10:57:42Z</time>
      </trkpt>
      <trkpt lat="45.24398" lon="6.0635">
        <ele>2476.1</ele>
        <time>2024-05-04T10:57:43Z</time>
      </trkpt>
      <trkpt lat="45.24395" lon="6.06351">
        <ele>2479.1</ele>
        <time>2024-05-04T10:57:44Z</time>
      </trkpt>
      <trkpt lat="45.24396" lon="6.0635">
        <ele>2477.9</ele>
        <time>2024-05-04T10:57:45Z</time>
      </trkpt>
      <trkpt lat="45.24398" lon="6.06352">
        <ele>2476.8</ele>
        <time>2024-05-04T10:57:46Z</time>
      </trkpt>
      <trkpt lat="45.244" lon="6.06354">
        <ele>2475.8</ele>
        <time>2024-05-04T10:57:47Z</time>
      </trkpt>
      <trkpt lat="45.244" lon="6.06355">
        <ele>2476.2</ele>
        <time>2024-05-04T10:57:48Z</time>
      </trkpt>
      <trkpt lat="45.24401" lon="6.06354">
        <ele>2475</ele>
        <time>2024-05-04T10:57:49Z</time>
      </trkpt>
      <trkpt lat="45.24401" lon="6.06354">
        <ele>2475</ele>
        <time>2024-05-04T10:57:50Z</time>
      </trkpt>
      <trkpt lat="45.24403" lon="6.06354">
        <ele>2473.2</ele>
        <time>2024-05-04T10:57:51Z</time>
      </trkpt>
      <trkpt lat="45.24404" lon="6.06355">
        <ele>2472.7</ele>
        <time>2024-05-04T10:57:52Z</time>
      </trkpt>
      <trkpt lat="45.24403" lon="6.06355">
        <ele>2473.6</ele>
        <time>2024-05-04T10:57:53Z</time>
      </trkpt>
      <trkpt lat="45.24401" lon="6.06354">
        <ele>2475</ele>
        <time>2024-05-04T10:57:56Z</time>
      </trkpt>
      <trkpt lat="45.244" lon="6.06351">
        <ele>2474.8</ele>
        <time>2024-05-04T10:57:57Z</time>
      </trkpt>
      <trkpt lat="45.244" lon="6.06351">
        <ele>2474.8</ele>
        <time>2024-05-04T10:57:58Z</time>
      </trkpt>
      <trkpt lat="45.24402" lon="6.06351">
        <ele>2473</ele>
        <time>2024-05-04T10:57:59Z</time>
      </trkpt>
      <trkpt lat="45.24404" lon="6.06353">
        <ele>2472</ele>
        <time>2024-05-04T10:58:00Z</time>
      </trkpt>
      <trkpt lat="45.24403" lon="6.06354">
        <ele>2473.2</ele>
        <time>2024-05-04T10:58:01Z</time>
      </trkpt>
      <trkpt lat="45.24403" lon="6.06355">
        <ele>2473.6</ele>
        <time>2024-05-04T10:58:02Z</time>
      </trkpt>
      <trkpt lat="45.24403" lon="6.06355">
        <ele>2473.6</ele>
        <time>2024-05-04T10:58:03Z</time>
      </trkpt>
      <trkpt lat="45.24402" lon="6.06356">
        <ele>2474.8</ele>
        <time>2024-05-04T10:58:04Z</time>
      </trkpt>
      <trkpt lat="45.24402" lon="6.06356">
        <ele>2474.8</ele>
        <time>2024-05-04T10:58:05Z</time>
      </trkpt>
      <trkpt lat="45.24402" lon="6.06357">
        <ele>2475.2</ele>
        <time>2024-05-04T10:58:08Z</time>
      </trkpt>
      <trkpt lat="45.24405" lon="6.06358">
        <ele>2473</ele>
        <time>2024-05-04T10:58:11Z</time>
      </trkpt>
      <trkpt lat="45.24407" lon="6.06359">
        <ele>2471.6</ele>
        <time>2024-05-04T10:58:12Z</time>
      </trkpt>
      <trkpt lat="45.24406" lon="6.06361">
        <ele>2473.2</ele>
        <time>2024-05-04T10:58:14Z</time>
      </trkpt>
      <trkpt lat="45.24404" lon="6.06356">
        <ele>2473.1</ele>
        <time>2024-05-04T10:58:16Z</time>
      </trkpt>
      <trkpt lat="45.24406" lon="6.06353">
        <ele>2470.3</ele>
        <time>2024-05-04T10:58:17Z</time>
      </trkpt>
      <trkpt lat="45.24408" lon="6.06352">
        <ele>2468.2</ele>
        <time>2024-05-04T10:58:18Z</time>
      </trkpt>
      <trkpt lat="45.24411" lon="6.06352">
        <ele>2465.6</ele>
        <time>2024-05-04T10:58:19Z</time>
      </trkpt>
      <trkpt lat="45.24413" lon="6.06354">
        <ele>2464.6</ele>
        <time>2024-05-04T10:58:20Z</time>
      </trkpt>
      <trkpt lat="45.24415" lon="6.06355">
        <ele>2463.2</ele>
        <time>2024-05-04T10:58:21Z</time>
      </trkpt>
      <trkpt lat="45.24418" lon="6.06354">
        <ele>2460.5</ele>
        <time>2024-05-04T10:58:22Z</time>
      </trkpt>
      <trkpt lat="45.24419" lon="6.0635">
        <ele>2458.4</ele>
        <time>2024-05-04T10:58:23Z</time>
      </trkpt>
      <trkpt lat="45.24422" lon="6.06348">
        <ele>2455.6</ele>
        <time>2024-05-04T10:58:24Z</time>
      </trkpt>
      <trkpt lat="45.24425" lon="6.0635">
        <ele>2454.2</ele>
        <time>2024-05-04T10:58:25Z</time>
      </trkpt>
      <trkpt lat="45.24429" lon="6.06352">
        <ele>2452.1</ele>
        <time>2024-05-04T10:58:26Z</time>
      </trkpt>
      <trkpt lat="45.24432" lon="6.06354">
        <ele>2450.7</ele>
        <time>2024-05-04T10:58:27Z</time>
      </trkpt>
      <trkpt lat="45.24433" lon="6.0635">
        <ele>2448.7</ele>
        <time>2024-05-04T10:58:28Z</time>
      </trkpt>
      <trkpt lat="45.24435" lon="6.06344">
        <ele>2445.5</ele>
        <time>2024-05-04T10:58:29Z</time>
      </trkpt>
      <trkpt lat="45.24436" lon="6.06338">
        <ele>2442.9</ele>
        <time>2024-05-04T10:58:30Z</time>
      </trkpt>
      <trkpt lat="45.24439" lon="6.06336">
        <ele>2440.3</ele>
        <time>2024-05-04T10:58:31Z</time>
      </trkpt>
      <trkpt lat="45.2444" lon="6.06335">
        <ele>2439.4</ele>
        <time>2024-05-04T10:58:32Z</time>
      </trkpt>
      <trkpt lat="45.24442" lon="6.06335">
        <ele>2438.1</ele>
        <time>2024-05-04T10:58:33Z</time>
      </trkpt>
      <trkpt lat="45.24443" lon="6.06335">
        <ele>2437.4</ele>
        <time>2024-05-04T10:58:34Z</time>
      </trkpt>
      <trkpt lat="45.24443" lon="6.06335">
        <ele>2437.4</ele>
        <time>2024-05-04T10:58:35Z</time>
      </trkpt>
      <trkpt lat="45.24443" lon="6.06335">
        <ele>2437.4</ele>
        <time>2024-05-04T10:58:36Z</time>
      </trkpt>
      <trkpt lat="45.24444" lon="6.06334">
        <ele>2436.5</ele>
        <time>2024-05-04T10:58:37Z</time>
      </trkpt>
      <trkpt lat="45.24447" lon="6.06331">
        <ele>2434.2</ele>
        <time>2024-05-04T10:58:38Z</time>
      </trkpt>
      <trkpt lat="45.24446" lon="6.06322">
        <ele>2431.8</ele>
        <time>2024-05-04T10:58:40Z</time>
      </trkpt>
      <trkpt lat="45.24446" lon="6.06318">
        <ele>2430.5</ele>
        <time>2024-05-04T10:58:41Z</time>
      </trkpt>
      <trkpt lat="45.24446" lon="6.06312">
        <ele>2428.6</ele>
        <time>2024-05-04T10:58:42Z</time>
      </trkpt>
      <trkpt lat="45.24447" lon="6.06308">
        <ele>2426.9</ele>
        <time>2024-05-04T10:58:43Z</time>
      </trkpt>
      <trkpt lat="45.24446" lon="6.06305">
        <ele>2426.4</ele>
        <time>2024-05-04T10:58:44Z</time>
      </trkpt>
      <trkpt lat="45.24445" lon="6.06302">
        <ele>2426.2</ele>
        <time>2024-05-04T10:58:45Z</time>
      </trkpt>
      <trkpt lat="45.24444" lon="6.063">
        <ele>2426.3</ele>
        <time>2024-05-04T10:58:46Z</time>
      </trkpt>
      <trkpt lat="45.24443" lon="6.06299">
        <ele>2426.7</ele>
        <time>2024-05-04T10:58:47Z</time>
      </trkpt>
      <trkpt lat="45.24442" lon="6.063">
        <ele>2427.5</ele>
        <time>2024-05-04T10:58:48Z</time>
      </trkpt>
      <trkpt lat="45.24441" lon="6.063">
        <ele>2428.2</ele>
        <time>2024-05-04T10:58:49Z</time>
      </trkpt>
      <trkpt lat="45.2444" lon="6.06302">
        <ele>2429.2</ele>
        <time>2024-05-04T10:58:50Z</time>
      </trkpt>
      <trkpt lat="45.2444" lon="6.06302">
        <ele>2429.2</ele>
        <time>2024-05-04T10:58:51Z</time>
      </trkpt>
      <trkpt lat="45.24443" lon="6.06303">
        <ele>2427.5</ele>
        <time>2024-05-04T10:58:53Z</time>
      </trkpt>
      <trkpt lat="45.24451" lon="6.06305">
        <ele>2424.8</ele>
        <time>2024-05-04T10:58:55Z</time>
      </trkpt>
      <trkpt lat="45.24458" lon="6.0631">
        <ele>2423.9</ele>
        <time>2024-05-04T10:58:57Z</time>
      </trkpt>
      <trkpt lat="45.24463" lon="6.06314">
        <ele>2423.3</ele>
        <time>2024-05-04T10:58:59Z</time>
      </trkpt>
      <trkpt lat="45.24465" lon="6.06318">
        <ele>2423.7</ele>
        <time>2024-05-04T10:59:01Z</time>
      </trkpt>
      <trkpt lat="45.24464" lon="6.06318">
        <ele>2424.1</ele>
        <time>2024-05-04T10:59:03Z</time>
      </trkpt>
      <trkpt lat="45.24462" lon="6.06319">
        <ele>2425.1</ele>
        <time>2024-05-04T10:59:06Z</time>
      </trkpt>
      <trkpt lat="45.24449" lon="6.06329">
        <ele>2432.8</ele>
        <time>2024-05-04T10:59:38Z</time>
      </trkpt>
      <trkpt lat="45.24457" lon="6.06326">
        <ele>2428.9</ele>
        <time>2024-05-04T10:59:59Z</time>
      </trkpt>
      <trkpt lat="45.24465" lon="6.06317">
        <ele>2423.4</ele>
        <time>2024-05-04T11:00:18Z</time>
      </trkpt>
      <trkpt lat="45.24465" lon="6.06308">
        <ele>2421</ele>
        <time>2024-05-04T11:00:20Z</time>
      </trkpt>
      <trkpt lat="45.24464" lon="6.06299">
        <ele>2419.3</ele>
        <time>2024-05-04T11:00:22Z</time>
      </trkpt>
      <trkpt lat="45.24463" lon="6.06283">
        <ele>2416.4</ele>
        <time>2024-05-04T11:00:24Z</time>
      </trkpt>
      <trkpt lat="45.24463" lon="6.06275">
        <ele>2414.7</ele>
        <time>2024-05-04T11:00:25Z</time>
      </trkpt>
      <trkpt lat="45.24463" lon="6.06267">
        <ele>2412.7</ele>
        <time>2024-05-04T11:00:26Z</time>
      </trkpt>
      <trkpt lat="45.24463" lon="6.06261">
        <ele>2411.3</ele>
        <time>2024-05-04T11:00:27Z</time>
      </trkpt>
      <trkpt lat="45.24461" lon="6.06255">
        <ele>2410.6</ele>
        <time>2024-05-04T11:00:28Z</time>
      </trkpt>
      <trkpt lat="45.24459" lon="6.06251">
        <ele>2410.5</ele>
        <time>2024-05-04T11:00:29Z</time>
      </trkpt>
      <trkpt lat="45.24456" lon="6.0624">
        <ele>2409.4</ele>
        <time>2024-05-04T11:00:31Z</time>
      </trkpt>
      <trkpt lat="45.24453" lon="6.06231">
        <ele>2408.7</ele>
        <time>2024-05-04T11:00:33Z</time>
      </trkpt>
      <trkpt lat="45.24452" lon="6.06229">
        <ele>2408.7</ele>
        <time>2024-05-04T11:00:34Z</time>
      </trkpt>
      <trkpt lat="45.24451" lon="6.06228">
        <ele>2408.8</ele>
        <time>2024-05-04T11:00:35Z</time>
      </trkpt>
      <trkpt lat="45.24452" lon="6.06224">
        <ele>2407.6</ele>
        <time>2024-05-04T11:00:36Z</time>
      </trkpt>
      <trkpt lat="45.24455" lon="6.06219">
        <ele>2405.5</ele>
        <time>2024-05-04T11:00:37Z</time>
      </trkpt>
      <trkpt lat="45.24461" lon="6.06216">
        <ele>2402.9</ele>
        <time>2024-05-04T11:00:38Z</time>
      </trkpt>
      <trkpt lat="45.24467" lon="6.06216">
        <ele>2400.9</ele>
        <time>2024-05-04T11:00:39Z</time>
      </trkpt>
      <trkpt lat="45.24473" lon="6.06216">
        <ele>2398.8</ele>
        <time>2024-05-04T11:00:40Z</time>
      </trkpt>
      <trkpt lat="45.24478" lon="6.06213">
        <ele>2396.2</ele>
        <time>2024-05-04T11:00:41Z</time>
      </trkpt>
      <trkpt lat="45.24482" lon="6.06208">
        <ele>2393.9</ele>
        <time>2024-05-04T11:00:42Z</time>
      </trkpt>
      <trkpt lat="45.24484" lon="6.06202">
        <ele>2392.5</ele>
        <time>2024-05-04T11:00:43Z</time>
      </trkpt>
      <trkpt lat="45.24485" lon="6.06195">
        <ele>2391.5</ele>
        <time>2024-05-04T11:00:44Z</time>
      </trkpt>
      <trkpt lat="45.24488" lon="6.06186">
        <ele>2388.9</ele>
        <time>2024-05-04T11:00:45Z</time>
      </trkpt>
      <trkpt lat="45.24492" lon="6.06179">
        <ele>2386.8</ele>
        <time>2024-05-04T11:00:46Z</time>
      </trkpt>
      <trkpt lat="45.24498" lon="6.06174">
        <ele>2384.9</ele>
        <time>2024-05-04T11:00:47Z</time>
      </trkpt>
      <trkpt lat="45.24501" lon="6.06169">
        <ele>2383.7</ele>
        <time>2024-05-04T11:00:48Z</time>
      </trkpt>
      <trkpt lat="45.24501" lon="6.06162">
        <ele>2383</ele>
        <time>2024-05-04T11:00:49Z</time>
      </trkpt>
      <trkpt lat="45.24503" lon="6.06156">
        <ele>2381.4</ele>
        <time>2024-05-04T11:00:50Z</time>
      </trkpt>
      <trkpt lat="45.24504" lon="6.06152">
        <ele>2380.5</ele>
        <time>2024-05-04T11:00:51Z</time>
      </trkpt>
      <trkpt lat="45.24504" lon="6.06152">
        <ele>2380.5</ele>
        <time>2024-05-04T11:00:53Z</time>
      </trkpt>
      <trkpt lat="45.24501" lon="6.06154">
        <ele>2382.1</ele>
        <time>2024-05-04T11:00:56Z</time>
      </trkpt>
      <trkpt lat="45.24487" lon="6.06138">
        <ele>2379.8</ele>
        <time>2024-05-04T11:01:30Z</time>
      </trkpt>
      <trkpt lat="45.24484" lon="6.06136">
        <ele>2379</ele>
        <time>2024-05-04T11:01:31Z</time>
      </trkpt>
      <trkpt lat="45.24482" lon="6.06135">
        <ele>2378.5</ele>
        <time>2024-05-04T11:01:32Z</time>
      </trkpt>
      <trkpt lat="45.24481" lon="6.06135">
        <ele>2378.4</ele>
        <time>2024-05-04T11:01:33Z</time>
      </trkpt>
      <trkpt lat="45.24479" lon="6.06133">
        <ele>2377.6</ele>
        <time>2024-05-04T11:01:35Z</time>
      </trkpt>
      <trkpt lat="45.24482" lon="6.06135">
        <ele>2378.5</ele>
        <time>2024-05-04T11:01:37Z</time>
      </trkpt>
      <trkpt lat="45.24468" lon="6.06141">
        <ele>2380</ele>
        <time>2024-05-04T11:01:52Z</time>
      </trkpt>
      <trkpt lat="45.24482" lon="6.06144">
        <ele>2381</ele>
        <time>2024-05-04T11:01:57Z</time>
      </trkpt>
      <trkpt lat="45.24472" lon="6.06119">
        <ele>2372.6</ele>
        <time>2024-05-04T11:02:13Z</time>
      </trkpt>
      <trkpt lat="45.24473" lon="6.061">
        <ele>2367.7</ele>
        <time>2024-05-04T11:02:15Z</time>
      </trkpt>
      <trkpt lat="45.24475" lon="6.06092">
        <ele>2366</ele>
        <time>2024-05-04T11:02:16Z</time>
      </trkpt>
      <trkpt lat="45.24479" lon="6.06084">
        <ele>2364.2</ele>
        <time>2024-05-04T11:02:17Z</time>
      </trkpt>
      <trkpt lat="45.24483" lon="6.06077">
        <ele>2363.8</ele>
        <time>2024-05-04T11:02:18Z</time>
      </trkpt>
      <trkpt lat="45.2449" lon="6.06069">
        <ele>2362.9</ele>
        <time>2024-05-04T11:02:19Z</time>
      </trkpt>
      <trkpt lat="45.24497" lon="6.06059">
        <ele>2361</ele>
        <time>2024-05-04T11:02:20Z</time>
      </trkpt>
      <trkpt lat="45.24523" lon="6.0605">
        <ele>2350.8</ele>
        <time>2024-05-04T11:02:22Z</time>
      </trkpt>
      <trkpt lat="45.24524" lon="6.06042">
        <ele>2349</ele>
        <time>2024-05-04T11:02:26Z</time>
      </trkpt>
      <trkpt lat="45.24523" lon="6.06041">
        <ele>2349.3</ele>
        <time>2024-05-04T11:02:28Z</time>
      </trkpt>
      <trkpt lat="45.24527" lon="6.06033">
        <ele>2345.6</ele>
        <time>2024-05-04T11:03:22Z</time>
      </trkpt>
      <trkpt lat="45.24529" lon="6.06021">
        <ele>2341.1</ele>
        <time>2024-05-04T11:03:24Z</time>
      </trkpt>
      <trkpt lat="45.24531" lon="6.06003">
        <ele>2334.6</ele>
        <time>2024-05-04T11:03:26Z</time>
      </trkpt>
      <trkpt lat="45.24529" lon="6.05994">
        <ele>2335</ele>
        <time>2024-05-04T11:03:27Z</time>
      </trkpt>
      <trkpt lat="45.24529" lon="6.05984">
        <ele>2334.6</ele>
        <time>2024-05-04T11:03:28Z</time>
      </trkpt>
      <trkpt lat="45.2453" lon="6.05975">
        <ele>2333.7</ele>
        <time>2024-05-04T11:03:29Z</time>
      </trkpt>
      <trkpt lat="45.24529" lon="6.05967">
        <ele>2333.7</ele>
        <time>2024-05-04T11:03:30Z</time>
      </trkpt>
      <trkpt lat="45.2453" lon="6.05958">
        <ele>2332.3</ele>
        <time>2024-05-04T11:03:31Z</time>
      </trkpt>
      <trkpt lat="45.24531" lon="6.05951">
        <ele>2331.1</ele>
        <time>2024-05-04T11:03:32Z</time>
      </trkpt>
      <trkpt lat="45.24533" lon="6.05938">
        <ele>2329.2</ele>
        <time>2024-05-04T11:03:34Z</time>
      </trkpt>
      <trkpt lat="45.24536" lon="6.05923">
        <ele>2326.9</ele>
        <time>2024-05-04T11:03:36Z</time>
      </trkpt>
      <trkpt lat="45.24537" lon="6.05916">
        <ele>2325.9</ele>
        <time>2024-05-04T11:03:37Z</time>
      </trkpt>
      <trkpt lat="45.24538" lon="6.05908">
        <ele>2324.4</ele>
        <time>2024-05-04T11:03:38Z</time>
      </trkpt>
      <trkpt lat="45.24539" lon="6.05901">
        <ele>2322.9</ele>
        <time>2024-05-04T11:03:39Z</time>
      </trkpt>
      <trkpt lat="45.24539" lon="6.05896">
        <ele>2322.2</ele>
        <time>2024-05-04T11:03:40Z</time>
      </trkpt>
      <trkpt lat="45.24538" lon="6.05892">
        <ele>2322.4</ele>
        <time>2024-05-04T11:03:41Z</time>
      </trkpt>
      <trkpt lat="45.24537" lon="6.05888">
        <ele>2322.5</ele>
        <time>2024-05-04T11:03:42Z</time>
      </trkpt>
      <trkpt lat="45.24534" lon="6.05881">
        <ele>2322.9</ele>
        <time>2024-05-04T11:03:44Z</time>
      </trkpt>
      <trkpt lat="45.24534" lon="6.05874">
        <ele>2321.3</ele>
        <time>2024-05-04T11:03:46Z</time>
      </trkpt>
      <trkpt lat="45.24534" lon="6.05869">
        <ele>2320.1</ele>
        <time>2024-05-04T11:03:48Z</time>
      </trkpt>
      <trkpt lat="45.24533" lon="6.05869">
        <ele>2320.9</ele>
        <time>2024-05-04T11:03:50Z</time>
      </trkpt>
      <trkpt lat="45.24532" lon="6.05872">
        <ele>2322.3</ele>
        <time>2024-05-04T11:03:56Z</time>
      </trkpt>
      <trkpt lat="45.24524" lon="6.05848">
        <ele>2320.6</ele>
        <time>2024-05-04T11:04:20Z</time>
      </trkpt>
      <trkpt lat="45.24517" lon="6.05835">
        <ele>2319.6</ele>
        <time>2024-05-04T11:04:22Z</time>
      </trkpt>
      <trkpt lat="45.24512" lon="6.05828">
        <ele>2319.3</ele>
        <time>2024-05-04T11:04:23Z</time>
      </trkpt>
      <trkpt lat="45.24509" lon="6.0582">
        <ele>2317.7</ele>
        <time>2024-05-04T11:04:24Z</time>
      </trkpt>
      <trkpt lat="45.24506" lon="6.05813">
        <ele>2316.6</ele>
        <time>2024-05-04T11:04:25Z</time>
      </trkpt>
      <trkpt lat="45.24505" lon="6.05807">
        <ele>2314.8</ele>
        <time>2024-05-04T11:04:26Z</time>
      </trkpt>
      <trkpt lat="45.24507" lon="6.05797">
        <ele>2311.7</ele>
        <time>2024-05-04T11:04:28Z</time>
      </trkpt>
      <trkpt lat="45.2451" lon="6.05784">
        <ele>2307.4</ele>
        <time>2024-05-04T11:04:30Z</time>
      </trkpt>
      <trkpt lat="45.24512" lon="6.05776">
        <ele>2304.5</ele>
        <time>2024-05-04T11:04:31Z</time>
      </trkpt>
      <trkpt lat="45.24513" lon="6.05768">
        <ele>2302.7</ele>
        <time>2024-05-04T11:04:32Z</time>
      </trkpt>
      <trkpt lat="45.24514" lon="6.05761">
        <ele>2301</ele>
        <time>2024-05-04T11:04:33Z</time>
      </trkpt>
      <trkpt lat="45.24517" lon="6.05753">
        <ele>2297.6</ele>
        <time>2024-05-04T11:04:34Z</time>
      </trkpt>
      <trkpt lat="45.24519" lon="6.05745">
        <ele>2295.4</ele>
        <time>2024-05-04T11:04:35Z</time>
      </trkpt>
      <trkpt lat="45.24521" lon="6.05737">
        <ele>2293.5</ele>
        <time>2024-05-04T11:04:36Z</time>
      </trkpt>
      <trkpt lat="45.24526" lon="6.05725">
        <ele>2288.7</ele>
        <time>2024-05-04T11:04:38Z</time>
      </trkpt>
      <trkpt lat="45.24528" lon="6.05718">
        <ele>2286.7</ele>
        <time>2024-05-04T11:04:39Z</time>
      </trkpt>
      <trkpt lat="45.24531" lon="6.05712">
        <ele>2284.3</ele>
        <time>2024-05-04T11:04:40Z</time>
      </trkpt>
      <trkpt lat="45.24533" lon="6.05705">
        <ele>2282.5</ele>
        <time>2024-05-04T11:04:41Z</time>
      </trkpt>
      <trkpt lat="45.24535" lon="6.05699">
        <ele>2280.7</ele>
        <time>2024-05-04T11:04:42Z</time>
      </trkpt>
      <trkpt lat="45.24536" lon="6.05694">
        <ele>2279.8</ele>
        <time>2024-05-04T11:04:43Z</time>
      </trkpt>
      <trkpt lat="45.24537" lon="6.05691">
        <ele>2279.4</ele>
        <time>2024-05-04T11:04:44Z</time>
      </trkpt>
      <trkpt lat="45.24538" lon="6.05689">
        <ele>2278.9</ele>
        <time>2024-05-04T11:04:45Z</time>
      </trkpt>
      <trkpt lat="45.24539" lon="6.05688">
        <ele>2278.3</ele>
        <time>2024-05-04T11:04:46Z</time>
      </trkpt>
      <trkpt lat="45.24539" lon="6.05688">
        <ele>2278.3</ele>
        <time>2024-05-04T11:04:47Z</time>
      </trkpt>
      <trkpt lat="45.24541" lon="6.05685">
        <ele>2277.2</ele>
        <time>2024-05-04T11:04:49Z</time>
      </trkpt>
      <trkpt lat="45.24545" lon="6.05678">
        <ele>2275.1</ele>
        <time>2024-05-04T11:04:51Z</time>
      </trkpt>
      <trkpt lat="45.24546" lon="6.05675">
        <ele>2274.8</ele>
        <time>2024-05-04T11:04:52Z</time>
      </trkpt>
      <trkpt lat="45.24546" lon="6.05673">
        <ele>2275</ele>
        <time>2024-05-04T11:04:53Z</time>
      </trkpt>
      <trkpt lat="45.24547" lon="6.05668">
        <ele>2275</ele>
        <time>2024-05-04T11:04:55Z</time>
      </trkpt>
      <trkpt lat="45.24549" lon="6.05663">
        <ele>2273.6</ele>
        <time>2024-05-04T11:04:57Z</time>
      </trkpt>
      <trkpt lat="45.2455" lon="6.05658">
        <ele>2272.6</ele>
        <time>2024-05-04T11:04:59Z</time>
      </trkpt>
      <trkpt lat="45.2455" lon="6.05652">
        <ele>2272.4</ele>
        <time>2024-05-04T11:05:02Z</time>
      </trkpt>
      <trkpt lat="45.2455" lon="6.0565">
        <ele>2272.3</ele>
        <time>2024-05-04T11:05:04Z</time>
      </trkpt>
      <trkpt lat="45.24551" lon="6.05643">
        <ele>2271.1</ele>
        <time>2024-05-04T11:05:07Z</time>
      </trkpt>
      <trkpt lat="45.24552" lon="6.05636">
        <ele>2269.3</ele>
        <time>2024-05-04T11:05:09Z</time>
      </trkpt>
      <trkpt lat="45.24552" lon="6.05633">
        <ele>2268.5</ele>
        <time>2024-05-04T11:05:10Z</time>
      </trkpt>
      <trkpt lat="45.24552" lon="6.05632">
        <ele>2268.2</ele>
        <time>2024-05-04T11:05:11Z</time>
      </trkpt>
      <trkpt lat="45.24552" lon="6.05632">
        <ele>2268.2</ele>
        <time>2024-05-04T11:05:12Z</time>
      </trkpt>
      <trkpt lat="45.24553" lon="6.05631">
        <ele>2267.1</ele>
        <time>2024-05-04T11:05:13Z</time>
      </trkpt>
      <trkpt lat="45.24553" lon="6.05631">
        <ele>2267.1</ele>
        <time>2024-05-04T11:05:14Z</time>
      </trkpt>
      <trkpt lat="45.24553" lon="6.05631">
        <ele>2267.1</ele>
        <time>2024-05-04T11:05:15Z</time>
      </trkpt>
      <trkpt lat="45.24553" lon="6.05631">
        <ele>2267.1</ele>
        <time>2024-05-04T11:05:16Z</time>
      </trkpt>
      <trkpt lat="45.24557" lon="6.05635">
        <ele>2264.5</ele>
        <time>2024-05-04T11:05:20Z</time>
      </trkpt>
      <trkpt lat="45.2456" lon="6.05636">
        <ele>2261.8</ele>
        <time>2024-05-04T11:05:22Z</time>
      </trkpt>
      <trkpt lat="45.24563" lon="6.05635">
        <ele>2258.6</ele>
        <time>2024-05-04T11:05:23Z</time>
      </trkpt>
      <trkpt lat="45.24566" lon="6.05632">
        <ele>2255</ele>
        <time>2024-05-04T11:05:24Z</time>
      </trkpt>
      <trkpt lat="45.24569" lon="6.05628">
        <ele>2251.5</ele>
        <time>2024-05-04T11:05:25Z</time>
      </trkpt>
      <trkpt lat="45.24572" lon="6.05623">
        <ele>2247.9</ele>
        <time>2024-05-04T11:05:26Z</time>
      </trkpt>
      <trkpt lat="45.24574" lon="6.05618">
        <ele>2245.4</ele>
        <time>2024-05-04T11:05:27Z</time>
      </trkpt>
      <trkpt lat="45.24576" lon="6.0561">
        <ele>2242.7</ele>
        <time>2024-05-04T11:05:28Z</time>
      </trkpt>
      <trkpt lat="45.24578" lon="6.05599">
        <ele>2240.4</ele>
        <time>2024-05-04T11:05:29Z</time>
      </trkpt>
      <trkpt lat="45.24581" lon="6.05589">
        <ele>2237.7</ele>
        <time>2024-05-04T11:05:30Z</time>
      </trkpt>
      <trkpt lat="45.24582" lon="6.05581">
        <ele>2236.6</ele>
        <time>2024-05-04T11:05:31Z</time>
      </trkpt>
      <trkpt lat="45.24583" lon="6.05574">
        <ele>2235.2</ele>
        <time>2024-05-04T11:05:32Z</time>
      </trkpt>
      <trkpt lat="45.24584" lon="6.05567">
        <ele>2233.9</ele>
        <time>2024-05-04T11:05:33Z</time>
      </trkpt>
      <trkpt lat="45.24585" lon="6.0556">
        <ele>2232.7</ele>
        <time>2024-05-04T11:05:34Z</time>
      </trkpt>
      <trkpt lat="45.24585" lon="6.05553">
        <ele>2231.7</ele>
        <time>2024-05-04T11:05:35Z</time>
      </trkpt>
      <trkpt lat="45.24585" lon="6.05547">
        <ele>2230.6</ele>
        <time>2024-05-04T11:05:36Z</time>
      </trkpt>
      <trkpt lat="45.24585" lon="6.05541">
        <ele>2229.5</ele>
        <time>2024-05-04T11:05:37Z</time>
      </trkpt>
      <trkpt lat="45.24585" lon="6.05536">
        <ele>2228.6</ele>
        <time>2024-05-04T11:05:38Z</time>
      </trkpt>
      <trkpt lat="45.24586" lon="6.0553">
        <ele>2226.9</ele>
        <time>2024-05-04T11:05:39Z</time>
      </trkpt>
      <trkpt lat="45.24587" lon="6.05525">
        <ele>2225.5</ele>
        <time>2024-05-04T11:05:40Z</time>
      </trkpt>
      <trkpt lat="45.24588" lon="6.0552">
        <ele>2224.2</ele>
        <time>2024-05-04T11:05:41Z</time>
      </trkpt>
      <trkpt lat="45.24589" lon="6.05515">
        <ele>2222.9</ele>
        <time>2024-05-04T11:05:42Z</time>
      </trkpt>
      <trkpt lat="45.24588" lon="6.05512">
        <ele>2223.1</ele>
        <time>2024-05-04T11:05:43Z</time>
      </trkpt>
      <trkpt lat="45.24588" lon="6.05508">
        <ele>2222.6</ele>
        <time>2024-05-04T11:05:44Z</time>
      </trkpt>
      <trkpt lat="45.24589" lon="6.05506">
        <ele>2221.6</ele>
        <time>2024-05-04T11:05:45Z</time>
      </trkpt>
      <trkpt lat="45.2459" lon="6.05503">
        <ele>2220.4</ele>
        <time>2024-05-04T11:05:46Z</time>
      </trkpt>
      <trkpt lat="45.24588" lon="6.05501">
        <ele>2221.6</ele>
        <time>2024-05-04T11:05:47Z</time>
      </trkpt>
      <trkpt lat="45.24588" lon="6.05499">
        <ele>2221.3</ele>
        <time>2024-05-04T11:05:48Z</time>
      </trkpt>
      <trkpt lat="45.24587" lon="6.05499">
        <ele>2222.1</ele>
        <time>2024-05-04T11:05:49Z</time>
      </trkpt>
      <trkpt lat="45.24586" lon="6.055">
        <ele>2223</ele>
        <time>2024-05-04T11:05:50Z</time>
      </trkpt>
      <trkpt lat="45.24586" lon="6.05501">
        <ele>2223.1</ele>
        <time>2024-05-04T11:05:51Z</time>
      </trkpt>
      <trkpt lat="45.24586" lon="6.05502">
        <ele>2223.2</ele>
        <time>2024-05-04T11:05:55Z</time>
      </trkpt>
      <trkpt lat="45.24589" lon="6.05487">
        <ele>2218.5</ele>
        <time>2024-05-04T11:06:02Z</time>
      </trkpt>
      <trkpt lat="45.2459" lon="6.05469">
        <ele>2214.6</ele>
        <time>2024-05-04T11:06:04Z</time>
      </trkpt>
      <trkpt lat="45.24592" lon="6.0546">
        <ele>2211.4</ele>
        <time>2024-05-04T11:06:05Z</time>
      </trkpt>
      <trkpt lat="45.24593" lon="6.05451">
        <ele>2209</ele>
        <time>2024-05-04T11:06:06Z</time>
      </trkpt>
      <trkpt lat="45.24593" lon="6.05443">
        <ele>2207.5</ele>
        <time>2024-05-04T11:06:07Z</time>
      </trkpt>
      <trkpt lat="45.24594" lon="6.05438">
        <ele>2206</ele>
        <time>2024-05-04T11:06:08Z</time>
      </trkpt>
      <trkpt lat="45.24594" lon="6.05435">
        <ele>2205.4</ele>
        <time>2024-05-04T11:06:09Z</time>
      </trkpt>
      <trkpt lat="45.24593" lon="6.05435">
        <ele>2206.1</ele>
        <time>2024-05-04T11:06:10Z</time>
      </trkpt>
      <trkpt lat="45.24593" lon="6.05436">
        <ele>2206.2</ele>
        <time>2024-05-04T11:06:11Z</time>
      </trkpt>
      <trkpt lat="45.24592" lon="6.05438">
        <ele>2207.2</ele>
        <time>2024-05-04T11:06:13Z</time>
      </trkpt>
      <trkpt lat="45.24591" lon="6.05439">
        <ele>2208</ele>
        <time>2024-05-04T11:06:16Z</time>
      </trkpt>
      <trkpt lat="45.24591" lon="6.05439">
        <ele>2208</ele>
        <time>2024-05-04T11:06:21Z</time>
      </trkpt>
      <trkpt lat="45.24594" lon="6.05431">
        <ele>2204.7</ele>
        <time>2024-05-04T11:06:34Z</time>
      </trkpt>
      <trkpt lat="45.24594" lon="6.0543">
        <ele>2204.6</ele>
        <time>2024-05-04T11:06:37Z</time>
      </trkpt>
      <trkpt lat="45.24595" lon="6.05432">
        <ele>2204.3</ele>
        <time>2024-05-04T11:06:41Z</time>
      </trkpt>
      <trkpt lat="45.24609" lon="6.05434">
        <ele>2196.2</ele>
        <time>2024-05-04T11:06:47Z</time>
      </trkpt>
      <trkpt lat="45.24611" lon="6.05438">
        <ele>2195.4</ele>
        <time>2024-05-04T11:06:48Z</time>
      </trkpt>
      <trkpt lat="45.24613" lon="6.05443">
        <ele>2194.4</ele>
        <time>2024-05-04T11:06:49Z</time>
      </trkpt>
      <trkpt lat="45.24616" lon="6.05448">
        <ele>2192.8</ele>
        <time>2024-05-04T11:06:50Z</time>
      </trkpt>
      <trkpt lat="45.24618" lon="6.05453">
        <ele>2192.1</ele>
        <time>2024-05-04T11:06:51Z</time>
      </trkpt>
      <trkpt lat="45.24618" lon="6.05458">
        <ele>2192.9</ele>
        <time>2024-05-04T11:06:52Z</time>
      </trkpt>
      <trkpt lat="45.24618" lon="6.05461">
        <ele>2193.3</ele>
        <time>2024-05-04T11:06:53Z</time>
      </trkpt>
      <trkpt lat="45.24618" lon="6.05461">
        <ele>2193.3</ele>
        <time>2024-05-04T11:06:54Z</time>
      </trkpt>
      <trkpt lat="45.24617" lon="6.0546">
        <ele>2193.9</ele>
        <time>2024-05-04T11:06:55Z</time>
      </trkpt>
      <trkpt lat="45.24616" lon="6.05459">
        <ele>2194.5</ele>
        <time>2024-05-04T11:06:58Z</time>
      </trkpt>
      <trkpt lat="45.24623" lon="6.05466">
        <ele>2190.4</ele>
        <time>2024-05-04T11:07:51Z</time>
      </trkpt>
      <trkpt lat="45.24634" lon="6.05477">
        <ele>2184.2</ele>
        <time>2024-05-04T11:07:53Z</time>
      </trkpt>
      <trkpt lat="45.24639" lon="6.0548">
        <ele>2181.1</ele>
        <time>2024-05-04T11:07:54Z</time>
      </trkpt>
      <trkpt lat="45.24643" lon="6.05477">
        <ele>2178.5</ele>
        <time>2024-05-04T11:07:55Z</time>
      </trkpt>
      <trkpt lat="45.24645" lon="6.05472">
        <ele>2176.7</ele>
        <time>2024-05-04T11:07:56Z</time>
      </trkpt>
      <trkpt lat="45.24648" lon="6.05462">
        <ele>2172.9</ele>
        <time>2024-05-04T11:07:57Z</time>
      </trkpt>
      <trkpt lat="45.24649" lon="6.05454">
        <ele>2170.5</ele>
        <time>2024-05-04T11:07:58Z</time>
      </trkpt>
      <trkpt lat="45.24652" lon="6.05446">
        <ele>2166.9</ele>
        <time>2024-05-04T11:07:59Z</time>
      </trkpt>
      <trkpt lat="45.24654" lon="6.05442">
        <ele>2164.6</ele>
        <time>2024-05-04T11:08:00Z</time>
      </trkpt>
      <trkpt lat="45.24658" lon="6.05444">
        <ele>2162.5</ele>
        <time>2024-05-04T11:08:01Z</time>
      </trkpt>
      <trkpt lat="45.24661" lon="6.05445">
        <ele>2160.8</ele>
        <time>2024-05-04T11:08:02Z</time>
      </trkpt>
      <trkpt lat="45.24663" lon="6.05449">
        <ele>2160.6</ele>
        <time>2024-05-04T11:08:03Z</time>
      </trkpt>
      <trkpt lat="45.24666" lon="6.05452">
        <ele>2159.6</ele>
        <time>2024-05-04T11:08:04Z</time>
      </trkpt>
      <trkpt lat="45.24669" lon="6.05455">
        <ele>2158.7</ele>
        <time>2024-05-04T11:08:05Z</time>
      </trkpt>
      <trkpt lat="45.24673" lon="6.05456">
        <ele>2156.7</ele>
        <time>2024-05-04T11:08:06Z</time>
      </trkpt>
      <trkpt lat="45.24676" lon="6.05454">
        <ele>2154.3</ele>
        <time>2024-05-04T11:08:07Z</time>
      </trkpt>
      <trkpt lat="45.24677" lon="6.05448">
        <ele>2151.6</ele>
        <time>2024-05-04T11:08:08Z</time>
      </trkpt>
      <trkpt lat="45.24677" lon="6.05442">
        <ele>2149.3</ele>
        <time>2024-05-04T11:08:09Z</time>
      </trkpt>
      <trkpt lat="45.24676" lon="6.05437">
        <ele>2148</ele>
        <time>2024-05-04T11:08:10Z</time>
      </trkpt>
      <trkpt lat="45.24674" lon="6.05434">
        <ele>2148.3</ele>
        <time>2024-05-04T11:08:11Z</time>
      </trkpt>
      <trkpt lat="45.24674" lon="6.0543">
        <ele>2146.7</ele>
        <time>2024-05-04T11:08:12Z</time>
      </trkpt>
      <trkpt lat="45.24674" lon="6.05427">
        <ele>2145.6</ele>
        <time>2024-05-04T11:08:13Z</time>
      </trkpt>
      <trkpt lat="45.24676" lon="6.05424">
        <ele>2142.8</ele>
        <time>2024-05-04T11:08:14Z</time>
      </trkpt>
      <trkpt lat="45.24678" lon="6.05423">
        <ele>2140.8</ele>
        <time>2024-05-04T11:08:15Z</time>
      </trkpt>
      <trkpt lat="45.24682" lon="6.05424">
        <ele>2138</ele>
        <time>2024-05-04T11:08:16Z</time>
      </trkpt>
      <trkpt lat="45.24685" lon="6.05424">
        <ele>2135.6</ele>
        <time>2024-05-04T11:08:17Z</time>
      </trkpt>
      <trkpt lat="45.24688" lon="6.0542">
        <ele>2131.2</ele>
        <time>2024-05-04T11:08:18Z</time>
      </trkpt>
      <trkpt lat="45.24691" lon="6.05414">
        <ele>2125.8</ele>
        <time>2024-05-04T11:08:19Z</time>
      </trkpt>
      <trkpt lat="45.24692" lon="6.0541">
        <ele>2123.1</ele>
        <time>2024-05-04T11:08:20Z</time>
      </trkpt>
      <trkpt lat="45.24692" lon="6.05408">
        <ele>2122.1</ele>
        <time>2024-05-04T11:08:21Z</time>
      </trkpt>
      <trkpt lat="45.24691" lon="6.05407">
        <ele>2122.6</ele>
        <time>2024-05-04T11:08:22Z</time>
      </trkpt>
      <trkpt lat="45.2469" lon="6.05407">
        <ele>2123.5</ele>
        <time>2024-05-04T11:08:23Z</time>
      </trkpt>
      <trkpt lat="45.24689" lon="6.05406">
        <ele>2123.9</ele>
        <time>2024-05-04T11:08:24Z</time>
      </trkpt>
      <trkpt lat="45.24688" lon="6.05406">
        <ele>2124.8</ele>
        <time>2024-05-04T11:08:26Z</time>
      </trkpt>
      <trkpt lat="45.24687" lon="6.05406">
        <ele>2125.7</ele>
        <time>2024-05-04T11:08:31Z</time>
      </trkpt>
      <trkpt lat="45.24697" lon="6.05409">
        <ele>2119.1</ele>
        <time>2024-05-04T11:08:42Z</time>
      </trkpt>
      <trkpt lat="45.247" lon="6.05411">
        <ele>2118.4</ele>
        <time>2024-05-04T11:08:43Z</time>
      </trkpt>
      <trkpt lat="45.24704" lon="6.05413">
        <ele>2117.2</ele>
        <time>2024-05-04T11:08:44Z</time>
      </trkpt>
      <trkpt lat="45.24709" lon="6.05409">
        <ele>2112.7</ele>
        <time>2024-05-04T11:08:45Z</time>
      </trkpt>
      <trkpt lat="45.2471" lon="6.05404">
        <ele>2109.9</ele>
        <time>2024-05-04T11:08:46Z</time>
      </trkpt>
      <trkpt lat="45.24712" lon="6.05396">
        <ele>2105.3</ele>
        <time>2024-05-04T11:08:47Z</time>
      </trkpt>
      <trkpt lat="45.24712" lon="6.0539">
        <ele>2102.6</ele>
        <time>2024-05-04T11:08:48Z</time>
      </trkpt>
      <trkpt lat="45.24711" lon="6.05387">
        <ele>2101.7</ele>
        <time>2024-05-04T11:08:49Z</time>
      </trkpt>
      <trkpt lat="45.24715" lon="6.05389">
        <ele>2100.7</ele>
        <time>2024-05-04T11:08:50Z</time>
      </trkpt>
      <trkpt lat="45.24718" lon="6.05391">
        <ele>2100.1</ele>
        <time>2024-05-04T11:08:51Z</time>
      </trkpt>
      <trkpt lat="45.24721" lon="6.05392">
        <ele>2099</ele>
        <time>2024-05-04T11:08:52Z</time>
      </trkpt>
      <trkpt lat="45.24725" lon="6.05389">
        <ele>2095.2</ele>
        <time>2024-05-04T11:08:53Z</time>
      </trkpt>
      <trkpt lat="45.24728" lon="6.05382">
        <ele>2089.4</ele>
        <time>2024-05-04T11:08:54Z</time>
      </trkpt>
      <trkpt lat="45.2473" lon="6.05373">
        <ele>2083.3</ele>
        <time>2024-05-04T11:08:55Z</time>
      </trkpt>
      <trkpt lat="45.2473" lon="6.05367">
        <ele>2080</ele>
        <time>2024-05-04T11:08:56Z</time>
      </trkpt>
      <trkpt lat="45.24732" lon="6.05362">
        <ele>2076.2</ele>
        <time>2024-05-04T11:08:57Z</time>
      </trkpt>
      <trkpt lat="45.24736" lon="6.0536">
        <ele>2073</ele>
        <time>2024-05-04T11:08:58Z</time>
      </trkpt>
      <trkpt lat="45.24739" lon="6.05361">
        <ele>2071.9</ele>
        <time>2024-05-04T11:08:59Z</time>
      </trkpt>
      <trkpt lat="45.24742" lon="6.05364">
        <ele>2071.8</ele>
        <time>2024-05-04T11:09:00Z</time>
      </trkpt>
      <trkpt lat="45.24747" lon="6.05366">
        <ele>2070</ele>
        <time>2024-05-04T11:09:01Z</time>
      </trkpt>
      <trkpt lat="45.24751" lon="6.05368">
        <ele>2068.6</ele>
        <time>2024-05-04T11:09:02Z</time>
      </trkpt>
      <trkpt lat="45.24756" lon="6.05371">
        <ele>2066.9</ele>
        <time>2024-05-04T11:09:03Z</time>
      </trkpt>
      <trkpt lat="45.24761" lon="6.05374">
        <ele>2065.3</ele>
        <time>2024-05-04T11:09:04Z</time>
      </trkpt>
      <trkpt lat="45.24766" lon="6.05378">
        <ele>2064.2</ele>
        <time>2024-05-04T11:09:05Z</time>
      </trkpt>
      <trkpt lat="45.2477" lon="6.05382">
        <ele>2063.9</ele>
        <time>2024-05-04T11:09:06Z</time>
      </trkpt>
      <trkpt lat="45.24774" lon="6.05385">
        <ele>2063.1</ele>
        <time>2024-05-04T11:09:07Z</time>
      </trkpt>
      <trkpt lat="45.24778" lon="6.05387">
        <ele>2061.8</ele>
        <time>2024-05-04T11:09:08Z</time>
      </trkpt>
      <trkpt lat="45.24782" lon="6.05386">
        <ele>2058.6</ele>
        <time>2024-05-04T11:09:09Z</time>
      </trkpt>
      <trkpt lat="45.24785" lon="6.05384">
        <ele>2055.5</ele>
        <time>2024-05-04T11:09:10Z</time>
      </trkpt>
      <trkpt lat="45.24786" lon="6.05379">
        <ele>2052.2</ele>
        <time>2024-05-04T11:09:11Z</time>
      </trkpt>
      <trkpt lat="45.24787" lon="6.05373">
        <ele>2048.5</ele>
        <time>2024-05-04T11:09:12Z</time>
      </trkpt>
      <trkpt lat="45.24788" lon="6.05368">
        <ele>2045.3</ele>
        <time>2024-05-04T11:09:13Z</time>
      </trkpt>
      <trkpt lat="45.2479" lon="6.05366">
        <ele>2043</ele>
        <time>2024-05-04T11:09:14Z</time>
      </trkpt>
      <trkpt lat="45.24792" lon="6.05366">
        <ele>2041.8</ele>
        <time>2024-05-04T11:09:15Z</time>
      </trkpt>
      <trkpt lat="45.24794" lon="6.05367">
        <ele>2041</ele>
        <time>2024-05-04T11:09:16Z</time>
      </trkpt>
      <trkpt lat="45.24798" lon="6.05369">
        <ele>2039.5</ele>
        <time>2024-05-04T11:09:17Z</time>
      </trkpt>
      <trkpt lat="45.24801" lon="6.05371">
        <ele>2038.5</ele>
        <time>2024-05-04T11:09:18Z</time>
      </trkpt>
      <trkpt lat="45.24805" lon="6.05373">
        <ele>2036.9</ele>
        <time>2024-05-04T11:09:19Z</time>
      </trkpt>
      <trkpt lat="45.24809" lon="6.05373">
        <ele>2034.5</ele>
        <time>2024-05-04T11:09:20Z</time>
      </trkpt>
      <trkpt lat="45.24813" lon="6.05369">
        <ele>2030.4</ele>
        <time>2024-05-04T11:09:21Z</time>
      </trkpt>
      <trkpt lat="45.24815" lon="6.05362">
        <ele>2026.3</ele>
        <time>2024-05-04T11:09:22Z</time>
      </trkpt>
      <trkpt lat="45.24818" lon="6.05354">
        <ele>2022.1</ele>
        <time>2024-05-04T11:09:23Z</time>
      </trkpt>
      <trkpt lat="45.24819" lon="6.05347">
        <ele>2019.4</ele>
        <time>2024-05-04T11:09:24Z</time>
      </trkpt>
      <trkpt lat="45.24814" lon="6.05344">
        <ele>2020.8</ele>
        <time>2024-05-04T11:09:25Z</time>
      </trkpt>
      <trkpt lat="45.24812" lon="6.05342">
        <ele>2021.1</ele>
        <time>2024-05-04T11:09:26Z</time>
      </trkpt>
      <trkpt lat="45.24811" lon="6.05341">
        <ele>2021.2</ele>
        <time>2024-05-04T11:09:27Z</time>
      </trkpt>
      <trkpt lat="45.24811" lon="6.05341">
        <ele>2021.2</ele>
        <time>2024-05-04T11:09:28Z</time>
      </trkpt>
      <trkpt lat="45.2481" lon="6.05341">
        <ele>2021.7</ele>
        <time>2024-05-04T11:09:30Z</time>
      </trkpt>
      <trkpt lat="45.24809" lon="6.05342">
        <ele>2022.5</ele>
        <time>2024-05-04T11:09:32Z</time>
      </trkpt>
      <trkpt lat="45.24809" lon="6.05342">
        <ele>2022.5</ele>
        <time>2024-05-04T11:09:38Z</time>
      </trkpt>
      <trkpt lat="45.24809" lon="6.05342">
        <ele>2022.5</ele>
        <time>2024-05-04T11:09:44Z</time>
      </trkpt>
      <trkpt lat="45.24809" lon="6.05342">
        <ele>2022.5</ele>
        <time>2024-05-04T11:09:46Z</time>
      </trkpt>
      <trkpt lat="45.24809" lon="6.05342">
        <ele>2022.5</ele>
        <time>2024-05-04T11:09:49Z</time>
      </trkpt>
      <trkpt lat="45.24809" lon="6.05335">
        <ele>2020.1</ele>
        <time>2024-05-04T11:09:52Z</time>
      </trkpt>
      <trkpt lat="45.24809" lon="6.05329">
        <ele>2018.6</ele>
        <time>2024-05-04T11:09:53Z</time>
      </trkpt>
      <trkpt lat="45.24807" lon="6.05316">
        <ele>2016.7</ele>
        <time>2024-05-04T11:09:55Z</time>
      </trkpt>
      <trkpt lat="45.24806" lon="6.0531">
        <ele>2015.8</ele>
        <time>2024-05-04T11:09:56Z</time>
      </trkpt>
      <trkpt lat="45.24806" lon="6.05305">
        <ele>2014.8</ele>
        <time>2024-05-04T11:09:57Z</time>
      </trkpt>
      <trkpt lat="45.24805" lon="6.05301">
        <ele>2014.9</ele>
        <time>2024-05-04T11:09:58Z</time>
      </trkpt>
      <trkpt lat="45.24804" lon="6.05297">
        <ele>2015.1</ele>
        <time>2024-05-04T11:09:59Z</time>
      </trkpt>
      <trkpt lat="45.24804" lon="6.05293">
        <ele>2014.7</ele>
        <time>2024-05-04T11:10:00Z</time>
      </trkpt>
      <trkpt lat="45.24807" lon="6.05289">
        <ele>2013.3</ele>
        <time>2024-05-04T11:10:01Z</time>
      </trkpt>
      <trkpt lat="45.24809" lon="6.05284">
        <ele>2012.2</ele>
        <time>2024-05-04T11:10:02Z</time>
      </trkpt>
      <trkpt lat="45.24812" lon="6.05277">
        <ele>2010.8</ele>
        <time>2024-05-04T11:10:03Z</time>
      </trkpt>
      <trkpt lat="45.24816" lon="6.0527">
        <ele>2010.4</ele>
        <time>2024-05-04T11:10:04Z</time>
      </trkpt>
      <trkpt lat="45.2482" lon="6.05264">
        <ele>2009.8</ele>
        <time>2024-05-04T11:10:05Z</time>
      </trkpt>
      <trkpt lat="45.24825" lon="6.05259">
        <ele>2008.7</ele>
        <time>2024-05-04T11:10:06Z</time>
      </trkpt>
      <trkpt lat="45.2483" lon="6.05256">
        <ele>2007.3</ele>
        <time>2024-05-04T11:10:07Z</time>
      </trkpt>
      <trkpt lat="45.24836" lon="6.05256">
        <ele>2005</ele>
        <time>2024-05-04T11:10:08Z</time>
      </trkpt>
      <trkpt lat="45.24849" lon="6.05264">
        <ele>1998.8</ele>
        <time>2024-05-04T11:10:10Z</time>
      </trkpt>
      <trkpt lat="45.24863" lon="6.0527">
        <ele>1992.9</ele>
        <time>2024-05-04T11:10:12Z</time>
      </trkpt>
      <trkpt lat="45.24871" lon="6.05262">
        <ele>1990.3</ele>
        <time>2024-05-04T11:10:13Z</time>
      </trkpt>
      <trkpt lat="45.24877" lon="6.05256">
        <ele>1988.1</ele>
        <time>2024-05-04T11:10:14Z</time>
      </trkpt>
      <trkpt lat="45.24882" lon="6.05252">
        <ele>1986</ele>
        <time>2024-05-04T11:10:15Z</time>
      </trkpt>
      <trkpt lat="45.24888" lon="6.05247">
        <ele>1983.5</ele>
        <time>2024-05-04T11:10:16Z</time>
      </trkpt>
      <trkpt lat="45.24892" lon="6.05243">
        <ele>1982</ele>
        <time>2024-05-04T11:10:17Z</time>
      </trkpt>
      <trkpt lat="45.24895" lon="6.0524">
        <ele>1980.9</ele>
        <time>2024-05-04T11:10:18Z</time>
      </trkpt>
      <trkpt lat="45.24895" lon="6.05239">
        <ele>1980.9</ele>
        <time>2024-05-04T11:10:19Z</time>
      </trkpt>
      <trkpt lat="45.24896" lon="6.05238">
        <ele>1980.5</ele>
        <time>2024-05-04T11:10:21Z</time>
      </trkpt>
      <trkpt lat="45.24887" lon="6.05243">
        <ele>1984.1</ele>
        <time>2024-05-04T11:10:23Z</time>
      </trkpt>
      <trkpt lat="45.24866" lon="6.05262">
        <ele>1992.3</ele>
        <time>2024-05-04T11:11:00Z</time>
      </trkpt>
      <trkpt lat="45.24873" lon="6.05246">
        <ele>1990.1</ele>
        <time>2024-05-04T11:11:40Z</time>
      </trkpt>
      <trkpt lat="45.24869" lon="6.05248">
        <ele>1991.7</ele>
        <time>2024-05-04T11:11:46Z</time>
      </trkpt>
      <trkpt lat="45.24862" lon="6.0525">
        <ele>1994.6</ele>
        <time>2024-05-04T11:11:52Z</time>
      </trkpt>
      <trkpt lat="45.24863" lon="6.05252">
        <ele>1994.1</ele>
        <time>2024-05-04T11:12:30Z</time>
      </trkpt>
      <trkpt lat="45.24869" lon="6.05251">
        <ele>1991.6</ele>
        <time>2024-05-04T11:13:16Z</time>
      </trkpt>
      <trkpt lat="45.24888" lon="6.05257">
        <ele>1983.6</ele>
        <time>2024-05-04T11:13:21Z</time>
      </trkpt>
      <trkpt lat="45.24912" lon="6.05242">
        <ele>1973.9</ele>
        <time>2024-05-04T11:13:25Z</time>
      </trkpt>
      <trkpt lat="45.24929" lon="6.05231">
        <ele>1969.2</ele>
        <time>2024-05-04T11:13:27Z</time>
      </trkpt>
      <trkpt lat="45.24954" lon="6.05223">
        <ele>1962.2</ele>
        <time>2024-05-04T11:13:30Z</time>
      </trkpt>
      <trkpt lat="45.24973" lon="6.0521">
        <ele>1955.9</ele>
        <time>2024-05-04T11:13:32Z</time>
      </trkpt>
      <trkpt lat="45.24983" lon="6.05201">
        <ele>1952.1</ele>
        <time>2024-05-04T11:13:35Z</time>
      </trkpt>
      <trkpt lat="45.24986" lon="6.05198">
        <ele>1951</ele>
        <time>2024-05-04T11:13:36Z</time>
      </trkpt>
      <trkpt lat="45.24989" lon="6.05192">
        <ele>1950.9</ele>
        <time>2024-05-04T11:13:37Z</time>
      </trkpt>
      <trkpt lat="45.24993" lon="6.05188">
        <ele>1950.4</ele>
        <time>2024-05-04T11:13:38Z</time>
      </trkpt>
      <trkpt lat="45.25006" lon="6.05186">
        <ele>1945</ele>
        <time>2024-05-04T11:13:39Z</time>
      </trkpt>
      <trkpt lat="45.25013" lon="6.05184">
        <ele>1942.2</ele>
        <time>2024-05-04T11:13:40Z</time>
      </trkpt>
      <trkpt lat="45.2503" lon="6.05172">
        <ele>1938.2</ele>
        <time>2024-05-04T11:13:43Z</time>
      </trkpt>
      <trkpt lat="45.25042" lon="6.05165">
        <ele>1935.8</ele>
        <time>2024-05-04T11:13:45Z</time>
      </trkpt>
      <trkpt lat="45.25048" lon="6.05164">
        <ele>1933.8</ele>
        <time>2024-05-04T11:13:47Z</time>
      </trkpt>
      <trkpt lat="45.25037" lon="6.05178">
        <ele>1933.2</ele>
        <time>2024-05-04T11:13:50Z</time>
      </trkpt>
      <trkpt lat="45.25036" lon="6.05197">
        <ele>1927.2</ele>
        <time>2024-05-04T11:13:53Z</time>
      </trkpt>
      <trkpt lat="45.25039" lon="6.05199">
        <ele>1925.6</ele>
        <time>2024-05-04T11:13:54Z</time>
      </trkpt>
      <trkpt lat="45.25045" lon="6.05201">
        <ele>1922.8</ele>
        <time>2024-05-04T11:13:55Z</time>
      </trkpt>
      <trkpt lat="45.25048" lon="6.05199">
        <ele>1922.4</ele>
        <time>2024-05-04T11:13:56Z</time>
      </trkpt>
      <trkpt lat="45.25051" lon="6.05199">
        <ele>1921.3</ele>
        <time>2024-05-04T11:13:57Z</time>
      </trkpt>
      <trkpt lat="45.25057" lon="6.05205">
        <ele>1917.3</ele>
        <time>2024-05-04T11:13:58Z</time>
      </trkpt>
      <trkpt lat="45.25066" lon="6.05211">
        <ele>1912.1</ele>
        <time>2024-05-04T11:13:59Z</time>
      </trkpt>
      <trkpt lat="45.25071" lon="6.05213">
        <ele>1909.7</ele>
        <time>2024-05-04T11:14:00Z</time>
      </trkpt>
      <trkpt lat="45.25074" lon="6.05213">
        <ele>1908.6</ele>
        <time>2024-05-04T11:14:01Z</time>
      </trkpt>
      <trkpt lat="45.2508" lon="6.05214">
        <ele>1906.1</ele>
        <time>2024-05-04T11:14:02Z</time>
      </trkpt>
      <trkpt lat="45.25083" lon="6.05217">
        <ele>1904.7</ele>
        <time>2024-05-04T11:14:03Z</time>
      </trkpt>
      <trkpt lat="45.25087" lon="6.0522">
        <ele>1902.6</ele>
        <time>2024-05-04T11:14:04Z</time>
      </trkpt>
      <trkpt lat="45.25092" lon="6.05219">
        <ele>1900.6</ele>
        <time>2024-05-04T11:14:05Z</time>
      </trkpt>
      <trkpt lat="45.25096" lon="6.05218">
        <ele>1898.9</ele>
        <time>2024-05-04T11:14:06Z</time>
      </trkpt>
      <trkpt lat="45.25098" lon="6.05216">
        <ele>1898.2</ele>
        <time>2024-05-04T11:14:07Z</time>
      </trkpt>
      <trkpt lat="45.25105" lon="6.0521">
        <ele>1895.6</ele>
        <time>2024-05-04T11:14:08Z</time>
      </trkpt>
      <trkpt lat="45.25107" lon="6.05204">
        <ele>1895.2</ele>
        <time>2024-05-04T11:14:09Z</time>
      </trkpt>
      <trkpt lat="45.25109" lon="6.05201">
        <ele>1894.5</ele>
        <time>2024-05-04T11:14:10Z</time>
      </trkpt>
      <trkpt lat="45.25111" lon="6.05197">
        <ele>1893.9</ele>
        <time>2024-05-04T11:14:11Z</time>
      </trkpt>
      <trkpt lat="45.25112" lon="6.05196">
        <ele>1893.3</ele>
        <time>2024-05-04T11:14:12Z</time>
      </trkpt>
      <trkpt lat="45.25123" lon="6.05193">
        <ele>1885.8</ele>
        <time>2024-05-04T11:14:14Z</time>
      </trkpt>
      <trkpt lat="45.25129" lon="6.0519">
        <ele>1881.2</ele>
        <time>2024-05-04T11:14:16Z</time>
      </trkpt>
      <trkpt lat="45.2513" lon="6.05189">
        <ele>1880.3</ele>
        <time>2024-05-04T11:14:18Z</time>
      </trkpt>
      <trkpt lat="45.25132" lon="6.05188">
        <ele>1878.6</ele>
        <time>2024-05-04T11:14:20Z</time>
      </trkpt>
      <trkpt lat="45.25132" lon="6.05188">
        <ele>1878.6</ele>
        <time>2024-05-04T11:14:24Z</time>
      </trkpt>
      <trkpt lat="45.25132" lon="6.05188">
        <ele>1878.6</ele>
        <time>2024-05-04T11:14:26Z</time>
      </trkpt>
      <trkpt lat="45.2513" lon="6.05179">
        <ele>1878.8</ele>
        <time>2024-05-04T11:15:01Z</time>
      </trkpt>
      <trkpt lat="45.25125" lon="6.05173">
        <ele>1882.6</ele>
        <time>2024-05-04T11:15:03Z</time>
      </trkpt>
      <trkpt lat="45.25127" lon="6.05163">
        <ele>1880.3</ele>
        <time>2024-05-04T11:15:05Z</time>
      </trkpt>
      <trkpt lat="45.25128" lon="6.05157">
        <ele>1879.7</ele>
        <time>2024-05-04T11:15:06Z</time>
      </trkpt>
      <trkpt lat="45.25131" lon="6.05153">
        <ele>1876.7</ele>
        <time>2024-05-04T11:15:07Z</time>
      </trkpt>
      <trkpt lat="45.25133" lon="6.05149">
        <ele>1874.6</ele>
        <time>2024-05-04T11:15:08Z</time>
      </trkpt>
      <trkpt lat="45.25135" lon="6.05147">
        <ele>1872.4</ele>
        <time>2024-05-04T11:15:09Z</time>
      </trkpt>
      <trkpt lat="45.25136" lon="6.05146">
        <ele>1871.3</ele>
        <time>2024-05-04T11:15:10Z</time>
      </trkpt>
      <trkpt lat="45.25137" lon="6.05144">
        <ele>1870.2</ele>
        <time>2024-05-04T11:15:11Z</time>
      </trkpt>
      <trkpt lat="45.25137" lon="6.05141">
        <ele>1870.2</ele>
        <time>2024-05-04T11:15:12Z</time>
      </trkpt>
      <trkpt lat="45.25139" lon="6.05138">
        <ele>1868</ele>
        <time>2024-05-04T11:15:13Z</time>
      </trkpt>
      <trkpt lat="45.25139" lon="6.05135">
        <ele>1868.5</ele>
        <time>2024-05-04T11:15:15Z</time>
      </trkpt>
      <trkpt lat="45.25141" lon="6.05133">
        <ele>1867</ele>
        <time>2024-05-04T11:15:16Z</time>
      </trkpt>
      <trkpt lat="45.25142" lon="6.05132">
        <ele>1866.2</ele>
        <time>2024-05-04T11:15:17Z</time>
      </trkpt>
      <trkpt lat="45.25145" lon="6.05129">
        <ele>1864.1</ele>
        <time>2024-05-04T11:15:19Z</time>
      </trkpt>
      <trkpt lat="45.25144" lon="6.0513">
        <ele>1864.8</ele>
        <time>2024-05-04T11:15:20Z</time>
      </trkpt>
      <trkpt lat="45.25145" lon="6.05131">
        <ele>1863.8</ele>
        <time>2024-05-04T11:15:21Z</time>
      </trkpt>
      <trkpt lat="45.25148" lon="6.05131">
        <ele>1861.1</ele>
        <time>2024-05-04T11:15:24Z</time>
      </trkpt>
      <trkpt lat="45.25149" lon="6.05139">
        <ele>1858.9</ele>
        <time>2024-05-04T11:15:26Z</time>
      </trkpt>
      <trkpt lat="45.25151" lon="6.05143">
        <ele>1857.2</ele>
        <time>2024-05-04T11:15:28Z</time>
      </trkpt>
      <trkpt lat="45.25156" lon="6.05144">
        <ele>1852.8</ele>
        <time>2024-05-04T11:15:29Z</time>
      </trkpt>
      <trkpt lat="45.2516" lon="6.05144">
        <ele>1849.3</ele>
        <time>2024-05-04T11:15:30Z</time>
      </trkpt>
      <trkpt lat="45.25162" lon="6.05142">
        <ele>1847.4</ele>
        <time>2024-05-04T11:15:31Z</time>
      </trkpt>
      <trkpt lat="45.25164" lon="6.05139">
        <ele>1845.4</ele>
        <time>2024-05-04T11:15:32Z</time>
      </trkpt>
      <trkpt lat="45.25164" lon="6.05136">
        <ele>1846</ele>
        <time>2024-05-04T11:15:33Z</time>
      </trkpt>
      <trkpt lat="45.25165" lon="6.05134">
        <ele>1845.5</ele>
        <time>2024-05-04T11:15:34Z</time>
      </trkpt>
      <trkpt lat="45.25164" lon="6.05134">
        <ele>1846.4</ele>
        <time>2024-05-04T11:15:35Z</time>
      </trkpt>
      <trkpt lat="45.25166" lon="6.05135">
        <ele>1844.4</ele>
        <time>2024-05-04T11:15:36Z</time>
      </trkpt>
      <trkpt lat="45.25167" lon="6.05138">
        <ele>1843</ele>
        <time>2024-05-04T11:15:37Z</time>
      </trkpt>
      <trkpt lat="45.25167" lon="6.0514">
        <ele>1842.9</ele>
        <time>2024-05-04T11:15:38Z</time>
      </trkpt>
      <trkpt lat="45.25169" lon="6.0514">
        <ele>1841.5</ele>
        <time>2024-05-04T11:15:40Z</time>
      </trkpt>
      <trkpt lat="45.25172" lon="6.05137">
        <ele>1839.7</ele>
        <time>2024-05-04T11:15:41Z</time>
      </trkpt>
      <trkpt lat="45.25172" lon="6.05137">
        <ele>1839.7</ele>
        <time>2024-05-04T11:15:42Z</time>
      </trkpt>
      <trkpt lat="45.25173" lon="6.05138">
        <ele>1838.8</ele>
        <time>2024-05-04T11:15:43Z</time>
      </trkpt>
      <trkpt lat="45.25173" lon="6.05138">
        <ele>1838.8</ele>
        <time>2024-05-04T11:15:44Z</time>
      </trkpt>
      <trkpt lat="45.25175" lon="6.05137">
        <ele>1837.7</ele>
        <time>2024-05-04T11:15:45Z</time>
      </trkpt>
      <trkpt lat="45.25177" lon="6.05136">
        <ele>1836.5</ele>
        <time>2024-05-04T11:15:47Z</time>
      </trkpt>
      <trkpt lat="45.25178" lon="6.05136">
        <ele>1835.8</ele>
        <time>2024-05-04T11:15:49Z</time>
      </trkpt>
      <trkpt lat="45.25186" lon="6.05137">
        <ele>1830.1</ele>
        <time>2024-05-04T11:15:52Z</time>
      </trkpt>
      <trkpt lat="45.25184" lon="6.05132">
        <ele>1832.3</ele>
        <time>2024-05-04T11:16:02Z</time>
      </trkpt>
      <trkpt lat="45.25182" lon="6.05141">
        <ele>1832.6</ele>
        <time>2024-05-04T11:16:05Z</time>
      </trkpt>
      <trkpt lat="45.25182" lon="6.0516">
        <ele>1833.2</ele>
        <time>2024-05-04T11:16:09Z</time>
      </trkpt>
      <trkpt lat="45.25183" lon="6.05161">
        <ele>1832.5</ele>
        <time>2024-05-04T11:16:10Z</time>
      </trkpt>
      <trkpt lat="45.25187" lon="6.05159">
        <ele>1829.5</ele>
        <time>2024-05-04T11:16:11Z</time>
      </trkpt>
      <trkpt lat="45.25189" lon="6.05155">
        <ele>1828</ele>
        <time>2024-05-04T11:16:12Z</time>
      </trkpt>
      <trkpt lat="45.2519" lon="6.05152">
        <ele>1827.2</ele>
        <time>2024-05-04T11:16:13Z</time>
      </trkpt>
      <trkpt lat="45.25191" lon="6.05151">
        <ele>1826.5</ele>
        <time>2024-05-04T11:16:14Z</time>
      </trkpt>
      <trkpt lat="45.25193" lon="6.05151">
        <ele>1825</ele>
        <time>2024-05-04T11:16:15Z</time>
      </trkpt>
      <trkpt lat="45.25193" lon="6.05152">
        <ele>1825</ele>
        <time>2024-05-04T11:16:16Z</time>
      </trkpt>
      <trkpt lat="45.25196" lon="6.05151">
        <ele>1823</ele>
        <time>2024-05-04T11:16:17Z</time>
      </trkpt>
      <trkpt lat="45.25201" lon="6.0515">
        <ele>1819.8</ele>
        <time>2024-05-04T11:16:18Z</time>
      </trkpt>
      <trkpt lat="45.25204" lon="6.05149">
        <ele>1817.9</ele>
        <time>2024-05-04T11:16:19Z</time>
      </trkpt>
      <trkpt lat="45.25205" lon="6.05148">
        <ele>1817.3</ele>
        <time>2024-05-04T11:16:20Z</time>
      </trkpt>
      <trkpt lat="45.25205" lon="6.05148">
        <ele>1817.3</ele>
        <time>2024-05-04T11:16:21Z</time>
      </trkpt>
      <trkpt lat="45.25205" lon="6.05147">
        <ele>1817.3</ele>
        <time>2024-05-04T11:16:22Z</time>
      </trkpt>
      <trkpt lat="45.25207" lon="6.0515">
        <ele>1816</ele>
        <time>2024-05-04T11:16:24Z</time>
      </trkpt>
      <trkpt lat="45.25207" lon="6.05155">
        <ele>1816.1</ele>
        <time>2024-05-04T11:16:26Z</time>
      </trkpt>
      <trkpt lat="45.25212" lon="6.0516">
        <ele>1813.1</ele>
        <time>2024-05-04T11:16:28Z</time>
      </trkpt>
      <trkpt lat="45.2522" lon="6.05165">
        <ele>1808.3</ele>
        <time>2024-05-04T11:16:30Z</time>
      </trkpt>
      <trkpt lat="45.25222" lon="6.05164">
        <ele>1807</ele>
        <time>2024-05-04T11:16:32Z</time>
      </trkpt>
      <trkpt lat="45.25224" lon="6.05163">
        <ele>1805.6</ele>
        <time>2024-05-04T11:16:33Z</time>
      </trkpt>
      <trkpt lat="45.25227" lon="6.05162">
        <ele>1803.3</ele>
        <time>2024-05-04T11:16:34Z</time>
      </trkpt>
      <trkpt lat="45.25229" lon="6.0516">
        <ele>1801.8</ele>
        <time>2024-05-04T11:16:35Z</time>
      </trkpt>
      <trkpt lat="45.2523" lon="6.05159">
        <ele>1801</ele>
        <time>2024-05-04T11:16:36Z</time>
      </trkpt>
      <trkpt lat="45.25231" lon="6.05157">
        <ele>1800.1</ele>
        <time>2024-05-04T11:16:37Z</time>
      </trkpt>
      <trkpt lat="45.25231" lon="6.05157">
        <ele>1800.1</ele>
        <time>2024-05-04T11:16:38Z</time>
      </trkpt>
      <trkpt lat="45.25231" lon="6.05156">
        <ele>1800.1</ele>
        <time>2024-05-04T11:16:39Z</time>
      </trkpt>
      <trkpt lat="45.25231" lon="6.05156">
        <ele>1800.1</ele>
        <time>2024-05-04T11:16:40Z</time>
      </trkpt>
      <trkpt lat="45.25232" lon="6.05157">
        <ele>1799.4</ele>
        <time>2024-05-04T11:16:42Z</time>
      </trkpt>
      <trkpt lat="45.25232" lon="6.05157">
        <ele>1799.4</ele>
        <time>2024-05-04T11:16:43Z</time>
      </trkpt>
      <trkpt lat="45.25234" lon="6.05159">
        <ele>1798</ele>
        <time>2024-05-04T11:16:46Z</time>
      </trkpt>
      <trkpt lat="45.25239" lon="6.0516">
        <ele>1794.4</ele>
        <time>2024-05-04T11:16:48Z</time>
      </trkpt>
      <trkpt lat="45.25243" lon="6.05162">
        <ele>1791.6</ele>
        <time>2024-05-04T11:16:50Z</time>
      </trkpt>
      <trkpt lat="45.25245" lon="6.05164">
        <ele>1790.3</ele>
        <time>2024-05-04T11:16:51Z</time>
      </trkpt>
      <trkpt lat="45.25246" lon="6.05164">
        <ele>1789.6</ele>
        <time>2024-05-04T11:16:52Z</time>
      </trkpt>
      <trkpt lat="45.25247" lon="6.05164">
        <ele>1788.9</ele>
        <time>2024-05-04T11:16:53Z</time>
      </trkpt>
      <trkpt lat="45.25248" lon="6.05162">
        <ele>1788</ele>
        <time>2024-05-04T11:16:54Z</time>
      </trkpt>
      <trkpt lat="45.2525" lon="6.05156">
        <ele>1785.8</ele>
        <time>2024-05-04T11:16:56Z</time>
      </trkpt>
      <trkpt lat="45.2525" lon="6.05152">
        <ele>1785.4</ele>
        <time>2024-05-04T11:16:58Z</time>
      </trkpt>
      <trkpt lat="45.2525" lon="6.05148">
        <ele>1785</ele>
        <time>2024-05-04T11:17:00Z</time>
      </trkpt>
      <trkpt lat="45.25251" lon="6.05145">
        <ele>1783.9</ele>
        <time>2024-05-04T11:17:01Z</time>
      </trkpt>
      <trkpt lat="45.25255" lon="6.05132">
        <ele>1781</ele>
        <time>2024-05-04T11:17:04Z</time>
      </trkpt>
      <trkpt lat="45.25257" lon="6.05121">
        <ele>1780.6</ele>
        <time>2024-05-04T11:17:06Z</time>
      </trkpt>
      <trkpt lat="45.25258" lon="6.05116">
        <ele>1780.4</ele>
        <time>2024-05-04T11:17:08Z</time>
      </trkpt>
      <trkpt lat="45.25259" lon="6.05116">
        <ele>1779.7</ele>
        <time>2024-05-04T11:17:09Z</time>
      </trkpt>
      <trkpt lat="45.2526" lon="6.05119">
        <ele>1778.7</ele>
        <time>2024-05-04T11:17:11Z</time>
      </trkpt>
      <trkpt lat="45.25262" lon="6.05118">
        <ele>1777.5</ele>
        <time>2024-05-04T11:18:02Z</time>
      </trkpt>
      <trkpt lat="45.25267" lon="6.0512">
        <ele>1774</ele>
        <time>2024-05-04T11:18:08Z</time>
      </trkpt>
      <trkpt lat="45.25267" lon="6.05117">
        <ele>1774.3</ele>
        <time>2024-05-04T11:18:09Z</time>
      </trkpt>
      <trkpt lat="45.25268" lon="6.05117">
        <ele>1773.6</ele>
        <time>2024-05-04T11:18:10Z</time>
      </trkpt>
      <trkpt lat="45.25271" lon="6.0512">
        <ele>1771.3</ele>
        <time>2024-05-04T11:18:11Z</time>
      </trkpt>
      <trkpt lat="45.25274" lon="6.0513">
        <ele>1767.9</ele>
        <time>2024-05-04T11:18:13Z</time>
      </trkpt>
      <trkpt lat="45.25274" lon="6.05134">
        <ele>1767.4</ele>
        <time>2024-05-04T11:18:14Z</time>
      </trkpt>
      <trkpt lat="45.25274" lon="6.05138">
        <ele>1766.8</ele>
        <time>2024-05-04T11:18:15Z</time>
      </trkpt>
      <trkpt lat="45.25273" lon="6.05142">
        <ele>1767.8</ele>
        <time>2024-05-04T11:18:16Z</time>
      </trkpt>
      <trkpt lat="45.25274" lon="6.05145">
        <ele>1767.4</ele>
        <time>2024-05-04T11:18:17Z</time>
      </trkpt>
      <trkpt lat="45.25276" lon="6.0515">
        <ele>1766.5</ele>
        <time>2024-05-04T11:18:19Z</time>
      </trkpt>
      <trkpt lat="45.25278" lon="6.05158">
        <ele>1765.9</ele>
        <time>2024-05-04T11:18:21Z</time>
      </trkpt>
      <trkpt lat="45.25282" lon="6.05163">
        <ele>1763.6</ele>
        <time>2024-05-04T11:18:23Z</time>
      </trkpt>
      <trkpt lat="45.2529" lon="6.05159">
        <ele>1757.7</ele>
        <time>2024-05-04T11:18:25Z</time>
      </trkpt>
      <trkpt lat="45.25297" lon="6.05156">
        <ele>1752.8</ele>
        <time>2024-05-04T11:18:26Z</time>
      </trkpt>
      <trkpt lat="45.25299" lon="6.05155">
        <ele>1751.4</ele>
        <time>2024-05-04T11:18:27Z</time>
      </trkpt>
      <trkpt lat="45.25303" lon="6.05154">
        <ele>1748.7</ele>
        <time>2024-05-04T11:18:28Z</time>
      </trkpt>
      <trkpt lat="45.25304" lon="6.05154">
        <ele>1748</ele>
        <time>2024-05-04T11:18:29Z</time>
      </trkpt>
      <trkpt lat="45.25306" lon="6.05154">
        <ele>1746.7</ele>
        <time>2024-05-04T11:18:30Z</time>
      </trkpt>
      <trkpt lat="45.25305" lon="6.05152">
        <ele>1747.4</ele>
        <time>2024-05-04T11:18:31Z</time>
      </trkpt>
      <trkpt lat="45.25305" lon="6.05152">
        <ele>1747.4</ele>
        <time>2024-05-04T11:18:32Z</time>
      </trkpt>
      <trkpt lat="45.25303" lon="6.0515">
        <ele>1748.7</ele>
        <time>2024-05-04T11:18:34Z</time>
      </trkpt>
      <trkpt lat="45.25303" lon="6.0515">
        <ele>1748.7</ele>
        <time>2024-05-04T11:18:37Z</time>
      </trkpt>
      <trkpt lat="45.25305" lon="6.05147">
        <ele>1747.4</ele>
        <time>2024-05-04T11:18:43Z</time>
      </trkpt>
      <trkpt lat="45.25304" lon="6.05145">
        <ele>1748</ele>
        <time>2024-05-04T11:18:45Z</time>
      </trkpt>
      <trkpt lat="45.25306" lon="6.0514">
        <ele>1746.7</ele>
        <time>2024-05-04T11:18:47Z</time>
      </trkpt>
      <trkpt lat="45.25306" lon="6.05139">
        <ele>1746.7</ele>
        <time>2024-05-04T11:18:48Z</time>
      </trkpt>
      <trkpt lat="45.25306" lon="6.05132">
        <ele>1747.5</ele>
        <time>2024-05-04T11:18:50Z</time>
      </trkpt>
      <trkpt lat="45.25307" lon="6.05119">
        <ele>1748.2</ele>
        <time>2024-05-04T11:18:53Z</time>
      </trkpt>
      <trkpt lat="45.25309" lon="6.05116">
        <ele>1747.3</ele>
        <time>2024-05-04T11:18:54Z</time>
      </trkpt>
      <trkpt lat="45.25312" lon="6.05113">
        <ele>1745.6</ele>
        <time>2024-05-04T11:18:56Z</time>
      </trkpt>
      <trkpt lat="45.25313" lon="6.05113">
        <ele>1745</ele>
        <time>2024-05-04T11:18:58Z</time>
      </trkpt>
      <trkpt lat="45.25318" lon="6.05105">
        <ele>1743</ele>
        <time>2024-05-04T11:19:22Z</time>
      </trkpt>
      <trkpt lat="45.25325" lon="6.05097">
        <ele>1740.1</ele>
        <time>2024-05-04T11:19:26Z</time>
      </trkpt>
      <trkpt lat="45.25333" lon="6.05088">
        <ele>1737.2</ele>
        <time>2024-05-04T11:19:31Z</time>
      </trkpt>
      <trkpt lat="45.25336" lon="6.05085">
        <ele>1736.1</ele>
        <time>2024-05-04T11:19:35Z</time>
      </trkpt>
      <trkpt lat="45.25337" lon="6.05084">
        <ele>1735.7</ele>
        <time>2024-05-04T11:19:36Z</time>
      </trkpt>
      <trkpt lat="45.25337" lon="6.05079">
        <ele>1735.1</ele>
        <time>2024-05-04T11:19:38Z</time>
      </trkpt>
      <trkpt lat="45.25335" lon="6.05071">
        <ele>1734.8</ele>
        <time>2024-05-04T11:19:40Z</time>
      </trkpt>
      <trkpt lat="45.25332" lon="6.05063">
        <ele>1735.2</ele>
        <time>2024-05-04T11:19:42Z</time>
      </trkpt>
      <trkpt lat="45.25332" lon="6.05062">
        <ele>1735</ele>
        <time>2024-05-04T11:19:44Z</time>
      </trkpt>
      <trkpt lat="45.25332" lon="6.05061">
        <ele>1734.8</ele>
        <time>2024-05-04T11:19:45Z</time>
      </trkpt>
      <trkpt lat="45.25327" lon="6.05055">
        <ele>1737</ele>
        <time>2024-05-04T11:19:49Z</time>
      </trkpt>
      <trkpt lat="45.25329" lon="6.05043">
        <ele>1732.6</ele>
        <time>2024-05-04T11:19:58Z</time>
      </trkpt>
      <trkpt lat="45.25328" lon="6.05034">
        <ele>1731</ele>
        <time>2024-05-04T11:20:01Z</time>
      </trkpt>
      <trkpt lat="45.25329" lon="6.05026">
        <ele>1728.5</ele>
        <time>2024-05-04T11:20:04Z</time>
      </trkpt>
      <trkpt lat="45.25331" lon="6.05024">
        <ele>1726.8</ele>
        <time>2024-05-04T11:20:06Z</time>
      </trkpt>
      <trkpt lat="45.25334" lon="6.05026">
        <ele>1725.3</ele>
        <time>2024-05-04T11:20:08Z</time>
      </trkpt>
      <trkpt lat="45.25334" lon="6.05023">
        <ele>1724.7</ele>
        <time>2024-05-04T11:20:10Z</time>
      </trkpt>
      <trkpt lat="45.25335" lon="6.0502">
        <ele>1723.6</ele>
        <time>2024-05-04T11:20:11Z</time>
      </trkpt>
      <trkpt lat="45.25336" lon="6.05018">
        <ele>1722.6</ele>
        <time>2024-05-04T11:20:12Z</time>
      </trkpt>
      <trkpt lat="45.25337" lon="6.05017">
        <ele>1721.8</ele>
        <time>2024-05-04T11:20:13Z</time>
      </trkpt>
      <trkpt lat="45.25336" lon="6.05015">
        <ele>1722.1</ele>
        <time>2024-05-04T11:20:14Z</time>
      </trkpt>
      <trkpt lat="45.25338" lon="6.05015">
        <ele>1720.8</ele>
        <time>2024-05-04T11:20:15Z</time>
      </trkpt>
      <trkpt lat="45.2534" lon="6.05015">
        <ele>1719.6</ele>
        <time>2024-05-04T11:20:16Z</time>
      </trkpt>
      <trkpt lat="45.25342" lon="6.05012">
        <ele>1717.9</ele>
        <time>2024-05-04T11:20:18Z</time>
      </trkpt>
      <trkpt lat="45.25345" lon="6.05011">
        <ele>1715.9</ele>
        <time>2024-05-04T11:20:19Z</time>
      </trkpt>
      <trkpt lat="45.25345" lon="6.0501">
        <ele>1715.8</ele>
        <time>2024-05-04T11:20:20Z</time>
      </trkpt>
      <trkpt lat="45.25346" lon="6.05011">
        <ele>1715.3</ele>
        <time>2024-05-04T11:20:21Z</time>
      </trkpt>
      <trkpt lat="45.25346" lon="6.0501">
        <ele>1715.2</ele>
        <time>2024-05-04T11:20:23Z</time>
      </trkpt>
      <trkpt lat="45.25347" lon="6.05009">
        <ele>1714.4</ele>
        <time>2024-05-04T11:20:24Z</time>
      </trkpt>
      <trkpt lat="45.2535" lon="6.05004">
        <ele>1711.9</ele>
        <time>2024-05-04T11:20:27Z</time>
      </trkpt>
      <trkpt lat="45.25351" lon="6.05">
        <ele>1710.8</ele>
        <time>2024-05-04T11:20:28Z</time>
      </trkpt>
      <trkpt lat="45.25353" lon="6.04991">
        <ele>1708.5</ele>
        <time>2024-05-04T11:20:30Z</time>
      </trkpt>
      <trkpt lat="45.25353" lon="6.04982">
        <ele>1707.3</ele>
        <time>2024-05-04T11:20:32Z</time>
      </trkpt>
      <trkpt lat="45.25354" lon="6.04979">
        <ele>1706.4</ele>
        <time>2024-05-04T11:20:33Z</time>
      </trkpt>
      <trkpt lat="45.25353" lon="6.04977">
        <ele>1706.7</ele>
        <time>2024-05-04T11:20:34Z</time>
      </trkpt>
      <trkpt lat="45.25352" lon="6.04977">
        <ele>1707.2</ele>
        <time>2024-05-04T11:20:35Z</time>
      </trkpt>
      <trkpt lat="45.25353" lon="6.04977">
        <ele>1706.7</ele>
        <time>2024-05-04T11:20:36Z</time>
      </trkpt>
      <trkpt lat="45.25355" lon="6.04977">
        <ele>1705.7</ele>
        <time>2024-05-04T11:20:37Z</time>
      </trkpt>
      <trkpt lat="45.25358" lon="6.04976">
        <ele>1704</ele>
        <time>2024-05-04T11:20:39Z</time>
      </trkpt>
      <trkpt lat="45.25359" lon="6.04974">
        <ele>1703.3</ele>
        <time>2024-05-04T11:20:40Z</time>
      </trkpt>
      <trkpt lat="45.25361" lon="6.04968">
        <ele>1701.4</ele>
        <time>2024-05-04T11:20:42Z</time>
      </trkpt>
      <trkpt lat="45.25364" lon="6.04962">
        <ele>1699.2</ele>
        <time>2024-05-04T11:20:43Z</time>
      </trkpt>
      <trkpt lat="45.25368" lon="6.04958">
        <ele>1696.9</ele>
        <time>2024-05-04T11:20:44Z</time>
      </trkpt>
      <trkpt lat="45.2537" lon="6.04953">
        <ele>1695.3</ele>
        <time>2024-05-04T11:20:45Z</time>
      </trkpt>
      <trkpt lat="45.2537" lon="6.04948">
        <ele>1694.6</ele>
        <time>2024-05-04T11:20:46Z</time>
      </trkpt>
      <trkpt lat="45.25372" lon="6.04945">
        <ele>1693.4</ele>
        <time>2024-05-04T11:20:47Z</time>
      </trkpt>
      <trkpt lat="45.25373" lon="6.04941">
        <ele>1692.5</ele>
        <time>2024-05-04T11:20:48Z</time>
      </trkpt>
      <trkpt lat="45.25378" lon="6.04937">
        <ele>1690</ele>
        <time>2024-05-04T11:20:49Z</time>
      </trkpt>
      <trkpt lat="45.25383" lon="6.04933">
        <ele>1687.5</ele>
        <time>2024-05-04T11:20:50Z</time>
      </trkpt>
      <trkpt lat="45.25388" lon="6.04928">
        <ele>1685.2</ele>
        <time>2024-05-04T11:20:51Z</time>
      </trkpt>
      <trkpt lat="45.2539" lon="6.04925">
        <ele>1684.2</ele>
        <time>2024-05-04T11:20:52Z</time>
      </trkpt>
      <trkpt lat="45.2539" lon="6.04922">
        <ele>1684</ele>
        <time>2024-05-04T11:20:53Z</time>
      </trkpt>
      <trkpt lat="45.2539" lon="6.0492">
        <ele>1683.9</ele>
        <time>2024-05-04T11:20:54Z</time>
      </trkpt>
      <trkpt lat="45.2539" lon="6.04919">
        <ele>1683.8</ele>
        <time>2024-05-04T11:20:55Z</time>
      </trkpt>
      <trkpt lat="45.25388" lon="6.0492">
        <ele>1684.6</ele>
        <time>2024-05-04T11:20:57Z</time>
      </trkpt>
      <trkpt lat="45.25388" lon="6.0492">
        <ele>1684.6</ele>
        <time>2024-05-04T11:20:58Z</time>
      </trkpt>
      <trkpt lat="45.25388" lon="6.0492">
        <ele>1684.6</ele>
        <time>2024-05-04T11:21:00Z</time>
      </trkpt>
      <trkpt lat="45.25396" lon="6.04919">
        <ele>1681.8</ele>
        <time>2024-05-04T11:21:03Z</time>
      </trkpt>
      <trkpt lat="45.25401" lon="6.04919">
        <ele>1680.2</ele>
        <time>2024-05-04T11:21:05Z</time>
      </trkpt>
      <trkpt lat="45.254" lon="6.04914">
        <ele>1680.6</ele>
        <time>2024-05-04T11:21:07Z</time>
      </trkpt>
      <trkpt lat="45.25401" lon="6.04913">
        <ele>1680.3</ele>
        <time>2024-05-04T11:21:08Z</time>
      </trkpt>
      <trkpt lat="45.254" lon="6.04914">
        <ele>1680.6</ele>
        <time>2024-05-04T11:21:10Z</time>
      </trkpt>
      <trkpt lat="45.254" lon="6.04914">
        <ele>1680.6</ele>
        <time>2024-05-04T11:21:11Z</time>
      </trkpt>
      <trkpt lat="45.25405" lon="6.04914">
        <ele>1679</ele>
        <time>2024-05-04T11:21:14Z</time>
      </trkpt>
      <trkpt lat="45.25406" lon="6.04915">
        <ele>1678.6</ele>
        <time>2024-05-04T11:21:16Z</time>
      </trkpt>
      <trkpt lat="45.2541" lon="6.0492">
        <ele>1677.2</ele>
        <time>2024-05-04T11:21:19Z</time>
      </trkpt>
      <trkpt lat="45.25412" lon="6.04922">
        <ele>1676.6</ele>
        <time>2024-05-04T11:21:20Z</time>
      </trkpt>
      <trkpt lat="45.25417" lon="6.04931">
        <ele>1674.9</ele>
        <time>2024-05-04T11:21:22Z</time>
      </trkpt>
      <trkpt lat="45.2542" lon="6.04939">
        <ele>1673.8</ele>
        <time>2024-05-04T11:21:24Z</time>
      </trkpt>
      <trkpt lat="45.2542" lon="6.04939">
        <ele>1673.8</ele>
        <time>2024-05-04T11:21:26Z</time>
      </trkpt>
      <trkpt lat="45.2542" lon="6.04938">
        <ele>1673.9</ele>
        <time>2024-05-04T11:21:28Z</time>
      </trkpt>
      <trkpt lat="45.25425" lon="6.04949">
        <ele>1672.3</ele>
        <time>2024-05-04T11:21:36Z</time>
      </trkpt>
      <trkpt lat="45.25429" lon="6.04954">
        <ele>1671.1</ele>
        <time>2024-05-04T11:21:38Z</time>
      </trkpt>
      <trkpt lat="45.25432" lon="6.04956">
        <ele>1670</ele>
        <time>2024-05-04T11:21:40Z</time>
      </trkpt>
      <trkpt lat="45.25434" lon="6.04956">
        <ele>1669.2</ele>
        <time>2024-05-04T11:21:41Z</time>
      </trkpt>
      <trkpt lat="45.25438" lon="6.04957">
        <ele>1667.6</ele>
        <time>2024-05-04T11:21:44Z</time>
      </trkpt>
      <trkpt lat="45.25438" lon="6.04953">
        <ele>1667.5</ele>
        <time>2024-05-04T11:21:47Z</time>
      </trkpt>
      <trkpt lat="45.25441" lon="6.04951">
        <ele>1666.3</ele>
        <time>2024-05-04T11:21:58Z</time>
      </trkpt>
      <trkpt lat="45.25447" lon="6.04962">
        <ele>1664.1</ele>
        <time>2024-05-04T11:22:02Z</time>
      </trkpt>
      <trkpt lat="45.25455" lon="6.04971">
        <ele>1661.2</ele>
        <time>2024-05-04T11:22:05Z</time>
      </trkpt>
      <trkpt lat="45.25463" lon="6.04976">
        <ele>1658.5</ele>
        <time>2024-05-04T11:22:07Z</time>
      </trkpt>
      <trkpt lat="45.25466" lon="6.04974">
        <ele>1657.3</ele>
        <time>2024-05-04T11:22:08Z</time>
      </trkpt>
      <trkpt lat="45.25468" lon="6.04971">
        <ele>1656.5</ele>
        <time>2024-05-04T11:22:10Z</time>
      </trkpt>
      <trkpt lat="45.2547" lon="6.0497">
        <ele>1655.8</ele>
        <time>2024-05-04T11:22:11Z</time>
      </trkpt>
      <trkpt lat="45.25471" lon="6.04969">
        <ele>1655.4</ele>
        <time>2024-05-04T11:22:12Z</time>
      </trkpt>
      <trkpt lat="45.25471" lon="6.04968">
        <ele>1655.4</ele>
        <time>2024-05-04T11:22:14Z</time>
      </trkpt>
      <trkpt lat="45.2547" lon="6.04968">
        <ele>1655.8</ele>
        <time>2024-05-04T11:22:15Z</time>
      </trkpt>
      <trkpt lat="45.25469" lon="6.04968">
        <ele>1656.2</ele>
        <time>2024-05-04T11:22:17Z</time>
      </trkpt>
      <trkpt lat="45.25469" lon="6.04968">
        <ele>1656.2</ele>
        <time>2024-05-04T11:22:21Z</time>
      </trkpt>
      <trkpt lat="45.2547" lon="6.04968">
        <ele>1655.8</ele>
        <time>2024-05-04T11:22:23Z</time>
      </trkpt>
      <trkpt lat="45.25471" lon="6.0497">
        <ele>1655.4</ele>
        <time>2024-05-04T11:22:26Z</time>
      </trkpt>
      <trkpt lat="45.25472" lon="6.0497">
        <ele>1655.1</ele>
        <time>2024-05-04T11:22:29Z</time>
      </trkpt>
      <trkpt lat="45.25472" lon="6.04969">
        <ele>1655.1</ele>
        <time>2024-05-04T11:22:31Z</time>
      </trkpt>
      <trkpt lat="45.25474" lon="6.0497">
        <ele>1654.4</ele>
        <time>2024-05-04T11:22:53Z</time>
      </trkpt>
      <trkpt lat="45.25475" lon="6.04966">
        <ele>1654</ele>
        <time>2024-05-04T11:23:48Z</time>
      </trkpt>
      <trkpt lat="45.25469" lon="6.04971">
        <ele>1656.2</ele>
        <time>2024-05-04T11:23:55Z</time>
      </trkpt>
      <trkpt lat="45.25465" lon="6.04974">
        <ele>1657.7</ele>
        <time>2024-05-04T11:23:57Z</time>
      </trkpt>
      <trkpt lat="45.25468" lon="6.04973">
        <ele>1656.6</ele>
        <time>2024-05-04T11:24:00Z</time>
      </trkpt>
      <trkpt lat="45.2547" lon="6.04972">
        <ele>1655.8</ele>
        <time>2024-05-04T11:24:02Z</time>
      </trkpt>
      <trkpt lat="45.25472" lon="6.04969">
        <ele>1655.1</ele>
        <time>2024-05-04T11:24:10Z</time>
      </trkpt>
      <trkpt lat="45.25472" lon="6.04969">
        <ele>1655.1</ele>
        <time>2024-05-04T11:24:12Z</time>
      </trkpt>
      <trkpt lat="45.25475" lon="6.04974">
        <ele>1654.1</ele>
        <time>2024-05-04T11:24:18Z</time>
      </trkpt>
      <trkpt lat="45.25472" lon="6.04973">
        <ele>1655.1</ele>
        <time>2024-05-04T11:24:21Z</time>
      </trkpt>
      <trkpt lat="45.25472" lon="6.04974">
        <ele>1655.1</ele>
        <time>2024-05-04T11:24:26Z</time>
      </trkpt>
      <trkpt lat="45.25472" lon="6.04973">
        <ele>1655.1</ele>
        <time>2024-05-04T11:24:28Z</time>
      </trkpt>
      <trkpt lat="45.25471" lon="6.04974">
        <ele>1655.5</ele>
        <time>2024-05-04T11:24:30Z</time>
      </trkpt>
      <trkpt lat="45.25472" lon="6.04973">
        <ele>1655.1</ele>
        <time>2024-05-04T11:24:34Z</time>
      </trkpt>
      <trkpt lat="45.25473" lon="6.04973">
        <ele>1654.7</ele>
        <time>2024-05-04T11:24:36Z</time>
      </trkpt>
      <trkpt lat="45.25471" lon="6.0497">
        <ele>1655.4</ele>
        <time>2024-05-04T11:24:47Z</time>
      </trkpt>
      <trkpt lat="45.25471" lon="6.04969">
        <ele>1655.4</ele>
        <time>2024-05-04T11:24:49Z</time>
      </trkpt>
      <trkpt lat="45.25474" lon="6.0497">
        <ele>1654.4</ele>
        <time>2024-05-04T11:24:52Z</time>
      </trkpt>
      <trkpt lat="45.2547" lon="6.04969">
        <ele>1655.8</ele>
        <time>2024-05-04T11:24:56Z</time>
      </trkpt>
      <trkpt lat="45.25471" lon="6.04968">
        <ele>1655.4</ele>
        <time>2024-05-04T11:25:02Z</time>
      </trkpt>
      <trkpt lat="45.25473" lon="6.04968">
        <ele>1654.7</ele>
        <time>2024-05-04T11:25:05Z</time>
      </trkpt>
      <trkpt lat="45.25474" lon="6.04969">
        <ele>1654.4</ele>
        <time>2024-05-04T11:25:07Z</time>
      </trkpt>
      <trkpt lat="45.25474" lon="6.04969">
        <ele>1654.4</ele>
        <time>2024-05-04T11:25:09Z</time>
      </trkpt>
      <trkpt lat="45.25472" lon="6.04969">
        <ele>1655.1</ele>
        <time>2024-05-04T11:25:18Z</time>
      </trkpt>
      <trkpt lat="45.25473" lon="6.04972">
        <ele>1654.7</ele>
        <time>2024-05-04T11:25:21Z</time>
      </trkpt>
      <trkpt lat="45.25474" lon="6.04973">
        <ele>1654.4</ele>
        <time>2024-05-04T11:25:24Z</time>
      </trkpt>
      <trkpt lat="45.25473" lon="6.04971">
        <ele>1654.7</ele>
        <time>2024-05-04T11:25:30Z</time>
      </trkpt>
      <trkpt lat="45.25471" lon="6.04969">
        <ele>1655.4</ele>
        <time>2024-05-04T11:25:35Z</time>
      </trkpt>
      <trkpt lat="45.25474" lon="6.04969">
        <ele>1654.4</ele>
        <time>2024-05-04T11:25:37Z</time>
      </trkpt>
      <trkpt lat="45.25474" lon="6.04969">
        <ele>1654.4</ele>
        <time>2024-05-04T11:25:43Z</time>
      </trkpt>
      <trkpt lat="45.25475" lon="6.04969">
        <ele>1654</ele>
        <time>2024-05-04T11:25:45Z</time>
      </trkpt>
      <trkpt lat="45.25474" lon="6.0497">
        <ele>1654.4</ele>
        <time>2024-05-04T11:25:50Z</time>
      </trkpt>
      <trkpt lat="45.25472" lon="6.04972">
        <ele>1655.1</ele>
        <time>2024-05-04T11:26:03Z</time>
      </trkpt>
      <trkpt lat="45.25479" lon="6.04965">
        <ele>1652.6</ele>
        <time>2024-05-04T11:26:31Z</time>
      </trkpt>
      <trkpt lat="45.25479" lon="6.04977">
        <ele>1652.8</ele>
        <time>2024-05-04T11:27:16Z</time>
      </trkpt>
      <trkpt lat="45.25468" lon="6.04967">
        <ele>1656.5</ele>
        <time>2024-05-04T11:27:59Z</time>
      </trkpt>
      <trkpt lat="45.25469" lon="6.04967">
        <ele>1656.2</ele>
        <time>2024-05-04T11:28:00Z</time>
      </trkpt>
      <trkpt lat="45.25469" lon="6.04969">
        <ele>1656.2</ele>
        <time>2024-05-04T11:28:47Z</time>
      </trkpt>
      <trkpt lat="45.25466" lon="6.04963">
        <ele>1657.2</ele>
        <time>2024-05-04T11:28:55Z</time>
      </trkpt>
      <trkpt lat="45.25469" lon="6.04964">
        <ele>1656.2</ele>
        <time>2024-05-04T11:28:58Z</time>
      </trkpt>
      <trkpt lat="45.25473" lon="6.04974">
        <ele>1654.8</ele>
        <time>2024-05-04T11:29:17Z</time>
      </trkpt>
      <trkpt lat="45.25471" lon="6.04972">
        <ele>1655.4</ele>
        <time>2024-05-04T11:30:47Z</time>
      </trkpt>
      <trkpt lat="45.2547" lon="6.04971">
        <ele>1655.8</ele>
        <time>2024-05-04T11:30:49Z</time>
      </trkpt>
      <trkpt lat="45.2547" lon="6.04971">
        <ele>1655.8</ele>
        <time>2024-05-04T11:30:50Z</time>
      </trkpt>
      <trkpt lat="45.2547" lon="6.0497">
        <ele>1655.8</ele>
        <time>2024-05-04T11:30:51Z</time>
      </trkpt>
      <trkpt lat="45.25474" lon="6.04967">
        <ele>1654.4</ele>
        <time>2024-05-04T11:31:00Z</time>
      </trkpt>
      <trkpt lat="45.25478" lon="6.04968">
        <ele>1653</ele>
        <time>2024-05-04T11:31:20Z</time>
      </trkpt>
      <trkpt lat="45.25479" lon="6.04967">
        <ele>1652.6</ele>
        <time>2024-05-04T11:31:22Z</time>
      </trkpt>
      <trkpt lat="45.2548" lon="6.04973">
        <ele>1652.2</ele>
        <time>2024-05-04T11:31:40Z</time>
      </trkpt>
      <trkpt lat="45.25479" lon="6.04962">
        <ele>1652.6</ele>
        <time>2024-05-04T11:31:59Z</time>
      </trkpt>
      <trkpt lat="45.25478" lon="6.04958">
        <ele>1653</ele>
        <time>2024-05-04T11:32:03Z</time>
      </trkpt>
      <trkpt lat="45.25483" lon="6.04948">
        <ele>1651.5</ele>
        <time>2024-05-04T11:32:18Z</time>
      </trkpt>
      <trkpt lat="45.25489" lon="6.04948">
        <ele>1649.5</ele>
        <time>2024-05-04T11:32:32Z</time>
      </trkpt>
      <trkpt lat="45.25496" lon="6.04945">
        <ele>1647.3</ele>
        <time>2024-05-04T11:32:41Z</time>
      </trkpt>
      <trkpt lat="45.25498" lon="6.04938">
        <ele>1647.3</ele>
        <time>2024-05-04T11:32:47Z</time>
      </trkpt>
      <trkpt lat="45.25494" lon="6.04932">
        <ele>1649.3</ele>
        <time>2024-05-04T11:32:51Z</time>
      </trkpt>
      <trkpt lat="45.25494" lon="6.04931">
        <ele>1649.4</ele>
        <time>2024-05-04T11:32:53Z</time>
      </trkpt>
      <trkpt lat="45.25495" lon="6.0493">
        <ele>1649.2</ele>
        <time>2024-05-04T11:32:55Z</time>
      </trkpt>
      <trkpt lat="45.25492" lon="6.04925">
        <ele>1650.7</ele>
        <time>2024-05-04T11:33:00Z</time>
      </trkpt>
      <trkpt lat="45.25491" lon="6.04916">
        <ele>1652</ele>
        <time>2024-05-04T11:33:05Z</time>
      </trkpt>
      <trkpt lat="45.25491" lon="6.04913">
        <ele>1652.2</ele>
        <time>2024-05-04T11:33:08Z</time>
      </trkpt>
      <trkpt lat="45.25491" lon="6.0491">
        <ele>1652.4</ele>
        <time>2024-05-04T11:33:12Z</time>
      </trkpt>
      <trkpt lat="45.25492" lon="6.04908">
        <ele>1652.2</ele>
        <time>2024-05-04T11:33:15Z</time>
      </trkpt>
      <trkpt lat="45.25494" lon="6.04907">
        <ele>1651.6</ele>
        <time>2024-05-04T11:33:17Z</time>
      </trkpt>
      <trkpt lat="45.25496" lon="6.049">
        <ele>1651.5</ele>
        <time>2024-05-04T11:33:24Z</time>
      </trkpt>
      <trkpt lat="45.25496" lon="6.04898">
        <ele>1651.6</ele>
        <time>2024-05-04T11:33:26Z</time>
      </trkpt>
      <trkpt lat="45.25495" lon="6.04894">
        <ele>1652.3</ele>
        <time>2024-05-04T11:33:29Z</time>
      </trkpt>
      <trkpt lat="45.25495" lon="6.0489">
        <ele>1652.5</ele>
        <time>2024-05-04T11:33:32Z</time>
      </trkpt>
      <trkpt lat="45.25495" lon="6.04887">
        <ele>1652.9</ele>
        <time>2024-05-04T11:33:35Z</time>
      </trkpt>
      <trkpt lat="45.25496" lon="6.04886">
        <ele>1652.7</ele>
        <time>2024-05-04T11:33:37Z</time>
      </trkpt>
      <trkpt lat="45.25497" lon="6.04881">
        <ele>1653.1</ele>
        <time>2024-05-04T11:33:40Z</time>
      </trkpt>
      <trkpt lat="45.25497" lon="6.0488">
        <ele>1653.3</ele>
        <time>2024-05-04T11:33:41Z</time>
      </trkpt>
      <trkpt lat="45.25499" lon="6.04877">
        <ele>1653</ele>
        <time>2024-05-04T11:33:44Z</time>
      </trkpt>
      <trkpt lat="45.25502" lon="6.04873">
        <ele>1652.9</ele>
        <time>2024-05-04T11:33:48Z</time>
      </trkpt>
      <trkpt lat="45.25504" lon="6.04872">
        <ele>1652.6</ele>
        <time>2024-05-04T11:33:50Z</time>
      </trkpt>
      <trkpt lat="45.25506" lon="6.04871">
        <ele>1652.3</ele>
        <time>2024-05-04T11:33:52Z</time>
      </trkpt>
      <trkpt lat="45.25512" lon="6.04865">
        <ele>1652.2</ele>
        <time>2024-05-04T11:33:57Z</time>
      </trkpt>
      <trkpt lat="45.25516" lon="6.04851">
        <ele>1654.5</ele>
        <time>2024-05-04T11:34:09Z</time>
      </trkpt>
      <trkpt lat="45.25517" lon="6.0485">
        <ele>1654.5</ele>
        <time>2024-05-04T11:34:11Z</time>
      </trkpt>
      <trkpt lat="45.25521" lon="6.0485">
        <ele>1653.7</ele>
        <time>2024-05-04T11:34:15Z</time>
      </trkpt>
      <trkpt lat="45.25523" lon="6.04848">
        <ele>1653.8</ele>
        <time>2024-05-04T11:34:18Z</time>
      </trkpt>
      <trkpt lat="45.25524" lon="6.04847">
        <ele>1653.8</ele>
        <time>2024-05-04T11:34:19Z</time>
      </trkpt>
      <trkpt lat="45.25526" lon="6.04845">
        <ele>1653.8</ele>
        <time>2024-05-04T11:34:23Z</time>
      </trkpt>
      <trkpt lat="45.25528" lon="6.04841">
        <ele>1654.3</ele>
        <time>2024-05-04T11:34:26Z</time>
      </trkpt>
      <trkpt lat="45.25528" lon="6.04839">
        <ele>1654.7</ele>
        <time>2024-05-04T11:34:28Z</time>
      </trkpt>
      <trkpt lat="45.25531" lon="6.04838">
        <ele>1653.7</ele>
        <time>2024-05-04T11:34:31Z</time>
      </trkpt>
      <trkpt lat="45.25533" lon="6.04839">
        <ele>1652.7</ele>
        <time>2024-05-04T11:34:34Z</time>
      </trkpt>
      <trkpt lat="45.25534" lon="6.04837">
        <ele>1652.8</ele>
        <time>2024-05-04T11:34:36Z</time>
      </trkpt>
      <trkpt lat="45.25535" lon="6.04836">
        <ele>1652.6</ele>
        <time>2024-05-04T11:34:38Z</time>
      </trkpt>
      <trkpt lat="45.25533" lon="6.04828">
        <ele>1654.5</ele>
        <time>2024-05-04T11:34:45Z</time>
      </trkpt>
      <trkpt lat="45.25532" lon="6.04825">
        <ele>1655.2</ele>
        <time>2024-05-04T11:34:47Z</time>
      </trkpt>
      <trkpt lat="45.25532" lon="6.04816">
        <ele>1656.1</ele>
        <time>2024-05-04T11:34:54Z</time>
      </trkpt>
      <trkpt lat="45.25531" lon="6.04808">
        <ele>1657.2</ele>
        <time>2024-05-04T11:35:00Z</time>
      </trkpt>
      <trkpt lat="45.25529" lon="6.04803">
        <ele>1657.8</ele>
        <time>2024-05-04T11:35:04Z</time>
      </trkpt>
      <trkpt lat="45.25527" lon="6.04785">
        <ele>1658.4</ele>
        <time>2024-05-04T11:35:20Z</time>
      </trkpt>
      <trkpt lat="45.25526" lon="6.04784">
        <ele>1659</ele>
        <time>2024-05-04T11:35:22Z</time>
      </trkpt>
      <trkpt lat="45.25526" lon="6.04782">
        <ele>1659</ele>
        <time>2024-05-04T11:35:24Z</time>
      </trkpt>
      <trkpt lat="45.25527" lon="6.04781">
        <ele>1658.4</ele>
        <time>2024-05-04T11:35:26Z</time>
      </trkpt>
      <trkpt lat="45.25528" lon="6.0478">
        <ele>1658</ele>
        <time>2024-05-04T11:35:28Z</time>
      </trkpt>
      <trkpt lat="45.25529" lon="6.04778">
        <ele>1658.2</ele>
        <time>2024-05-04T11:35:31Z</time>
      </trkpt>
      <trkpt lat="45.25532" lon="6.04778">
        <ele>1658.6</ele>
        <time>2024-05-04T11:35:35Z</time>
      </trkpt>
      <trkpt lat="45.25536" lon="6.04781">
        <ele>1658.9</ele>
        <time>2024-05-04T11:35:40Z</time>
      </trkpt>
      <trkpt lat="45.25536" lon="6.04782">
        <ele>1658.8</ele>
        <time>2024-05-04T11:35:42Z</time>
      </trkpt>
      <trkpt lat="45.25545" lon="6.04791">
        <ele>1657.8</ele>
        <time>2024-05-04T11:35:57Z</time>
      </trkpt>
      <trkpt lat="45.25546" lon="6.0479">
        <ele>1658</ele>
        <time>2024-05-04T11:35:59Z</time>
      </trkpt>
      <trkpt lat="45.2555" lon="6.04789">
        <ele>1658.3</ele>
        <time>2024-05-04T11:36:03Z</time>
      </trkpt>
      <trkpt lat="45.25554" lon="6.04792">
        <ele>1657.4</ele>
        <time>2024-05-04T11:36:06Z</time>
      </trkpt>
      <trkpt lat="45.25555" lon="6.04793">
        <ele>1657.1</ele>
        <time>2024-05-04T11:36:07Z</time>
      </trkpt>
      <trkpt lat="45.25558" lon="6.04796">
        <ele>1656.4</ele>
        <time>2024-05-04T11:36:11Z</time>
      </trkpt>
      <trkpt lat="45.25559" lon="6.04798">
        <ele>1655.9</ele>
        <time>2024-05-04T11:36:14Z</time>
      </trkpt>
      <trkpt lat="45.2556" lon="6.04798">
        <ele>1656</ele>
        <time>2024-05-04T11:36:15Z</time>
      </trkpt>
      <trkpt lat="45.25561" lon="6.04798">
        <ele>1656.2</ele>
        <time>2024-05-04T11:36:16Z</time>
      </trkpt>
      <trkpt lat="45.25563" lon="6.04799">
        <ele>1656.1</ele>
        <time>2024-05-04T11:36:19Z</time>
      </trkpt>
      <trkpt lat="45.25564" lon="6.04799">
        <ele>1656.3</ele>
        <time>2024-05-04T11:36:20Z</time>
      </trkpt>
      <trkpt lat="45.25564" lon="6.04799">
        <ele>1656.3</ele>
        <time>2024-05-04T11:36:21Z</time>
      </trkpt>
      <trkpt lat="45.25566" lon="6.04797">
        <ele>1657.1</ele>
        <time>2024-05-04T11:36:23Z</time>
      </trkpt>
      <trkpt lat="45.25569" lon="6.04795">
        <ele>1657.9</ele>
        <time>2024-05-04T11:36:25Z</time>
      </trkpt>
      <trkpt lat="45.2557" lon="6.04795">
        <ele>1658</ele>
        <time>2024-05-04T11:36:26Z</time>
      </trkpt>
      <trkpt lat="45.25576" lon="6.04792">
        <ele>1659.3</ele>
        <time>2024-05-04T11:36:31Z</time>
      </trkpt>
      <trkpt lat="45.25583" lon="6.04786">
        <ele>1660.8</ele>
        <time>2024-05-04T11:36:43Z</time>
      </trkpt>
      <trkpt lat="45.25586" lon="6.04787">
        <ele>1660.4</ele>
        <time>2024-05-04T11:36:47Z</time>
      </trkpt>
      <trkpt lat="45.25586" lon="6.04787">
        <ele>1660.4</ele>
        <time>2024-05-04T11:36:48Z</time>
      </trkpt>
      <trkpt lat="45.25587" lon="6.04784">
        <ele>1660.7</ele>
        <time>2024-05-04T11:36:50Z</time>
      </trkpt>
      <trkpt lat="45.25589" lon="6.0478">
        <ele>1661.1</ele>
        <time>2024-05-04T11:36:54Z</time>
      </trkpt>
      <trkpt lat="45.25596" lon="6.04778">
        <ele>1660.6</ele>
        <time>2024-05-04T11:37:01Z</time>
      </trkpt>
      <trkpt lat="45.25603" lon="6.04773">
        <ele>1660.7</ele>
        <time>2024-05-04T11:37:09Z</time>
      </trkpt>
      <trkpt lat="45.25607" lon="6.04771">
        <ele>1660.7</ele>
        <time>2024-05-04T11:37:14Z</time>
      </trkpt>
      <trkpt lat="45.25609" lon="6.0477">
        <ele>1660.6</ele>
        <time>2024-05-04T11:37:16Z</time>
      </trkpt>
      <trkpt lat="45.25611" lon="6.04769">
        <ele>1660.6</ele>
        <time>2024-05-04T11:37:19Z</time>
      </trkpt>
      <trkpt lat="45.25614" lon="6.04767">
        <ele>1660.9</ele>
        <time>2024-05-04T11:37:21Z</time>
      </trkpt>
      <trkpt lat="45.25617" lon="6.04761">
        <ele>1662.2</ele>
        <time>2024-05-04T11:37:26Z</time>
      </trkpt>
      <trkpt lat="45.25626" lon="6.0476">
        <ele>1662.8</ele>
        <time>2024-05-04T11:37:34Z</time>
      </trkpt>
      <trkpt lat="45.2563" lon="6.04758">
        <ele>1663.6</ele>
        <time>2024-05-04T11:37:38Z</time>
      </trkpt>
      <trkpt lat="45.25633" lon="6.0476">
        <ele>1663.1</ele>
        <time>2024-05-04T11:37:41Z</time>
      </trkpt>
      <trkpt lat="45.25636" lon="6.04764">
        <ele>1661.9</ele>
        <time>2024-05-04T11:37:45Z</time>
      </trkpt>
      <trkpt lat="45.25641" lon="6.04766">
        <ele>1661.5</ele>
        <time>2024-05-04T11:37:49Z</time>
      </trkpt>
      <trkpt lat="45.25644" lon="6.04769">
        <ele>1660.8</ele>
        <time>2024-05-04T11:37:54Z</time>
      </trkpt>
      <trkpt lat="45.25659" lon="6.04774">
        <ele>1660.7</ele>
        <time>2024-05-04T11:38:09Z</time>
      </trkpt>
      <trkpt lat="45.25661" lon="6.04774">
        <ele>1661</ele>
        <time>2024-05-04T11:38:12Z</time>
      </trkpt>
      <trkpt lat="45.25665" lon="6.04776">
        <ele>1660.6</ele>
        <time>2024-05-04T11:38:15Z</time>
      </trkpt>
      <trkpt lat="45.25668" lon="6.04779">
        <ele>1659.8</ele>
        <time>2024-05-04T11:38:19Z</time>
      </trkpt>
      <trkpt lat="45.2567" lon="6.04779">
        <ele>1660.1</ele>
        <time>2024-05-04T11:38:22Z</time>
      </trkpt>
      <trkpt lat="45.25674" lon="6.04785">
        <ele>1658.7</ele>
        <time>2024-05-04T11:38:28Z</time>
      </trkpt>
      <trkpt lat="45.25677" lon="6.04787">
        <ele>1658.3</ele>
        <time>2024-05-04T11:38:32Z</time>
      </trkpt>
      <trkpt lat="45.2568" lon="6.04787">
        <ele>1658.6</ele>
        <time>2024-05-04T11:38:35Z</time>
      </trkpt>
      <trkpt lat="45.25691" lon="6.04795">
        <ele>1656.4</ele>
        <time>2024-05-04T11:38:46Z</time>
      </trkpt>
      <trkpt lat="45.25693" lon="6.04797">
        <ele>1655.6</ele>
        <time>2024-05-04T11:38:48Z</time>
      </trkpt>
      <trkpt lat="45.25695" lon="6.04799">
        <ele>1654.8</ele>
        <time>2024-05-04T11:38:51Z</time>
      </trkpt>
      <trkpt lat="45.25703" lon="6.04797">
        <ele>1655.3</ele>
        <time>2024-05-04T11:39:00Z</time>
      </trkpt>
      <trkpt lat="45.25706" lon="6.04794">
        <ele>1656.4</ele>
        <time>2024-05-04T11:39:02Z</time>
      </trkpt>
      <trkpt lat="45.25713" lon="6.04797">
        <ele>1654.8</ele>
        <time>2024-05-04T11:39:06Z</time>
      </trkpt>
      <trkpt lat="45.25715" lon="6.04795">
        <ele>1655.5</ele>
        <time>2024-05-04T11:39:09Z</time>
      </trkpt>
      <trkpt lat="45.25719" lon="6.04794">
        <ele>1655.7</ele>
        <time>2024-05-04T11:39:12Z</time>
      </trkpt>
      <trkpt lat="45.25726" lon="6.04791">
        <ele>1656.2</ele>
        <time>2024-05-04T11:39:18Z</time>
      </trkpt>
      <trkpt lat="45.25728" lon="6.0479">
        <ele>1656.3</ele>
        <time>2024-05-04T11:39:21Z</time>
      </trkpt>
      <trkpt lat="45.25729" lon="6.04787">
        <ele>1657.4</ele>
        <time>2024-05-04T11:39:23Z</time>
      </trkpt>
      <trkpt lat="45.25742" lon="6.0478">
        <ele>1658.3</ele>
        <time>2024-05-04T11:39:33Z</time>
      </trkpt>
      <trkpt lat="45.25745" lon="6.04778">
        <ele>1658.6</ele>
        <time>2024-05-04T11:39:37Z</time>
      </trkpt>
      <trkpt lat="45.25747" lon="6.04778">
        <ele>1658.3</ele>
        <time>2024-05-04T11:39:39Z</time>
      </trkpt>
      <trkpt lat="45.2575" lon="6.04779">
        <ele>1657.5</ele>
        <time>2024-05-04T11:39:42Z</time>
      </trkpt>
      <trkpt lat="45.25757" lon="6.04779">
        <ele>1657.5</ele>
        <time>2024-05-04T11:39:48Z</time>
      </trkpt>
      <trkpt lat="45.2576" lon="6.0478">
        <ele>1657.1</ele>
        <time>2024-05-04T11:39:50Z</time>
      </trkpt>
      <trkpt lat="45.25764" lon="6.04783">
        <ele>1655.9</ele>
        <time>2024-05-04T11:39:53Z</time>
      </trkpt>
      <trkpt lat="45.25765" lon="6.04784">
        <ele>1655.5</ele>
        <time>2024-05-04T11:39:54Z</time>
      </trkpt>
      <trkpt lat="45.25766" lon="6.04785">
        <ele>1655.1</ele>
        <time>2024-05-04T11:39:56Z</time>
      </trkpt>
      <trkpt lat="45.25767" lon="6.04785">
        <ele>1655.1</ele>
        <time>2024-05-04T11:39:58Z</time>
      </trkpt>
      <trkpt lat="45.2577" lon="6.04786">
        <ele>1654.7</ele>
        <time>2024-05-04T11:40:00Z</time>
      </trkpt>
      <trkpt lat="45.25775" lon="6.04786">
        <ele>1654.7</ele>
        <time>2024-05-04T11:40:03Z</time>
      </trkpt>
      <trkpt lat="45.25777" lon="6.04786">
        <ele>1654.7</ele>
        <time>2024-05-04T11:40:05Z</time>
      </trkpt>
      <trkpt lat="45.25785" lon="6.04788">
        <ele>1654.2</ele>
        <time>2024-05-04T11:40:12Z</time>
      </trkpt>
      <trkpt lat="45.25787" lon="6.04788">
        <ele>1654.3</ele>
        <time>2024-05-04T11:40:14Z</time>
      </trkpt>
      <trkpt lat="45.25795" lon="6.04786">
        <ele>1655.4</ele>
        <time>2024-05-04T11:40:20Z</time>
      </trkpt>
      <trkpt lat="45.25798" lon="6.04786">
        <ele>1655.5</ele>
        <time>2024-05-04T11:40:23Z</time>
      </trkpt>
      <trkpt lat="45.25802" lon="6.04791">
        <ele>1653.6</ele>
        <time>2024-05-04T11:40:27Z</time>
      </trkpt>
      <trkpt lat="45.25805" lon="6.04793">
        <ele>1653</ele>
        <time>2024-05-04T11:40:29Z</time>
      </trkpt>
      <trkpt lat="45.25806" lon="6.04793">
        <ele>1653</ele>
        <time>2024-05-04T11:40:31Z</time>
      </trkpt>
      <trkpt lat="45.25809" lon="6.04792">
        <ele>1653.4</ele>
        <time>2024-05-04T11:40:34Z</time>
      </trkpt>
      <trkpt lat="45.25815" lon="6.04793">
        <ele>1653.1</ele>
        <time>2024-05-04T11:40:38Z</time>
      </trkpt>
      <trkpt lat="45.25819" lon="6.04792">
        <ele>1653.6</ele>
        <time>2024-05-04T11:40:42Z</time>
      </trkpt>
      <trkpt lat="45.25819" lon="6.04792">
        <ele>1653.6</ele>
        <time>2024-05-04T11:40:43Z</time>
      </trkpt>
      <trkpt lat="45.2582" lon="6.04793">
        <ele>1653.2</ele>
        <time>2024-05-04T11:40:44Z</time>
      </trkpt>
      <trkpt lat="45.25825" lon="6.04796">
        <ele>1652</ele>
        <time>2024-05-04T11:40:49Z</time>
      </trkpt>
      <trkpt lat="45.25829" lon="6.04797">
        <ele>1651.6</ele>
        <time>2024-05-04T11:40:52Z</time>
      </trkpt>
      <trkpt lat="45.2583" lon="6.04796">
        <ele>1652.1</ele>
        <time>2024-05-04T11:40:53Z</time>
      </trkpt>
      <trkpt lat="45.25831" lon="6.04796">
        <ele>1652.1</ele>
        <time>2024-05-04T11:40:54Z</time>
      </trkpt>
      <trkpt lat="45.25835" lon="6.04798">
        <ele>1651</ele>
        <time>2024-05-04T11:40:59Z</time>
      </trkpt>
      <trkpt lat="45.25839" lon="6.04799">
        <ele>1649.9</ele>
        <time>2024-05-04T11:41:02Z</time>
      </trkpt>
      <trkpt lat="45.25841" lon="6.04799">
        <ele>1649.5</ele>
        <time>2024-05-04T11:41:04Z</time>
      </trkpt>
      <trkpt lat="45.25844" lon="6.048">
        <ele>1648.6</ele>
        <time>2024-05-04T11:41:07Z</time>
      </trkpt>
      <trkpt lat="45.25846" lon="6.048">
        <ele>1648.2</ele>
        <time>2024-05-04T11:41:10Z</time>
      </trkpt>
      <trkpt lat="45.25854" lon="6.04795">
        <ele>1649.1</ele>
        <time>2024-05-04T11:41:18Z</time>
      </trkpt>
      <trkpt lat="45.25856" lon="6.04794">
        <ele>1649.3</ele>
        <time>2024-05-04T11:41:20Z</time>
      </trkpt>
      <trkpt lat="45.25863" lon="6.04787">
        <ele>1651.4</ele>
        <time>2024-05-04T11:41:28Z</time>
      </trkpt>
      <trkpt lat="45.25866" lon="6.04785">
        <ele>1651.9</ele>
        <time>2024-05-04T11:41:30Z</time>
      </trkpt>
      <trkpt lat="45.25874" lon="6.04783">
        <ele>1651.7</ele>
        <time>2024-05-04T11:41:37Z</time>
      </trkpt>
      <trkpt lat="45.25877" lon="6.04783">
        <ele>1651.3</ele>
        <time>2024-05-04T11:41:39Z</time>
      </trkpt>
      <trkpt lat="45.25887" lon="6.04789">
        <ele>1647</ele>
        <time>2024-05-04T11:41:48Z</time>
      </trkpt>
      <trkpt lat="45.25888" lon="6.04789">
        <ele>1646.9</ele>
        <time>2024-05-04T11:41:49Z</time>
      </trkpt>
      <trkpt lat="45.25896" lon="6.04792">
        <ele>1645.1</ele>
        <time>2024-05-04T11:41:57Z</time>
      </trkpt>
      <trkpt lat="45.25897" lon="6.04793">
        <ele>1644.6</ele>
        <time>2024-05-04T11:41:59Z</time>
      </trkpt>
      <trkpt lat="45.259" lon="6.04793">
        <ele>1644.5</ele>
        <time>2024-05-04T11:42:02Z</time>
      </trkpt>
      <trkpt lat="45.25904" lon="6.04792">
        <ele>1644.8</ele>
        <time>2024-05-04T11:42:08Z</time>
      </trkpt>
      <trkpt lat="45.25913" lon="6.04791">
        <ele>1644.9</ele>
        <time>2024-05-04T11:42:13Z</time>
      </trkpt>
      <trkpt lat="45.25918" lon="6.04791">
        <ele>1645</ele>
        <time>2024-05-04T11:42:16Z</time>
      </trkpt>
      <trkpt lat="45.2592" lon="6.04793">
        <ele>1644.2</ele>
        <time>2024-05-04T11:42:18Z</time>
      </trkpt>
      <trkpt lat="45.25927" lon="6.048">
        <ele>1641.7</ele>
        <time>2024-05-04T11:42:27Z</time>
      </trkpt>
      <trkpt lat="45.2593" lon="6.04802">
        <ele>1641.1</ele>
        <time>2024-05-04T11:42:30Z</time>
      </trkpt>
      <trkpt lat="45.25934" lon="6.04805">
        <ele>1640.1</ele>
        <time>2024-05-04T11:42:33Z</time>
      </trkpt>
      <trkpt lat="45.25936" lon="6.04806">
        <ele>1639.9</ele>
        <time>2024-05-04T11:42:35Z</time>
      </trkpt>
      <trkpt lat="45.25938" lon="6.04807">
        <ele>1639.7</ele>
        <time>2024-05-04T11:42:37Z</time>
      </trkpt>
      <trkpt lat="45.2594" lon="6.04809">
        <ele>1639</ele>
        <time>2024-05-04T11:42:39Z</time>
      </trkpt>
      <trkpt lat="45.25942" lon="6.0481">
        <ele>1638.8</ele>
        <time>2024-05-04T11:42:41Z</time>
      </trkpt>
      <trkpt lat="45.25951" lon="6.04817">
        <ele>1637.3</ele>
        <time>2024-05-04T11:42:49Z</time>
      </trkpt>
      <trkpt lat="45.25951" lon="6.04818">
        <ele>1636.9</ele>
        <time>2024-05-04T11:42:50Z</time>
      </trkpt>
      <trkpt lat="45.25956" lon="6.04819">
        <ele>1637.5</ele>
        <time>2024-05-04T11:42:57Z</time>
      </trkpt>
      <trkpt lat="45.25961" lon="6.04825">
        <ele>1636</ele>
        <time>2024-05-04T11:43:03Z</time>
      </trkpt>
      <trkpt lat="45.25965" lon="6.04828">
        <ele>1635.6</ele>
        <time>2024-05-04T11:43:06Z</time>
      </trkpt>
      <trkpt lat="45.25966" lon="6.04829">
        <ele>1635.4</ele>
        <time>2024-05-04T11:43:07Z</time>
      </trkpt>
      <trkpt lat="45.25968" lon="6.0483">
        <ele>1635.4</ele>
        <time>2024-05-04T11:43:09Z</time>
      </trkpt>
      <trkpt lat="45.25979" lon="6.04838">
        <ele>1633.6</ele>
        <time>2024-05-04T11:43:21Z</time>
      </trkpt>
      <trkpt lat="45.25992" lon="6.04845">
        <ele>1631.8</ele>
        <time>2024-05-04T11:43:33Z</time>
      </trkpt>
      <trkpt lat="45.25993" lon="6.04845">
        <ele>1631.9</ele>
        <time>2024-05-04T11:43:34Z</time>
      </trkpt>
      <trkpt lat="45.25994" lon="6.04846">
        <ele>1631.6</ele>
        <time>2024-05-04T11:43:35Z</time>
      </trkpt>
      <trkpt lat="45.26005" lon="6.04849">
        <ele>1629.6</ele>
        <time>2024-05-04T11:43:47Z</time>
      </trkpt>
      <trkpt lat="45.26006" lon="6.04848">
        <ele>1629.7</ele>
        <time>2024-05-04T11:43:48Z</time>
      </trkpt>
      <trkpt lat="45.26008" lon="6.04846">
        <ele>1629.9</ele>
        <time>2024-05-04T11:43:50Z</time>
      </trkpt>
      <trkpt lat="45.26016" lon="6.04838">
        <ele>1630.7</ele>
        <time>2024-05-04T11:44:00Z</time>
      </trkpt>
      <trkpt lat="45.2602" lon="6.04835">
        <ele>1630.7</ele>
        <time>2024-05-04T11:44:04Z</time>
      </trkpt>
      <trkpt lat="45.26023" lon="6.04832">
        <ele>1630.8</ele>
        <time>2024-05-04T11:44:06Z</time>
      </trkpt>
      <trkpt lat="45.26026" lon="6.0483">
        <ele>1630.6</ele>
        <time>2024-05-04T11:44:08Z</time>
      </trkpt>
      <trkpt lat="45.26029" lon="6.04826">
        <ele>1631</ele>
        <time>2024-05-04T11:44:12Z</time>
      </trkpt>
      <trkpt lat="45.26033" lon="6.04814">
        <ele>1633.9</ele>
        <time>2024-05-04T11:44:20Z</time>
      </trkpt>
      <trkpt lat="45.26036" lon="6.04811">
        <ele>1634.1</ele>
        <time>2024-05-04T11:44:23Z</time>
      </trkpt>
      <trkpt lat="45.26041" lon="6.04808">
        <ele>1633.8</ele>
        <time>2024-05-04T11:44:28Z</time>
      </trkpt>
      <trkpt lat="45.26043" lon="6.04806">
        <ele>1634</ele>
        <time>2024-05-04T11:44:30Z</time>
      </trkpt>
      <trkpt lat="45.26045" lon="6.04805">
        <ele>1633.9</ele>
        <time>2024-05-04T11:44:32Z</time>
      </trkpt>
      <trkpt lat="45.26051" lon="6.04808">
        <ele>1631.3</ele>
        <time>2024-05-04T11:44:38Z</time>
      </trkpt>
      <trkpt lat="45.26052" lon="6.04809">
        <ele>1630.7</ele>
        <time>2024-05-04T11:44:39Z</time>
      </trkpt>
      <trkpt lat="45.26054" lon="6.0481">
        <ele>1629.8</ele>
        <time>2024-05-04T11:44:41Z</time>
      </trkpt>
      <trkpt lat="45.26057" lon="6.0481">
        <ele>1629.9</ele>
        <time>2024-05-04T11:44:45Z</time>
      </trkpt>
      <trkpt lat="45.26059" lon="6.0481">
        <ele>1630.5</ele>
        <time>2024-05-04T11:44:46Z</time>
      </trkpt>
      <trkpt lat="45.26063" lon="6.04811">
        <ele>1631.5</ele>
        <time>2024-05-04T11:44:49Z</time>
      </trkpt>
      <trkpt lat="45.26067" lon="6.04814">
        <ele>1631.7</ele>
        <time>2024-05-04T11:44:52Z</time>
      </trkpt>
      <trkpt lat="45.26068" lon="6.04815">
        <ele>1631.6</ele>
        <time>2024-05-04T11:44:53Z</time>
      </trkpt>
      <trkpt lat="45.26069" lon="6.04816">
        <ele>1631.6</ele>
        <time>2024-05-04T11:44:54Z</time>
      </trkpt>
      <trkpt lat="45.26075" lon="6.04822">
        <ele>1631.4</ele>
        <time>2024-05-04T11:44:59Z</time>
      </trkpt>
      <trkpt lat="45.26077" lon="6.04825">
        <ele>1630.9</ele>
        <time>2024-05-04T11:45:01Z</time>
      </trkpt>
      <trkpt lat="45.26077" lon="6.04826">
        <ele>1630.6</ele>
        <time>2024-05-04T11:45:02Z</time>
      </trkpt>
      <trkpt lat="45.26085" lon="6.04833">
        <ele>1631.1</ele>
        <time>2024-05-04T11:45:09Z</time>
      </trkpt>
      <trkpt lat="45.26086" lon="6.04834">
        <ele>1631.3</ele>
        <time>2024-05-04T11:45:10Z</time>
      </trkpt>
      <trkpt lat="45.26086" lon="6.04835">
        <ele>1630.9</ele>
        <time>2024-05-04T11:45:11Z</time>
      </trkpt>
      <trkpt lat="45.26088" lon="6.04838">
        <ele>1631.1</ele>
        <time>2024-05-04T11:45:13Z</time>
      </trkpt>
      <trkpt lat="45.26093" lon="6.04847">
        <ele>1631</ele>
        <time>2024-05-04T11:45:19Z</time>
      </trkpt>
      <trkpt lat="45.26093" lon="6.04849">
        <ele>1630.3</ele>
        <time>2024-05-04T11:45:20Z</time>
      </trkpt>
      <trkpt lat="45.26096" lon="6.04852">
        <ele>1631.2</ele>
        <time>2024-05-04T11:45:24Z</time>
      </trkpt>
      <trkpt lat="45.26096" lon="6.04852">
        <ele>1631.2</ele>
        <time>2024-05-04T11:45:25Z</time>
      </trkpt>
      <trkpt lat="45.26097" lon="6.04854">
        <ele>1631.2</ele>
        <time>2024-05-04T11:45:27Z</time>
      </trkpt>
      <trkpt lat="45.26099" lon="6.04858">
        <ele>1631.1</ele>
        <time>2024-05-04T11:45:30Z</time>
      </trkpt>
      <trkpt lat="45.26101" lon="6.04861">
        <ele>1631.5</ele>
        <time>2024-05-04T11:45:32Z</time>
      </trkpt>
      <trkpt lat="45.26106" lon="6.04866">
        <ele>1632.9</ele>
        <time>2024-05-04T11:45:39Z</time>
      </trkpt>
      <trkpt lat="45.26107" lon="6.0487">
        <ele>1632.1</ele>
        <time>2024-05-04T11:45:41Z</time>
      </trkpt>
      <trkpt lat="45.26107" lon="6.04873">
        <ele>1631.1</ele>
        <time>2024-05-04T11:45:43Z</time>
      </trkpt>
      <trkpt lat="45.26108" lon="6.04877">
        <ele>1630.3</ele>
        <time>2024-05-04T11:45:46Z</time>
      </trkpt>
      <trkpt lat="45.26108" lon="6.04881">
        <ele>1628.8</ele>
        <time>2024-05-04T11:45:48Z</time>
      </trkpt>
      <trkpt lat="45.26109" lon="6.04883">
        <ele>1628.8</ele>
        <time>2024-05-04T11:45:50Z</time>
      </trkpt>
      <trkpt lat="45.2611" lon="6.04887">
        <ele>1628</ele>
        <time>2024-05-04T11:45:52Z</time>
      </trkpt>
      <trkpt lat="45.26112" lon="6.04896">
        <ele>1625.8</ele>
        <time>2024-05-04T11:45:57Z</time>
      </trkpt>
      <trkpt lat="45.26113" lon="6.04897">
        <ele>1626.2</ele>
        <time>2024-05-04T11:45:58Z</time>
      </trkpt>
      <trkpt lat="45.26113" lon="6.04901">
        <ele>1624.6</ele>
        <time>2024-05-04T11:46:02Z</time>
      </trkpt>
      <trkpt lat="45.26114" lon="6.04903">
        <ele>1624.5</ele>
        <time>2024-05-04T11:46:04Z</time>
      </trkpt>
      <trkpt lat="45.26115" lon="6.04905">
        <ele>1624.4</ele>
        <time>2024-05-04T11:46:06Z</time>
      </trkpt>
      <trkpt lat="45.26116" lon="6.04909">
        <ele>1623.5</ele>
        <time>2024-05-04T11:46:08Z</time>
      </trkpt>
      <trkpt lat="45.26116" lon="6.04912">
        <ele>1622.3</ele>
        <time>2024-05-04T11:46:10Z</time>
      </trkpt>
      <trkpt lat="45.26119" lon="6.04923">
        <ele>1619.7</ele>
        <time>2024-05-04T11:46:17Z</time>
      </trkpt>
      <trkpt lat="45.26121" lon="6.04927">
        <ele>1619.3</ele>
        <time>2024-05-04T11:46:20Z</time>
      </trkpt>
      <trkpt lat="45.26128" lon="6.04946">
        <ele>1615.1</ele>
        <time>2024-05-04T11:46:32Z</time>
      </trkpt>
      <trkpt lat="45.26128" lon="6.04949">
        <ele>1613.8</ele>
        <time>2024-05-04T11:46:34Z</time>
      </trkpt>
      <trkpt lat="45.26128" lon="6.0495">
        <ele>1613.3</ele>
        <time>2024-05-04T11:46:35Z</time>
      </trkpt>
      <trkpt lat="45.26131" lon="6.04955">
        <ele>1612.9</ele>
        <time>2024-05-04T11:46:40Z</time>
      </trkpt>
      <trkpt lat="45.26132" lon="6.04956">
        <ele>1613</ele>
        <time>2024-05-04T11:46:41Z</time>
      </trkpt>
      <trkpt lat="45.26136" lon="6.04971">
        <ele>1608.9</ele>
        <time>2024-05-04T11:46:52Z</time>
      </trkpt>
      <trkpt lat="45.2614" lon="6.04978">
        <ele>1607.7</ele>
        <time>2024-05-04T11:46:57Z</time>
      </trkpt>
      <trkpt lat="45.26149" lon="6.04988">
        <ele>1606.8</ele>
        <time>2024-05-04T11:47:07Z</time>
      </trkpt>
      <trkpt lat="45.26149" lon="6.04991">
        <ele>1605.1</ele>
        <time>2024-05-04T11:47:09Z</time>
      </trkpt>
      <trkpt lat="45.26151" lon="6.04998">
        <ele>1602</ele>
        <time>2024-05-04T11:47:14Z</time>
      </trkpt>
      <trkpt lat="45.26158" lon="6.05">
        <ele>1603.6</ele>
        <time>2024-05-04T11:47:21Z</time>
      </trkpt>
      <trkpt lat="45.26159" lon="6.05002">
        <ele>1602.7</ele>
        <time>2024-05-04T11:47:23Z</time>
      </trkpt>
      <trkpt lat="45.2616" lon="6.05004">
        <ele>1601.9</ele>
        <time>2024-05-04T11:47:25Z</time>
      </trkpt>
      <trkpt lat="45.26164" lon="6.05009">
        <ele>1600.2</ele>
        <time>2024-05-04T11:47:29Z</time>
      </trkpt>
      <trkpt lat="45.26167" lon="6.05009">
        <ele>1601.2</ele>
        <time>2024-05-04T11:47:32Z</time>
      </trkpt>
      <trkpt lat="45.2617" lon="6.0501">
        <ele>1600.6</ele>
        <time>2024-05-04T11:47:34Z</time>
      </trkpt>
      <trkpt lat="45.26173" lon="6.05011">
        <ele>1600.1</ele>
        <time>2024-05-04T11:47:37Z</time>
      </trkpt>
      <trkpt lat="45.26176" lon="6.05012">
        <ele>1599.6</ele>
        <time>2024-05-04T11:47:40Z</time>
      </trkpt>
      <trkpt lat="45.26178" lon="6.05013">
        <ele>1599</ele>
        <time>2024-05-04T11:47:42Z</time>
      </trkpt>
      <trkpt lat="45.26181" lon="6.05013">
        <ele>1599.1</ele>
        <time>2024-05-04T11:47:44Z</time>
      </trkpt>
      <trkpt lat="45.26187" lon="6.05014">
        <ele>1598.7</ele>
        <time>2024-05-04T11:47:48Z</time>
      </trkpt>
      <trkpt lat="45.26189" lon="6.05015">
        <ele>1598.1</ele>
        <time>2024-05-04T11:47:50Z</time>
      </trkpt>
      <trkpt lat="45.2619" lon="6.05015">
        <ele>1598.1</ele>
        <time>2024-05-04T11:47:52Z</time>
      </trkpt>
      <trkpt lat="45.26191" lon="6.05015">
        <ele>1598.2</ele>
        <time>2024-05-04T11:47:54Z</time>
      </trkpt>
      <trkpt lat="45.26195" lon="6.05011">
        <ele>1600.8</ele>
        <time>2024-05-04T11:47:59Z</time>
      </trkpt>
      <trkpt lat="45.26196" lon="6.0501">
        <ele>1601.2</ele>
        <time>2024-05-04T11:48:00Z</time>
      </trkpt>
      <trkpt lat="45.262" lon="6.0501">
        <ele>1600.5</ele>
        <time>2024-05-04T11:48:04Z</time>
      </trkpt>
      <trkpt lat="45.26201" lon="6.05009">
        <ele>1601</ele>
        <time>2024-05-04T11:48:05Z</time>
      </trkpt>
      <trkpt lat="45.26203" lon="6.05009">
        <ele>1600.6</ele>
        <time>2024-05-04T11:48:06Z</time>
      </trkpt>
      <trkpt lat="45.26208" lon="6.05006">
        <ele>1601.5</ele>
        <time>2024-05-04T11:48:11Z</time>
      </trkpt>
      <trkpt lat="45.26212" lon="6.05007">
        <ele>1600.1</ele>
        <time>2024-05-04T11:48:15Z</time>
      </trkpt>
      <trkpt lat="45.26215" lon="6.05006">
        <ele>1600.2</ele>
        <time>2024-05-04T11:48:19Z</time>
      </trkpt>
      <trkpt lat="45.26216" lon="6.05005">
        <ele>1600.5</ele>
        <time>2024-05-04T11:48:20Z</time>
      </trkpt>
      <trkpt lat="45.26219" lon="6.05005">
        <ele>1599.9</ele>
        <time>2024-05-04T11:48:24Z</time>
      </trkpt>
      <trkpt lat="45.26224" lon="6.05006">
        <ele>1598.4</ele>
        <time>2024-05-04T11:48:27Z</time>
      </trkpt>
      <trkpt lat="45.26226" lon="6.05004">
        <ele>1599.2</ele>
        <time>2024-05-04T11:48:29Z</time>
      </trkpt>
      <trkpt lat="45.26228" lon="6.05006">
        <ele>1597.7</ele>
        <time>2024-05-04T11:48:31Z</time>
      </trkpt>
      <trkpt lat="45.26231" lon="6.05006">
        <ele>1597.2</ele>
        <time>2024-05-04T11:48:34Z</time>
      </trkpt>
      <trkpt lat="45.26235" lon="6.05007">
        <ele>1595.9</ele>
        <time>2024-05-04T11:48:39Z</time>
      </trkpt>
      <trkpt lat="45.26238" lon="6.05007">
        <ele>1595.4</ele>
        <time>2024-05-04T11:48:41Z</time>
      </trkpt>
      <trkpt lat="45.26242" lon="6.05005">
        <ele>1595.7</ele>
        <time>2024-05-04T11:48:45Z</time>
      </trkpt>
      <trkpt lat="45.26244" lon="6.05004">
        <ele>1595.9</ele>
        <time>2024-05-04T11:48:46Z</time>
      </trkpt>
      <trkpt lat="45.26247" lon="6.05003">
        <ele>1595.9</ele>
        <time>2024-05-04T11:48:49Z</time>
      </trkpt>
      <trkpt lat="45.26249" lon="6.05002">
        <ele>1596.1</ele>
        <time>2024-05-04T11:48:50Z</time>
      </trkpt>
      <trkpt lat="45.26251" lon="6.05001">
        <ele>1596.3</ele>
        <time>2024-05-04T11:48:53Z</time>
      </trkpt>
      <trkpt lat="45.26252" lon="6.05">
        <ele>1596.6</ele>
        <time>2024-05-04T11:48:54Z</time>
      </trkpt>
      <trkpt lat="45.26254" lon="6.04999">
        <ele>1596.8</ele>
        <time>2024-05-04T11:48:57Z</time>
      </trkpt>
      <trkpt lat="45.26255" lon="6.04998">
        <ele>1597.1</ele>
        <time>2024-05-04T11:48:58Z</time>
      </trkpt>
      <trkpt lat="45.26256" lon="6.04997">
        <ele>1597.5</ele>
        <time>2024-05-04T11:49:00Z</time>
      </trkpt>
      <trkpt lat="45.26257" lon="6.04998">
        <ele>1596.8</ele>
        <time>2024-05-04T11:49:03Z</time>
      </trkpt>
      <trkpt lat="45.26263" lon="6.05">
        <ele>1594.7</ele>
        <time>2024-05-04T11:49:07Z</time>
      </trkpt>
      <trkpt lat="45.26267" lon="6.05">
        <ele>1593.9</ele>
        <time>2024-05-04T11:49:10Z</time>
      </trkpt>
      <trkpt lat="45.26268" lon="6.05">
        <ele>1593.8</ele>
        <time>2024-05-04T11:49:11Z</time>
      </trkpt>
      <trkpt lat="45.26273" lon="6.05004">
        <ele>1590.8</ele>
        <time>2024-05-04T11:49:15Z</time>
      </trkpt>
      <trkpt lat="45.26278" lon="6.05007">
        <ele>1588.4</ele>
        <time>2024-05-04T11:49:19Z</time>
      </trkpt>
      <trkpt lat="45.26285" lon="6.05008">
        <ele>1586.9</ele>
        <time>2024-05-04T11:49:25Z</time>
      </trkpt>
      <trkpt lat="45.2629" lon="6.05007">
        <ele>1586.7</ele>
        <time>2024-05-04T11:49:29Z</time>
      </trkpt>
      <trkpt lat="45.26294" lon="6.05001">
        <ele>1589.2</ele>
        <time>2024-05-04T11:49:32Z</time>
      </trkpt>
      <trkpt lat="45.26297" lon="6.05001">
        <ele>1588.7</ele>
        <time>2024-05-04T11:49:35Z</time>
      </trkpt>
      <trkpt lat="45.263" lon="6.04999">
        <ele>1589.3</ele>
        <time>2024-05-04T11:49:38Z</time>
      </trkpt>
      <trkpt lat="45.26303" lon="6.04999">
        <ele>1588.9</ele>
        <time>2024-05-04T11:49:41Z</time>
      </trkpt>
      <trkpt lat="45.26306" lon="6.04998">
        <ele>1589</ele>
        <time>2024-05-04T11:49:43Z</time>
      </trkpt>
      <trkpt lat="45.2631" lon="6.04997">
        <ele>1588.6</ele>
        <time>2024-05-04T11:49:45Z</time>
      </trkpt>
      <trkpt lat="45.26312" lon="6.04994">
        <ele>1589.8</ele>
        <time>2024-05-04T11:49:47Z</time>
      </trkpt>
      <trkpt lat="45.26317" lon="6.0499">
        <ele>1590.8</ele>
        <time>2024-05-04T11:49:51Z</time>
      </trkpt>
      <trkpt lat="45.26318" lon="6.0499">
        <ele>1590.6</ele>
        <time>2024-05-04T11:49:52Z</time>
      </trkpt>
      <trkpt lat="45.26321" lon="6.04993">
        <ele>1588.3</ele>
        <time>2024-05-04T11:49:54Z</time>
      </trkpt>
      <trkpt lat="45.26323" lon="6.04994">
        <ele>1587.3</ele>
        <time>2024-05-04T11:49:56Z</time>
      </trkpt>
      <trkpt lat="45.26326" lon="6.04993">
        <ele>1587.2</ele>
        <time>2024-05-04T11:49:59Z</time>
      </trkpt>
      <trkpt lat="45.26329" lon="6.04993">
        <ele>1586.5</ele>
        <time>2024-05-04T11:50:01Z</time>
      </trkpt>
      <trkpt lat="45.26331" lon="6.04993">
        <ele>1586.1</ele>
        <time>2024-05-04T11:50:02Z</time>
      </trkpt>
      <trkpt lat="45.26336" lon="6.04994">
        <ele>1584.3</ele>
        <time>2024-05-04T11:50:06Z</time>
      </trkpt>
      <trkpt lat="45.26337" lon="6.04994">
        <ele>1584</ele>
        <time>2024-05-04T11:50:07Z</time>
      </trkpt>
      <trkpt lat="45.26339" lon="6.04994">
        <ele>1583.4</ele>
        <time>2024-05-04T11:50:08Z</time>
      </trkpt>
      <trkpt lat="45.26344" lon="6.04993">
        <ele>1582.5</ele>
        <time>2024-05-04T11:50:12Z</time>
      </trkpt>
      <trkpt lat="45.26353" lon="6.04991">
        <ele>1580.9</ele>
        <time>2024-05-04T11:50:21Z</time>
      </trkpt>
      <trkpt lat="45.26359" lon="6.04987">
        <ele>1581.2</ele>
        <time>2024-05-04T11:50:26Z</time>
      </trkpt>
      <trkpt lat="45.26363" lon="6.04984">
        <ele>1581.5</ele>
        <time>2024-05-04T11:50:30Z</time>
      </trkpt>
      <trkpt lat="45.26372" lon="6.04983">
        <ele>1579.6</ele>
        <time>2024-05-04T11:50:37Z</time>
      </trkpt>
      <trkpt lat="45.26373" lon="6.04984">
        <ele>1578.8</ele>
        <time>2024-05-04T11:50:40Z</time>
      </trkpt>
      <trkpt lat="45.26374" lon="6.04985">
        <ele>1578.1</ele>
        <time>2024-05-04T11:50:41Z</time>
      </trkpt>
      <trkpt lat="45.26375" lon="6.04985">
        <ele>1577.8</ele>
        <time>2024-05-04T11:50:43Z</time>
      </trkpt>
      <trkpt lat="45.26377" lon="6.04985">
        <ele>1577.2</ele>
        <time>2024-05-04T11:50:45Z</time>
      </trkpt>
      <trkpt lat="45.26381" lon="6.04984">
        <ele>1576.6</ele>
        <time>2024-05-04T11:50:48Z</time>
      </trkpt>
      <trkpt lat="45.26384" lon="6.04985">
        <ele>1575.3</ele>
        <time>2024-05-04T11:50:50Z</time>
      </trkpt>
      <trkpt lat="45.26389" lon="6.04984">
        <ele>1574.5</ele>
        <time>2024-05-04T11:50:53Z</time>
      </trkpt>
      <trkpt lat="45.26395" lon="6.04981">
        <ele>1575</ele>
        <time>2024-05-04T11:50:58Z</time>
      </trkpt>
      <trkpt lat="45.26396" lon="6.04982">
        <ele>1574.4</ele>
        <time>2024-05-04T11:50:59Z</time>
      </trkpt>
      <trkpt lat="45.26399" lon="6.04982">
        <ele>1574</ele>
        <time>2024-05-04T11:51:02Z</time>
      </trkpt>
      <trkpt lat="45.26402" lon="6.04982">
        <ele>1573.5</ele>
        <time>2024-05-04T11:51:05Z</time>
      </trkpt>
      <trkpt lat="45.26403" lon="6.04982">
        <ele>1573.4</ele>
        <time>2024-05-04T11:51:06Z</time>
      </trkpt>
      <trkpt lat="45.26406" lon="6.0498">
        <ele>1573.9</ele>
        <time>2024-05-04T11:51:09Z</time>
      </trkpt>
      <trkpt lat="45.2641" lon="6.04977">
        <ele>1574.7</ele>
        <time>2024-05-04T11:51:12Z</time>
      </trkpt>
      <trkpt lat="45.26415" lon="6.04974">
        <ele>1575.4</ele>
        <time>2024-05-04T11:51:16Z</time>
      </trkpt>
      <trkpt lat="45.26416" lon="6.04973">
        <ele>1575.7</ele>
        <time>2024-05-04T11:51:17Z</time>
      </trkpt>
      <trkpt lat="45.26417" lon="6.04974">
        <ele>1575.2</ele>
        <time>2024-05-04T11:51:18Z</time>
      </trkpt>
      <trkpt lat="45.26422" lon="6.04975">
        <ele>1574.9</ele>
        <time>2024-05-04T11:51:22Z</time>
      </trkpt>
      <trkpt lat="45.26426" lon="6.04973">
        <ele>1576</ele>
        <time>2024-05-04T11:51:25Z</time>
      </trkpt>
      <trkpt lat="45.26432" lon="6.04976">
        <ele>1574.7</ele>
        <time>2024-05-04T11:51:30Z</time>
      </trkpt>
      <trkpt lat="45.26434" lon="6.04978">
        <ele>1573.8</ele>
        <time>2024-05-04T11:51:31Z</time>
      </trkpt>
      <trkpt lat="45.26435" lon="6.04979">
        <ele>1573.3</ele>
        <time>2024-05-04T11:51:32Z</time>
      </trkpt>
      <trkpt lat="45.2644" lon="6.04985">
        <ele>1570.5</ele>
        <time>2024-05-04T11:51:36Z</time>
      </trkpt>
      <trkpt lat="45.26441" lon="6.04989">
        <ele>1568.5</ele>
        <time>2024-05-04T11:51:38Z</time>
      </trkpt>
      <trkpt lat="45.26444" lon="6.04992">
        <ele>1567</ele>
        <time>2024-05-04T11:51:40Z</time>
      </trkpt>
      <trkpt lat="45.26449" lon="6.04993">
        <ele>1567.1</ele>
        <time>2024-05-04T11:51:44Z</time>
      </trkpt>
      <trkpt lat="45.26451" lon="6.04995">
        <ele>1566.3</ele>
        <time>2024-05-04T11:51:46Z</time>
      </trkpt>
      <trkpt lat="45.26452" lon="6.04997">
        <ele>1565.4</ele>
        <time>2024-05-04T11:51:49Z</time>
      </trkpt>
      <trkpt lat="45.26455" lon="6.04998">
        <ele>1565.2</ele>
        <time>2024-05-04T11:51:51Z</time>
      </trkpt>
      <trkpt lat="45.26458" lon="6.04999">
        <ele>1565</ele>
        <time>2024-05-04T11:51:54Z</time>
      </trkpt>
      <trkpt lat="45.26462" lon="6.05">
        <ele>1564.9</ele>
        <time>2024-05-04T11:51:58Z</time>
      </trkpt>
      <trkpt lat="45.26463" lon="6.05">
        <ele>1565</ele>
        <time>2024-05-04T11:51:59Z</time>
      </trkpt>
      <trkpt lat="45.26464" lon="6.05">
        <ele>1565.1</ele>
        <time>2024-05-04T11:52:00Z</time>
      </trkpt>
      <trkpt lat="45.26465" lon="6.05002">
        <ele>1564.2</ele>
        <time>2024-05-04T11:52:02Z</time>
      </trkpt>
      <trkpt lat="45.26468" lon="6.05002">
        <ele>1564.5</ele>
        <time>2024-05-04T11:52:05Z</time>
      </trkpt>
      <trkpt lat="45.26471" lon="6.05002">
        <ele>1564.8</ele>
        <time>2024-05-04T11:52:07Z</time>
      </trkpt>
      <trkpt lat="45.26472" lon="6.05003">
        <ele>1564.4</ele>
        <time>2024-05-04T11:52:09Z</time>
      </trkpt>
      <trkpt lat="45.26474" lon="6.05005">
        <ele>1563.4</ele>
        <time>2024-05-04T11:52:11Z</time>
      </trkpt>
      <trkpt lat="45.26479" lon="6.05007">
        <ele>1562.7</ele>
        <time>2024-05-04T11:52:15Z</time>
      </trkpt>
      <trkpt lat="45.26484" lon="6.05006">
        <ele>1563.6</ele>
        <time>2024-05-04T11:52:18Z</time>
      </trkpt>
      <trkpt lat="45.26487" lon="6.05006">
        <ele>1563.8</ele>
        <time>2024-05-04T11:52:21Z</time>
      </trkpt>
      <trkpt lat="45.26488" lon="6.05008">
        <ele>1562.8</ele>
        <time>2024-05-04T11:52:22Z</time>
      </trkpt>
      <trkpt lat="45.2649" lon="6.05008">
        <ele>1563</ele>
        <time>2024-05-04T11:52:25Z</time>
      </trkpt>
      <trkpt lat="45.26492" lon="6.05008">
        <ele>1563.1</ele>
        <time>2024-05-04T11:52:26Z</time>
      </trkpt>
      <trkpt lat="45.26494" lon="6.05009">
        <ele>1562.7</ele>
        <time>2024-05-04T11:52:28Z</time>
      </trkpt>
      <trkpt lat="45.26497" lon="6.05007">
        <ele>1564</ele>
        <time>2024-05-04T11:52:30Z</time>
      </trkpt>
      <trkpt lat="45.26502" lon="6.05006">
        <ele>1564.9</ele>
        <time>2024-05-04T11:52:33Z</time>
      </trkpt>
      <trkpt lat="45.26504" lon="6.05005">
        <ele>1565.6</ele>
        <time>2024-05-04T11:52:36Z</time>
      </trkpt>
      <trkpt lat="45.26505" lon="6.05009">
        <ele>1563.6</ele>
        <time>2024-05-04T11:52:39Z</time>
      </trkpt>
      <trkpt lat="45.26509" lon="6.05008">
        <ele>1564.4</ele>
        <time>2024-05-04T11:52:43Z</time>
      </trkpt>
      <trkpt lat="45.26513" lon="6.05009">
        <ele>1564.2</ele>
        <time>2024-05-04T11:52:47Z</time>
      </trkpt>
      <trkpt lat="45.26523" lon="6.05011">
        <ele>1564</ele>
        <time>2024-05-04T11:52:54Z</time>
      </trkpt>
      <trkpt lat="45.26525" lon="6.05011">
        <ele>1564.2</ele>
        <time>2024-05-04T11:52:55Z</time>
      </trkpt>
      <trkpt lat="45.26527" lon="6.05012">
        <ele>1563.9</ele>
        <time>2024-05-04T11:52:59Z</time>
      </trkpt>
      <trkpt lat="45.2653" lon="6.05013">
        <ele>1563.6</ele>
        <time>2024-05-04T11:53:01Z</time>
      </trkpt>
      <trkpt lat="45.26532" lon="6.05015">
        <ele>1562.8</ele>
        <time>2024-05-04T11:53:04Z</time>
      </trkpt>
      <trkpt lat="45.26537" lon="6.05013">
        <ele>1564.3</ele>
        <time>2024-05-04T11:53:09Z</time>
      </trkpt>
      <trkpt lat="45.26538" lon="6.05012">
        <ele>1564.8</ele>
        <time>2024-05-04T11:53:10Z</time>
      </trkpt>
      <trkpt lat="45.26542" lon="6.05013">
        <ele>1564.7</ele>
        <time>2024-05-04T11:53:13Z</time>
      </trkpt>
      <trkpt lat="45.26548" lon="6.05013">
        <ele>1565.2</ele>
        <time>2024-05-04T11:53:18Z</time>
      </trkpt>
      <trkpt lat="45.26549" lon="6.05013">
        <ele>1565.3</ele>
        <time>2024-05-04T11:53:19Z</time>
      </trkpt>
      <trkpt lat="45.26552" lon="6.05013">
        <ele>1565.6</ele>
        <time>2024-05-04T11:53:22Z</time>
      </trkpt>
      <trkpt lat="45.26555" lon="6.05012">
        <ele>1566.3</ele>
        <time>2024-05-04T11:53:24Z</time>
      </trkpt>
      <trkpt lat="45.26559" lon="6.05009">
        <ele>1567.7</ele>
        <time>2024-05-04T11:53:26Z</time>
      </trkpt>
      <trkpt lat="45.26564" lon="6.0501">
        <ele>1567.2</ele>
        <time>2024-05-04T11:53:30Z</time>
      </trkpt>
      <trkpt lat="45.26566" lon="6.05013">
        <ele>1565.9</ele>
        <time>2024-05-04T11:53:32Z</time>
      </trkpt>
      <trkpt lat="45.2657" lon="6.05018">
        <ele>1563.7</ele>
        <time>2024-05-04T11:53:35Z</time>
      </trkpt>
      <trkpt lat="45.2657" lon="6.05019">
        <ele>1563.3</ele>
        <time>2024-05-04T11:53:36Z</time>
      </trkpt>
      <trkpt lat="45.2657" lon="6.05021">
        <ele>1562.4</ele>
        <time>2024-05-04T11:53:37Z</time>
      </trkpt>
      <trkpt lat="45.26572" lon="6.05022">
        <ele>1562</ele>
        <time>2024-05-04T11:53:39Z</time>
      </trkpt>
      <trkpt lat="45.26574" lon="6.05024">
        <ele>1561.3</ele>
        <time>2024-05-04T11:53:41Z</time>
      </trkpt>
      <trkpt lat="45.26578" lon="6.05028">
        <ele>1559.7</ele>
        <time>2024-05-04T11:53:45Z</time>
      </trkpt>
      <trkpt lat="45.26579" lon="6.05034">
        <ele>1557.1</ele>
        <time>2024-05-04T11:53:47Z</time>
      </trkpt>
      <trkpt lat="45.2658" lon="6.05035">
        <ele>1556.7</ele>
        <time>2024-05-04T11:53:49Z</time>
      </trkpt>
      <trkpt lat="45.26583" lon="6.0504">
        <ele>1554.7</ele>
        <time>2024-05-04T11:53:52Z</time>
      </trkpt>
      <trkpt lat="45.26584" lon="6.05041">
        <ele>1554.3</ele>
        <time>2024-05-04T11:53:54Z</time>
      </trkpt>
      <trkpt lat="45.26586" lon="6.0504">
        <ele>1554.7</ele>
        <time>2024-05-04T11:53:56Z</time>
      </trkpt>
      <trkpt lat="45.26591" lon="6.05045">
        <ele>1552.5</ele>
        <time>2024-05-04T11:54:01Z</time>
      </trkpt>
      <trkpt lat="45.26592" lon="6.05046">
        <ele>1552.1</ele>
        <time>2024-05-04T11:54:02Z</time>
      </trkpt>
      <trkpt lat="45.26593" lon="6.05047">
        <ele>1551.7</ele>
        <time>2024-05-04T11:54:04Z</time>
      </trkpt>
      <trkpt lat="45.26597" lon="6.05046">
        <ele>1552.1</ele>
        <time>2024-05-04T11:54:08Z</time>
      </trkpt>
      <trkpt lat="45.26603" lon="6.05052">
        <ele>1550</ele>
        <time>2024-05-04T11:54:14Z</time>
      </trkpt>
      <trkpt lat="45.26607" lon="6.05056">
        <ele>1548.7</ele>
        <time>2024-05-04T11:54:18Z</time>
      </trkpt>
      <trkpt lat="45.26611" lon="6.05061">
        <ele>1546.8</ele>
        <time>2024-05-04T11:54:21Z</time>
      </trkpt>
      <trkpt lat="45.26618" lon="6.05058">
        <ele>1547.6</ele>
        <time>2024-05-04T11:54:26Z</time>
      </trkpt>
    </trkseg>
  </trk>
</gpx>